<?xml version="1.0" encoding="UTF-8" standalone="no" ?>
<gpx xmlns="http://www.topografix.com/GPX/1/1" xmlns:xsi="http://www.w3.org/2001/XMLSchema-instance" xsi:schemaLocation="http://www.topografix.com/GPX/1/1 http://www.topografix.com/GPX/1/1/gpx.xsd" version="1.1" creator="VisuGPX - https://www.visugpx.com">
  <metadata>
    <name>Autour du radome</name>
    <desc><![CDATA[Sortie dans la neige avec Julien, Max et Remy]]></desc>
  </metadata>
  <trk>
    <name><![CDATA[Autour du Radome]]></name>
    <trkseg>
      <trkpt lat="43.68087" lon="6.97163">
        <ele>441</ele>
        <time>2012-12-02T09:15:43Z</time>
      </trkpt>
      <trkpt lat="43.68072" lon="6.97127">
        <ele>436</ele>
        <time>2012-12-02T09:15:53Z</time>
      </trkpt>
      <trkpt lat="43.68074" lon="6.97106">
        <ele>433</ele>
        <time>2012-12-02T09:15:58Z</time>
      </trkpt>
      <trkpt lat="43.6808" lon="6.97087">
        <ele>433</ele>
        <time>2012-12-02T09:16:04Z</time>
      </trkpt>
      <trkpt lat="43.68088" lon="6.97075">
        <ele>433</ele>
        <time>2012-12-02T09:16:09Z</time>
      </trkpt>
      <trkpt lat="43.681" lon="6.97063">
        <ele>433</ele>
        <time>2012-12-02T09:16:15Z</time>
      </trkpt>
      <trkpt lat="43.68108" lon="6.97054">
        <ele>433</ele>
        <time>2012-12-02T09:16:20Z</time>
      </trkpt>
      <trkpt lat="43.68117" lon="6.97046">
        <ele>433</ele>
        <time>2012-12-02T09:16:25Z</time>
      </trkpt>
      <trkpt lat="43.68125" lon="6.97035">
        <ele>433</ele>
        <time>2012-12-02T09:16:30Z</time>
      </trkpt>
      <trkpt lat="43.68133" lon="6.9702">
        <ele>433</ele>
        <time>2012-12-02T09:16:36Z</time>
      </trkpt>
      <trkpt lat="43.68139" lon="6.97007">
        <ele>433</ele>
        <time>2012-12-02T09:16:41Z</time>
      </trkpt>
      <trkpt lat="43.68143" lon="6.96995">
        <ele>433</ele>
        <time>2012-12-02T09:16:46Z</time>
      </trkpt>
      <trkpt lat="43.68151" lon="6.96985">
        <ele>436</ele>
        <time>2012-12-02T09:16:52Z</time>
      </trkpt>
      <trkpt lat="43.68159" lon="6.96978">
        <ele>441</ele>
        <time>2012-12-02T09:16:57Z</time>
      </trkpt>
      <trkpt lat="43.68168" lon="6.96975">
        <ele>451</ele>
        <time>2012-12-02T09:17:02Z</time>
      </trkpt>
      <trkpt lat="43.68175" lon="6.96971">
        <ele>461</ele>
        <time>2012-12-02T09:17:08Z</time>
      </trkpt>
      <trkpt lat="43.68179" lon="6.96971">
        <ele>464</ele>
        <time>2012-12-02T09:17:13Z</time>
      </trkpt>
      <trkpt lat="43.68184" lon="6.96965">
        <ele>463</ele>
        <time>2012-12-02T09:17:19Z</time>
      </trkpt>
      <trkpt lat="43.68187" lon="6.96958">
        <ele>458</ele>
        <time>2012-12-02T09:17:26Z</time>
      </trkpt>
      <trkpt lat="43.68189" lon="6.96951">
        <ele>452</ele>
        <time>2012-12-02T09:17:32Z</time>
      </trkpt>
      <trkpt lat="43.68192" lon="6.96944">
        <ele>448</ele>
        <time>2012-12-02T09:17:37Z</time>
      </trkpt>
      <trkpt lat="43.68196" lon="6.96936">
        <ele>448</ele>
        <time>2012-12-02T09:17:43Z</time>
      </trkpt>
      <trkpt lat="43.68201" lon="6.96926">
        <ele>448</ele>
        <time>2012-12-02T09:17:49Z</time>
      </trkpt>
      <trkpt lat="43.68206" lon="6.96919">
        <ele>448</ele>
        <time>2012-12-02T09:17:54Z</time>
      </trkpt>
      <trkpt lat="43.6821" lon="6.96911">
        <ele>448</ele>
        <time>2012-12-02T09:17:59Z</time>
      </trkpt>
      <trkpt lat="43.68215" lon="6.96902">
        <ele>448</ele>
        <time>2012-12-02T09:18:04Z</time>
      </trkpt>
      <trkpt lat="43.68222" lon="6.9689">
        <ele>448</ele>
        <time>2012-12-02T09:18:10Z</time>
      </trkpt>
      <trkpt lat="43.68227" lon="6.9688">
        <ele>448</ele>
        <time>2012-12-02T09:18:15Z</time>
      </trkpt>
      <trkpt lat="43.68231" lon="6.9687">
        <ele>448</ele>
        <time>2012-12-02T09:18:20Z</time>
      </trkpt>
      <trkpt lat="43.68235" lon="6.96859">
        <ele>448</ele>
        <time>2012-12-02T09:18:25Z</time>
      </trkpt>
      <trkpt lat="43.68238" lon="6.96848">
        <ele>448</ele>
        <time>2012-12-02T09:18:31Z</time>
      </trkpt>
      <trkpt lat="43.6824" lon="6.96839">
        <ele>448</ele>
        <time>2012-12-02T09:18:36Z</time>
      </trkpt>
      <trkpt lat="43.68243" lon="6.96829">
        <ele>448</ele>
        <time>2012-12-02T09:18:41Z</time>
      </trkpt>
      <trkpt lat="43.68246" lon="6.9682">
        <ele>449</ele>
        <time>2012-12-02T09:18:47Z</time>
      </trkpt>
      <trkpt lat="43.6825" lon="6.96813">
        <ele>449</ele>
        <time>2012-12-02T09:18:52Z</time>
      </trkpt>
      <trkpt lat="43.68254" lon="6.96806">
        <ele>450</ele>
        <time>2012-12-02T09:18:58Z</time>
      </trkpt>
      <trkpt lat="43.6826" lon="6.96801">
        <ele>452</ele>
        <time>2012-12-02T09:19:04Z</time>
      </trkpt>
      <trkpt lat="43.68265" lon="6.96793">
        <ele>452</ele>
        <time>2012-12-02T09:19:10Z</time>
      </trkpt>
      <trkpt lat="43.68269" lon="6.96786">
        <ele>454</ele>
        <time>2012-12-02T09:19:15Z</time>
      </trkpt>
      <trkpt lat="43.68274" lon="6.96777">
        <ele>456</ele>
        <time>2012-12-02T09:19:21Z</time>
      </trkpt>
      <trkpt lat="43.68279" lon="6.9677">
        <ele>459</ele>
        <time>2012-12-02T09:19:27Z</time>
      </trkpt>
      <trkpt lat="43.68284" lon="6.96762">
        <ele>460</ele>
        <time>2012-12-02T09:19:33Z</time>
      </trkpt>
      <trkpt lat="43.68287" lon="6.96754">
        <ele>460</ele>
        <time>2012-12-02T09:19:38Z</time>
      </trkpt>
      <trkpt lat="43.68294" lon="6.96748">
        <ele>461</ele>
        <time>2012-12-02T09:19:44Z</time>
      </trkpt>
      <trkpt lat="43.68299" lon="6.96743">
        <ele>462</ele>
        <time>2012-12-02T09:19:49Z</time>
      </trkpt>
      <trkpt lat="43.68301" lon="6.96737">
        <ele>463</ele>
        <time>2012-12-02T09:19:54Z</time>
      </trkpt>
      <trkpt lat="43.68304" lon="6.9673">
        <ele>464</ele>
        <time>2012-12-02T09:19:59Z</time>
      </trkpt>
      <trkpt lat="43.68306" lon="6.96721">
        <ele>464</ele>
        <time>2012-12-02T09:20:04Z</time>
      </trkpt>
      <trkpt lat="43.68308" lon="6.96711">
        <ele>466</ele>
        <time>2012-12-02T09:20:09Z</time>
      </trkpt>
      <trkpt lat="43.68311" lon="6.96702">
        <ele>468</ele>
        <time>2012-12-02T09:20:15Z</time>
      </trkpt>
      <trkpt lat="43.68315" lon="6.96695">
        <ele>468</ele>
        <time>2012-12-02T09:20:20Z</time>
      </trkpt>
      <trkpt lat="43.68319" lon="6.96688">
        <ele>470</ele>
        <time>2012-12-02T09:20:26Z</time>
      </trkpt>
      <trkpt lat="43.68324" lon="6.96682">
        <ele>471</ele>
        <time>2012-12-02T09:20:32Z</time>
      </trkpt>
      <trkpt lat="43.6833" lon="6.96677">
        <ele>472</ele>
        <time>2012-12-02T09:20:38Z</time>
      </trkpt>
      <trkpt lat="43.68336" lon="6.9668">
        <ele>473</ele>
        <time>2012-12-02T09:20:44Z</time>
      </trkpt>
      <trkpt lat="43.6834" lon="6.96686">
        <ele>473</ele>
        <time>2012-12-02T09:20:49Z</time>
      </trkpt>
      <trkpt lat="43.68345" lon="6.96691">
        <ele>474</ele>
        <time>2012-12-02T09:20:54Z</time>
      </trkpt>
      <trkpt lat="43.68349" lon="6.96697">
        <ele>475</ele>
        <time>2012-12-02T09:20:59Z</time>
      </trkpt>
      <trkpt lat="43.68353" lon="6.96706">
        <ele>476</ele>
        <time>2012-12-02T09:21:05Z</time>
      </trkpt>
      <trkpt lat="43.68356" lon="6.96715">
        <ele>477</ele>
        <time>2012-12-02T09:21:11Z</time>
      </trkpt>
      <trkpt lat="43.68361" lon="6.9672">
        <ele>479</ele>
        <time>2012-12-02T09:21:17Z</time>
      </trkpt>
      <trkpt lat="43.68365" lon="6.96715">
        <ele>479</ele>
        <time>2012-12-02T09:21:22Z</time>
      </trkpt>
      <trkpt lat="43.68367" lon="6.96705">
        <ele>481</ele>
        <time>2012-12-02T09:21:28Z</time>
      </trkpt>
      <trkpt lat="43.68368" lon="6.96698">
        <ele>482</ele>
        <time>2012-12-02T09:21:33Z</time>
      </trkpt>
      <trkpt lat="43.68372" lon="6.96692">
        <ele>484</ele>
        <time>2012-12-02T09:21:38Z</time>
      </trkpt>
      <trkpt lat="43.68376" lon="6.96685">
        <ele>485</ele>
        <time>2012-12-02T09:21:43Z</time>
      </trkpt>
      <trkpt lat="43.68377" lon="6.96676">
        <ele>487</ele>
        <time>2012-12-02T09:21:49Z</time>
      </trkpt>
      <trkpt lat="43.68382" lon="6.9667">
        <ele>489</ele>
        <time>2012-12-02T09:21:55Z</time>
      </trkpt>
      <trkpt lat="43.68389" lon="6.96667">
        <ele>490</ele>
        <time>2012-12-02T09:22:01Z</time>
      </trkpt>
      <trkpt lat="43.68393" lon="6.96672">
        <ele>491</ele>
        <time>2012-12-02T09:22:06Z</time>
      </trkpt>
      <trkpt lat="43.68396" lon="6.96679">
        <ele>492</ele>
        <time>2012-12-02T09:22:11Z</time>
      </trkpt>
      <trkpt lat="43.68395" lon="6.96687">
        <ele>492</ele>
        <time>2012-12-02T09:22:16Z</time>
      </trkpt>
      <trkpt lat="43.68398" lon="6.96689">
        <ele>493</ele>
        <time>2012-12-02T09:22:21Z</time>
      </trkpt>
      <trkpt lat="43.68399" lon="6.96687">
        <ele>495</ele>
        <time>2012-12-02T09:22:27Z</time>
      </trkpt>
      <trkpt lat="43.68399" lon="6.96676">
        <ele>495</ele>
        <time>2012-12-02T09:22:32Z</time>
      </trkpt>
      <trkpt lat="43.68398" lon="6.96663">
        <ele>495</ele>
        <time>2012-12-02T09:22:37Z</time>
      </trkpt>
      <trkpt lat="43.68398" lon="6.96651">
        <ele>495</ele>
        <time>2012-12-02T09:22:42Z</time>
      </trkpt>
      <trkpt lat="43.68398" lon="6.96635">
        <ele>495</ele>
        <time>2012-12-02T09:22:48Z</time>
      </trkpt>
      <trkpt lat="43.684" lon="6.96622">
        <ele>495</ele>
        <time>2012-12-02T09:22:53Z</time>
      </trkpt>
      <trkpt lat="43.68402" lon="6.96609">
        <ele>495</ele>
        <time>2012-12-02T09:22:58Z</time>
      </trkpt>
      <trkpt lat="43.68404" lon="6.96599">
        <ele>495</ele>
        <time>2012-12-02T09:23:04Z</time>
      </trkpt>
      <trkpt lat="43.68406" lon="6.96592">
        <ele>495</ele>
        <time>2012-12-02T09:23:09Z</time>
      </trkpt>
      <trkpt lat="43.68408" lon="6.96574">
        <ele>495</ele>
        <time>2012-12-02T09:23:14Z</time>
      </trkpt>
      <trkpt lat="43.68409" lon="6.96556">
        <ele>495</ele>
        <time>2012-12-02T09:23:19Z</time>
      </trkpt>
      <trkpt lat="43.68409" lon="6.96537">
        <ele>495</ele>
        <time>2012-12-02T09:23:24Z</time>
      </trkpt>
      <trkpt lat="43.68408" lon="6.9652">
        <ele>495</ele>
        <time>2012-12-02T09:23:29Z</time>
      </trkpt>
      <trkpt lat="43.68406" lon="6.96504">
        <ele>495</ele>
        <time>2012-12-02T09:23:34Z</time>
      </trkpt>
      <trkpt lat="43.68406" lon="6.96492">
        <ele>495</ele>
        <time>2012-12-02T09:23:40Z</time>
      </trkpt>
      <trkpt lat="43.68406" lon="6.96491">
        <ele>495</ele>
        <time>2012-12-02T09:24:26Z</time>
      </trkpt>
      <trkpt lat="43.68405" lon="6.96489">
        <ele>495</ele>
        <time>2012-12-02T09:25:26Z</time>
      </trkpt>
      <trkpt lat="43.68406" lon="6.96478">
        <ele>495</ele>
        <time>2012-12-02T09:25:31Z</time>
      </trkpt>
      <trkpt lat="43.6841" lon="6.96458">
        <ele>495</ele>
        <time>2012-12-02T09:25:37Z</time>
      </trkpt>
      <trkpt lat="43.68419" lon="6.96442">
        <ele>495</ele>
        <time>2012-12-02T09:25:42Z</time>
      </trkpt>
      <trkpt lat="43.68427" lon="6.96422">
        <ele>495</ele>
        <time>2012-12-02T09:25:47Z</time>
      </trkpt>
      <trkpt lat="43.68433" lon="6.96407">
        <ele>495</ele>
        <time>2012-12-02T09:25:52Z</time>
      </trkpt>
      <trkpt lat="43.68439" lon="6.9639">
        <ele>495</ele>
        <time>2012-12-02T09:25:57Z</time>
      </trkpt>
      <trkpt lat="43.68444" lon="6.96366">
        <ele>495</ele>
        <time>2012-12-02T09:26:02Z</time>
      </trkpt>
      <trkpt lat="43.68449" lon="6.96347">
        <ele>495</ele>
        <time>2012-12-02T09:26:07Z</time>
      </trkpt>
      <trkpt lat="43.68452" lon="6.96329">
        <ele>495</ele>
        <time>2012-12-02T09:26:12Z</time>
      </trkpt>
      <trkpt lat="43.68457" lon="6.96313">
        <ele>495</ele>
        <time>2012-12-02T09:26:17Z</time>
      </trkpt>
      <trkpt lat="43.6846" lon="6.96298">
        <ele>495</ele>
        <time>2012-12-02T09:26:22Z</time>
      </trkpt>
      <trkpt lat="43.6846" lon="6.9628">
        <ele>495</ele>
        <time>2012-12-02T09:26:27Z</time>
      </trkpt>
      <trkpt lat="43.68455" lon="6.96262">
        <ele>495</ele>
        <time>2012-12-02T09:26:32Z</time>
      </trkpt>
      <trkpt lat="43.68445" lon="6.96242">
        <ele>495</ele>
        <time>2012-12-02T09:26:37Z</time>
      </trkpt>
      <trkpt lat="43.68438" lon="6.96215">
        <ele>495</ele>
        <time>2012-12-02T09:26:42Z</time>
      </trkpt>
      <trkpt lat="43.68426" lon="6.96185">
        <ele>495</ele>
        <time>2012-12-02T09:26:47Z</time>
      </trkpt>
      <trkpt lat="43.6842" lon="6.96176">
        <ele>493</ele>
        <time>2012-12-02T09:26:52Z</time>
      </trkpt>
      <trkpt lat="43.68426" lon="6.96185">
        <ele>493</ele>
        <time>2012-12-02T09:26:57Z</time>
      </trkpt>
      <trkpt lat="43.68433" lon="6.96199">
        <ele>493</ele>
        <time>2012-12-02T09:27:02Z</time>
      </trkpt>
      <trkpt lat="43.68438" lon="6.96213">
        <ele>493</ele>
        <time>2012-12-02T09:27:07Z</time>
      </trkpt>
      <trkpt lat="43.68442" lon="6.96227">
        <ele>493</ele>
        <time>2012-12-02T09:27:12Z</time>
      </trkpt>
      <trkpt lat="43.68444" lon="6.96239">
        <ele>493</ele>
        <time>2012-12-02T09:27:17Z</time>
      </trkpt>
      <trkpt lat="43.68449" lon="6.96245">
        <ele>493</ele>
        <time>2012-12-02T09:27:22Z</time>
      </trkpt>
      <trkpt lat="43.68451" lon="6.96243">
        <ele>493</ele>
        <time>2012-12-02T09:27:27Z</time>
      </trkpt>
      <trkpt lat="43.6845" lon="6.9624">
        <ele>493</ele>
        <time>2012-12-02T09:27:33Z</time>
      </trkpt>
      <trkpt lat="43.68448" lon="6.96234">
        <ele>493</ele>
        <time>2012-12-02T09:27:39Z</time>
      </trkpt>
      <trkpt lat="43.68446" lon="6.96221">
        <ele>493</ele>
        <time>2012-12-02T09:27:44Z</time>
      </trkpt>
      <trkpt lat="43.68441" lon="6.96207">
        <ele>493</ele>
        <time>2012-12-02T09:27:50Z</time>
      </trkpt>
      <trkpt lat="43.68436" lon="6.96193">
        <ele>493</ele>
        <time>2012-12-02T09:27:55Z</time>
      </trkpt>
      <trkpt lat="43.68432" lon="6.96174">
        <ele>493</ele>
        <time>2012-12-02T09:28:00Z</time>
      </trkpt>
      <trkpt lat="43.68433" lon="6.96156">
        <ele>493</ele>
        <time>2012-12-02T09:28:05Z</time>
      </trkpt>
      <trkpt lat="43.68438" lon="6.96141">
        <ele>493</ele>
        <time>2012-12-02T09:28:10Z</time>
      </trkpt>
      <trkpt lat="43.68447" lon="6.96125">
        <ele>493</ele>
        <time>2012-12-02T09:28:16Z</time>
      </trkpt>
      <trkpt lat="43.68452" lon="6.96111">
        <ele>493</ele>
        <time>2012-12-02T09:28:21Z</time>
      </trkpt>
      <trkpt lat="43.6846" lon="6.96102">
        <ele>493</ele>
        <time>2012-12-02T09:28:26Z</time>
      </trkpt>
      <trkpt lat="43.68461" lon="6.96089">
        <ele>493</ele>
        <time>2012-12-02T09:28:31Z</time>
      </trkpt>
      <trkpt lat="43.68458" lon="6.9607">
        <ele>493</ele>
        <time>2012-12-02T09:28:36Z</time>
      </trkpt>
      <trkpt lat="43.68455" lon="6.96051">
        <ele>493</ele>
        <time>2012-12-02T09:28:41Z</time>
      </trkpt>
      <trkpt lat="43.68447" lon="6.96034">
        <ele>494</ele>
        <time>2012-12-02T09:28:46Z</time>
      </trkpt>
      <trkpt lat="43.68436" lon="6.96014">
        <ele>494</ele>
        <time>2012-12-02T09:28:51Z</time>
      </trkpt>
      <trkpt lat="43.68426" lon="6.95993">
        <ele>494</ele>
        <time>2012-12-02T09:28:56Z</time>
      </trkpt>
      <trkpt lat="43.68424" lon="6.95966">
        <ele>494</ele>
        <time>2012-12-02T09:29:01Z</time>
      </trkpt>
      <trkpt lat="43.68423" lon="6.95947">
        <ele>494</ele>
        <time>2012-12-02T09:29:06Z</time>
      </trkpt>
      <trkpt lat="43.68428" lon="6.95925">
        <ele>494</ele>
        <time>2012-12-02T09:29:11Z</time>
      </trkpt>
      <trkpt lat="43.68434" lon="6.9591">
        <ele>494</ele>
        <time>2012-12-02T09:29:16Z</time>
      </trkpt>
      <trkpt lat="43.68442" lon="6.95894">
        <ele>494</ele>
        <time>2012-12-02T09:29:21Z</time>
      </trkpt>
      <trkpt lat="43.68448" lon="6.95877">
        <ele>494</ele>
        <time>2012-12-02T09:29:26Z</time>
      </trkpt>
      <trkpt lat="43.68453" lon="6.95858">
        <ele>494</ele>
        <time>2012-12-02T09:29:31Z</time>
      </trkpt>
      <trkpt lat="43.68455" lon="6.95841">
        <ele>494</ele>
        <time>2012-12-02T09:29:36Z</time>
      </trkpt>
      <trkpt lat="43.68457" lon="6.95824">
        <ele>494</ele>
        <time>2012-12-02T09:29:41Z</time>
      </trkpt>
      <trkpt lat="43.68462" lon="6.95807">
        <ele>494</ele>
        <time>2012-12-02T09:29:46Z</time>
      </trkpt>
      <trkpt lat="43.6847" lon="6.95792">
        <ele>494</ele>
        <time>2012-12-02T09:29:51Z</time>
      </trkpt>
      <trkpt lat="43.68475" lon="6.95771">
        <ele>494</ele>
        <time>2012-12-02T09:29:56Z</time>
      </trkpt>
      <trkpt lat="43.68475" lon="6.9575">
        <ele>494</ele>
        <time>2012-12-02T09:30:01Z</time>
      </trkpt>
      <trkpt lat="43.68476" lon="6.95732">
        <ele>494</ele>
        <time>2012-12-02T09:30:06Z</time>
      </trkpt>
      <trkpt lat="43.68474" lon="6.95712">
        <ele>494</ele>
        <time>2012-12-02T09:30:11Z</time>
      </trkpt>
      <trkpt lat="43.68474" lon="6.9569">
        <ele>494</ele>
        <time>2012-12-02T09:30:16Z</time>
      </trkpt>
      <trkpt lat="43.6848" lon="6.95673">
        <ele>494</ele>
        <time>2012-12-02T09:30:21Z</time>
      </trkpt>
      <trkpt lat="43.68481" lon="6.95653">
        <ele>494</ele>
        <time>2012-12-02T09:30:26Z</time>
      </trkpt>
      <trkpt lat="43.6848" lon="6.95626">
        <ele>494</ele>
        <time>2012-12-02T09:30:31Z</time>
      </trkpt>
      <trkpt lat="43.68474" lon="6.95602">
        <ele>495</ele>
        <time>2012-12-02T09:30:36Z</time>
      </trkpt>
      <trkpt lat="43.68467" lon="6.95578">
        <ele>495</ele>
        <time>2012-12-02T09:30:41Z</time>
      </trkpt>
      <trkpt lat="43.68459" lon="6.95553">
        <ele>495</ele>
        <time>2012-12-02T09:30:46Z</time>
      </trkpt>
      <trkpt lat="43.68452" lon="6.9553">
        <ele>495</ele>
        <time>2012-12-02T09:30:51Z</time>
      </trkpt>
      <trkpt lat="43.68449" lon="6.95509">
        <ele>495</ele>
        <time>2012-12-02T09:30:56Z</time>
      </trkpt>
      <trkpt lat="43.6845" lon="6.95496">
        <ele>495</ele>
        <time>2012-12-02T09:31:05Z</time>
      </trkpt>
      <trkpt lat="43.68449" lon="6.95481">
        <ele>495</ele>
        <time>2012-12-02T09:31:10Z</time>
      </trkpt>
      <trkpt lat="43.68449" lon="6.95461">
        <ele>495</ele>
        <time>2012-12-02T09:31:15Z</time>
      </trkpt>
      <trkpt lat="43.68447" lon="6.95439">
        <ele>495</ele>
        <time>2012-12-02T09:31:20Z</time>
      </trkpt>
      <trkpt lat="43.68441" lon="6.95418">
        <ele>495</ele>
        <time>2012-12-02T09:31:25Z</time>
      </trkpt>
      <trkpt lat="43.68436" lon="6.95396">
        <ele>495</ele>
        <time>2012-12-02T09:31:30Z</time>
      </trkpt>
      <trkpt lat="43.68437" lon="6.9538">
        <ele>495</ele>
        <time>2012-12-02T09:31:35Z</time>
      </trkpt>
      <trkpt lat="43.6844" lon="6.95364">
        <ele>495</ele>
        <time>2012-12-02T09:31:40Z</time>
      </trkpt>
      <trkpt lat="43.68432" lon="6.95345">
        <ele>495</ele>
        <time>2012-12-02T09:31:45Z</time>
      </trkpt>
      <trkpt lat="43.68421" lon="6.9533">
        <ele>495</ele>
        <time>2012-12-02T09:31:50Z</time>
      </trkpt>
      <trkpt lat="43.68414" lon="6.95315">
        <ele>495</ele>
        <time>2012-12-02T09:31:55Z</time>
      </trkpt>
      <trkpt lat="43.68404" lon="6.95303">
        <ele>495</ele>
        <time>2012-12-02T09:32:00Z</time>
      </trkpt>
      <trkpt lat="43.68394" lon="6.95293">
        <ele>495</ele>
        <time>2012-12-02T09:32:05Z</time>
      </trkpt>
      <trkpt lat="43.68388" lon="6.95281">
        <ele>495</ele>
        <time>2012-12-02T09:32:10Z</time>
      </trkpt>
      <trkpt lat="43.68386" lon="6.95269">
        <ele>495</ele>
        <time>2012-12-02T09:32:15Z</time>
      </trkpt>
      <trkpt lat="43.68381" lon="6.95256">
        <ele>495</ele>
        <time>2012-12-02T09:32:20Z</time>
      </trkpt>
      <trkpt lat="43.68373" lon="6.95239">
        <ele>495</ele>
        <time>2012-12-02T09:32:25Z</time>
      </trkpt>
      <trkpt lat="43.68366" lon="6.95222">
        <ele>495</ele>
        <time>2012-12-02T09:32:30Z</time>
      </trkpt>
      <trkpt lat="43.68357" lon="6.95206">
        <ele>495</ele>
        <time>2012-12-02T09:32:35Z</time>
      </trkpt>
      <trkpt lat="43.6835" lon="6.9519">
        <ele>495</ele>
        <time>2012-12-02T09:32:40Z</time>
      </trkpt>
      <trkpt lat="43.68344" lon="6.95173">
        <ele>497</ele>
        <time>2012-12-02T09:32:45Z</time>
      </trkpt>
      <trkpt lat="43.68338" lon="6.9516">
        <ele>497</ele>
        <time>2012-12-02T09:32:51Z</time>
      </trkpt>
      <trkpt lat="43.68332" lon="6.95148">
        <ele>497</ele>
        <time>2012-12-02T09:32:56Z</time>
      </trkpt>
      <trkpt lat="43.68329" lon="6.9514">
        <ele>497</ele>
        <time>2012-12-02T09:33:03Z</time>
      </trkpt>
      <trkpt lat="43.6833" lon="6.95134">
        <ele>497</ele>
        <time>2012-12-02T09:33:09Z</time>
      </trkpt>
      <trkpt lat="43.68333" lon="6.9513">
        <ele>497</ele>
        <time>2012-12-02T09:33:15Z</time>
      </trkpt>
      <trkpt lat="43.68333" lon="6.95118">
        <ele>497</ele>
        <time>2012-12-02T09:33:20Z</time>
      </trkpt>
      <trkpt lat="43.68332" lon="6.95105">
        <ele>497</ele>
        <time>2012-12-02T09:33:25Z</time>
      </trkpt>
      <trkpt lat="43.68328" lon="6.95092">
        <ele>497</ele>
        <time>2012-12-02T09:33:30Z</time>
      </trkpt>
      <trkpt lat="43.68323" lon="6.95078">
        <ele>497</ele>
        <time>2012-12-02T09:33:35Z</time>
      </trkpt>
      <trkpt lat="43.68319" lon="6.95063">
        <ele>497</ele>
        <time>2012-12-02T09:33:40Z</time>
      </trkpt>
      <trkpt lat="43.68314" lon="6.95049">
        <ele>497</ele>
        <time>2012-12-02T09:33:45Z</time>
      </trkpt>
      <trkpt lat="43.68307" lon="6.95031">
        <ele>497</ele>
        <time>2012-12-02T09:33:50Z</time>
      </trkpt>
      <trkpt lat="43.68291" lon="6.95011">
        <ele>497</ele>
        <time>2012-12-02T09:33:55Z</time>
      </trkpt>
      <trkpt lat="43.68277" lon="6.95003">
        <ele>497</ele>
        <time>2012-12-02T09:34:00Z</time>
      </trkpt>
      <trkpt lat="43.68266" lon="6.94982">
        <ele>497</ele>
        <time>2012-12-02T09:34:05Z</time>
      </trkpt>
      <trkpt lat="43.6826" lon="6.94959">
        <ele>497</ele>
        <time>2012-12-02T09:34:10Z</time>
      </trkpt>
      <trkpt lat="43.68255" lon="6.94938">
        <ele>497</ele>
        <time>2012-12-02T09:34:15Z</time>
      </trkpt>
      <trkpt lat="43.68248" lon="6.94918">
        <ele>497</ele>
        <time>2012-12-02T09:34:20Z</time>
      </trkpt>
      <trkpt lat="43.6824" lon="6.94899">
        <ele>497</ele>
        <time>2012-12-02T09:34:25Z</time>
      </trkpt>
      <trkpt lat="43.68236" lon="6.94885">
        <ele>497</ele>
        <time>2012-12-02T09:34:30Z</time>
      </trkpt>
      <trkpt lat="43.68235" lon="6.94877">
        <ele>497</ele>
        <time>2012-12-02T09:34:35Z</time>
      </trkpt>
      <trkpt lat="43.68238" lon="6.94881">
        <ele>497</ele>
        <time>2012-12-02T09:34:40Z</time>
      </trkpt>
      <trkpt lat="43.68235" lon="6.94885">
        <ele>496</ele>
        <time>2012-12-02T09:34:45Z</time>
      </trkpt>
      <trkpt lat="43.68236" lon="6.94875">
        <ele>495</ele>
        <time>2012-12-02T09:34:50Z</time>
      </trkpt>
      <trkpt lat="43.68235" lon="6.94869">
        <ele>495</ele>
        <time>2012-12-02T09:34:55Z</time>
      </trkpt>
      <trkpt lat="43.68233" lon="6.9486">
        <ele>495</ele>
        <time>2012-12-02T09:35:00Z</time>
      </trkpt>
      <trkpt lat="43.68229" lon="6.9485">
        <ele>495</ele>
        <time>2012-12-02T09:35:05Z</time>
      </trkpt>
      <trkpt lat="43.68225" lon="6.94841">
        <ele>494</ele>
        <time>2012-12-02T09:35:10Z</time>
      </trkpt>
      <trkpt lat="43.68221" lon="6.94835">
        <ele>492</ele>
        <time>2012-12-02T09:35:21Z</time>
      </trkpt>
      <trkpt lat="43.6822" lon="6.94832">
        <ele>492</ele>
        <time>2012-12-02T09:35:27Z</time>
      </trkpt>
      <trkpt lat="43.68218" lon="6.9483">
        <ele>490</ele>
        <time>2012-12-02T09:35:32Z</time>
      </trkpt>
      <trkpt lat="43.68215" lon="6.94825">
        <ele>490</ele>
        <time>2012-12-02T09:35:38Z</time>
      </trkpt>
      <trkpt lat="43.68214" lon="6.94824">
        <ele>490</ele>
        <time>2012-12-02T09:35:46Z</time>
      </trkpt>
      <trkpt lat="43.68213" lon="6.94823">
        <ele>490</ele>
        <time>2012-12-02T09:36:08Z</time>
      </trkpt>
      <trkpt lat="43.68214" lon="6.94824">
        <ele>490</ele>
        <time>2012-12-02T09:36:21Z</time>
      </trkpt>
      <trkpt lat="43.68215" lon="6.94825">
        <ele>489</ele>
        <time>2012-12-02T09:37:02Z</time>
      </trkpt>
      <trkpt lat="43.68215" lon="6.94824">
        <ele>489</ele>
        <time>2012-12-02T09:37:21Z</time>
      </trkpt>
      <trkpt lat="43.68214" lon="6.94822">
        <ele>488</ele>
        <time>2012-12-02T09:37:37Z</time>
      </trkpt>
      <trkpt lat="43.68209" lon="6.94812">
        <ele>488</ele>
        <time>2012-12-02T09:37:42Z</time>
      </trkpt>
      <trkpt lat="43.68206" lon="6.94806">
        <ele>488</ele>
        <time>2012-12-02T09:37:47Z</time>
      </trkpt>
      <trkpt lat="43.68203" lon="6.94802">
        <ele>488</ele>
        <time>2012-12-02T09:37:52Z</time>
      </trkpt>
      <trkpt lat="43.68199" lon="6.94793">
        <ele>486</ele>
        <time>2012-12-02T09:37:57Z</time>
      </trkpt>
      <trkpt lat="43.68195" lon="6.94786">
        <ele>482</ele>
        <time>2012-12-02T09:38:02Z</time>
      </trkpt>
      <trkpt lat="43.68192" lon="6.94781">
        <ele>480</ele>
        <time>2012-12-02T09:38:08Z</time>
      </trkpt>
      <trkpt lat="43.68191" lon="6.94777">
        <ele>479</ele>
        <time>2012-12-02T09:38:13Z</time>
      </trkpt>
      <trkpt lat="43.6819" lon="6.94773">
        <ele>478</ele>
        <time>2012-12-02T09:38:22Z</time>
      </trkpt>
      <trkpt lat="43.68185" lon="6.94764">
        <ele>475</ele>
        <time>2012-12-02T09:38:28Z</time>
      </trkpt>
      <trkpt lat="43.68182" lon="6.94758">
        <ele>473</ele>
        <time>2012-12-02T09:38:33Z</time>
      </trkpt>
      <trkpt lat="43.68177" lon="6.94748">
        <ele>470</ele>
        <time>2012-12-02T09:38:38Z</time>
      </trkpt>
      <trkpt lat="43.68172" lon="6.94737">
        <ele>467</ele>
        <time>2012-12-02T09:38:43Z</time>
      </trkpt>
      <trkpt lat="43.68166" lon="6.94728">
        <ele>462</ele>
        <time>2012-12-02T09:38:49Z</time>
      </trkpt>
      <trkpt lat="43.68163" lon="6.9472">
        <ele>460</ele>
        <time>2012-12-02T09:38:54Z</time>
      </trkpt>
      <trkpt lat="43.68161" lon="6.94717">
        <ele>458</ele>
        <time>2012-12-02T09:39:00Z</time>
      </trkpt>
      <trkpt lat="43.68159" lon="6.94713">
        <ele>458</ele>
        <time>2012-12-02T09:39:05Z</time>
      </trkpt>
      <trkpt lat="43.68157" lon="6.94709">
        <ele>456</ele>
        <time>2012-12-02T09:39:10Z</time>
      </trkpt>
      <trkpt lat="43.68155" lon="6.94704">
        <ele>455</ele>
        <time>2012-12-02T09:39:16Z</time>
      </trkpt>
      <trkpt lat="43.68153" lon="6.94702">
        <ele>452</ele>
        <time>2012-12-02T09:39:28Z</time>
      </trkpt>
      <trkpt lat="43.68153" lon="6.94698">
        <ele>450</ele>
        <time>2012-12-02T09:39:35Z</time>
      </trkpt>
      <trkpt lat="43.68153" lon="6.94695">
        <ele>449</ele>
        <time>2012-12-02T09:39:42Z</time>
      </trkpt>
      <trkpt lat="43.6815" lon="6.94693">
        <ele>447</ele>
        <time>2012-12-02T09:39:48Z</time>
      </trkpt>
      <trkpt lat="43.68148" lon="6.9469">
        <ele>443</ele>
        <time>2012-12-02T09:40:00Z</time>
      </trkpt>
      <trkpt lat="43.68149" lon="6.9469">
        <ele>443</ele>
        <time>2012-12-02T09:40:07Z</time>
      </trkpt>
      <trkpt lat="43.68146" lon="6.94687">
        <ele>442</ele>
        <time>2012-12-02T09:40:13Z</time>
      </trkpt>
      <trkpt lat="43.68147" lon="6.94685">
        <ele>440</ele>
        <time>2012-12-02T09:40:19Z</time>
      </trkpt>
      <trkpt lat="43.68145" lon="6.94683">
        <ele>439</ele>
        <time>2012-12-02T09:40:24Z</time>
      </trkpt>
      <trkpt lat="43.68145" lon="6.94679">
        <ele>437</ele>
        <time>2012-12-02T09:40:30Z</time>
      </trkpt>
      <trkpt lat="43.68143" lon="6.94677">
        <ele>436</ele>
        <time>2012-12-02T09:40:37Z</time>
      </trkpt>
      <trkpt lat="43.68142" lon="6.94675">
        <ele>435</ele>
        <time>2012-12-02T09:40:43Z</time>
      </trkpt>
      <trkpt lat="43.68141" lon="6.94672">
        <ele>435</ele>
        <time>2012-12-02T09:40:51Z</time>
      </trkpt>
      <trkpt lat="43.6814" lon="6.94671">
        <ele>435</ele>
        <time>2012-12-02T09:40:58Z</time>
      </trkpt>
      <trkpt lat="43.68139" lon="6.94669">
        <ele>435</ele>
        <time>2012-12-02T09:41:07Z</time>
      </trkpt>
      <trkpt lat="43.68138" lon="6.94667">
        <ele>435</ele>
        <time>2012-12-02T09:41:14Z</time>
      </trkpt>
      <trkpt lat="43.68137" lon="6.94664">
        <ele>434</ele>
        <time>2012-12-02T09:41:21Z</time>
      </trkpt>
      <trkpt lat="43.68136" lon="6.94663">
        <ele>433</ele>
        <time>2012-12-02T09:41:27Z</time>
      </trkpt>
      <trkpt lat="43.68134" lon="6.9466">
        <ele>432</ele>
        <time>2012-12-02T09:41:32Z</time>
      </trkpt>
      <trkpt lat="43.68133" lon="6.94657">
        <ele>432</ele>
        <time>2012-12-02T09:41:38Z</time>
      </trkpt>
      <trkpt lat="43.68132" lon="6.94655">
        <ele>431</ele>
        <time>2012-12-02T09:41:45Z</time>
      </trkpt>
      <trkpt lat="43.68129" lon="6.94651">
        <ele>429</ele>
        <time>2012-12-02T09:41:50Z</time>
      </trkpt>
      <trkpt lat="43.68127" lon="6.94648">
        <ele>426</ele>
        <time>2012-12-02T09:41:55Z</time>
      </trkpt>
      <trkpt lat="43.68125" lon="6.94643">
        <ele>425</ele>
        <time>2012-12-02T09:42:01Z</time>
      </trkpt>
      <trkpt lat="43.68122" lon="6.94638">
        <ele>424</ele>
        <time>2012-12-02T09:42:06Z</time>
      </trkpt>
      <trkpt lat="43.68121" lon="6.94633">
        <ele>424</ele>
        <time>2012-12-02T09:42:11Z</time>
      </trkpt>
      <trkpt lat="43.68119" lon="6.94635">
        <ele>424</ele>
        <time>2012-12-02T09:42:19Z</time>
      </trkpt>
      <trkpt lat="43.6812" lon="6.94636">
        <ele>420</ele>
        <time>2012-12-02T09:42:30Z</time>
      </trkpt>
      <trkpt lat="43.68119" lon="6.94637">
        <ele>420</ele>
        <time>2012-12-02T09:42:35Z</time>
      </trkpt>
      <trkpt lat="43.68116" lon="6.9464">
        <ele>421</ele>
        <time>2012-12-02T09:42:41Z</time>
      </trkpt>
      <trkpt lat="43.68115" lon="6.94643">
        <ele>425</ele>
        <time>2012-12-02T09:42:50Z</time>
      </trkpt>
      <trkpt lat="43.68113" lon="6.94647">
        <ele>431</ele>
        <time>2012-12-02T09:42:56Z</time>
      </trkpt>
      <trkpt lat="43.68115" lon="6.94646">
        <ele>440</ele>
        <time>2012-12-02T09:43:05Z</time>
      </trkpt>
      <trkpt lat="43.68117" lon="6.94641">
        <ele>442</ele>
        <time>2012-12-02T09:43:11Z</time>
      </trkpt>
      <trkpt lat="43.68119" lon="6.9464">
        <ele>441</ele>
        <time>2012-12-02T09:43:17Z</time>
      </trkpt>
      <trkpt lat="43.6812" lon="6.94641">
        <ele>438</ele>
        <time>2012-12-02T09:43:28Z</time>
      </trkpt>
      <trkpt lat="43.6812" lon="6.94639">
        <ele>435</ele>
        <time>2012-12-02T09:43:36Z</time>
      </trkpt>
      <trkpt lat="43.68121" lon="6.94639">
        <ele>432</ele>
        <time>2012-12-02T09:43:53Z</time>
      </trkpt>
      <trkpt lat="43.68121" lon="6.94637">
        <ele>429</ele>
        <time>2012-12-02T09:43:58Z</time>
      </trkpt>
      <trkpt lat="43.68121" lon="6.94638">
        <ele>430</ele>
        <time>2012-12-02T09:44:06Z</time>
      </trkpt>
      <trkpt lat="43.6812" lon="6.94636">
        <ele>436</ele>
        <time>2012-12-02T09:44:12Z</time>
      </trkpt>
      <trkpt lat="43.68121" lon="6.94638">
        <ele>436</ele>
        <time>2012-12-02T09:44:17Z</time>
      </trkpt>
      <trkpt lat="43.6812" lon="6.94638">
        <ele>432</ele>
        <time>2012-12-02T09:44:23Z</time>
      </trkpt>
      <trkpt lat="43.68118" lon="6.94636">
        <ele>430</ele>
        <time>2012-12-02T09:44:28Z</time>
      </trkpt>
      <trkpt lat="43.68115" lon="6.94634">
        <ele>430</ele>
        <time>2012-12-02T09:44:36Z</time>
      </trkpt>
      <trkpt lat="43.68117" lon="6.94627">
        <ele>428</ele>
        <time>2012-12-02T09:44:41Z</time>
      </trkpt>
      <trkpt lat="43.68115" lon="6.94626">
        <ele>425</ele>
        <time>2012-12-02T09:44:46Z</time>
      </trkpt>
      <trkpt lat="43.68111" lon="6.94622">
        <ele>424</ele>
        <time>2012-12-02T09:44:51Z</time>
      </trkpt>
      <trkpt lat="43.6811" lon="6.94619">
        <ele>422</ele>
        <time>2012-12-02T09:44:56Z</time>
      </trkpt>
      <trkpt lat="43.6811" lon="6.94616">
        <ele>421</ele>
        <time>2012-12-02T09:45:01Z</time>
      </trkpt>
      <trkpt lat="43.68109" lon="6.94614">
        <ele>423</ele>
        <time>2012-12-02T09:45:06Z</time>
      </trkpt>
      <trkpt lat="43.68105" lon="6.94616">
        <ele>427</ele>
        <time>2012-12-02T09:45:12Z</time>
      </trkpt>
      <trkpt lat="43.681" lon="6.94618">
        <ele>429</ele>
        <time>2012-12-02T09:45:18Z</time>
      </trkpt>
      <trkpt lat="43.68096" lon="6.94616">
        <ele>434</ele>
        <time>2012-12-02T09:45:24Z</time>
      </trkpt>
      <trkpt lat="43.68092" lon="6.94619">
        <ele>434</ele>
        <time>2012-12-02T09:45:29Z</time>
      </trkpt>
      <trkpt lat="43.68088" lon="6.94618">
        <ele>434</ele>
        <time>2012-12-02T09:45:34Z</time>
      </trkpt>
      <trkpt lat="43.68081" lon="6.94615">
        <ele>434</ele>
        <time>2012-12-02T09:45:40Z</time>
      </trkpt>
      <trkpt lat="43.68074" lon="6.94615">
        <ele>434</ele>
        <time>2012-12-02T09:45:46Z</time>
      </trkpt>
      <trkpt lat="43.68077" lon="6.94614">
        <ele>434</ele>
        <time>2012-12-02T09:45:52Z</time>
      </trkpt>
      <trkpt lat="43.6808" lon="6.94615">
        <ele>434</ele>
        <time>2012-12-02T09:45:58Z</time>
      </trkpt>
      <trkpt lat="43.68082" lon="6.94616">
        <ele>433</ele>
        <time>2012-12-02T09:46:03Z</time>
      </trkpt>
      <trkpt lat="43.68085" lon="6.94614">
        <ele>433</ele>
        <time>2012-12-02T09:46:10Z</time>
      </trkpt>
      <trkpt lat="43.68084" lon="6.94612">
        <ele>433</ele>
        <time>2012-12-02T09:46:15Z</time>
      </trkpt>
      <trkpt lat="43.68086" lon="6.94612">
        <ele>437</ele>
        <time>2012-12-02T09:46:22Z</time>
      </trkpt>
      <trkpt lat="43.68086" lon="6.94604">
        <ele>443</ele>
        <time>2012-12-02T09:46:28Z</time>
      </trkpt>
      <trkpt lat="43.68084" lon="6.946">
        <ele>443</ele>
        <time>2012-12-02T09:46:33Z</time>
      </trkpt>
      <trkpt lat="43.68082" lon="6.94596">
        <ele>442</ele>
        <time>2012-12-02T09:46:38Z</time>
      </trkpt>
      <trkpt lat="43.68081" lon="6.94593">
        <ele>439</ele>
        <time>2012-12-02T09:46:43Z</time>
      </trkpt>
      <trkpt lat="43.6808" lon="6.94591">
        <ele>432</ele>
        <time>2012-12-02T09:46:51Z</time>
      </trkpt>
      <trkpt lat="43.68076" lon="6.94586">
        <ele>431</ele>
        <time>2012-12-02T09:46:56Z</time>
      </trkpt>
      <trkpt lat="43.68074" lon="6.94582">
        <ele>431</ele>
        <time>2012-12-02T09:47:02Z</time>
      </trkpt>
      <trkpt lat="43.68077" lon="6.94582">
        <ele>432</ele>
        <time>2012-12-02T09:47:11Z</time>
      </trkpt>
      <trkpt lat="43.6808" lon="6.94586">
        <ele>433</ele>
        <time>2012-12-02T09:47:16Z</time>
      </trkpt>
      <trkpt lat="43.68078" lon="6.94587">
        <ele>433</ele>
        <time>2012-12-02T09:47:22Z</time>
      </trkpt>
      <trkpt lat="43.68078" lon="6.94589">
        <ele>433</ele>
        <time>2012-12-02T09:47:29Z</time>
      </trkpt>
      <trkpt lat="43.6808" lon="6.94591">
        <ele>433</ele>
        <time>2012-12-02T09:47:36Z</time>
      </trkpt>
      <trkpt lat="43.68079" lon="6.9459">
        <ele>432</ele>
        <time>2012-12-02T09:47:41Z</time>
      </trkpt>
      <trkpt lat="43.68077" lon="6.94587">
        <ele>432</ele>
        <time>2012-12-02T09:47:46Z</time>
      </trkpt>
      <trkpt lat="43.68073" lon="6.9458">
        <ele>432</ele>
        <time>2012-12-02T09:47:51Z</time>
      </trkpt>
      <trkpt lat="43.6807" lon="6.94573">
        <ele>435</ele>
        <time>2012-12-02T09:47:56Z</time>
      </trkpt>
      <trkpt lat="43.68065" lon="6.94565">
        <ele>440</ele>
        <time>2012-12-02T09:48:01Z</time>
      </trkpt>
      <trkpt lat="43.68061" lon="6.94557">
        <ele>445</ele>
        <time>2012-12-02T09:48:06Z</time>
      </trkpt>
      <trkpt lat="43.68055" lon="6.94549">
        <ele>451</ele>
        <time>2012-12-02T09:48:12Z</time>
      </trkpt>
      <trkpt lat="43.6805" lon="6.94541">
        <ele>455</ele>
        <time>2012-12-02T09:48:18Z</time>
      </trkpt>
      <trkpt lat="43.68046" lon="6.94531">
        <ele>456</ele>
        <time>2012-12-02T09:48:23Z</time>
      </trkpt>
      <trkpt lat="43.68044" lon="6.94528">
        <ele>456</ele>
        <time>2012-12-02T09:48:29Z</time>
      </trkpt>
      <trkpt lat="43.68041" lon="6.94525">
        <ele>456</ele>
        <time>2012-12-02T09:48:34Z</time>
      </trkpt>
      <trkpt lat="43.6804" lon="6.94526">
        <ele>455</ele>
        <time>2012-12-02T09:48:40Z</time>
      </trkpt>
      <trkpt lat="43.68039" lon="6.94525">
        <ele>451</ele>
        <time>2012-12-02T09:48:45Z</time>
      </trkpt>
      <trkpt lat="43.68035" lon="6.94532">
        <ele>448</ele>
        <time>2012-12-02T09:48:51Z</time>
      </trkpt>
      <trkpt lat="43.68033" lon="6.94535">
        <ele>445</ele>
        <time>2012-12-02T09:48:56Z</time>
      </trkpt>
      <trkpt lat="43.6803" lon="6.94539">
        <ele>441</ele>
        <time>2012-12-02T09:49:01Z</time>
      </trkpt>
      <trkpt lat="43.68028" lon="6.94544">
        <ele>439</ele>
        <time>2012-12-02T09:49:06Z</time>
      </trkpt>
      <trkpt lat="43.68024" lon="6.94551">
        <ele>437</ele>
        <time>2012-12-02T09:49:12Z</time>
      </trkpt>
      <trkpt lat="43.68015" lon="6.94561">
        <ele>435</ele>
        <time>2012-12-02T09:49:17Z</time>
      </trkpt>
      <trkpt lat="43.68003" lon="6.94577">
        <ele>435</ele>
        <time>2012-12-02T09:49:22Z</time>
      </trkpt>
      <trkpt lat="43.67997" lon="6.94581">
        <ele>435</ele>
        <time>2012-12-02T09:49:28Z</time>
      </trkpt>
      <trkpt lat="43.67993" lon="6.94582">
        <ele>437</ele>
        <time>2012-12-02T09:49:33Z</time>
      </trkpt>
      <trkpt lat="43.67987" lon="6.94581">
        <ele>437</ele>
        <time>2012-12-02T09:49:38Z</time>
      </trkpt>
      <trkpt lat="43.67993" lon="6.94582">
        <ele>437</ele>
        <time>2012-12-02T09:49:43Z</time>
      </trkpt>
      <trkpt lat="43.67996" lon="6.94574">
        <ele>437</ele>
        <time>2012-12-02T09:49:48Z</time>
      </trkpt>
      <trkpt lat="43.67995" lon="6.94565">
        <ele>440</ele>
        <time>2012-12-02T09:49:53Z</time>
      </trkpt>
      <trkpt lat="43.67992" lon="6.94556">
        <ele>443</ele>
        <time>2012-12-02T09:49:58Z</time>
      </trkpt>
      <trkpt lat="43.67989" lon="6.9455">
        <ele>446</ele>
        <time>2012-12-02T09:50:03Z</time>
      </trkpt>
      <trkpt lat="43.67984" lon="6.94545">
        <ele>450</ele>
        <time>2012-12-02T09:50:09Z</time>
      </trkpt>
      <trkpt lat="43.67978" lon="6.94541">
        <ele>452</ele>
        <time>2012-12-02T09:50:14Z</time>
      </trkpt>
      <trkpt lat="43.67973" lon="6.94536">
        <ele>454</ele>
        <time>2012-12-02T09:50:19Z</time>
      </trkpt>
      <trkpt lat="43.67972" lon="6.94527">
        <ele>457</ele>
        <time>2012-12-02T09:50:25Z</time>
      </trkpt>
      <trkpt lat="43.67973" lon="6.94522">
        <ele>459</ele>
        <time>2012-12-02T09:50:30Z</time>
      </trkpt>
      <trkpt lat="43.67976" lon="6.9452">
        <ele>461</ele>
        <time>2012-12-02T09:50:36Z</time>
      </trkpt>
      <trkpt lat="43.67971" lon="6.94513">
        <ele>462</ele>
        <time>2012-12-02T09:50:42Z</time>
      </trkpt>
      <trkpt lat="43.67973" lon="6.94506">
        <ele>463</ele>
        <time>2012-12-02T09:50:47Z</time>
      </trkpt>
      <trkpt lat="43.67971" lon="6.94498">
        <ele>465</ele>
        <time>2012-12-02T09:50:53Z</time>
      </trkpt>
      <trkpt lat="43.67971" lon="6.94492">
        <ele>470</ele>
        <time>2012-12-02T09:51:05Z</time>
      </trkpt>
      <trkpt lat="43.6797" lon="6.94488">
        <ele>473</ele>
        <time>2012-12-02T09:51:10Z</time>
      </trkpt>
      <trkpt lat="43.67967" lon="6.94483">
        <ele>476</ele>
        <time>2012-12-02T09:51:16Z</time>
      </trkpt>
      <trkpt lat="43.67965" lon="6.9448">
        <ele>480</ele>
        <time>2012-12-02T09:51:24Z</time>
      </trkpt>
      <trkpt lat="43.6796" lon="6.94478">
        <ele>480</ele>
        <time>2012-12-02T09:51:30Z</time>
      </trkpt>
      <trkpt lat="43.67955" lon="6.94479">
        <ele>480</ele>
        <time>2012-12-02T09:51:36Z</time>
      </trkpt>
      <trkpt lat="43.6795" lon="6.9448">
        <ele>480</ele>
        <time>2012-12-02T09:51:42Z</time>
      </trkpt>
      <trkpt lat="43.67945" lon="6.94477">
        <ele>482</ele>
        <time>2012-12-02T09:51:50Z</time>
      </trkpt>
      <trkpt lat="43.6794" lon="6.94474">
        <ele>484</ele>
        <time>2012-12-02T09:51:55Z</time>
      </trkpt>
      <trkpt lat="43.67931" lon="6.94472">
        <ele>485</ele>
        <time>2012-12-02T09:52:00Z</time>
      </trkpt>
      <trkpt lat="43.67924" lon="6.94471">
        <ele>485</ele>
        <time>2012-12-02T09:52:05Z</time>
      </trkpt>
      <trkpt lat="43.67914" lon="6.94466">
        <ele>485</ele>
        <time>2012-12-02T09:52:10Z</time>
      </trkpt>
      <trkpt lat="43.67903" lon="6.94463">
        <ele>483</ele>
        <time>2012-12-02T09:52:15Z</time>
      </trkpt>
      <trkpt lat="43.67882" lon="6.94457">
        <ele>479</ele>
        <time>2012-12-02T09:52:20Z</time>
      </trkpt>
      <trkpt lat="43.67869" lon="6.9445">
        <ele>476</ele>
        <time>2012-12-02T09:52:25Z</time>
      </trkpt>
      <trkpt lat="43.67864" lon="6.94448">
        <ele>476</ele>
        <time>2012-12-02T09:52:36Z</time>
      </trkpt>
      <trkpt lat="43.67864" lon="6.9445">
        <ele>476</ele>
        <time>2012-12-02T09:52:48Z</time>
      </trkpt>
      <trkpt lat="43.67864" lon="6.94451">
        <ele>478</ele>
        <time>2012-12-02T09:52:56Z</time>
      </trkpt>
      <trkpt lat="43.67862" lon="6.94452">
        <ele>483</ele>
        <time>2012-12-02T09:53:04Z</time>
      </trkpt>
      <trkpt lat="43.67846" lon="6.94445">
        <ele>484</ele>
        <time>2012-12-02T09:53:09Z</time>
      </trkpt>
      <trkpt lat="43.67826" lon="6.94438">
        <ele>484</ele>
        <time>2012-12-02T09:53:14Z</time>
      </trkpt>
      <trkpt lat="43.67812" lon="6.9442">
        <ele>482</ele>
        <time>2012-12-02T09:53:19Z</time>
      </trkpt>
      <trkpt lat="43.67798" lon="6.94412">
        <ele>479</ele>
        <time>2012-12-02T09:53:24Z</time>
      </trkpt>
      <trkpt lat="43.67792" lon="6.94409">
        <ele>478</ele>
        <time>2012-12-02T09:53:30Z</time>
      </trkpt>
      <trkpt lat="43.67787" lon="6.94398">
        <ele>478</ele>
        <time>2012-12-02T09:53:35Z</time>
      </trkpt>
      <trkpt lat="43.67781" lon="6.94389">
        <ele>477</ele>
        <time>2012-12-02T09:53:41Z</time>
      </trkpt>
      <trkpt lat="43.67776" lon="6.9438">
        <ele>477</ele>
        <time>2012-12-02T09:53:47Z</time>
      </trkpt>
      <trkpt lat="43.67773" lon="6.94374">
        <ele>477</ele>
        <time>2012-12-02T09:54:10Z</time>
      </trkpt>
      <trkpt lat="43.67773" lon="6.94368">
        <ele>477</ele>
        <time>2012-12-02T09:54:16Z</time>
      </trkpt>
      <trkpt lat="43.67773" lon="6.94365">
        <ele>477</ele>
        <time>2012-12-02T09:54:21Z</time>
      </trkpt>
      <trkpt lat="43.67772" lon="6.9436">
        <ele>477</ele>
        <time>2012-12-02T09:54:28Z</time>
      </trkpt>
      <trkpt lat="43.67772" lon="6.94356">
        <ele>477</ele>
        <time>2012-12-02T09:54:33Z</time>
      </trkpt>
      <trkpt lat="43.67772" lon="6.94353">
        <ele>477</ele>
        <time>2012-12-02T09:54:39Z</time>
      </trkpt>
      <trkpt lat="43.67772" lon="6.94351">
        <ele>477</ele>
        <time>2012-12-02T09:54:44Z</time>
      </trkpt>
      <trkpt lat="43.67772" lon="6.94353">
        <ele>477</ele>
        <time>2012-12-02T09:54:49Z</time>
      </trkpt>
      <trkpt lat="43.67771" lon="6.94351">
        <ele>477</ele>
        <time>2012-12-02T09:54:55Z</time>
      </trkpt>
      <trkpt lat="43.67771" lon="6.9435">
        <ele>477</ele>
        <time>2012-12-02T09:55:02Z</time>
      </trkpt>
      <trkpt lat="43.6777" lon="6.94346">
        <ele>477</ele>
        <time>2012-12-02T09:55:08Z</time>
      </trkpt>
      <trkpt lat="43.67769" lon="6.94345">
        <ele>477</ele>
        <time>2012-12-02T09:55:13Z</time>
      </trkpt>
      <trkpt lat="43.67765" lon="6.94342">
        <ele>476</ele>
        <time>2012-12-02T09:55:19Z</time>
      </trkpt>
      <trkpt lat="43.67763" lon="6.94345">
        <ele>475</ele>
        <time>2012-12-02T09:55:24Z</time>
      </trkpt>
      <trkpt lat="43.67762" lon="6.94347">
        <ele>474</ele>
        <time>2012-12-02T09:55:29Z</time>
      </trkpt>
      <trkpt lat="43.67759" lon="6.94346">
        <ele>473</ele>
        <time>2012-12-02T09:55:38Z</time>
      </trkpt>
      <trkpt lat="43.67756" lon="6.94345">
        <ele>473</ele>
        <time>2012-12-02T09:55:43Z</time>
      </trkpt>
      <trkpt lat="43.67755" lon="6.94343">
        <ele>473</ele>
        <time>2012-12-02T09:55:52Z</time>
      </trkpt>
      <trkpt lat="43.67755" lon="6.94339">
        <ele>476</ele>
        <time>2012-12-02T09:55:59Z</time>
      </trkpt>
      <trkpt lat="43.67755" lon="6.94335">
        <ele>476</ele>
        <time>2012-12-02T09:56:06Z</time>
      </trkpt>
      <trkpt lat="43.67753" lon="6.94331">
        <ele>479</ele>
        <time>2012-12-02T09:56:18Z</time>
      </trkpt>
      <trkpt lat="43.67751" lon="6.9433">
        <ele>485</ele>
        <time>2012-12-02T09:56:24Z</time>
      </trkpt>
      <trkpt lat="43.67751" lon="6.94328">
        <ele>490</ele>
        <time>2012-12-02T09:56:29Z</time>
      </trkpt>
      <trkpt lat="43.6775" lon="6.94328">
        <ele>491</ele>
        <time>2012-12-02T09:56:35Z</time>
      </trkpt>
      <trkpt lat="43.67749" lon="6.9433">
        <ele>497</ele>
        <time>2012-12-02T09:56:44Z</time>
      </trkpt>
      <trkpt lat="43.67748" lon="6.94325">
        <ele>497</ele>
        <time>2012-12-02T09:56:49Z</time>
      </trkpt>
      <trkpt lat="43.67747" lon="6.94325">
        <ele>500</ele>
        <time>2012-12-02T09:56:58Z</time>
      </trkpt>
      <trkpt lat="43.67748" lon="6.94322">
        <ele>500</ele>
        <time>2012-12-02T09:57:06Z</time>
      </trkpt>
      <trkpt lat="43.67749" lon="6.94319">
        <ele>496</ele>
        <time>2012-12-02T09:57:12Z</time>
      </trkpt>
      <trkpt lat="43.67747" lon="6.9432">
        <ele>495</ele>
        <time>2012-12-02T09:57:21Z</time>
      </trkpt>
      <trkpt lat="43.67746" lon="6.94317">
        <ele>496</ele>
        <time>2012-12-02T09:57:32Z</time>
      </trkpt>
      <trkpt lat="43.67747" lon="6.94315">
        <ele>496</ele>
        <time>2012-12-02T09:57:45Z</time>
      </trkpt>
      <trkpt lat="43.67746" lon="6.94312">
        <ele>499</ele>
        <time>2012-12-02T09:57:53Z</time>
      </trkpt>
      <trkpt lat="43.67746" lon="6.94308">
        <ele>499</ele>
        <time>2012-12-02T09:58:00Z</time>
      </trkpt>
      <trkpt lat="43.67747" lon="6.94311">
        <ele>499</ele>
        <time>2012-12-02T09:58:06Z</time>
      </trkpt>
      <trkpt lat="43.67746" lon="6.94312">
        <ele>499</ele>
        <time>2012-12-02T09:58:15Z</time>
      </trkpt>
      <trkpt lat="43.67744" lon="6.9431">
        <ele>501</ele>
        <time>2012-12-02T09:58:22Z</time>
      </trkpt>
      <trkpt lat="43.67738" lon="6.94313">
        <ele>501</ele>
        <time>2012-12-02T09:58:28Z</time>
      </trkpt>
      <trkpt lat="43.67731" lon="6.94316">
        <ele>498</ele>
        <time>2012-12-02T09:58:33Z</time>
      </trkpt>
      <trkpt lat="43.67725" lon="6.94324">
        <ele>493</ele>
        <time>2012-12-02T09:58:38Z</time>
      </trkpt>
      <trkpt lat="43.67715" lon="6.94329">
        <ele>488</ele>
        <time>2012-12-02T09:58:43Z</time>
      </trkpt>
      <trkpt lat="43.67704" lon="6.94337">
        <ele>488</ele>
        <time>2012-12-02T09:58:48Z</time>
      </trkpt>
      <trkpt lat="43.67693" lon="6.94343">
        <ele>484</ele>
        <time>2012-12-02T09:58:53Z</time>
      </trkpt>
      <trkpt lat="43.67683" lon="6.94352">
        <ele>482</ele>
        <time>2012-12-02T09:58:58Z</time>
      </trkpt>
      <trkpt lat="43.67672" lon="6.94352">
        <ele>478</ele>
        <time>2012-12-02T09:59:03Z</time>
      </trkpt>
      <trkpt lat="43.67657" lon="6.94355">
        <ele>479</ele>
        <time>2012-12-02T09:59:08Z</time>
      </trkpt>
      <trkpt lat="43.67648" lon="6.9435">
        <ele>484</ele>
        <time>2012-12-02T09:59:13Z</time>
      </trkpt>
      <trkpt lat="43.6764" lon="6.94345">
        <ele>489</ele>
        <time>2012-12-02T09:59:18Z</time>
      </trkpt>
      <trkpt lat="43.67632" lon="6.94342">
        <ele>493</ele>
        <time>2012-12-02T09:59:23Z</time>
      </trkpt>
      <trkpt lat="43.67625" lon="6.9433">
        <ele>497</ele>
        <time>2012-12-02T09:59:28Z</time>
      </trkpt>
      <trkpt lat="43.67618" lon="6.94322">
        <ele>500</ele>
        <time>2012-12-02T09:59:33Z</time>
      </trkpt>
      <trkpt lat="43.67612" lon="6.94317">
        <ele>506</ele>
        <time>2012-12-02T09:59:40Z</time>
      </trkpt>
      <trkpt lat="43.6761" lon="6.94315">
        <ele>506</ele>
        <time>2012-12-02T09:59:45Z</time>
      </trkpt>
      <trkpt lat="43.67603" lon="6.94309">
        <ele>506</ele>
        <time>2012-12-02T09:59:50Z</time>
      </trkpt>
      <trkpt lat="43.67595" lon="6.94301">
        <ele>502</ele>
        <time>2012-12-02T09:59:55Z</time>
      </trkpt>
      <trkpt lat="43.67593" lon="6.94286">
        <ele>502</ele>
        <time>2012-12-02T10:00:00Z</time>
      </trkpt>
      <trkpt lat="43.67583" lon="6.94267">
        <ele>499</ele>
        <time>2012-12-02T10:00:05Z</time>
      </trkpt>
      <trkpt lat="43.67569" lon="6.94249">
        <ele>499</ele>
        <time>2012-12-02T10:00:10Z</time>
      </trkpt>
      <trkpt lat="43.6756" lon="6.94229">
        <ele>499</ele>
        <time>2012-12-02T10:00:15Z</time>
      </trkpt>
      <trkpt lat="43.67557" lon="6.94205">
        <ele>499</ele>
        <time>2012-12-02T10:00:20Z</time>
      </trkpt>
      <trkpt lat="43.67555" lon="6.94181">
        <ele>499</ele>
        <time>2012-12-02T10:00:25Z</time>
      </trkpt>
      <trkpt lat="43.67554" lon="6.9416">
        <ele>499</ele>
        <time>2012-12-02T10:00:30Z</time>
      </trkpt>
      <trkpt lat="43.67555" lon="6.94138">
        <ele>499</ele>
        <time>2012-12-02T10:00:35Z</time>
      </trkpt>
      <trkpt lat="43.67554" lon="6.94122">
        <ele>499</ele>
        <time>2012-12-02T10:00:40Z</time>
      </trkpt>
      <trkpt lat="43.67538" lon="6.94116">
        <ele>499</ele>
        <time>2012-12-02T10:00:45Z</time>
      </trkpt>
      <trkpt lat="43.67522" lon="6.94108">
        <ele>497</ele>
        <time>2012-12-02T10:00:50Z</time>
      </trkpt>
      <trkpt lat="43.67509" lon="6.94107">
        <ele>495</ele>
        <time>2012-12-02T10:00:55Z</time>
      </trkpt>
      <trkpt lat="43.67493" lon="6.94103">
        <ele>490</ele>
        <time>2012-12-02T10:01:00Z</time>
      </trkpt>
      <trkpt lat="43.67478" lon="6.941">
        <ele>489</ele>
        <time>2012-12-02T10:01:05Z</time>
      </trkpt>
      <trkpt lat="43.67465" lon="6.9409">
        <ele>488</ele>
        <time>2012-12-02T10:01:10Z</time>
      </trkpt>
      <trkpt lat="43.67453" lon="6.94077">
        <ele>488</ele>
        <time>2012-12-02T10:01:15Z</time>
      </trkpt>
      <trkpt lat="43.67441" lon="6.94065">
        <ele>488</ele>
        <time>2012-12-02T10:01:20Z</time>
      </trkpt>
      <trkpt lat="43.67429" lon="6.94052">
        <ele>488</ele>
        <time>2012-12-02T10:01:25Z</time>
      </trkpt>
      <trkpt lat="43.67417" lon="6.94039">
        <ele>488</ele>
        <time>2012-12-02T10:01:30Z</time>
      </trkpt>
      <trkpt lat="43.67403" lon="6.94023">
        <ele>488</ele>
        <time>2012-12-02T10:01:35Z</time>
      </trkpt>
      <trkpt lat="43.6739" lon="6.94009">
        <ele>488</ele>
        <time>2012-12-02T10:01:40Z</time>
      </trkpt>
      <trkpt lat="43.67376" lon="6.93996">
        <ele>488</ele>
        <time>2012-12-02T10:01:45Z</time>
      </trkpt>
      <trkpt lat="43.67363" lon="6.93982">
        <ele>488</ele>
        <time>2012-12-02T10:01:50Z</time>
      </trkpt>
      <trkpt lat="43.67348" lon="6.93969">
        <ele>488</ele>
        <time>2012-12-02T10:01:55Z</time>
      </trkpt>
      <trkpt lat="43.67331" lon="6.93963">
        <ele>488</ele>
        <time>2012-12-02T10:02:00Z</time>
      </trkpt>
      <trkpt lat="43.67314" lon="6.9396">
        <ele>488</ele>
        <time>2012-12-02T10:02:05Z</time>
      </trkpt>
      <trkpt lat="43.67295" lon="6.9396">
        <ele>486</ele>
        <time>2012-12-02T10:02:10Z</time>
      </trkpt>
      <trkpt lat="43.67276" lon="6.93955">
        <ele>485</ele>
        <time>2012-12-02T10:02:15Z</time>
      </trkpt>
      <trkpt lat="43.6726" lon="6.93945">
        <ele>485</ele>
        <time>2012-12-02T10:02:20Z</time>
      </trkpt>
      <trkpt lat="43.67254" lon="6.93936">
        <ele>486</ele>
        <time>2012-12-02T10:02:26Z</time>
      </trkpt>
      <trkpt lat="43.6725" lon="6.93936">
        <ele>490</ele>
        <time>2012-12-02T10:02:32Z</time>
      </trkpt>
      <trkpt lat="43.67248" lon="6.93932">
        <ele>496</ele>
        <time>2012-12-02T10:02:38Z</time>
      </trkpt>
      <trkpt lat="43.67248" lon="6.93926">
        <ele>502</ele>
        <time>2012-12-02T10:02:44Z</time>
      </trkpt>
      <trkpt lat="43.67244" lon="6.93924">
        <ele>502</ele>
        <time>2012-12-02T10:02:49Z</time>
      </trkpt>
      <trkpt lat="43.67244" lon="6.93915">
        <ele>501</ele>
        <time>2012-12-02T10:02:54Z</time>
      </trkpt>
      <trkpt lat="43.67241" lon="6.93906">
        <ele>501</ele>
        <time>2012-12-02T10:02:59Z</time>
      </trkpt>
      <trkpt lat="43.67235" lon="6.9389">
        <ele>499</ele>
        <time>2012-12-02T10:03:04Z</time>
      </trkpt>
      <trkpt lat="43.67232" lon="6.93868">
        <ele>498</ele>
        <time>2012-12-02T10:03:10Z</time>
      </trkpt>
      <trkpt lat="43.67234" lon="6.9385">
        <ele>494</ele>
        <time>2012-12-02T10:03:15Z</time>
      </trkpt>
      <trkpt lat="43.67233" lon="6.93832">
        <ele>494</ele>
        <time>2012-12-02T10:03:20Z</time>
      </trkpt>
      <trkpt lat="43.67229" lon="6.93815">
        <ele>494</ele>
        <time>2012-12-02T10:03:25Z</time>
      </trkpt>
      <trkpt lat="43.6722" lon="6.93802">
        <ele>494</ele>
        <time>2012-12-02T10:03:30Z</time>
      </trkpt>
      <trkpt lat="43.67207" lon="6.938">
        <ele>494</ele>
        <time>2012-12-02T10:03:35Z</time>
      </trkpt>
      <trkpt lat="43.67196" lon="6.93811">
        <ele>493</ele>
        <time>2012-12-02T10:03:40Z</time>
      </trkpt>
      <trkpt lat="43.67186" lon="6.93829">
        <ele>492</ele>
        <time>2012-12-02T10:03:45Z</time>
      </trkpt>
      <trkpt lat="43.67174" lon="6.93843">
        <ele>492</ele>
        <time>2012-12-02T10:03:50Z</time>
      </trkpt>
      <trkpt lat="43.67164" lon="6.93854">
        <ele>492</ele>
        <time>2012-12-02T10:03:55Z</time>
      </trkpt>
      <trkpt lat="43.67151" lon="6.93858">
        <ele>489</ele>
        <time>2012-12-02T10:04:00Z</time>
      </trkpt>
      <trkpt lat="43.67137" lon="6.93858">
        <ele>488</ele>
        <time>2012-12-02T10:04:05Z</time>
      </trkpt>
      <trkpt lat="43.67126" lon="6.93849">
        <ele>483</ele>
        <time>2012-12-02T10:04:10Z</time>
      </trkpt>
      <trkpt lat="43.67114" lon="6.93838">
        <ele>483</ele>
        <time>2012-12-02T10:04:15Z</time>
      </trkpt>
      <trkpt lat="43.67105" lon="6.93823">
        <ele>483</ele>
        <time>2012-12-02T10:04:20Z</time>
      </trkpt>
      <trkpt lat="43.67096" lon="6.93806">
        <ele>486</ele>
        <time>2012-12-02T10:04:25Z</time>
      </trkpt>
      <trkpt lat="43.67088" lon="6.93788">
        <ele>490</ele>
        <time>2012-12-02T10:04:30Z</time>
      </trkpt>
      <trkpt lat="43.67073" lon="6.93783">
        <ele>491</ele>
        <time>2012-12-02T10:04:35Z</time>
      </trkpt>
      <trkpt lat="43.67057" lon="6.93789">
        <ele>491</ele>
        <time>2012-12-02T10:04:40Z</time>
      </trkpt>
      <trkpt lat="43.67044" lon="6.93783">
        <ele>491</ele>
        <time>2012-12-02T10:04:45Z</time>
      </trkpt>
      <trkpt lat="43.67031" lon="6.9378">
        <ele>491</ele>
        <time>2012-12-02T10:04:50Z</time>
      </trkpt>
      <trkpt lat="43.67015" lon="6.93778">
        <ele>494</ele>
        <time>2012-12-02T10:04:55Z</time>
      </trkpt>
      <trkpt lat="43.67011" lon="6.93775">
        <ele>499</ele>
        <time>2012-12-02T10:05:32Z</time>
      </trkpt>
      <trkpt lat="43.6701" lon="6.93775">
        <ele>499</ele>
        <time>2012-12-02T10:05:52Z</time>
      </trkpt>
      <trkpt lat="43.67007" lon="6.93772">
        <ele>499</ele>
        <time>2012-12-02T10:05:58Z</time>
      </trkpt>
      <trkpt lat="43.67007" lon="6.93773">
        <ele>499</ele>
        <time>2012-12-02T10:06:04Z</time>
      </trkpt>
      <trkpt lat="43.6694" lon="6.93718">
        <ele>501</ele>
        <time>2012-12-02T10:15:24Z</time>
      </trkpt>
      <trkpt lat="43.66955" lon="6.93695">
        <ele>493</ele>
        <time>2012-12-02T10:15:29Z</time>
      </trkpt>
      <trkpt lat="43.66951" lon="6.93695">
        <ele>497</ele>
        <time>2012-12-02T10:15:35Z</time>
      </trkpt>
      <trkpt lat="43.66953" lon="6.93693">
        <ele>499</ele>
        <time>2012-12-02T10:15:43Z</time>
      </trkpt>
      <trkpt lat="43.66954" lon="6.93693">
        <ele>499</ele>
        <time>2012-12-02T10:15:53Z</time>
      </trkpt>
      <trkpt lat="43.66953" lon="6.93694">
        <ele>500</ele>
        <time>2012-12-02T10:16:07Z</time>
      </trkpt>
      <trkpt lat="43.6695" lon="6.93697">
        <ele>505</ele>
        <time>2012-12-02T10:16:15Z</time>
      </trkpt>
      <trkpt lat="43.66951" lon="6.93696">
        <ele>506</ele>
        <time>2012-12-02T10:16:24Z</time>
      </trkpt>
      <trkpt lat="43.66954" lon="6.93693">
        <ele>504</ele>
        <time>2012-12-02T10:16:31Z</time>
      </trkpt>
      <trkpt lat="43.66957" lon="6.93691">
        <ele>497</ele>
        <time>2012-12-02T10:16:40Z</time>
      </trkpt>
      <trkpt lat="43.66956" lon="6.93694">
        <ele>494</ele>
        <time>2012-12-02T10:17:07Z</time>
      </trkpt>
      <trkpt lat="43.66955" lon="6.93696">
        <ele>489</ele>
        <time>2012-12-02T10:17:27Z</time>
      </trkpt>
      <trkpt lat="43.66954" lon="6.93697">
        <ele>490</ele>
        <time>2012-12-02T10:17:44Z</time>
      </trkpt>
      <trkpt lat="43.66953" lon="6.93699">
        <ele>494</ele>
        <time>2012-12-02T10:17:51Z</time>
      </trkpt>
      <trkpt lat="43.66953" lon="6.93699">
        <ele>501</ele>
        <time>2012-12-02T10:18:13Z</time>
      </trkpt>
      <trkpt lat="43.66951" lon="6.937">
        <ele>501</ele>
        <time>2012-12-02T10:18:18Z</time>
      </trkpt>
      <trkpt lat="43.66953" lon="6.93698">
        <ele>505</ele>
        <time>2012-12-02T10:18:29Z</time>
      </trkpt>
      <trkpt lat="43.66954" lon="6.93697">
        <ele>500</ele>
        <time>2012-12-02T10:18:35Z</time>
      </trkpt>
      <trkpt lat="43.66954" lon="6.93698">
        <ele>495</ele>
        <time>2012-12-02T10:18:43Z</time>
      </trkpt>
      <trkpt lat="43.66953" lon="6.93698">
        <ele>495</ele>
        <time>2012-12-02T10:18:49Z</time>
      </trkpt>
      <trkpt lat="43.66953" lon="6.93696">
        <ele>495</ele>
        <time>2012-12-02T10:18:54Z</time>
      </trkpt>
      <trkpt lat="43.66953" lon="6.93693">
        <ele>495</ele>
        <time>2012-12-02T10:19:03Z</time>
      </trkpt>
      <trkpt lat="43.66954" lon="6.93694">
        <ele>496</ele>
        <time>2012-12-02T10:19:10Z</time>
      </trkpt>
      <trkpt lat="43.66955" lon="6.93695">
        <ele>496</ele>
        <time>2012-12-02T10:19:17Z</time>
      </trkpt>
      <trkpt lat="43.66953" lon="6.93698">
        <ele>496</ele>
        <time>2012-12-02T10:19:26Z</time>
      </trkpt>
      <trkpt lat="43.66953" lon="6.93698">
        <ele>494</ele>
        <time>2012-12-02T10:19:47Z</time>
      </trkpt>
      <trkpt lat="43.66952" lon="6.93701">
        <ele>494</ele>
        <time>2012-12-02T10:19:59Z</time>
      </trkpt>
      <trkpt lat="43.66951" lon="6.93703">
        <ele>500</ele>
        <time>2012-12-02T10:20:14Z</time>
      </trkpt>
      <trkpt lat="43.66951" lon="6.93701">
        <ele>506</ele>
        <time>2012-12-02T10:20:26Z</time>
      </trkpt>
      <trkpt lat="43.66953" lon="6.937">
        <ele>506</ele>
        <time>2012-12-02T10:20:41Z</time>
      </trkpt>
      <trkpt lat="43.66953" lon="6.93702">
        <ele>502</ele>
        <time>2012-12-02T10:20:59Z</time>
      </trkpt>
      <trkpt lat="43.66954" lon="6.93702">
        <ele>502</ele>
        <time>2012-12-02T10:21:08Z</time>
      </trkpt>
      <trkpt lat="43.6695" lon="6.93701">
        <ele>500</ele>
        <time>2012-12-02T10:21:25Z</time>
      </trkpt>
      <trkpt lat="43.6695" lon="6.93697">
        <ele>500</ele>
        <time>2012-12-02T10:21:31Z</time>
      </trkpt>
      <trkpt lat="43.6695" lon="6.93695">
        <ele>500</ele>
        <time>2012-12-02T10:21:50Z</time>
      </trkpt>
      <trkpt lat="43.66952" lon="6.93699">
        <ele>500</ele>
        <time>2012-12-02T10:21:56Z</time>
      </trkpt>
      <trkpt lat="43.66953" lon="6.93701">
        <ele>500</ele>
        <time>2012-12-02T10:22:02Z</time>
      </trkpt>
      <trkpt lat="43.66951" lon="6.93703">
        <ele>498</ele>
        <time>2012-12-02T10:22:07Z</time>
      </trkpt>
      <trkpt lat="43.66948" lon="6.93703">
        <ele>497</ele>
        <time>2012-12-02T10:22:12Z</time>
      </trkpt>
      <trkpt lat="43.66948" lon="6.93702">
        <ele>497</ele>
        <time>2012-12-02T10:22:17Z</time>
      </trkpt>
      <trkpt lat="43.66949" lon="6.93698">
        <ele>492</ele>
        <time>2012-12-02T10:22:24Z</time>
      </trkpt>
      <trkpt lat="43.66949" lon="6.93695">
        <ele>492</ele>
        <time>2012-12-02T10:22:29Z</time>
      </trkpt>
      <trkpt lat="43.66948" lon="6.93693">
        <ele>493</ele>
        <time>2012-12-02T10:22:36Z</time>
      </trkpt>
      <trkpt lat="43.66948" lon="6.93691">
        <ele>495</ele>
        <time>2012-12-02T10:22:47Z</time>
      </trkpt>
      <trkpt lat="43.66949" lon="6.93692">
        <ele>498</ele>
        <time>2012-12-02T10:23:00Z</time>
      </trkpt>
      <trkpt lat="43.6695" lon="6.93693">
        <ele>501</ele>
        <time>2012-12-02T10:23:20Z</time>
      </trkpt>
      <trkpt lat="43.66952" lon="6.93693">
        <ele>504</ele>
        <time>2012-12-02T10:23:38Z</time>
      </trkpt>
      <trkpt lat="43.66951" lon="6.93695">
        <ele>514</ele>
        <time>2012-12-02T10:23:59Z</time>
      </trkpt>
      <trkpt lat="43.66953" lon="6.93695">
        <ele>510</ele>
        <time>2012-12-02T10:24:10Z</time>
      </trkpt>
      <trkpt lat="43.66954" lon="6.93694">
        <ele>505</ele>
        <time>2012-12-02T10:24:15Z</time>
      </trkpt>
      <trkpt lat="43.66957" lon="6.93691">
        <ele>497</ele>
        <time>2012-12-02T10:24:21Z</time>
      </trkpt>
      <trkpt lat="43.66958" lon="6.9369">
        <ele>491</ele>
        <time>2012-12-02T10:24:27Z</time>
      </trkpt>
      <trkpt lat="43.66956" lon="6.93691">
        <ele>489</ele>
        <time>2012-12-02T10:24:32Z</time>
      </trkpt>
      <trkpt lat="43.66953" lon="6.93697">
        <ele>492</ele>
        <time>2012-12-02T10:24:38Z</time>
      </trkpt>
      <trkpt lat="43.66953" lon="6.93697">
        <ele>504</ele>
        <time>2012-12-02T10:24:48Z</time>
      </trkpt>
      <trkpt lat="43.66955" lon="6.93694">
        <ele>499</ele>
        <time>2012-12-02T10:24:56Z</time>
      </trkpt>
      <trkpt lat="43.66956" lon="6.93693">
        <ele>494</ele>
        <time>2012-12-02T10:25:02Z</time>
      </trkpt>
      <trkpt lat="43.66955" lon="6.93692">
        <ele>491</ele>
        <time>2012-12-02T10:25:13Z</time>
      </trkpt>
      <trkpt lat="43.66954" lon="6.93694">
        <ele>494</ele>
        <time>2012-12-02T10:25:23Z</time>
      </trkpt>
      <trkpt lat="43.66951" lon="6.93691">
        <ele>496</ele>
        <time>2012-12-02T10:25:28Z</time>
      </trkpt>
      <trkpt lat="43.66945" lon="6.93676">
        <ele>498</ele>
        <time>2012-12-02T10:25:33Z</time>
      </trkpt>
      <trkpt lat="43.66933" lon="6.93648">
        <ele>498</ele>
        <time>2012-12-02T10:25:38Z</time>
      </trkpt>
      <trkpt lat="43.66926" lon="6.93614">
        <ele>498</ele>
        <time>2012-12-02T10:25:43Z</time>
      </trkpt>
      <trkpt lat="43.6693" lon="6.93587">
        <ele>498</ele>
        <time>2012-12-02T10:25:48Z</time>
      </trkpt>
      <trkpt lat="43.66931" lon="6.93584">
        <ele>496</ele>
        <time>2012-12-02T10:25:53Z</time>
      </trkpt>
      <trkpt lat="43.66932" lon="6.93585">
        <ele>493</ele>
        <time>2012-12-02T10:26:04Z</time>
      </trkpt>
      <trkpt lat="43.66932" lon="6.93583">
        <ele>493</ele>
        <time>2012-12-02T10:26:18Z</time>
      </trkpt>
      <trkpt lat="43.66932" lon="6.93582">
        <ele>493</ele>
        <time>2012-12-02T10:26:23Z</time>
      </trkpt>
      <trkpt lat="43.66932" lon="6.9358">
        <ele>493</ele>
        <time>2012-12-02T10:26:35Z</time>
      </trkpt>
      <trkpt lat="43.6693" lon="6.93583">
        <ele>499</ele>
        <time>2012-12-02T10:26:42Z</time>
      </trkpt>
      <trkpt lat="43.66937" lon="6.93551">
        <ele>501</ele>
        <time>2012-12-02T10:27:25Z</time>
      </trkpt>
      <trkpt lat="43.66933" lon="6.93547">
        <ele>512</ele>
        <time>2012-12-02T10:27:31Z</time>
      </trkpt>
      <trkpt lat="43.66929" lon="6.93546">
        <ele>519</ele>
        <time>2012-12-02T10:27:36Z</time>
      </trkpt>
      <trkpt lat="43.66965" lon="6.93516">
        <ele>519</ele>
        <time>2012-12-02T10:29:23Z</time>
      </trkpt>
      <trkpt lat="43.66949" lon="6.9349">
        <ele>515</ele>
        <time>2012-12-02T10:29:28Z</time>
      </trkpt>
      <trkpt lat="43.66946" lon="6.93482">
        <ele>502</ele>
        <time>2012-12-02T10:29:33Z</time>
      </trkpt>
      <trkpt lat="43.66945" lon="6.93476">
        <ele>493</ele>
        <time>2012-12-02T10:29:39Z</time>
      </trkpt>
      <trkpt lat="43.66947" lon="6.93472">
        <ele>487</ele>
        <time>2012-12-02T10:29:45Z</time>
      </trkpt>
      <trkpt lat="43.66953" lon="6.93464">
        <ele>486</ele>
        <time>2012-12-02T10:29:51Z</time>
      </trkpt>
      <trkpt lat="43.66954" lon="6.93462">
        <ele>486</ele>
        <time>2012-12-02T10:29:59Z</time>
      </trkpt>
      <trkpt lat="43.66953" lon="6.9346">
        <ele>487</ele>
        <time>2012-12-02T10:30:06Z</time>
      </trkpt>
      <trkpt lat="43.66954" lon="6.9346">
        <ele>489</ele>
        <time>2012-12-02T10:30:13Z</time>
      </trkpt>
      <trkpt lat="43.66957" lon="6.93462">
        <ele>490</ele>
        <time>2012-12-02T10:30:23Z</time>
      </trkpt>
      <trkpt lat="43.66957" lon="6.93462">
        <ele>490</ele>
        <time>2012-12-02T10:30:40Z</time>
      </trkpt>
      <trkpt lat="43.66957" lon="6.93464">
        <ele>486</ele>
        <time>2012-12-02T10:30:47Z</time>
      </trkpt>
      <trkpt lat="43.66959" lon="6.93462">
        <ele>486</ele>
        <time>2012-12-02T10:31:01Z</time>
      </trkpt>
      <trkpt lat="43.66967" lon="6.93453">
        <ele>486</ele>
        <time>2012-12-02T10:31:06Z</time>
      </trkpt>
      <trkpt lat="43.66971" lon="6.93431">
        <ele>486</ele>
        <time>2012-12-02T10:31:11Z</time>
      </trkpt>
      <trkpt lat="43.66972" lon="6.9341">
        <ele>486</ele>
        <time>2012-12-02T10:31:16Z</time>
      </trkpt>
      <trkpt lat="43.66974" lon="6.93396">
        <ele>490</ele>
        <time>2012-12-02T10:31:21Z</time>
      </trkpt>
      <trkpt lat="43.6697" lon="6.93394">
        <ele>495</ele>
        <time>2012-12-02T10:31:26Z</time>
      </trkpt>
      <trkpt lat="43.66959" lon="6.93399">
        <ele>499</ele>
        <time>2012-12-02T10:31:31Z</time>
      </trkpt>
      <trkpt lat="43.66945" lon="6.93402">
        <ele>499</ele>
        <time>2012-12-02T10:31:36Z</time>
      </trkpt>
      <trkpt lat="43.66932" lon="6.93402">
        <ele>499</ele>
        <time>2012-12-02T10:31:41Z</time>
      </trkpt>
      <trkpt lat="43.66919" lon="6.934">
        <ele>499</ele>
        <time>2012-12-02T10:31:46Z</time>
      </trkpt>
      <trkpt lat="43.66907" lon="6.93396">
        <ele>498</ele>
        <time>2012-12-02T10:31:51Z</time>
      </trkpt>
      <trkpt lat="43.66895" lon="6.93386">
        <ele>498</ele>
        <time>2012-12-02T10:31:56Z</time>
      </trkpt>
      <trkpt lat="43.66882" lon="6.93372">
        <ele>498</ele>
        <time>2012-12-02T10:32:01Z</time>
      </trkpt>
      <trkpt lat="43.66866" lon="6.9336">
        <ele>498</ele>
        <time>2012-12-02T10:32:06Z</time>
      </trkpt>
      <trkpt lat="43.66851" lon="6.93346">
        <ele>498</ele>
        <time>2012-12-02T10:32:11Z</time>
      </trkpt>
      <trkpt lat="43.66839" lon="6.93328">
        <ele>498</ele>
        <time>2012-12-02T10:32:16Z</time>
      </trkpt>
      <trkpt lat="43.66827" lon="6.93308">
        <ele>498</ele>
        <time>2012-12-02T10:32:21Z</time>
      </trkpt>
      <trkpt lat="43.66813" lon="6.93291">
        <ele>498</ele>
        <time>2012-12-02T10:32:26Z</time>
      </trkpt>
      <trkpt lat="43.66799" lon="6.93275">
        <ele>498</ele>
        <time>2012-12-02T10:32:31Z</time>
      </trkpt>
      <trkpt lat="43.66785" lon="6.93259">
        <ele>495</ele>
        <time>2012-12-02T10:32:36Z</time>
      </trkpt>
      <trkpt lat="43.66772" lon="6.93245">
        <ele>493</ele>
        <time>2012-12-02T10:32:41Z</time>
      </trkpt>
      <trkpt lat="43.66758" lon="6.93235">
        <ele>493</ele>
        <time>2012-12-02T10:32:46Z</time>
      </trkpt>
      <trkpt lat="43.66742" lon="6.93229">
        <ele>493</ele>
        <time>2012-12-02T10:32:51Z</time>
      </trkpt>
      <trkpt lat="43.66724" lon="6.93221">
        <ele>493</ele>
        <time>2012-12-02T10:32:56Z</time>
      </trkpt>
      <trkpt lat="43.66704" lon="6.93216">
        <ele>493</ele>
        <time>2012-12-02T10:33:01Z</time>
      </trkpt>
      <trkpt lat="43.66689" lon="6.93203">
        <ele>493</ele>
        <time>2012-12-02T10:33:06Z</time>
      </trkpt>
      <trkpt lat="43.66684" lon="6.93186">
        <ele>493</ele>
        <time>2012-12-02T10:33:11Z</time>
      </trkpt>
      <trkpt lat="43.66682" lon="6.93167">
        <ele>490</ele>
        <time>2012-12-02T10:33:16Z</time>
      </trkpt>
      <trkpt lat="43.66676" lon="6.93153">
        <ele>490</ele>
        <time>2012-12-02T10:33:21Z</time>
      </trkpt>
      <trkpt lat="43.66674" lon="6.93136">
        <ele>490</ele>
        <time>2012-12-02T10:33:26Z</time>
      </trkpt>
      <trkpt lat="43.66674" lon="6.93114">
        <ele>490</ele>
        <time>2012-12-02T10:33:31Z</time>
      </trkpt>
      <trkpt lat="43.66679" lon="6.93092">
        <ele>490</ele>
        <time>2012-12-02T10:33:36Z</time>
      </trkpt>
      <trkpt lat="43.6669" lon="6.93089">
        <ele>489</ele>
        <time>2012-12-02T10:33:41Z</time>
      </trkpt>
      <trkpt lat="43.66697" lon="6.93088">
        <ele>489</ele>
        <time>2012-12-02T10:33:46Z</time>
      </trkpt>
      <trkpt lat="43.66704" lon="6.9308">
        <ele>488</ele>
        <time>2012-12-02T10:33:51Z</time>
      </trkpt>
      <trkpt lat="43.66707" lon="6.93064">
        <ele>484</ele>
        <time>2012-12-02T10:33:56Z</time>
      </trkpt>
      <trkpt lat="43.66711" lon="6.93051">
        <ele>484</ele>
        <time>2012-12-02T10:34:01Z</time>
      </trkpt>
      <trkpt lat="43.66713" lon="6.93041">
        <ele>484</ele>
        <time>2012-12-02T10:34:06Z</time>
      </trkpt>
      <trkpt lat="43.66711" lon="6.93024">
        <ele>484</ele>
        <time>2012-12-02T10:34:11Z</time>
      </trkpt>
      <trkpt lat="43.66708" lon="6.93008">
        <ele>484</ele>
        <time>2012-12-02T10:34:16Z</time>
      </trkpt>
      <trkpt lat="43.66705" lon="6.92993">
        <ele>484</ele>
        <time>2012-12-02T10:34:21Z</time>
      </trkpt>
      <trkpt lat="43.667" lon="6.92981">
        <ele>484</ele>
        <time>2012-12-02T10:34:26Z</time>
      </trkpt>
      <trkpt lat="43.66699" lon="6.92973">
        <ele>484</ele>
        <time>2012-12-02T10:34:32Z</time>
      </trkpt>
      <trkpt lat="43.66701" lon="6.92976">
        <ele>484</ele>
        <time>2012-12-02T10:34:41Z</time>
      </trkpt>
      <trkpt lat="43.66702" lon="6.92977">
        <ele>485</ele>
        <time>2012-12-02T10:35:00Z</time>
      </trkpt>
      <trkpt lat="43.66707" lon="6.92985">
        <ele>485</ele>
        <time>2012-12-02T10:35:05Z</time>
      </trkpt>
      <trkpt lat="43.66711" lon="6.92999">
        <ele>486</ele>
        <time>2012-12-02T10:35:10Z</time>
      </trkpt>
      <trkpt lat="43.66716" lon="6.93014">
        <ele>486</ele>
        <time>2012-12-02T10:35:15Z</time>
      </trkpt>
      <trkpt lat="43.66721" lon="6.93029">
        <ele>487</ele>
        <time>2012-12-02T10:35:20Z</time>
      </trkpt>
      <trkpt lat="43.66725" lon="6.93044">
        <ele>487</ele>
        <time>2012-12-02T10:35:25Z</time>
      </trkpt>
      <trkpt lat="43.66728" lon="6.93058">
        <ele>489</ele>
        <time>2012-12-02T10:35:30Z</time>
      </trkpt>
      <trkpt lat="43.66732" lon="6.93072">
        <ele>489</ele>
        <time>2012-12-02T10:35:35Z</time>
      </trkpt>
      <trkpt lat="43.66733" lon="6.93087">
        <ele>490</ele>
        <time>2012-12-02T10:35:40Z</time>
      </trkpt>
      <trkpt lat="43.66732" lon="6.93103">
        <ele>492</ele>
        <time>2012-12-02T10:35:45Z</time>
      </trkpt>
      <trkpt lat="43.66727" lon="6.93116">
        <ele>494</ele>
        <time>2012-12-02T10:35:50Z</time>
      </trkpt>
      <trkpt lat="43.66736" lon="6.93114">
        <ele>494</ele>
        <time>2012-12-02T10:35:55Z</time>
      </trkpt>
      <trkpt lat="43.66747" lon="6.9311">
        <ele>494</ele>
        <time>2012-12-02T10:36:00Z</time>
      </trkpt>
      <trkpt lat="43.66752" lon="6.9312">
        <ele>494</ele>
        <time>2012-12-02T10:36:05Z</time>
      </trkpt>
      <trkpt lat="43.66756" lon="6.93133">
        <ele>498</ele>
        <time>2012-12-02T10:36:10Z</time>
      </trkpt>
      <trkpt lat="43.66755" lon="6.93145">
        <ele>499</ele>
        <time>2012-12-02T10:36:15Z</time>
      </trkpt>
      <trkpt lat="43.6675" lon="6.93155">
        <ele>502</ele>
        <time>2012-12-02T10:36:20Z</time>
      </trkpt>
      <trkpt lat="43.66746" lon="6.93164">
        <ele>504</ele>
        <time>2012-12-02T10:36:25Z</time>
      </trkpt>
      <trkpt lat="43.66751" lon="6.93168">
        <ele>505</ele>
        <time>2012-12-02T10:36:30Z</time>
      </trkpt>
      <trkpt lat="43.66752" lon="6.93174">
        <ele>505</ele>
        <time>2012-12-02T10:36:35Z</time>
      </trkpt>
      <trkpt lat="43.66758" lon="6.93175">
        <ele>505</ele>
        <time>2012-12-02T10:36:40Z</time>
      </trkpt>
      <trkpt lat="43.66763" lon="6.93167">
        <ele>505</ele>
        <time>2012-12-02T10:36:45Z</time>
      </trkpt>
      <trkpt lat="43.66766" lon="6.93157">
        <ele>505</ele>
        <time>2012-12-02T10:36:50Z</time>
      </trkpt>
      <trkpt lat="43.66769" lon="6.93147">
        <ele>505</ele>
        <time>2012-12-02T10:36:55Z</time>
      </trkpt>
      <trkpt lat="43.66771" lon="6.93137">
        <ele>505</ele>
        <time>2012-12-02T10:37:00Z</time>
      </trkpt>
      <trkpt lat="43.66773" lon="6.93126">
        <ele>505</ele>
        <time>2012-12-02T10:37:05Z</time>
      </trkpt>
      <trkpt lat="43.66775" lon="6.93116">
        <ele>505</ele>
        <time>2012-12-02T10:37:10Z</time>
      </trkpt>
      <trkpt lat="43.66774" lon="6.93103">
        <ele>505</ele>
        <time>2012-12-02T10:37:15Z</time>
      </trkpt>
      <trkpt lat="43.66771" lon="6.9309">
        <ele>507</ele>
        <time>2012-12-02T10:37:20Z</time>
      </trkpt>
      <trkpt lat="43.66769" lon="6.93075">
        <ele>508</ele>
        <time>2012-12-02T10:37:25Z</time>
      </trkpt>
      <trkpt lat="43.66766" lon="6.93059">
        <ele>509</ele>
        <time>2012-12-02T10:37:30Z</time>
      </trkpt>
      <trkpt lat="43.66765" lon="6.93042">
        <ele>511</ele>
        <time>2012-12-02T10:37:35Z</time>
      </trkpt>
      <trkpt lat="43.66764" lon="6.93027">
        <ele>511</ele>
        <time>2012-12-02T10:37:40Z</time>
      </trkpt>
      <trkpt lat="43.66763" lon="6.93012">
        <ele>513</ele>
        <time>2012-12-02T10:37:45Z</time>
      </trkpt>
      <trkpt lat="43.66762" lon="6.93">
        <ele>514</ele>
        <time>2012-12-02T10:37:50Z</time>
      </trkpt>
      <trkpt lat="43.6676" lon="6.92986">
        <ele>516</ele>
        <time>2012-12-02T10:37:55Z</time>
      </trkpt>
      <trkpt lat="43.66758" lon="6.92971">
        <ele>519</ele>
        <time>2012-12-02T10:38:00Z</time>
      </trkpt>
      <trkpt lat="43.66757" lon="6.92955">
        <ele>523</ele>
        <time>2012-12-02T10:38:05Z</time>
      </trkpt>
      <trkpt lat="43.66756" lon="6.92941">
        <ele>525</ele>
        <time>2012-12-02T10:38:10Z</time>
      </trkpt>
      <trkpt lat="43.66756" lon="6.92926">
        <ele>527</ele>
        <time>2012-12-02T10:38:15Z</time>
      </trkpt>
      <trkpt lat="43.66759" lon="6.9291">
        <ele>527</ele>
        <time>2012-12-02T10:38:20Z</time>
      </trkpt>
      <trkpt lat="43.66764" lon="6.92894">
        <ele>527</ele>
        <time>2012-12-02T10:38:25Z</time>
      </trkpt>
      <trkpt lat="43.66772" lon="6.92881">
        <ele>527</ele>
        <time>2012-12-02T10:38:30Z</time>
      </trkpt>
      <trkpt lat="43.66779" lon="6.92869">
        <ele>527</ele>
        <time>2012-12-02T10:38:35Z</time>
      </trkpt>
      <trkpt lat="43.66788" lon="6.92855">
        <ele>527</ele>
        <time>2012-12-02T10:38:40Z</time>
      </trkpt>
      <trkpt lat="43.66796" lon="6.92842">
        <ele>527</ele>
        <time>2012-12-02T10:38:45Z</time>
      </trkpt>
      <trkpt lat="43.66805" lon="6.9283">
        <ele>527</ele>
        <time>2012-12-02T10:38:50Z</time>
      </trkpt>
      <trkpt lat="43.66814" lon="6.92816">
        <ele>527</ele>
        <time>2012-12-02T10:38:55Z</time>
      </trkpt>
      <trkpt lat="43.66824" lon="6.92801">
        <ele>527</ele>
        <time>2012-12-02T10:39:00Z</time>
      </trkpt>
      <trkpt lat="43.66834" lon="6.92785">
        <ele>527</ele>
        <time>2012-12-02T10:39:05Z</time>
      </trkpt>
      <trkpt lat="43.66844" lon="6.92767">
        <ele>527</ele>
        <time>2012-12-02T10:39:10Z</time>
      </trkpt>
      <trkpt lat="43.66852" lon="6.92749">
        <ele>527</ele>
        <time>2012-12-02T10:39:15Z</time>
      </trkpt>
      <trkpt lat="43.6686" lon="6.9273">
        <ele>527</ele>
        <time>2012-12-02T10:39:20Z</time>
      </trkpt>
      <trkpt lat="43.66865" lon="6.92707">
        <ele>527</ele>
        <time>2012-12-02T10:39:25Z</time>
      </trkpt>
      <trkpt lat="43.66866" lon="6.92684">
        <ele>527</ele>
        <time>2012-12-02T10:39:30Z</time>
      </trkpt>
      <trkpt lat="43.66863" lon="6.92661">
        <ele>527</ele>
        <time>2012-12-02T10:39:35Z</time>
      </trkpt>
      <trkpt lat="43.66859" lon="6.92641">
        <ele>528</ele>
        <time>2012-12-02T10:39:40Z</time>
      </trkpt>
      <trkpt lat="43.66856" lon="6.92621">
        <ele>529</ele>
        <time>2012-12-02T10:39:45Z</time>
      </trkpt>
      <trkpt lat="43.66852" lon="6.926">
        <ele>530</ele>
        <time>2012-12-02T10:39:50Z</time>
      </trkpt>
      <trkpt lat="43.66847" lon="6.9258">
        <ele>532</ele>
        <time>2012-12-02T10:39:55Z</time>
      </trkpt>
      <trkpt lat="43.66844" lon="6.92562">
        <ele>533</ele>
        <time>2012-12-02T10:40:00Z</time>
      </trkpt>
      <trkpt lat="43.66846" lon="6.92545">
        <ele>533</ele>
        <time>2012-12-02T10:40:05Z</time>
      </trkpt>
      <trkpt lat="43.66845" lon="6.92527">
        <ele>534</ele>
        <time>2012-12-02T10:40:10Z</time>
      </trkpt>
      <trkpt lat="43.66845" lon="6.9251">
        <ele>534</ele>
        <time>2012-12-02T10:40:15Z</time>
      </trkpt>
      <trkpt lat="43.66842" lon="6.92493">
        <ele>535</ele>
        <time>2012-12-02T10:40:20Z</time>
      </trkpt>
      <trkpt lat="43.66836" lon="6.92479">
        <ele>536</ele>
        <time>2012-12-02T10:40:25Z</time>
      </trkpt>
      <trkpt lat="43.66829" lon="6.92463">
        <ele>537</ele>
        <time>2012-12-02T10:40:30Z</time>
      </trkpt>
      <trkpt lat="43.66824" lon="6.92447">
        <ele>539</ele>
        <time>2012-12-02T10:40:35Z</time>
      </trkpt>
      <trkpt lat="43.6682" lon="6.92429">
        <ele>540</ele>
        <time>2012-12-02T10:40:40Z</time>
      </trkpt>
      <trkpt lat="43.66817" lon="6.92409">
        <ele>541</ele>
        <time>2012-12-02T10:40:45Z</time>
      </trkpt>
      <trkpt lat="43.66814" lon="6.9239">
        <ele>541</ele>
        <time>2012-12-02T10:40:50Z</time>
      </trkpt>
      <trkpt lat="43.66813" lon="6.92373">
        <ele>541</ele>
        <time>2012-12-02T10:40:55Z</time>
      </trkpt>
      <trkpt lat="43.66811" lon="6.92357">
        <ele>541</ele>
        <time>2012-12-02T10:41:00Z</time>
      </trkpt>
      <trkpt lat="43.66809" lon="6.92339">
        <ele>541</ele>
        <time>2012-12-02T10:41:05Z</time>
      </trkpt>
      <trkpt lat="43.66806" lon="6.92322">
        <ele>542</ele>
        <time>2012-12-02T10:41:10Z</time>
      </trkpt>
      <trkpt lat="43.66802" lon="6.92304">
        <ele>543</ele>
        <time>2012-12-02T10:41:15Z</time>
      </trkpt>
      <trkpt lat="43.66797" lon="6.92286">
        <ele>544</ele>
        <time>2012-12-02T10:41:20Z</time>
      </trkpt>
      <trkpt lat="43.66791" lon="6.9227">
        <ele>545</ele>
        <time>2012-12-02T10:41:25Z</time>
      </trkpt>
      <trkpt lat="43.66786" lon="6.92254">
        <ele>545</ele>
        <time>2012-12-02T10:41:30Z</time>
      </trkpt>
      <trkpt lat="43.6678" lon="6.92239">
        <ele>546</ele>
        <time>2012-12-02T10:41:35Z</time>
      </trkpt>
      <trkpt lat="43.66774" lon="6.92223">
        <ele>547</ele>
        <time>2012-12-02T10:41:40Z</time>
      </trkpt>
      <trkpt lat="43.66769" lon="6.92207">
        <ele>548</ele>
        <time>2012-12-02T10:41:45Z</time>
      </trkpt>
      <trkpt lat="43.66763" lon="6.92191">
        <ele>548</ele>
        <time>2012-12-02T10:41:50Z</time>
      </trkpt>
      <trkpt lat="43.66757" lon="6.92175">
        <ele>549</ele>
        <time>2012-12-02T10:41:55Z</time>
      </trkpt>
      <trkpt lat="43.66751" lon="6.9216">
        <ele>550</ele>
        <time>2012-12-02T10:42:00Z</time>
      </trkpt>
      <trkpt lat="43.66745" lon="6.92143">
        <ele>553</ele>
        <time>2012-12-02T10:42:05Z</time>
      </trkpt>
      <trkpt lat="43.6674" lon="6.92128">
        <ele>553</ele>
        <time>2012-12-02T10:42:10Z</time>
      </trkpt>
      <trkpt lat="43.66735" lon="6.92112">
        <ele>554</ele>
        <time>2012-12-02T10:42:15Z</time>
      </trkpt>
      <trkpt lat="43.6673" lon="6.92097">
        <ele>555</ele>
        <time>2012-12-02T10:42:20Z</time>
      </trkpt>
      <trkpt lat="43.66726" lon="6.92081">
        <ele>556</ele>
        <time>2012-12-02T10:42:25Z</time>
      </trkpt>
      <trkpt lat="43.66722" lon="6.92065">
        <ele>556</ele>
        <time>2012-12-02T10:42:30Z</time>
      </trkpt>
      <trkpt lat="43.66718" lon="6.92047">
        <ele>557</ele>
        <time>2012-12-02T10:42:35Z</time>
      </trkpt>
      <trkpt lat="43.66715" lon="6.92029">
        <ele>558</ele>
        <time>2012-12-02T10:42:40Z</time>
      </trkpt>
      <trkpt lat="43.66712" lon="6.92011">
        <ele>558</ele>
        <time>2012-12-02T10:42:45Z</time>
      </trkpt>
      <trkpt lat="43.66711" lon="6.91994">
        <ele>558</ele>
        <time>2012-12-02T10:42:50Z</time>
      </trkpt>
      <trkpt lat="43.66708" lon="6.91975">
        <ele>558</ele>
        <time>2012-12-02T10:42:55Z</time>
      </trkpt>
      <trkpt lat="43.66707" lon="6.91957">
        <ele>559</ele>
        <time>2012-12-02T10:43:00Z</time>
      </trkpt>
      <trkpt lat="43.66706" lon="6.91939">
        <ele>560</ele>
        <time>2012-12-02T10:43:05Z</time>
      </trkpt>
      <trkpt lat="43.66705" lon="6.91921">
        <ele>561</ele>
        <time>2012-12-02T10:43:10Z</time>
      </trkpt>
      <trkpt lat="43.66706" lon="6.91903">
        <ele>562</ele>
        <time>2012-12-02T10:43:15Z</time>
      </trkpt>
      <trkpt lat="43.66707" lon="6.91883">
        <ele>563</ele>
        <time>2012-12-02T10:43:20Z</time>
      </trkpt>
      <trkpt lat="43.66709" lon="6.91863">
        <ele>564</ele>
        <time>2012-12-02T10:43:25Z</time>
      </trkpt>
      <trkpt lat="43.66712" lon="6.91845">
        <ele>564</ele>
        <time>2012-12-02T10:43:30Z</time>
      </trkpt>
      <trkpt lat="43.66715" lon="6.91825">
        <ele>565</ele>
        <time>2012-12-02T10:43:35Z</time>
      </trkpt>
      <trkpt lat="43.66718" lon="6.91807">
        <ele>566</ele>
        <time>2012-12-02T10:43:40Z</time>
      </trkpt>
      <trkpt lat="43.66721" lon="6.9179">
        <ele>567</ele>
        <time>2012-12-02T10:43:45Z</time>
      </trkpt>
      <trkpt lat="43.66724" lon="6.91773">
        <ele>568</ele>
        <time>2012-12-02T10:43:50Z</time>
      </trkpt>
      <trkpt lat="43.66727" lon="6.91756">
        <ele>568</ele>
        <time>2012-12-02T10:43:55Z</time>
      </trkpt>
      <trkpt lat="43.66732" lon="6.91741">
        <ele>569</ele>
        <time>2012-12-02T10:44:00Z</time>
      </trkpt>
      <trkpt lat="43.66735" lon="6.91724">
        <ele>570</ele>
        <time>2012-12-02T10:44:05Z</time>
      </trkpt>
      <trkpt lat="43.66739" lon="6.91708">
        <ele>570</ele>
        <time>2012-12-02T10:44:10Z</time>
      </trkpt>
      <trkpt lat="43.66744" lon="6.91693">
        <ele>570</ele>
        <time>2012-12-02T10:44:15Z</time>
      </trkpt>
      <trkpt lat="43.66749" lon="6.91677">
        <ele>570</ele>
        <time>2012-12-02T10:44:20Z</time>
      </trkpt>
      <trkpt lat="43.66755" lon="6.91661">
        <ele>570</ele>
        <time>2012-12-02T10:44:25Z</time>
      </trkpt>
      <trkpt lat="43.6676" lon="6.91645">
        <ele>570</ele>
        <time>2012-12-02T10:44:30Z</time>
      </trkpt>
      <trkpt lat="43.66766" lon="6.9163">
        <ele>570</ele>
        <time>2012-12-02T10:44:35Z</time>
      </trkpt>
      <trkpt lat="43.66768" lon="6.91613">
        <ele>571</ele>
        <time>2012-12-02T10:44:40Z</time>
      </trkpt>
      <trkpt lat="43.6677" lon="6.91597">
        <ele>571</ele>
        <time>2012-12-02T10:44:45Z</time>
      </trkpt>
      <trkpt lat="43.66776" lon="6.91584">
        <ele>572</ele>
        <time>2012-12-02T10:44:50Z</time>
      </trkpt>
      <trkpt lat="43.66784" lon="6.91573">
        <ele>572</ele>
        <time>2012-12-02T10:44:55Z</time>
      </trkpt>
      <trkpt lat="43.66794" lon="6.9156">
        <ele>572</ele>
        <time>2012-12-02T10:45:00Z</time>
      </trkpt>
      <trkpt lat="43.66801" lon="6.91545">
        <ele>573</ele>
        <time>2012-12-02T10:45:05Z</time>
      </trkpt>
      <trkpt lat="43.66808" lon="6.9153">
        <ele>574</ele>
        <time>2012-12-02T10:45:10Z</time>
      </trkpt>
      <trkpt lat="43.66813" lon="6.91515">
        <ele>575</ele>
        <time>2012-12-02T10:45:15Z</time>
      </trkpt>
      <trkpt lat="43.66819" lon="6.915">
        <ele>577</ele>
        <time>2012-12-02T10:45:20Z</time>
      </trkpt>
      <trkpt lat="43.66825" lon="6.91485">
        <ele>578</ele>
        <time>2012-12-02T10:45:25Z</time>
      </trkpt>
      <trkpt lat="43.66831" lon="6.91469">
        <ele>579</ele>
        <time>2012-12-02T10:45:30Z</time>
      </trkpt>
      <trkpt lat="43.66836" lon="6.91452">
        <ele>580</ele>
        <time>2012-12-02T10:45:35Z</time>
      </trkpt>
      <trkpt lat="43.6684" lon="6.91435">
        <ele>581</ele>
        <time>2012-12-02T10:45:40Z</time>
      </trkpt>
      <trkpt lat="43.66844" lon="6.9142">
        <ele>581</ele>
        <time>2012-12-02T10:45:45Z</time>
      </trkpt>
      <trkpt lat="43.66848" lon="6.91404">
        <ele>581</ele>
        <time>2012-12-02T10:45:50Z</time>
      </trkpt>
      <trkpt lat="43.66852" lon="6.91388">
        <ele>582</ele>
        <time>2012-12-02T10:45:55Z</time>
      </trkpt>
      <trkpt lat="43.66856" lon="6.91371">
        <ele>583</ele>
        <time>2012-12-02T10:46:00Z</time>
      </trkpt>
      <trkpt lat="43.6686" lon="6.91355">
        <ele>584</ele>
        <time>2012-12-02T10:46:05Z</time>
      </trkpt>
      <trkpt lat="43.66864" lon="6.91338">
        <ele>584</ele>
        <time>2012-12-02T10:46:10Z</time>
      </trkpt>
      <trkpt lat="43.66867" lon="6.91322">
        <ele>584</ele>
        <time>2012-12-02T10:46:15Z</time>
      </trkpt>
      <trkpt lat="43.66872" lon="6.91306">
        <ele>585</ele>
        <time>2012-12-02T10:46:20Z</time>
      </trkpt>
      <trkpt lat="43.66876" lon="6.9129">
        <ele>586</ele>
        <time>2012-12-02T10:46:25Z</time>
      </trkpt>
      <trkpt lat="43.6688" lon="6.91274">
        <ele>587</ele>
        <time>2012-12-02T10:46:30Z</time>
      </trkpt>
      <trkpt lat="43.66885" lon="6.91259">
        <ele>587</ele>
        <time>2012-12-02T10:46:35Z</time>
      </trkpt>
      <trkpt lat="43.6689" lon="6.91245">
        <ele>588</ele>
        <time>2012-12-02T10:46:40Z</time>
      </trkpt>
      <trkpt lat="43.66898" lon="6.91232">
        <ele>588</ele>
        <time>2012-12-02T10:46:45Z</time>
      </trkpt>
      <trkpt lat="43.66905" lon="6.91224">
        <ele>589</ele>
        <time>2012-12-02T10:46:50Z</time>
      </trkpt>
      <trkpt lat="43.6691" lon="6.91218">
        <ele>590</ele>
        <time>2012-12-02T10:46:55Z</time>
      </trkpt>
      <trkpt lat="43.66915" lon="6.91214">
        <ele>591</ele>
        <time>2012-12-02T10:47:01Z</time>
      </trkpt>
      <trkpt lat="43.66918" lon="6.91211">
        <ele>591</ele>
        <time>2012-12-02T10:47:06Z</time>
      </trkpt>
      <trkpt lat="43.66921" lon="6.91211">
        <ele>592</ele>
        <time>2012-12-02T10:47:12Z</time>
      </trkpt>
      <trkpt lat="43.66926" lon="6.91208">
        <ele>592</ele>
        <time>2012-12-02T10:47:18Z</time>
      </trkpt>
      <trkpt lat="43.6693" lon="6.91206">
        <ele>593</ele>
        <time>2012-12-02T10:47:24Z</time>
      </trkpt>
      <trkpt lat="43.66935" lon="6.91201">
        <ele>594</ele>
        <time>2012-12-02T10:47:30Z</time>
      </trkpt>
      <trkpt lat="43.66939" lon="6.912">
        <ele>594</ele>
        <time>2012-12-02T10:47:39Z</time>
      </trkpt>
      <trkpt lat="43.66945" lon="6.912">
        <ele>594</ele>
        <time>2012-12-02T10:47:44Z</time>
      </trkpt>
      <trkpt lat="43.66952" lon="6.91203">
        <ele>594</ele>
        <time>2012-12-02T10:47:49Z</time>
      </trkpt>
      <trkpt lat="43.66959" lon="6.91203">
        <ele>594</ele>
        <time>2012-12-02T10:47:54Z</time>
      </trkpt>
      <trkpt lat="43.66965" lon="6.91205">
        <ele>594</ele>
        <time>2012-12-02T10:47:59Z</time>
      </trkpt>
      <trkpt lat="43.66972" lon="6.91207">
        <ele>595</ele>
        <time>2012-12-02T10:48:04Z</time>
      </trkpt>
      <trkpt lat="43.66979" lon="6.91208">
        <ele>597</ele>
        <time>2012-12-02T10:48:09Z</time>
      </trkpt>
      <trkpt lat="43.66984" lon="6.91212">
        <ele>598</ele>
        <time>2012-12-02T10:48:14Z</time>
      </trkpt>
      <trkpt lat="43.66981" lon="6.91219">
        <ele>600</ele>
        <time>2012-12-02T10:48:19Z</time>
      </trkpt>
      <trkpt lat="43.66975" lon="6.91224">
        <ele>601</ele>
        <time>2012-12-02T10:48:24Z</time>
      </trkpt>
      <trkpt lat="43.66968" lon="6.91228">
        <ele>601</ele>
        <time>2012-12-02T10:48:29Z</time>
      </trkpt>
      <trkpt lat="43.66962" lon="6.91234">
        <ele>602</ele>
        <time>2012-12-02T10:48:34Z</time>
      </trkpt>
      <trkpt lat="43.66956" lon="6.91242">
        <ele>602</ele>
        <time>2012-12-02T10:48:39Z</time>
      </trkpt>
      <trkpt lat="43.66953" lon="6.91251">
        <ele>602</ele>
        <time>2012-12-02T10:48:44Z</time>
      </trkpt>
      <trkpt lat="43.66951" lon="6.91261">
        <ele>602</ele>
        <time>2012-12-02T10:48:49Z</time>
      </trkpt>
      <trkpt lat="43.66951" lon="6.91271">
        <ele>602</ele>
        <time>2012-12-02T10:48:54Z</time>
      </trkpt>
      <trkpt lat="43.6695" lon="6.9128">
        <ele>603</ele>
        <time>2012-12-02T10:48:59Z</time>
      </trkpt>
      <trkpt lat="43.66948" lon="6.91289">
        <ele>603</ele>
        <time>2012-12-02T10:49:04Z</time>
      </trkpt>
      <trkpt lat="43.66947" lon="6.91299">
        <ele>604</ele>
        <time>2012-12-02T10:49:09Z</time>
      </trkpt>
      <trkpt lat="43.66947" lon="6.91309">
        <ele>605</ele>
        <time>2012-12-02T10:49:14Z</time>
      </trkpt>
      <trkpt lat="43.66946" lon="6.9132">
        <ele>605</ele>
        <time>2012-12-02T10:49:19Z</time>
      </trkpt>
      <trkpt lat="43.66946" lon="6.9133">
        <ele>606</ele>
        <time>2012-12-02T10:49:24Z</time>
      </trkpt>
      <trkpt lat="43.66946" lon="6.9134">
        <ele>607</ele>
        <time>2012-12-02T10:49:29Z</time>
      </trkpt>
      <trkpt lat="43.66946" lon="6.9135">
        <ele>607</ele>
        <time>2012-12-02T10:49:34Z</time>
      </trkpt>
      <trkpt lat="43.66946" lon="6.91361">
        <ele>608</ele>
        <time>2012-12-02T10:49:39Z</time>
      </trkpt>
      <trkpt lat="43.66947" lon="6.91372">
        <ele>609</ele>
        <time>2012-12-02T10:49:44Z</time>
      </trkpt>
      <trkpt lat="43.66947" lon="6.91383">
        <ele>610</ele>
        <time>2012-12-02T10:49:49Z</time>
      </trkpt>
      <trkpt lat="43.66948" lon="6.91394">
        <ele>611</ele>
        <time>2012-12-02T10:49:54Z</time>
      </trkpt>
      <trkpt lat="43.66948" lon="6.91404">
        <ele>612</ele>
        <time>2012-12-02T10:49:59Z</time>
      </trkpt>
      <trkpt lat="43.66947" lon="6.91416">
        <ele>612</ele>
        <time>2012-12-02T10:50:04Z</time>
      </trkpt>
      <trkpt lat="43.66948" lon="6.91427">
        <ele>613</ele>
        <time>2012-12-02T10:50:09Z</time>
      </trkpt>
      <trkpt lat="43.66948" lon="6.91438">
        <ele>614</ele>
        <time>2012-12-02T10:50:14Z</time>
      </trkpt>
      <trkpt lat="43.66948" lon="6.9145">
        <ele>615</ele>
        <time>2012-12-02T10:50:19Z</time>
      </trkpt>
      <trkpt lat="43.66949" lon="6.91461">
        <ele>617</ele>
        <time>2012-12-02T10:50:24Z</time>
      </trkpt>
      <trkpt lat="43.66949" lon="6.91472">
        <ele>617</ele>
        <time>2012-12-02T10:50:29Z</time>
      </trkpt>
      <trkpt lat="43.66949" lon="6.91483">
        <ele>619</ele>
        <time>2012-12-02T10:50:34Z</time>
      </trkpt>
      <trkpt lat="43.66949" lon="6.91494">
        <ele>620</ele>
        <time>2012-12-02T10:50:39Z</time>
      </trkpt>
      <trkpt lat="43.66951" lon="6.91504">
        <ele>620</ele>
        <time>2012-12-02T10:50:44Z</time>
      </trkpt>
      <trkpt lat="43.66952" lon="6.91515">
        <ele>621</ele>
        <time>2012-12-02T10:50:49Z</time>
      </trkpt>
      <trkpt lat="43.66953" lon="6.91526">
        <ele>622</ele>
        <time>2012-12-02T10:50:54Z</time>
      </trkpt>
      <trkpt lat="43.66955" lon="6.91537">
        <ele>623</ele>
        <time>2012-12-02T10:50:59Z</time>
      </trkpt>
      <trkpt lat="43.66958" lon="6.91547">
        <ele>624</ele>
        <time>2012-12-02T10:51:04Z</time>
      </trkpt>
      <trkpt lat="43.66961" lon="6.91557">
        <ele>625</ele>
        <time>2012-12-02T10:51:09Z</time>
      </trkpt>
      <trkpt lat="43.66964" lon="6.91567">
        <ele>626</ele>
        <time>2012-12-02T10:51:14Z</time>
      </trkpt>
      <trkpt lat="43.66967" lon="6.91578">
        <ele>627</ele>
        <time>2012-12-02T10:51:19Z</time>
      </trkpt>
      <trkpt lat="43.6697" lon="6.91587">
        <ele>628</ele>
        <time>2012-12-02T10:51:24Z</time>
      </trkpt>
      <trkpt lat="43.66975" lon="6.91597">
        <ele>628</ele>
        <time>2012-12-02T10:51:29Z</time>
      </trkpt>
      <trkpt lat="43.6698" lon="6.91606">
        <ele>629</ele>
        <time>2012-12-02T10:51:34Z</time>
      </trkpt>
      <trkpt lat="43.66985" lon="6.91615">
        <ele>629</ele>
        <time>2012-12-02T10:51:39Z</time>
      </trkpt>
      <trkpt lat="43.66991" lon="6.91624">
        <ele>629</ele>
        <time>2012-12-02T10:51:44Z</time>
      </trkpt>
      <trkpt lat="43.66998" lon="6.91633">
        <ele>629</ele>
        <time>2012-12-02T10:51:49Z</time>
      </trkpt>
      <trkpt lat="43.67005" lon="6.91643">
        <ele>630</ele>
        <time>2012-12-02T10:51:54Z</time>
      </trkpt>
      <trkpt lat="43.67011" lon="6.91652">
        <ele>632</ele>
        <time>2012-12-02T10:51:59Z</time>
      </trkpt>
      <trkpt lat="43.67016" lon="6.91663">
        <ele>633</ele>
        <time>2012-12-02T10:52:04Z</time>
      </trkpt>
      <trkpt lat="43.67021" lon="6.91672">
        <ele>633</ele>
        <time>2012-12-02T10:52:09Z</time>
      </trkpt>
      <trkpt lat="43.67027" lon="6.91683">
        <ele>633</ele>
        <time>2012-12-02T10:52:14Z</time>
      </trkpt>
      <trkpt lat="43.6703" lon="6.91697">
        <ele>634</ele>
        <time>2012-12-02T10:52:19Z</time>
      </trkpt>
      <trkpt lat="43.67032" lon="6.91712">
        <ele>634</ele>
        <time>2012-12-02T10:52:24Z</time>
      </trkpt>
      <trkpt lat="43.67033" lon="6.91727">
        <ele>635</ele>
        <time>2012-12-02T10:52:29Z</time>
      </trkpt>
      <trkpt lat="43.67034" lon="6.91741">
        <ele>636</ele>
        <time>2012-12-02T10:52:34Z</time>
      </trkpt>
      <trkpt lat="43.67034" lon="6.91754">
        <ele>637</ele>
        <time>2012-12-02T10:52:39Z</time>
      </trkpt>
      <trkpt lat="43.67033" lon="6.91767">
        <ele>638</ele>
        <time>2012-12-02T10:52:44Z</time>
      </trkpt>
      <trkpt lat="43.67032" lon="6.91779">
        <ele>639</ele>
        <time>2012-12-02T10:52:49Z</time>
      </trkpt>
      <trkpt lat="43.67032" lon="6.9179">
        <ele>639</ele>
        <time>2012-12-02T10:52:55Z</time>
      </trkpt>
      <trkpt lat="43.67031" lon="6.91804">
        <ele>641</ele>
        <time>2012-12-02T10:53:00Z</time>
      </trkpt>
      <trkpt lat="43.67031" lon="6.91816">
        <ele>641</ele>
        <time>2012-12-02T10:53:05Z</time>
      </trkpt>
      <trkpt lat="43.6703" lon="6.91828">
        <ele>641</ele>
        <time>2012-12-02T10:53:10Z</time>
      </trkpt>
      <trkpt lat="43.6703" lon="6.9184">
        <ele>642</ele>
        <time>2012-12-02T10:53:15Z</time>
      </trkpt>
      <trkpt lat="43.67029" lon="6.91853">
        <ele>643</ele>
        <time>2012-12-02T10:53:20Z</time>
      </trkpt>
      <trkpt lat="43.67029" lon="6.91866">
        <ele>644</ele>
        <time>2012-12-02T10:53:25Z</time>
      </trkpt>
      <trkpt lat="43.67029" lon="6.91879">
        <ele>645</ele>
        <time>2012-12-02T10:53:30Z</time>
      </trkpt>
      <trkpt lat="43.67028" lon="6.91891">
        <ele>646</ele>
        <time>2012-12-02T10:53:35Z</time>
      </trkpt>
      <trkpt lat="43.67028" lon="6.91903">
        <ele>647</ele>
        <time>2012-12-02T10:53:40Z</time>
      </trkpt>
      <trkpt lat="43.6703" lon="6.91914">
        <ele>648</ele>
        <time>2012-12-02T10:53:45Z</time>
      </trkpt>
      <trkpt lat="43.67032" lon="6.91926">
        <ele>649</ele>
        <time>2012-12-02T10:53:50Z</time>
      </trkpt>
      <trkpt lat="43.67034" lon="6.91939">
        <ele>650</ele>
        <time>2012-12-02T10:53:55Z</time>
      </trkpt>
      <trkpt lat="43.67036" lon="6.91953">
        <ele>650</ele>
        <time>2012-12-02T10:54:00Z</time>
      </trkpt>
      <trkpt lat="43.67039" lon="6.91965">
        <ele>651</ele>
        <time>2012-12-02T10:54:05Z</time>
      </trkpt>
      <trkpt lat="43.67041" lon="6.91978">
        <ele>652</ele>
        <time>2012-12-02T10:54:10Z</time>
      </trkpt>
      <trkpt lat="43.67043" lon="6.91991">
        <ele>652</ele>
        <time>2012-12-02T10:54:15Z</time>
      </trkpt>
      <trkpt lat="43.67045" lon="6.92003">
        <ele>653</ele>
        <time>2012-12-02T10:54:20Z</time>
      </trkpt>
      <trkpt lat="43.67048" lon="6.92015">
        <ele>654</ele>
        <time>2012-12-02T10:54:25Z</time>
      </trkpt>
      <trkpt lat="43.6705" lon="6.92025">
        <ele>654</ele>
        <time>2012-12-02T10:54:30Z</time>
      </trkpt>
      <trkpt lat="43.67052" lon="6.92035">
        <ele>655</ele>
        <time>2012-12-02T10:54:35Z</time>
      </trkpt>
      <trkpt lat="43.67054" lon="6.92045">
        <ele>656</ele>
        <time>2012-12-02T10:54:40Z</time>
      </trkpt>
      <trkpt lat="43.67057" lon="6.92054">
        <ele>656</ele>
        <time>2012-12-02T10:54:45Z</time>
      </trkpt>
      <trkpt lat="43.67062" lon="6.92064">
        <ele>657</ele>
        <time>2012-12-02T10:54:50Z</time>
      </trkpt>
      <trkpt lat="43.67066" lon="6.92072">
        <ele>657</ele>
        <time>2012-12-02T10:54:55Z</time>
      </trkpt>
      <trkpt lat="43.67071" lon="6.92083">
        <ele>658</ele>
        <time>2012-12-02T10:55:00Z</time>
      </trkpt>
      <trkpt lat="43.67076" lon="6.92091">
        <ele>658</ele>
        <time>2012-12-02T10:55:05Z</time>
      </trkpt>
      <trkpt lat="43.67081" lon="6.92089">
        <ele>658</ele>
        <time>2012-12-02T10:55:10Z</time>
      </trkpt>
      <trkpt lat="43.67081" lon="6.92079">
        <ele>659</ele>
        <time>2012-12-02T10:55:15Z</time>
      </trkpt>
      <trkpt lat="43.67081" lon="6.9207">
        <ele>660</ele>
        <time>2012-12-02T10:55:20Z</time>
      </trkpt>
      <trkpt lat="43.67081" lon="6.9206">
        <ele>662</ele>
        <time>2012-12-02T10:55:25Z</time>
      </trkpt>
      <trkpt lat="43.67082" lon="6.9205">
        <ele>663</ele>
        <time>2012-12-02T10:55:30Z</time>
      </trkpt>
      <trkpt lat="43.67083" lon="6.9204">
        <ele>664</ele>
        <time>2012-12-02T10:55:35Z</time>
      </trkpt>
      <trkpt lat="43.67084" lon="6.92029">
        <ele>666</ele>
        <time>2012-12-02T10:55:40Z</time>
      </trkpt>
      <trkpt lat="43.67086" lon="6.9202">
        <ele>667</ele>
        <time>2012-12-02T10:55:45Z</time>
      </trkpt>
      <trkpt lat="43.67088" lon="6.92011">
        <ele>668</ele>
        <time>2012-12-02T10:55:50Z</time>
      </trkpt>
      <trkpt lat="43.67091" lon="6.92003">
        <ele>669</ele>
        <time>2012-12-02T10:55:55Z</time>
      </trkpt>
      <trkpt lat="43.67093" lon="6.91994">
        <ele>669</ele>
        <time>2012-12-02T10:56:00Z</time>
      </trkpt>
      <trkpt lat="43.67094" lon="6.91985">
        <ele>670</ele>
        <time>2012-12-02T10:56:05Z</time>
      </trkpt>
      <trkpt lat="43.67097" lon="6.91975">
        <ele>671</ele>
        <time>2012-12-02T10:56:10Z</time>
      </trkpt>
      <trkpt lat="43.67099" lon="6.91966">
        <ele>672</ele>
        <time>2012-12-02T10:56:15Z</time>
      </trkpt>
      <trkpt lat="43.67102" lon="6.91957">
        <ele>672</ele>
        <time>2012-12-02T10:56:20Z</time>
      </trkpt>
      <trkpt lat="43.67105" lon="6.91948">
        <ele>673</ele>
        <time>2012-12-02T10:56:25Z</time>
      </trkpt>
      <trkpt lat="43.67109" lon="6.91939">
        <ele>673</ele>
        <time>2012-12-02T10:56:30Z</time>
      </trkpt>
      <trkpt lat="43.67112" lon="6.9193">
        <ele>674</ele>
        <time>2012-12-02T10:56:35Z</time>
      </trkpt>
      <trkpt lat="43.67115" lon="6.91922">
        <ele>675</ele>
        <time>2012-12-02T10:56:40Z</time>
      </trkpt>
      <trkpt lat="43.67118" lon="6.91914">
        <ele>676</ele>
        <time>2012-12-02T10:56:45Z</time>
      </trkpt>
      <trkpt lat="43.67122" lon="6.91906">
        <ele>676</ele>
        <time>2012-12-02T10:56:50Z</time>
      </trkpt>
      <trkpt lat="43.67126" lon="6.91897">
        <ele>677</ele>
        <time>2012-12-02T10:56:55Z</time>
      </trkpt>
      <trkpt lat="43.6713" lon="6.9189">
        <ele>677</ele>
        <time>2012-12-02T10:57:00Z</time>
      </trkpt>
      <trkpt lat="43.67133" lon="6.91882">
        <ele>678</ele>
        <time>2012-12-02T10:57:05Z</time>
      </trkpt>
      <trkpt lat="43.67138" lon="6.91874">
        <ele>679</ele>
        <time>2012-12-02T10:57:10Z</time>
      </trkpt>
      <trkpt lat="43.67142" lon="6.91865">
        <ele>680</ele>
        <time>2012-12-02T10:57:15Z</time>
      </trkpt>
      <trkpt lat="43.67146" lon="6.91857">
        <ele>680</ele>
        <time>2012-12-02T10:57:20Z</time>
      </trkpt>
      <trkpt lat="43.6715" lon="6.9185">
        <ele>681</ele>
        <time>2012-12-02T10:57:25Z</time>
      </trkpt>
      <trkpt lat="43.67155" lon="6.91842">
        <ele>682</ele>
        <time>2012-12-02T10:57:30Z</time>
      </trkpt>
      <trkpt lat="43.67159" lon="6.91834">
        <ele>683</ele>
        <time>2012-12-02T10:57:35Z</time>
      </trkpt>
      <trkpt lat="43.67163" lon="6.91827">
        <ele>684</ele>
        <time>2012-12-02T10:57:40Z</time>
      </trkpt>
      <trkpt lat="43.67168" lon="6.91822">
        <ele>684</ele>
        <time>2012-12-02T10:57:45Z</time>
      </trkpt>
      <trkpt lat="43.67172" lon="6.91829">
        <ele>685</ele>
        <time>2012-12-02T10:57:50Z</time>
      </trkpt>
      <trkpt lat="43.6717" lon="6.91838">
        <ele>686</ele>
        <time>2012-12-02T10:57:55Z</time>
      </trkpt>
      <trkpt lat="43.67169" lon="6.91846">
        <ele>687</ele>
        <time>2012-12-02T10:58:00Z</time>
      </trkpt>
      <trkpt lat="43.67169" lon="6.91855">
        <ele>688</ele>
        <time>2012-12-02T10:58:05Z</time>
      </trkpt>
      <trkpt lat="43.67168" lon="6.91864">
        <ele>689</ele>
        <time>2012-12-02T10:58:10Z</time>
      </trkpt>
      <trkpt lat="43.67168" lon="6.91874">
        <ele>689</ele>
        <time>2012-12-02T10:58:15Z</time>
      </trkpt>
      <trkpt lat="43.67167" lon="6.91884">
        <ele>690</ele>
        <time>2012-12-02T10:58:20Z</time>
      </trkpt>
      <trkpt lat="43.67167" lon="6.91895">
        <ele>690</ele>
        <time>2012-12-02T10:58:25Z</time>
      </trkpt>
      <trkpt lat="43.67167" lon="6.91906">
        <ele>690</ele>
        <time>2012-12-02T10:58:30Z</time>
      </trkpt>
      <trkpt lat="43.67167" lon="6.91916">
        <ele>691</ele>
        <time>2012-12-02T10:58:35Z</time>
      </trkpt>
      <trkpt lat="43.67167" lon="6.91926">
        <ele>691</ele>
        <time>2012-12-02T10:58:40Z</time>
      </trkpt>
      <trkpt lat="43.67167" lon="6.91937">
        <ele>692</ele>
        <time>2012-12-02T10:58:45Z</time>
      </trkpt>
      <trkpt lat="43.67168" lon="6.91947">
        <ele>694</ele>
        <time>2012-12-02T10:58:50Z</time>
      </trkpt>
      <trkpt lat="43.67168" lon="6.91956">
        <ele>694</ele>
        <time>2012-12-02T10:58:55Z</time>
      </trkpt>
      <trkpt lat="43.67168" lon="6.91966">
        <ele>695</ele>
        <time>2012-12-02T10:59:00Z</time>
      </trkpt>
      <trkpt lat="43.67169" lon="6.91975">
        <ele>696</ele>
        <time>2012-12-02T10:59:05Z</time>
      </trkpt>
      <trkpt lat="43.67172" lon="6.91985">
        <ele>696</ele>
        <time>2012-12-02T10:59:10Z</time>
      </trkpt>
      <trkpt lat="43.67177" lon="6.91994">
        <ele>698</ele>
        <time>2012-12-02T10:59:16Z</time>
      </trkpt>
      <trkpt lat="43.67183" lon="6.92">
        <ele>698</ele>
        <time>2012-12-02T10:59:21Z</time>
      </trkpt>
      <trkpt lat="43.6719" lon="6.92003">
        <ele>699</ele>
        <time>2012-12-02T10:59:26Z</time>
      </trkpt>
      <trkpt lat="43.67196" lon="6.92007">
        <ele>700</ele>
        <time>2012-12-02T10:59:31Z</time>
      </trkpt>
      <trkpt lat="43.67202" lon="6.92011">
        <ele>700</ele>
        <time>2012-12-02T10:59:37Z</time>
      </trkpt>
      <trkpt lat="43.67208" lon="6.92014">
        <ele>700</ele>
        <time>2012-12-02T10:59:42Z</time>
      </trkpt>
      <trkpt lat="43.67214" lon="6.92019">
        <ele>700</ele>
        <time>2012-12-02T10:59:47Z</time>
      </trkpt>
      <trkpt lat="43.67221" lon="6.92022">
        <ele>700</ele>
        <time>2012-12-02T10:59:52Z</time>
      </trkpt>
      <trkpt lat="43.67228" lon="6.92028">
        <ele>700</ele>
        <time>2012-12-02T10:59:57Z</time>
      </trkpt>
      <trkpt lat="43.67235" lon="6.92033">
        <ele>702</ele>
        <time>2012-12-02T11:00:02Z</time>
      </trkpt>
      <trkpt lat="43.67242" lon="6.92039">
        <ele>704</ele>
        <time>2012-12-02T11:00:08Z</time>
      </trkpt>
      <trkpt lat="43.67248" lon="6.92044">
        <ele>704</ele>
        <time>2012-12-02T11:00:13Z</time>
      </trkpt>
      <trkpt lat="43.67254" lon="6.92052">
        <ele>705</ele>
        <time>2012-12-02T11:00:19Z</time>
      </trkpt>
      <trkpt lat="43.67258" lon="6.92059">
        <ele>705</ele>
        <time>2012-12-02T11:00:25Z</time>
      </trkpt>
      <trkpt lat="43.67262" lon="6.92066">
        <ele>705</ele>
        <time>2012-12-02T11:00:30Z</time>
      </trkpt>
      <trkpt lat="43.67267" lon="6.92074">
        <ele>705</ele>
        <time>2012-12-02T11:00:36Z</time>
      </trkpt>
      <trkpt lat="43.67272" lon="6.92083">
        <ele>705</ele>
        <time>2012-12-02T11:00:42Z</time>
      </trkpt>
      <trkpt lat="43.67275" lon="6.9209">
        <ele>705</ele>
        <time>2012-12-02T11:00:47Z</time>
      </trkpt>
      <trkpt lat="43.67278" lon="6.92099">
        <ele>705</ele>
        <time>2012-12-02T11:00:52Z</time>
      </trkpt>
      <trkpt lat="43.67283" lon="6.92106">
        <ele>705</ele>
        <time>2012-12-02T11:00:57Z</time>
      </trkpt>
      <trkpt lat="43.67287" lon="6.92114">
        <ele>706</ele>
        <time>2012-12-02T11:01:02Z</time>
      </trkpt>
      <trkpt lat="43.6729" lon="6.92122">
        <ele>707</ele>
        <time>2012-12-02T11:01:07Z</time>
      </trkpt>
      <trkpt lat="43.67294" lon="6.9213">
        <ele>707</ele>
        <time>2012-12-02T11:01:12Z</time>
      </trkpt>
      <trkpt lat="43.67297" lon="6.92139">
        <ele>709</ele>
        <time>2012-12-02T11:01:17Z</time>
      </trkpt>
      <trkpt lat="43.67301" lon="6.92147">
        <ele>711</ele>
        <time>2012-12-02T11:01:22Z</time>
      </trkpt>
      <trkpt lat="43.67305" lon="6.92156">
        <ele>712</ele>
        <time>2012-12-02T11:01:27Z</time>
      </trkpt>
      <trkpt lat="43.67308" lon="6.92165">
        <ele>714</ele>
        <time>2012-12-02T11:01:32Z</time>
      </trkpt>
      <trkpt lat="43.67311" lon="6.92174">
        <ele>714</ele>
        <time>2012-12-02T11:01:37Z</time>
      </trkpt>
      <trkpt lat="43.67314" lon="6.92182">
        <ele>714</ele>
        <time>2012-12-02T11:01:42Z</time>
      </trkpt>
      <trkpt lat="43.67316" lon="6.92192">
        <ele>714</ele>
        <time>2012-12-02T11:01:47Z</time>
      </trkpt>
      <trkpt lat="43.67318" lon="6.922">
        <ele>714</ele>
        <time>2012-12-02T11:01:52Z</time>
      </trkpt>
      <trkpt lat="43.67322" lon="6.92208">
        <ele>714</ele>
        <time>2012-12-02T11:01:57Z</time>
      </trkpt>
      <trkpt lat="43.67325" lon="6.92217">
        <ele>715</ele>
        <time>2012-12-02T11:02:02Z</time>
      </trkpt>
      <trkpt lat="43.67328" lon="6.92227">
        <ele>718</ele>
        <time>2012-12-02T11:02:07Z</time>
      </trkpt>
      <trkpt lat="43.67331" lon="6.92237">
        <ele>720</ele>
        <time>2012-12-02T11:02:12Z</time>
      </trkpt>
      <trkpt lat="43.67334" lon="6.92246">
        <ele>722</ele>
        <time>2012-12-02T11:02:17Z</time>
      </trkpt>
      <trkpt lat="43.67337" lon="6.92255">
        <ele>723</ele>
        <time>2012-12-02T11:02:22Z</time>
      </trkpt>
      <trkpt lat="43.6734" lon="6.92264">
        <ele>724</ele>
        <time>2012-12-02T11:02:27Z</time>
      </trkpt>
      <trkpt lat="43.67344" lon="6.92272">
        <ele>725</ele>
        <time>2012-12-02T11:02:32Z</time>
      </trkpt>
      <trkpt lat="43.67347" lon="6.92281">
        <ele>726</ele>
        <time>2012-12-02T11:02:37Z</time>
      </trkpt>
      <trkpt lat="43.6735" lon="6.92291">
        <ele>727</ele>
        <time>2012-12-02T11:02:42Z</time>
      </trkpt>
      <trkpt lat="43.67354" lon="6.923">
        <ele>728</ele>
        <time>2012-12-02T11:02:47Z</time>
      </trkpt>
      <trkpt lat="43.67358" lon="6.92309">
        <ele>728</ele>
        <time>2012-12-02T11:02:52Z</time>
      </trkpt>
      <trkpt lat="43.67361" lon="6.92317">
        <ele>729</ele>
        <time>2012-12-02T11:02:57Z</time>
      </trkpt>
      <trkpt lat="43.67365" lon="6.92326">
        <ele>730</ele>
        <time>2012-12-02T11:03:02Z</time>
      </trkpt>
      <trkpt lat="43.67368" lon="6.92334">
        <ele>730</ele>
        <time>2012-12-02T11:03:07Z</time>
      </trkpt>
      <trkpt lat="43.67371" lon="6.92342">
        <ele>731</ele>
        <time>2012-12-02T11:03:12Z</time>
      </trkpt>
      <trkpt lat="43.67374" lon="6.92351">
        <ele>732</ele>
        <time>2012-12-02T11:03:17Z</time>
      </trkpt>
      <trkpt lat="43.67377" lon="6.92361">
        <ele>732</ele>
        <time>2012-12-02T11:03:22Z</time>
      </trkpt>
      <trkpt lat="43.67379" lon="6.92372">
        <ele>733</ele>
        <time>2012-12-02T11:03:27Z</time>
      </trkpt>
      <trkpt lat="43.67382" lon="6.92382">
        <ele>734</ele>
        <time>2012-12-02T11:03:32Z</time>
      </trkpt>
      <trkpt lat="43.67384" lon="6.92393">
        <ele>736</ele>
        <time>2012-12-02T11:03:38Z</time>
      </trkpt>
      <trkpt lat="43.67385" lon="6.92403">
        <ele>737</ele>
        <time>2012-12-02T11:03:43Z</time>
      </trkpt>
      <trkpt lat="43.67386" lon="6.92414">
        <ele>739</ele>
        <time>2012-12-02T11:03:48Z</time>
      </trkpt>
      <trkpt lat="43.67388" lon="6.92423">
        <ele>740</ele>
        <time>2012-12-02T11:03:53Z</time>
      </trkpt>
      <trkpt lat="43.6739" lon="6.92436">
        <ele>740</ele>
        <time>2012-12-02T11:03:59Z</time>
      </trkpt>
      <trkpt lat="43.67392" lon="6.92447">
        <ele>741</ele>
        <time>2012-12-02T11:04:04Z</time>
      </trkpt>
      <trkpt lat="43.67395" lon="6.92458">
        <ele>741</ele>
        <time>2012-12-02T11:04:09Z</time>
      </trkpt>
      <trkpt lat="43.67398" lon="6.92469">
        <ele>742</ele>
        <time>2012-12-02T11:04:14Z</time>
      </trkpt>
      <trkpt lat="43.67401" lon="6.92482">
        <ele>743</ele>
        <time>2012-12-02T11:04:20Z</time>
      </trkpt>
      <trkpt lat="43.67405" lon="6.92494">
        <ele>744</ele>
        <time>2012-12-02T11:04:26Z</time>
      </trkpt>
      <trkpt lat="43.67408" lon="6.92502">
        <ele>744</ele>
        <time>2012-12-02T11:04:31Z</time>
      </trkpt>
      <trkpt lat="43.67412" lon="6.92512">
        <ele>745</ele>
        <time>2012-12-02T11:04:36Z</time>
      </trkpt>
      <trkpt lat="43.67417" lon="6.92521">
        <ele>746</ele>
        <time>2012-12-02T11:04:42Z</time>
      </trkpt>
      <trkpt lat="43.67421" lon="6.92529">
        <ele>747</ele>
        <time>2012-12-02T11:04:47Z</time>
      </trkpt>
      <trkpt lat="43.67425" lon="6.92536">
        <ele>748</ele>
        <time>2012-12-02T11:04:52Z</time>
      </trkpt>
      <trkpt lat="43.67429" lon="6.92544">
        <ele>748</ele>
        <time>2012-12-02T11:04:58Z</time>
      </trkpt>
      <trkpt lat="43.67434" lon="6.92551">
        <ele>748</ele>
        <time>2012-12-02T11:05:04Z</time>
      </trkpt>
      <trkpt lat="43.67439" lon="6.92557">
        <ele>749</ele>
        <time>2012-12-02T11:05:09Z</time>
      </trkpt>
      <trkpt lat="43.67444" lon="6.92564">
        <ele>749</ele>
        <time>2012-12-02T11:05:15Z</time>
      </trkpt>
      <trkpt lat="43.6745" lon="6.9257">
        <ele>749</ele>
        <time>2012-12-02T11:05:21Z</time>
      </trkpt>
      <trkpt lat="43.67455" lon="6.92576">
        <ele>749</ele>
        <time>2012-12-02T11:05:26Z</time>
      </trkpt>
      <trkpt lat="43.67461" lon="6.92581">
        <ele>750</ele>
        <time>2012-12-02T11:05:31Z</time>
      </trkpt>
      <trkpt lat="43.67467" lon="6.92586">
        <ele>750</ele>
        <time>2012-12-02T11:05:36Z</time>
      </trkpt>
      <trkpt lat="43.67474" lon="6.9259">
        <ele>751</ele>
        <time>2012-12-02T11:05:41Z</time>
      </trkpt>
      <trkpt lat="43.67483" lon="6.92595">
        <ele>751</ele>
        <time>2012-12-02T11:05:47Z</time>
      </trkpt>
      <trkpt lat="43.6749" lon="6.92598">
        <ele>751</ele>
        <time>2012-12-02T11:05:52Z</time>
      </trkpt>
      <trkpt lat="43.67498" lon="6.92602">
        <ele>751</ele>
        <time>2012-12-02T11:05:57Z</time>
      </trkpt>
      <trkpt lat="43.67505" lon="6.92606">
        <ele>751</ele>
        <time>2012-12-02T11:06:02Z</time>
      </trkpt>
      <trkpt lat="43.67512" lon="6.92609">
        <ele>752</ele>
        <time>2012-12-02T11:06:07Z</time>
      </trkpt>
      <trkpt lat="43.67519" lon="6.92611">
        <ele>752</ele>
        <time>2012-12-02T11:06:12Z</time>
      </trkpt>
      <trkpt lat="43.67527" lon="6.92614">
        <ele>753</ele>
        <time>2012-12-02T11:06:17Z</time>
      </trkpt>
      <trkpt lat="43.67535" lon="6.92617">
        <ele>754</ele>
        <time>2012-12-02T11:06:22Z</time>
      </trkpt>
      <trkpt lat="43.67542" lon="6.92619">
        <ele>754</ele>
        <time>2012-12-02T11:06:27Z</time>
      </trkpt>
      <trkpt lat="43.67549" lon="6.9262">
        <ele>755</ele>
        <time>2012-12-02T11:06:32Z</time>
      </trkpt>
      <trkpt lat="43.67557" lon="6.92621">
        <ele>756</ele>
        <time>2012-12-02T11:06:37Z</time>
      </trkpt>
      <trkpt lat="43.67565" lon="6.92622">
        <ele>759</ele>
        <time>2012-12-02T11:06:42Z</time>
      </trkpt>
      <trkpt lat="43.67573" lon="6.92622">
        <ele>761</ele>
        <time>2012-12-02T11:06:47Z</time>
      </trkpt>
      <trkpt lat="43.6758" lon="6.9262">
        <ele>761</ele>
        <time>2012-12-02T11:06:52Z</time>
      </trkpt>
      <trkpt lat="43.67587" lon="6.92618">
        <ele>761</ele>
        <time>2012-12-02T11:06:57Z</time>
      </trkpt>
      <trkpt lat="43.67594" lon="6.92616">
        <ele>762</ele>
        <time>2012-12-02T11:07:02Z</time>
      </trkpt>
      <trkpt lat="43.67601" lon="6.92614">
        <ele>762</ele>
        <time>2012-12-02T11:07:07Z</time>
      </trkpt>
      <trkpt lat="43.67609" lon="6.92612">
        <ele>763</ele>
        <time>2012-12-02T11:07:12Z</time>
      </trkpt>
      <trkpt lat="43.67617" lon="6.92609">
        <ele>764</ele>
        <time>2012-12-02T11:07:17Z</time>
      </trkpt>
      <trkpt lat="43.67624" lon="6.92606">
        <ele>764</ele>
        <time>2012-12-02T11:07:22Z</time>
      </trkpt>
      <trkpt lat="43.67632" lon="6.92603">
        <ele>764</ele>
        <time>2012-12-02T11:07:27Z</time>
      </trkpt>
      <trkpt lat="43.6764" lon="6.92601">
        <ele>764</ele>
        <time>2012-12-02T11:07:32Z</time>
      </trkpt>
      <trkpt lat="43.67648" lon="6.92597">
        <ele>764</ele>
        <time>2012-12-02T11:07:38Z</time>
      </trkpt>
      <trkpt lat="43.67655" lon="6.92594">
        <ele>764</ele>
        <time>2012-12-02T11:07:43Z</time>
      </trkpt>
      <trkpt lat="43.67662" lon="6.92591">
        <ele>764</ele>
        <time>2012-12-02T11:07:48Z</time>
      </trkpt>
      <trkpt lat="43.67669" lon="6.92587">
        <ele>764</ele>
        <time>2012-12-02T11:07:53Z</time>
      </trkpt>
      <trkpt lat="43.67675" lon="6.92583">
        <ele>765</ele>
        <time>2012-12-02T11:07:58Z</time>
      </trkpt>
      <trkpt lat="43.67683" lon="6.92579">
        <ele>766</ele>
        <time>2012-12-02T11:08:04Z</time>
      </trkpt>
      <trkpt lat="43.67689" lon="6.92575">
        <ele>766</ele>
        <time>2012-12-02T11:08:09Z</time>
      </trkpt>
      <trkpt lat="43.67695" lon="6.92573">
        <ele>767</ele>
        <time>2012-12-02T11:08:14Z</time>
      </trkpt>
      <trkpt lat="43.67701" lon="6.9257">
        <ele>768</ele>
        <time>2012-12-02T11:08:19Z</time>
      </trkpt>
      <trkpt lat="43.67707" lon="6.92567">
        <ele>769</ele>
        <time>2012-12-02T11:08:24Z</time>
      </trkpt>
      <trkpt lat="43.67712" lon="6.92563">
        <ele>769</ele>
        <time>2012-12-02T11:08:29Z</time>
      </trkpt>
      <trkpt lat="43.67719" lon="6.9256">
        <ele>771</ele>
        <time>2012-12-02T11:08:34Z</time>
      </trkpt>
      <trkpt lat="43.67725" lon="6.92557">
        <ele>771</ele>
        <time>2012-12-02T11:08:39Z</time>
      </trkpt>
      <trkpt lat="43.67731" lon="6.92555">
        <ele>772</ele>
        <time>2012-12-02T11:08:44Z</time>
      </trkpt>
      <trkpt lat="43.67737" lon="6.92552">
        <ele>774</ele>
        <time>2012-12-02T11:08:49Z</time>
      </trkpt>
      <trkpt lat="43.67743" lon="6.92548">
        <ele>775</ele>
        <time>2012-12-02T11:08:55Z</time>
      </trkpt>
      <trkpt lat="43.67749" lon="6.92547">
        <ele>777</ele>
        <time>2012-12-02T11:09:00Z</time>
      </trkpt>
      <trkpt lat="43.67754" lon="6.92541">
        <ele>778</ele>
        <time>2012-12-02T11:09:06Z</time>
      </trkpt>
      <trkpt lat="43.6776" lon="6.92536">
        <ele>779</ele>
        <time>2012-12-02T11:09:12Z</time>
      </trkpt>
      <trkpt lat="43.67765" lon="6.92532">
        <ele>779</ele>
        <time>2012-12-02T11:09:17Z</time>
      </trkpt>
      <trkpt lat="43.67771" lon="6.92529">
        <ele>779</ele>
        <time>2012-12-02T11:09:22Z</time>
      </trkpt>
      <trkpt lat="43.67777" lon="6.92526">
        <ele>780</ele>
        <time>2012-12-02T11:09:28Z</time>
      </trkpt>
      <trkpt lat="43.67782" lon="6.92523">
        <ele>780</ele>
        <time>2012-12-02T11:09:33Z</time>
      </trkpt>
      <trkpt lat="43.67788" lon="6.92519">
        <ele>780</ele>
        <time>2012-12-02T11:09:38Z</time>
      </trkpt>
      <trkpt lat="43.67795" lon="6.92518">
        <ele>782</ele>
        <time>2012-12-02T11:09:44Z</time>
      </trkpt>
      <trkpt lat="43.67802" lon="6.92514">
        <ele>783</ele>
        <time>2012-12-02T11:09:50Z</time>
      </trkpt>
      <trkpt lat="43.6781" lon="6.92512">
        <ele>784</ele>
        <time>2012-12-02T11:09:55Z</time>
      </trkpt>
      <trkpt lat="43.67816" lon="6.92508">
        <ele>786</ele>
        <time>2012-12-02T11:10:00Z</time>
      </trkpt>
      <trkpt lat="43.67823" lon="6.92504">
        <ele>786</ele>
        <time>2012-12-02T11:10:06Z</time>
      </trkpt>
      <trkpt lat="43.67828" lon="6.92499">
        <ele>787</ele>
        <time>2012-12-02T11:10:11Z</time>
      </trkpt>
      <trkpt lat="43.67834" lon="6.92497">
        <ele>788</ele>
        <time>2012-12-02T11:10:16Z</time>
      </trkpt>
      <trkpt lat="43.67841" lon="6.92495">
        <ele>789</ele>
        <time>2012-12-02T11:10:21Z</time>
      </trkpt>
      <trkpt lat="43.67847" lon="6.92492">
        <ele>790</ele>
        <time>2012-12-02T11:10:26Z</time>
      </trkpt>
      <trkpt lat="43.67852" lon="6.92491">
        <ele>792</ele>
        <time>2012-12-02T11:10:31Z</time>
      </trkpt>
      <trkpt lat="43.67857" lon="6.92488">
        <ele>792</ele>
        <time>2012-12-02T11:10:36Z</time>
      </trkpt>
      <trkpt lat="43.6786" lon="6.92487">
        <ele>794</ele>
        <time>2012-12-02T11:10:43Z</time>
      </trkpt>
      <trkpt lat="43.67865" lon="6.92486">
        <ele>795</ele>
        <time>2012-12-02T11:10:50Z</time>
      </trkpt>
      <trkpt lat="43.67869" lon="6.92484">
        <ele>795</ele>
        <time>2012-12-02T11:10:56Z</time>
      </trkpt>
      <trkpt lat="43.67874" lon="6.92481">
        <ele>797</ele>
        <time>2012-12-02T11:11:02Z</time>
      </trkpt>
      <trkpt lat="43.67878" lon="6.92479">
        <ele>799</ele>
        <time>2012-12-02T11:11:07Z</time>
      </trkpt>
      <trkpt lat="43.67884" lon="6.92475">
        <ele>800</ele>
        <time>2012-12-02T11:11:13Z</time>
      </trkpt>
      <trkpt lat="43.67888" lon="6.92473">
        <ele>800</ele>
        <time>2012-12-02T11:11:18Z</time>
      </trkpt>
      <trkpt lat="43.67894" lon="6.9247">
        <ele>800</ele>
        <time>2012-12-02T11:11:24Z</time>
      </trkpt>
      <trkpt lat="43.67899" lon="6.92466">
        <ele>800</ele>
        <time>2012-12-02T11:11:30Z</time>
      </trkpt>
      <trkpt lat="43.67904" lon="6.92463">
        <ele>800</ele>
        <time>2012-12-02T11:11:35Z</time>
      </trkpt>
      <trkpt lat="43.6791" lon="6.92459">
        <ele>800</ele>
        <time>2012-12-02T11:11:41Z</time>
      </trkpt>
      <trkpt lat="43.67915" lon="6.92455">
        <ele>801</ele>
        <time>2012-12-02T11:11:47Z</time>
      </trkpt>
      <trkpt lat="43.67919" lon="6.92452">
        <ele>801</ele>
        <time>2012-12-02T11:11:52Z</time>
      </trkpt>
      <trkpt lat="43.67925" lon="6.92448">
        <ele>801</ele>
        <time>2012-12-02T11:11:58Z</time>
      </trkpt>
      <trkpt lat="43.67929" lon="6.92445">
        <ele>801</ele>
        <time>2012-12-02T11:12:03Z</time>
      </trkpt>
      <trkpt lat="43.67934" lon="6.92441">
        <ele>801</ele>
        <time>2012-12-02T11:12:09Z</time>
      </trkpt>
      <trkpt lat="43.67939" lon="6.92436">
        <ele>801</ele>
        <time>2012-12-02T11:12:15Z</time>
      </trkpt>
      <trkpt lat="43.67942" lon="6.92432">
        <ele>801</ele>
        <time>2012-12-02T11:12:20Z</time>
      </trkpt>
      <trkpt lat="43.67944" lon="6.92427">
        <ele>801</ele>
        <time>2012-12-02T11:12:25Z</time>
      </trkpt>
      <trkpt lat="43.67949" lon="6.92423">
        <ele>802</ele>
        <time>2012-12-02T11:12:31Z</time>
      </trkpt>
      <trkpt lat="43.67952" lon="6.92418">
        <ele>803</ele>
        <time>2012-12-02T11:12:37Z</time>
      </trkpt>
      <trkpt lat="43.67955" lon="6.92413">
        <ele>804</ele>
        <time>2012-12-02T11:12:43Z</time>
      </trkpt>
      <trkpt lat="43.67961" lon="6.92409">
        <ele>807</ele>
        <time>2012-12-02T11:12:48Z</time>
      </trkpt>
      <trkpt lat="43.67965" lon="6.92404">
        <ele>810</ele>
        <time>2012-12-02T11:12:54Z</time>
      </trkpt>
      <trkpt lat="43.67967" lon="6.924">
        <ele>810</ele>
        <time>2012-12-02T11:12:59Z</time>
      </trkpt>
      <trkpt lat="43.6797" lon="6.92393">
        <ele>811</ele>
        <time>2012-12-02T11:13:05Z</time>
      </trkpt>
      <trkpt lat="43.67973" lon="6.92388">
        <ele>811</ele>
        <time>2012-12-02T11:13:10Z</time>
      </trkpt>
      <trkpt lat="43.67976" lon="6.92383">
        <ele>811</ele>
        <time>2012-12-02T11:13:16Z</time>
      </trkpt>
      <trkpt lat="43.67979" lon="6.92377">
        <ele>811</ele>
        <time>2012-12-02T11:13:22Z</time>
      </trkpt>
      <trkpt lat="43.67982" lon="6.92371">
        <ele>811</ele>
        <time>2012-12-02T11:13:28Z</time>
      </trkpt>
      <trkpt lat="43.67985" lon="6.92365">
        <ele>811</ele>
        <time>2012-12-02T11:13:34Z</time>
      </trkpt>
      <trkpt lat="43.6799" lon="6.92359">
        <ele>811</ele>
        <time>2012-12-02T11:13:40Z</time>
      </trkpt>
      <trkpt lat="43.67991" lon="6.92353">
        <ele>813</ele>
        <time>2012-12-02T11:13:45Z</time>
      </trkpt>
      <trkpt lat="43.67995" lon="6.9235">
        <ele>816</ele>
        <time>2012-12-02T11:13:50Z</time>
      </trkpt>
      <trkpt lat="43.67997" lon="6.92346">
        <ele>817</ele>
        <time>2012-12-02T11:13:55Z</time>
      </trkpt>
      <trkpt lat="43.68001" lon="6.92341">
        <ele>817</ele>
        <time>2012-12-02T11:14:01Z</time>
      </trkpt>
      <trkpt lat="43.68005" lon="6.92337">
        <ele>819</ele>
        <time>2012-12-02T11:14:08Z</time>
      </trkpt>
      <trkpt lat="43.68008" lon="6.92332">
        <ele>820</ele>
        <time>2012-12-02T11:14:14Z</time>
      </trkpt>
      <trkpt lat="43.68011" lon="6.92327">
        <ele>821</ele>
        <time>2012-12-02T11:14:20Z</time>
      </trkpt>
      <trkpt lat="43.68016" lon="6.92325">
        <ele>823</ele>
        <time>2012-12-02T11:14:26Z</time>
      </trkpt>
      <trkpt lat="43.6802" lon="6.92322">
        <ele>825</ele>
        <time>2012-12-02T11:14:32Z</time>
      </trkpt>
      <trkpt lat="43.68024" lon="6.92319">
        <ele>825</ele>
        <time>2012-12-02T11:14:38Z</time>
      </trkpt>
      <trkpt lat="43.68027" lon="6.92317">
        <ele>825</ele>
        <time>2012-12-02T11:14:43Z</time>
      </trkpt>
      <trkpt lat="43.68033" lon="6.92315">
        <ele>826</ele>
        <time>2012-12-02T11:14:49Z</time>
      </trkpt>
      <trkpt lat="43.68038" lon="6.92314">
        <ele>828</ele>
        <time>2012-12-02T11:14:55Z</time>
      </trkpt>
      <trkpt lat="43.68043" lon="6.92311">
        <ele>828</ele>
        <time>2012-12-02T11:15:00Z</time>
      </trkpt>
      <trkpt lat="43.68046" lon="6.9231">
        <ele>830</ele>
        <time>2012-12-02T11:15:05Z</time>
      </trkpt>
      <trkpt lat="43.68051" lon="6.92315">
        <ele>830</ele>
        <time>2012-12-02T11:15:10Z</time>
      </trkpt>
      <trkpt lat="43.68052" lon="6.92325">
        <ele>830</ele>
        <time>2012-12-02T11:15:15Z</time>
      </trkpt>
      <trkpt lat="43.68048" lon="6.92335">
        <ele>834</ele>
        <time>2012-12-02T11:15:21Z</time>
      </trkpt>
      <trkpt lat="43.68045" lon="6.92343">
        <ele>836</ele>
        <time>2012-12-02T11:15:26Z</time>
      </trkpt>
      <trkpt lat="43.68042" lon="6.9235">
        <ele>838</ele>
        <time>2012-12-02T11:15:31Z</time>
      </trkpt>
      <trkpt lat="43.68044" lon="6.92358">
        <ele>839</ele>
        <time>2012-12-02T11:15:36Z</time>
      </trkpt>
      <trkpt lat="43.68044" lon="6.92368">
        <ele>840</ele>
        <time>2012-12-02T11:15:41Z</time>
      </trkpt>
      <trkpt lat="43.68045" lon="6.92377">
        <ele>841</ele>
        <time>2012-12-02T11:15:46Z</time>
      </trkpt>
      <trkpt lat="43.68045" lon="6.92384">
        <ele>842</ele>
        <time>2012-12-02T11:15:51Z</time>
      </trkpt>
      <trkpt lat="43.68045" lon="6.92392">
        <ele>843</ele>
        <time>2012-12-02T11:15:56Z</time>
      </trkpt>
      <trkpt lat="43.68045" lon="6.924">
        <ele>843</ele>
        <time>2012-12-02T11:16:01Z</time>
      </trkpt>
      <trkpt lat="43.68045" lon="6.92409">
        <ele>844</ele>
        <time>2012-12-02T11:16:06Z</time>
      </trkpt>
      <trkpt lat="43.68045" lon="6.92418">
        <ele>845</ele>
        <time>2012-12-02T11:16:11Z</time>
      </trkpt>
      <trkpt lat="43.68045" lon="6.92427">
        <ele>846</ele>
        <time>2012-12-02T11:16:17Z</time>
      </trkpt>
      <trkpt lat="43.68045" lon="6.92435">
        <ele>847</ele>
        <time>2012-12-02T11:16:22Z</time>
      </trkpt>
      <trkpt lat="43.68045" lon="6.92444">
        <ele>848</ele>
        <time>2012-12-02T11:16:27Z</time>
      </trkpt>
      <trkpt lat="43.68044" lon="6.92451">
        <ele>849</ele>
        <time>2012-12-02T11:16:32Z</time>
      </trkpt>
      <trkpt lat="43.68044" lon="6.92459">
        <ele>850</ele>
        <time>2012-12-02T11:16:37Z</time>
      </trkpt>
      <trkpt lat="43.68044" lon="6.92466">
        <ele>851</ele>
        <time>2012-12-02T11:16:42Z</time>
      </trkpt>
      <trkpt lat="43.68044" lon="6.92473">
        <ele>852</ele>
        <time>2012-12-02T11:16:47Z</time>
      </trkpt>
      <trkpt lat="43.68044" lon="6.92481">
        <ele>853</ele>
        <time>2012-12-02T11:16:52Z</time>
      </trkpt>
      <trkpt lat="43.68044" lon="6.92488">
        <ele>853</ele>
        <time>2012-12-02T11:16:57Z</time>
      </trkpt>
      <trkpt lat="43.68047" lon="6.92494">
        <ele>854</ele>
        <time>2012-12-02T11:17:02Z</time>
      </trkpt>
      <trkpt lat="43.68051" lon="6.92492">
        <ele>854</ele>
        <time>2012-12-02T11:17:07Z</time>
      </trkpt>
      <trkpt lat="43.68053" lon="6.92485">
        <ele>854</ele>
        <time>2012-12-02T11:17:12Z</time>
      </trkpt>
      <trkpt lat="43.68053" lon="6.92476">
        <ele>854</ele>
        <time>2012-12-02T11:17:18Z</time>
      </trkpt>
      <trkpt lat="43.68056" lon="6.92468">
        <ele>854</ele>
        <time>2012-12-02T11:17:24Z</time>
      </trkpt>
      <trkpt lat="43.68059" lon="6.92461">
        <ele>856</ele>
        <time>2012-12-02T11:17:29Z</time>
      </trkpt>
      <trkpt lat="43.68061" lon="6.92453">
        <ele>857</ele>
        <time>2012-12-02T11:17:34Z</time>
      </trkpt>
      <trkpt lat="43.68064" lon="6.92444">
        <ele>858</ele>
        <time>2012-12-02T11:17:39Z</time>
      </trkpt>
      <trkpt lat="43.68066" lon="6.92435">
        <ele>859</ele>
        <time>2012-12-02T11:17:44Z</time>
      </trkpt>
      <trkpt lat="43.68069" lon="6.92426">
        <ele>859</ele>
        <time>2012-12-02T11:17:49Z</time>
      </trkpt>
      <trkpt lat="43.6807" lon="6.92418">
        <ele>860</ele>
        <time>2012-12-02T11:17:54Z</time>
      </trkpt>
      <trkpt lat="43.68073" lon="6.92412">
        <ele>862</ele>
        <time>2012-12-02T11:17:59Z</time>
      </trkpt>
      <trkpt lat="43.68076" lon="6.92408">
        <ele>862</ele>
        <time>2012-12-02T11:18:04Z</time>
      </trkpt>
      <trkpt lat="43.68078" lon="6.92406">
        <ele>862</ele>
        <time>2012-12-02T11:18:14Z</time>
      </trkpt>
      <trkpt lat="43.68084" lon="6.92401">
        <ele>862</ele>
        <time>2012-12-02T11:18:19Z</time>
      </trkpt>
      <trkpt lat="43.68089" lon="6.92395">
        <ele>862</ele>
        <time>2012-12-02T11:18:24Z</time>
      </trkpt>
      <trkpt lat="43.68093" lon="6.92389">
        <ele>862</ele>
        <time>2012-12-02T11:18:30Z</time>
      </trkpt>
      <trkpt lat="43.68098" lon="6.92384">
        <ele>862</ele>
        <time>2012-12-02T11:18:35Z</time>
      </trkpt>
      <trkpt lat="43.68103" lon="6.92379">
        <ele>862</ele>
        <time>2012-12-02T11:18:40Z</time>
      </trkpt>
      <trkpt lat="43.68108" lon="6.92373">
        <ele>862</ele>
        <time>2012-12-02T11:18:45Z</time>
      </trkpt>
      <trkpt lat="43.68114" lon="6.92367">
        <ele>862</ele>
        <time>2012-12-02T11:18:51Z</time>
      </trkpt>
      <trkpt lat="43.68119" lon="6.92362">
        <ele>863</ele>
        <time>2012-12-02T11:18:56Z</time>
      </trkpt>
      <trkpt lat="43.68125" lon="6.92356">
        <ele>865</ele>
        <time>2012-12-02T11:19:02Z</time>
      </trkpt>
      <trkpt lat="43.6813" lon="6.9235">
        <ele>866</ele>
        <time>2012-12-02T11:19:08Z</time>
      </trkpt>
      <trkpt lat="43.68135" lon="6.92343">
        <ele>866</ele>
        <time>2012-12-02T11:19:14Z</time>
      </trkpt>
      <trkpt lat="43.6814" lon="6.92338">
        <ele>867</ele>
        <time>2012-12-02T11:19:19Z</time>
      </trkpt>
      <trkpt lat="43.68145" lon="6.92335">
        <ele>867</ele>
        <time>2012-12-02T11:19:24Z</time>
      </trkpt>
      <trkpt lat="43.68151" lon="6.92331">
        <ele>868</ele>
        <time>2012-12-02T11:19:29Z</time>
      </trkpt>
      <trkpt lat="43.68157" lon="6.92326">
        <ele>868</ele>
        <time>2012-12-02T11:19:34Z</time>
      </trkpt>
      <trkpt lat="43.68163" lon="6.92323">
        <ele>869</ele>
        <time>2012-12-02T11:19:39Z</time>
      </trkpt>
      <trkpt lat="43.6817" lon="6.92321">
        <ele>869</ele>
        <time>2012-12-02T11:19:44Z</time>
      </trkpt>
      <trkpt lat="43.68177" lon="6.92322">
        <ele>870</ele>
        <time>2012-12-02T11:19:49Z</time>
      </trkpt>
      <trkpt lat="43.68183" lon="6.9233">
        <ele>870</ele>
        <time>2012-12-02T11:19:55Z</time>
      </trkpt>
      <trkpt lat="43.68185" lon="6.92339">
        <ele>872</ele>
        <time>2012-12-02T11:20:01Z</time>
      </trkpt>
      <trkpt lat="43.6818" lon="6.92343">
        <ele>875</ele>
        <time>2012-12-02T11:20:08Z</time>
      </trkpt>
      <trkpt lat="43.68182" lon="6.92341">
        <ele>876</ele>
        <time>2012-12-02T11:20:15Z</time>
      </trkpt>
      <trkpt lat="43.68185" lon="6.92341">
        <ele>877</ele>
        <time>2012-12-02T11:20:20Z</time>
      </trkpt>
      <trkpt lat="43.68185" lon="6.92342">
        <ele>877</ele>
        <time>2012-12-02T11:20:28Z</time>
      </trkpt>
      <trkpt lat="43.68185" lon="6.92341">
        <ele>879</ele>
        <time>2012-12-02T11:20:53Z</time>
      </trkpt>
      <trkpt lat="43.68183" lon="6.9234">
        <ele>882</ele>
        <time>2012-12-02T11:21:11Z</time>
      </trkpt>
      <trkpt lat="43.68182" lon="6.92339">
        <ele>884</ele>
        <time>2012-12-02T11:21:41Z</time>
      </trkpt>
      <trkpt lat="43.68181" lon="6.92337">
        <ele>886</ele>
        <time>2012-12-02T11:22:05Z</time>
      </trkpt>
      <trkpt lat="43.6818" lon="6.92336">
        <ele>887</ele>
        <time>2012-12-02T11:22:49Z</time>
      </trkpt>
      <trkpt lat="43.68181" lon="6.92337">
        <ele>890</ele>
        <time>2012-12-02T11:23:24Z</time>
      </trkpt>
      <trkpt lat="43.68181" lon="6.92338">
        <ele>890</ele>
        <time>2012-12-02T11:24:06Z</time>
      </trkpt>
      <trkpt lat="43.68182" lon="6.92338">
        <ele>890</ele>
        <time>2012-12-02T11:24:38Z</time>
      </trkpt>
      <trkpt lat="43.68181" lon="6.92338">
        <ele>890</ele>
        <time>2012-12-02T11:24:48Z</time>
      </trkpt>
      <trkpt lat="43.6818" lon="6.92339">
        <ele>890</ele>
        <time>2012-12-02T11:25:16Z</time>
      </trkpt>
      <trkpt lat="43.68179" lon="6.92341">
        <ele>890</ele>
        <time>2012-12-02T11:25:55Z</time>
      </trkpt>
      <trkpt lat="43.6818" lon="6.92339">
        <ele>891</ele>
        <time>2012-12-02T11:26:08Z</time>
      </trkpt>
      <trkpt lat="43.68182" lon="6.9234">
        <ele>891</ele>
        <time>2012-12-02T11:26:17Z</time>
      </trkpt>
      <trkpt lat="43.68184" lon="6.9234">
        <ele>891</ele>
        <time>2012-12-02T11:26:32Z</time>
      </trkpt>
      <trkpt lat="43.68185" lon="6.92341">
        <ele>889</ele>
        <time>2012-12-02T11:26:48Z</time>
      </trkpt>
      <trkpt lat="43.68186" lon="6.92342">
        <ele>888</ele>
        <time>2012-12-02T11:27:06Z</time>
      </trkpt>
      <trkpt lat="43.68185" lon="6.92341">
        <ele>886</ele>
        <time>2012-12-02T11:28:51Z</time>
      </trkpt>
      <trkpt lat="43.68183" lon="6.9234">
        <ele>886</ele>
        <time>2012-12-02T11:29:33Z</time>
      </trkpt>
      <trkpt lat="43.68182" lon="6.92339">
        <ele>886</ele>
        <time>2012-12-02T11:29:52Z</time>
      </trkpt>
      <trkpt lat="43.68181" lon="6.92339">
        <ele>886</ele>
        <time>2012-12-02T11:30:14Z</time>
      </trkpt>
      <trkpt lat="43.6818" lon="6.92338">
        <ele>886</ele>
        <time>2012-12-02T11:30:24Z</time>
      </trkpt>
      <trkpt lat="43.68181" lon="6.92339">
        <ele>886</ele>
        <time>2012-12-02T11:30:33Z</time>
      </trkpt>
      <trkpt lat="43.68182" lon="6.92341">
        <ele>886</ele>
        <time>2012-12-02T11:30:40Z</time>
      </trkpt>
      <trkpt lat="43.68183" lon="6.92341">
        <ele>885</ele>
        <time>2012-12-02T11:30:49Z</time>
      </trkpt>
      <trkpt lat="43.68182" lon="6.9234">
        <ele>885</ele>
        <time>2012-12-02T11:31:02Z</time>
      </trkpt>
      <trkpt lat="43.68181" lon="6.9234">
        <ele>885</ele>
        <time>2012-12-02T11:31:33Z</time>
      </trkpt>
      <trkpt lat="43.6818" lon="6.9234">
        <ele>885</ele>
        <time>2012-12-02T11:32:19Z</time>
      </trkpt>
      <trkpt lat="43.68181" lon="6.9234">
        <ele>885</ele>
        <time>2012-12-02T11:32:57Z</time>
      </trkpt>
      <trkpt lat="43.6818" lon="6.92341">
        <ele>885</ele>
        <time>2012-12-02T11:33:25Z</time>
      </trkpt>
      <trkpt lat="43.68181" lon="6.92342">
        <ele>885</ele>
        <time>2012-12-02T11:33:34Z</time>
      </trkpt>
      <trkpt lat="43.6818" lon="6.92343">
        <ele>883</ele>
        <time>2012-12-02T11:34:08Z</time>
      </trkpt>
      <trkpt lat="43.68178" lon="6.9234">
        <ele>883</ele>
        <time>2012-12-02T11:34:17Z</time>
      </trkpt>
      <trkpt lat="43.68177" lon="6.92341">
        <ele>883</ele>
        <time>2012-12-02T11:34:22Z</time>
      </trkpt>
      <trkpt lat="43.68178" lon="6.9234">
        <ele>883</ele>
        <time>2012-12-02T11:34:29Z</time>
      </trkpt>
      <trkpt lat="43.68182" lon="6.9233">
        <ele>883</ele>
        <time>2012-12-02T11:34:34Z</time>
      </trkpt>
      <trkpt lat="43.68188" lon="6.92322">
        <ele>882</ele>
        <time>2012-12-02T11:34:40Z</time>
      </trkpt>
      <trkpt lat="43.68193" lon="6.9232">
        <ele>882</ele>
        <time>2012-12-02T11:34:46Z</time>
      </trkpt>
      <trkpt lat="43.68198" lon="6.9232">
        <ele>882</ele>
        <time>2012-12-02T11:34:52Z</time>
      </trkpt>
      <trkpt lat="43.68203" lon="6.9232">
        <ele>882</ele>
        <time>2012-12-02T11:34:57Z</time>
      </trkpt>
      <trkpt lat="43.6821" lon="6.92319">
        <ele>881</ele>
        <time>2012-12-02T11:35:02Z</time>
      </trkpt>
      <trkpt lat="43.68217" lon="6.92317">
        <ele>879</ele>
        <time>2012-12-02T11:35:07Z</time>
      </trkpt>
      <trkpt lat="43.68224" lon="6.92312">
        <ele>878</ele>
        <time>2012-12-02T11:35:13Z</time>
      </trkpt>
      <trkpt lat="43.68229" lon="6.92307">
        <ele>878</ele>
        <time>2012-12-02T11:35:18Z</time>
      </trkpt>
      <trkpt lat="43.68235" lon="6.92303">
        <ele>878</ele>
        <time>2012-12-02T11:35:24Z</time>
      </trkpt>
      <trkpt lat="43.68242" lon="6.923">
        <ele>878</ele>
        <time>2012-12-02T11:35:30Z</time>
      </trkpt>
      <trkpt lat="43.68247" lon="6.92299">
        <ele>878</ele>
        <time>2012-12-02T11:35:35Z</time>
      </trkpt>
      <trkpt lat="43.68254" lon="6.923">
        <ele>878</ele>
        <time>2012-12-02T11:35:40Z</time>
      </trkpt>
      <trkpt lat="43.6826" lon="6.92302">
        <ele>878</ele>
        <time>2012-12-02T11:35:45Z</time>
      </trkpt>
      <trkpt lat="43.68267" lon="6.92306">
        <ele>878</ele>
        <time>2012-12-02T11:35:50Z</time>
      </trkpt>
      <trkpt lat="43.68272" lon="6.92309">
        <ele>878</ele>
        <time>2012-12-02T11:35:55Z</time>
      </trkpt>
      <trkpt lat="43.68279" lon="6.92313">
        <ele>878</ele>
        <time>2012-12-02T11:36:00Z</time>
      </trkpt>
      <trkpt lat="43.68285" lon="6.92316">
        <ele>878</ele>
        <time>2012-12-02T11:36:05Z</time>
      </trkpt>
      <trkpt lat="43.68291" lon="6.92319">
        <ele>879</ele>
        <time>2012-12-02T11:36:10Z</time>
      </trkpt>
      <trkpt lat="43.68296" lon="6.92323">
        <ele>881</ele>
        <time>2012-12-02T11:36:15Z</time>
      </trkpt>
      <trkpt lat="43.68301" lon="6.92327">
        <ele>883</ele>
        <time>2012-12-02T11:36:20Z</time>
      </trkpt>
      <trkpt lat="43.68308" lon="6.92333">
        <ele>883</ele>
        <time>2012-12-02T11:36:26Z</time>
      </trkpt>
      <trkpt lat="43.68313" lon="6.92338">
        <ele>884</ele>
        <time>2012-12-02T11:36:32Z</time>
      </trkpt>
      <trkpt lat="43.68318" lon="6.92344">
        <ele>884</ele>
        <time>2012-12-02T11:36:37Z</time>
      </trkpt>
      <trkpt lat="43.68324" lon="6.92347">
        <ele>886</ele>
        <time>2012-12-02T11:36:43Z</time>
      </trkpt>
      <trkpt lat="43.6833" lon="6.92351">
        <ele>888</ele>
        <time>2012-12-02T11:36:49Z</time>
      </trkpt>
      <trkpt lat="43.68335" lon="6.92355">
        <ele>889</ele>
        <time>2012-12-02T11:36:54Z</time>
      </trkpt>
      <trkpt lat="43.68342" lon="6.9236">
        <ele>889</ele>
        <time>2012-12-02T11:36:59Z</time>
      </trkpt>
      <trkpt lat="43.68351" lon="6.92363">
        <ele>889</ele>
        <time>2012-12-02T11:37:04Z</time>
      </trkpt>
      <trkpt lat="43.68359" lon="6.92364">
        <ele>889</ele>
        <time>2012-12-02T11:37:09Z</time>
      </trkpt>
      <trkpt lat="43.68367" lon="6.92366">
        <ele>889</ele>
        <time>2012-12-02T11:37:14Z</time>
      </trkpt>
      <trkpt lat="43.68374" lon="6.92366">
        <ele>890</ele>
        <time>2012-12-02T11:37:19Z</time>
      </trkpt>
      <trkpt lat="43.68381" lon="6.92367">
        <ele>891</ele>
        <time>2012-12-02T11:37:24Z</time>
      </trkpt>
      <trkpt lat="43.68389" lon="6.92366">
        <ele>893</ele>
        <time>2012-12-02T11:37:29Z</time>
      </trkpt>
      <trkpt lat="43.68397" lon="6.92367">
        <ele>893</ele>
        <time>2012-12-02T11:37:34Z</time>
      </trkpt>
      <trkpt lat="43.68406" lon="6.92366">
        <ele>893</ele>
        <time>2012-12-02T11:37:39Z</time>
      </trkpt>
      <trkpt lat="43.68414" lon="6.92367">
        <ele>893</ele>
        <time>2012-12-02T11:37:44Z</time>
      </trkpt>
      <trkpt lat="43.68424" lon="6.92367">
        <ele>893</ele>
        <time>2012-12-02T11:37:49Z</time>
      </trkpt>
      <trkpt lat="43.68434" lon="6.92367">
        <ele>894</ele>
        <time>2012-12-02T11:37:54Z</time>
      </trkpt>
      <trkpt lat="43.68443" lon="6.92367">
        <ele>894</ele>
        <time>2012-12-02T11:37:59Z</time>
      </trkpt>
      <trkpt lat="43.68451" lon="6.92368">
        <ele>895</ele>
        <time>2012-12-02T11:38:04Z</time>
      </trkpt>
      <trkpt lat="43.68459" lon="6.92368">
        <ele>896</ele>
        <time>2012-12-02T11:38:09Z</time>
      </trkpt>
      <trkpt lat="43.68469" lon="6.92369">
        <ele>897</ele>
        <time>2012-12-02T11:38:14Z</time>
      </trkpt>
      <trkpt lat="43.68478" lon="6.92369">
        <ele>898</ele>
        <time>2012-12-02T11:38:19Z</time>
      </trkpt>
      <trkpt lat="43.68486" lon="6.92368">
        <ele>899</ele>
        <time>2012-12-02T11:38:24Z</time>
      </trkpt>
      <trkpt lat="43.68494" lon="6.92368">
        <ele>900</ele>
        <time>2012-12-02T11:38:29Z</time>
      </trkpt>
      <trkpt lat="43.68501" lon="6.92368">
        <ele>901</ele>
        <time>2012-12-02T11:38:34Z</time>
      </trkpt>
      <trkpt lat="43.68509" lon="6.92368">
        <ele>901</ele>
        <time>2012-12-02T11:38:39Z</time>
      </trkpt>
      <trkpt lat="43.68516" lon="6.92369">
        <ele>901</ele>
        <time>2012-12-02T11:38:44Z</time>
      </trkpt>
      <trkpt lat="43.68523" lon="6.92368">
        <ele>902</ele>
        <time>2012-12-02T11:38:49Z</time>
      </trkpt>
      <trkpt lat="43.6853" lon="6.92367">
        <ele>902</ele>
        <time>2012-12-02T11:38:54Z</time>
      </trkpt>
      <trkpt lat="43.68539" lon="6.92367">
        <ele>902</ele>
        <time>2012-12-02T11:38:59Z</time>
      </trkpt>
      <trkpt lat="43.68548" lon="6.92368">
        <ele>903</ele>
        <time>2012-12-02T11:39:04Z</time>
      </trkpt>
      <trkpt lat="43.68556" lon="6.92369">
        <ele>904</ele>
        <time>2012-12-02T11:39:09Z</time>
      </trkpt>
      <trkpt lat="43.68564" lon="6.92369">
        <ele>905</ele>
        <time>2012-12-02T11:39:14Z</time>
      </trkpt>
      <trkpt lat="43.68573" lon="6.9237">
        <ele>905</ele>
        <time>2012-12-02T11:39:19Z</time>
      </trkpt>
      <trkpt lat="43.68582" lon="6.92373">
        <ele>905</ele>
        <time>2012-12-02T11:39:24Z</time>
      </trkpt>
      <trkpt lat="43.68594" lon="6.92378">
        <ele>906</ele>
        <time>2012-12-02T11:39:29Z</time>
      </trkpt>
      <trkpt lat="43.68606" lon="6.92384">
        <ele>907</ele>
        <time>2012-12-02T11:39:34Z</time>
      </trkpt>
      <trkpt lat="43.68617" lon="6.92387">
        <ele>908</ele>
        <time>2012-12-02T11:39:39Z</time>
      </trkpt>
      <trkpt lat="43.6863" lon="6.9239">
        <ele>908</ele>
        <time>2012-12-02T11:39:44Z</time>
      </trkpt>
      <trkpt lat="43.68639" lon="6.92383">
        <ele>909</ele>
        <time>2012-12-02T11:39:49Z</time>
      </trkpt>
      <trkpt lat="43.68639" lon="6.92374">
        <ele>910</ele>
        <time>2012-12-02T11:39:54Z</time>
      </trkpt>
      <trkpt lat="43.68643" lon="6.92365">
        <ele>910</ele>
        <time>2012-12-02T11:39:59Z</time>
      </trkpt>
      <trkpt lat="43.68648" lon="6.92357">
        <ele>911</ele>
        <time>2012-12-02T11:40:04Z</time>
      </trkpt>
      <trkpt lat="43.68661" lon="6.92353">
        <ele>911</ele>
        <time>2012-12-02T11:40:09Z</time>
      </trkpt>
      <trkpt lat="43.6867" lon="6.92344">
        <ele>911</ele>
        <time>2012-12-02T11:40:14Z</time>
      </trkpt>
      <trkpt lat="43.68675" lon="6.92335">
        <ele>911</ele>
        <time>2012-12-02T11:40:20Z</time>
      </trkpt>
      <trkpt lat="43.68679" lon="6.92326">
        <ele>911</ele>
        <time>2012-12-02T11:40:25Z</time>
      </trkpt>
      <trkpt lat="43.68683" lon="6.92319">
        <ele>911</ele>
        <time>2012-12-02T11:40:30Z</time>
      </trkpt>
      <trkpt lat="43.68688" lon="6.9231">
        <ele>912</ele>
        <time>2012-12-02T11:40:35Z</time>
      </trkpt>
      <trkpt lat="43.68693" lon="6.923">
        <ele>912</ele>
        <time>2012-12-02T11:40:40Z</time>
      </trkpt>
      <trkpt lat="43.68698" lon="6.92287">
        <ele>912</ele>
        <time>2012-12-02T11:40:45Z</time>
      </trkpt>
      <trkpt lat="43.68704" lon="6.92275">
        <ele>912</ele>
        <time>2012-12-02T11:40:50Z</time>
      </trkpt>
      <trkpt lat="43.68708" lon="6.9226">
        <ele>912</ele>
        <time>2012-12-02T11:40:55Z</time>
      </trkpt>
      <trkpt lat="43.68714" lon="6.92245">
        <ele>912</ele>
        <time>2012-12-02T11:41:00Z</time>
      </trkpt>
      <trkpt lat="43.6872" lon="6.92231">
        <ele>912</ele>
        <time>2012-12-02T11:41:05Z</time>
      </trkpt>
      <trkpt lat="43.68726" lon="6.92218">
        <ele>913</ele>
        <time>2012-12-02T11:41:10Z</time>
      </trkpt>
      <trkpt lat="43.68731" lon="6.92204">
        <ele>915</ele>
        <time>2012-12-02T11:41:15Z</time>
      </trkpt>
      <trkpt lat="43.68737" lon="6.92188">
        <ele>917</ele>
        <time>2012-12-02T11:41:20Z</time>
      </trkpt>
      <trkpt lat="43.68742" lon="6.92173">
        <ele>918</ele>
        <time>2012-12-02T11:41:25Z</time>
      </trkpt>
      <trkpt lat="43.68746" lon="6.92158">
        <ele>918</ele>
        <time>2012-12-02T11:41:30Z</time>
      </trkpt>
      <trkpt lat="43.68752" lon="6.92144">
        <ele>918</ele>
        <time>2012-12-02T11:41:35Z</time>
      </trkpt>
      <trkpt lat="43.68759" lon="6.92131">
        <ele>918</ele>
        <time>2012-12-02T11:41:40Z</time>
      </trkpt>
      <trkpt lat="43.68766" lon="6.92119">
        <ele>919</ele>
        <time>2012-12-02T11:41:45Z</time>
      </trkpt>
      <trkpt lat="43.68773" lon="6.92107">
        <ele>920</ele>
        <time>2012-12-02T11:41:50Z</time>
      </trkpt>
      <trkpt lat="43.68781" lon="6.92097">
        <ele>922</ele>
        <time>2012-12-02T11:41:55Z</time>
      </trkpt>
      <trkpt lat="43.68788" lon="6.92084">
        <ele>924</ele>
        <time>2012-12-02T11:42:00Z</time>
      </trkpt>
      <trkpt lat="43.68794" lon="6.92069">
        <ele>924</ele>
        <time>2012-12-02T11:42:05Z</time>
      </trkpt>
      <trkpt lat="43.68798" lon="6.92054">
        <ele>926</ele>
        <time>2012-12-02T11:42:10Z</time>
      </trkpt>
      <trkpt lat="43.68803" lon="6.9204">
        <ele>926</ele>
        <time>2012-12-02T11:42:15Z</time>
      </trkpt>
      <trkpt lat="43.68808" lon="6.92026">
        <ele>927</ele>
        <time>2012-12-02T11:42:20Z</time>
      </trkpt>
      <trkpt lat="43.68814" lon="6.92013">
        <ele>927</ele>
        <time>2012-12-02T11:42:25Z</time>
      </trkpt>
      <trkpt lat="43.68823" lon="6.92004">
        <ele>929</ele>
        <time>2012-12-02T11:42:30Z</time>
      </trkpt>
      <trkpt lat="43.6883" lon="6.91995">
        <ele>932</ele>
        <time>2012-12-02T11:42:35Z</time>
      </trkpt>
      <trkpt lat="43.68837" lon="6.91986">
        <ele>934</ele>
        <time>2012-12-02T11:42:40Z</time>
      </trkpt>
      <trkpt lat="43.68842" lon="6.91975">
        <ele>934</ele>
        <time>2012-12-02T11:42:45Z</time>
      </trkpt>
      <trkpt lat="43.68847" lon="6.91963">
        <ele>934</ele>
        <time>2012-12-02T11:42:50Z</time>
      </trkpt>
      <trkpt lat="43.68851" lon="6.9195">
        <ele>934</ele>
        <time>2012-12-02T11:42:55Z</time>
      </trkpt>
      <trkpt lat="43.68856" lon="6.91939">
        <ele>934</ele>
        <time>2012-12-02T11:43:00Z</time>
      </trkpt>
      <trkpt lat="43.68861" lon="6.91927">
        <ele>934</ele>
        <time>2012-12-02T11:43:05Z</time>
      </trkpt>
      <trkpt lat="43.68866" lon="6.91914">
        <ele>935</ele>
        <time>2012-12-02T11:43:10Z</time>
      </trkpt>
      <trkpt lat="43.68869" lon="6.919">
        <ele>936</ele>
        <time>2012-12-02T11:43:15Z</time>
      </trkpt>
      <trkpt lat="43.68872" lon="6.91885">
        <ele>937</ele>
        <time>2012-12-02T11:43:20Z</time>
      </trkpt>
      <trkpt lat="43.68873" lon="6.91869">
        <ele>937</ele>
        <time>2012-12-02T11:43:25Z</time>
      </trkpt>
      <trkpt lat="43.6888" lon="6.91855">
        <ele>939</ele>
        <time>2012-12-02T11:43:30Z</time>
      </trkpt>
      <trkpt lat="43.6889" lon="6.91846">
        <ele>940</ele>
        <time>2012-12-02T11:43:35Z</time>
      </trkpt>
      <trkpt lat="43.689" lon="6.9184">
        <ele>941</ele>
        <time>2012-12-02T11:43:40Z</time>
      </trkpt>
      <trkpt lat="43.68908" lon="6.91835">
        <ele>941</ele>
        <time>2012-12-02T11:43:45Z</time>
      </trkpt>
      <trkpt lat="43.68916" lon="6.91832">
        <ele>941</ele>
        <time>2012-12-02T11:43:50Z</time>
      </trkpt>
      <trkpt lat="43.68925" lon="6.9183">
        <ele>941</ele>
        <time>2012-12-02T11:43:55Z</time>
      </trkpt>
      <trkpt lat="43.68935" lon="6.91827">
        <ele>942</ele>
        <time>2012-12-02T11:44:00Z</time>
      </trkpt>
      <trkpt lat="43.68944" lon="6.91825">
        <ele>943</ele>
        <time>2012-12-02T11:44:05Z</time>
      </trkpt>
      <trkpt lat="43.68953" lon="6.91822">
        <ele>943</ele>
        <time>2012-12-02T11:44:10Z</time>
      </trkpt>
      <trkpt lat="43.68963" lon="6.91819">
        <ele>943</ele>
        <time>2012-12-02T11:44:15Z</time>
      </trkpt>
      <trkpt lat="43.68972" lon="6.91814">
        <ele>944</ele>
        <time>2012-12-02T11:44:20Z</time>
      </trkpt>
      <trkpt lat="43.68979" lon="6.91804">
        <ele>945</ele>
        <time>2012-12-02T11:44:25Z</time>
      </trkpt>
      <trkpt lat="43.68983" lon="6.91793">
        <ele>946</ele>
        <time>2012-12-02T11:44:30Z</time>
      </trkpt>
      <trkpt lat="43.68987" lon="6.91783">
        <ele>947</ele>
        <time>2012-12-02T11:44:35Z</time>
      </trkpt>
      <trkpt lat="43.6899" lon="6.91772">
        <ele>948</ele>
        <time>2012-12-02T11:44:40Z</time>
      </trkpt>
      <trkpt lat="43.68993" lon="6.91761">
        <ele>949</ele>
        <time>2012-12-02T11:44:45Z</time>
      </trkpt>
      <trkpt lat="43.68993" lon="6.91751">
        <ele>949</ele>
        <time>2012-12-02T11:44:50Z</time>
      </trkpt>
      <trkpt lat="43.68991" lon="6.9174">
        <ele>950</ele>
        <time>2012-12-02T11:44:55Z</time>
      </trkpt>
      <trkpt lat="43.68992" lon="6.91729">
        <ele>950</ele>
        <time>2012-12-02T11:45:00Z</time>
      </trkpt>
      <trkpt lat="43.68992" lon="6.91718">
        <ele>951</ele>
        <time>2012-12-02T11:45:05Z</time>
      </trkpt>
      <trkpt lat="43.68992" lon="6.91708">
        <ele>952</ele>
        <time>2012-12-02T11:45:10Z</time>
      </trkpt>
      <trkpt lat="43.68993" lon="6.91699">
        <ele>953</ele>
        <time>2012-12-02T11:45:15Z</time>
      </trkpt>
      <trkpt lat="43.68996" lon="6.91688">
        <ele>954</ele>
        <time>2012-12-02T11:45:20Z</time>
      </trkpt>
      <trkpt lat="43.69002" lon="6.9168">
        <ele>956</ele>
        <time>2012-12-02T11:45:25Z</time>
      </trkpt>
      <trkpt lat="43.69007" lon="6.91673">
        <ele>957</ele>
        <time>2012-12-02T11:45:30Z</time>
      </trkpt>
      <trkpt lat="43.69016" lon="6.91668">
        <ele>958</ele>
        <time>2012-12-02T11:45:35Z</time>
      </trkpt>
      <trkpt lat="43.69026" lon="6.91662">
        <ele>959</ele>
        <time>2012-12-02T11:45:40Z</time>
      </trkpt>
      <trkpt lat="43.69038" lon="6.91653">
        <ele>959</ele>
        <time>2012-12-02T11:45:45Z</time>
      </trkpt>
      <trkpt lat="43.69045" lon="6.91641">
        <ele>960</ele>
        <time>2012-12-02T11:45:50Z</time>
      </trkpt>
      <trkpt lat="43.69051" lon="6.91626">
        <ele>960</ele>
        <time>2012-12-02T11:45:55Z</time>
      </trkpt>
      <trkpt lat="43.69057" lon="6.91611">
        <ele>961</ele>
        <time>2012-12-02T11:46:00Z</time>
      </trkpt>
      <trkpt lat="43.69061" lon="6.91595">
        <ele>961</ele>
        <time>2012-12-02T11:46:05Z</time>
      </trkpt>
      <trkpt lat="43.69062" lon="6.91581">
        <ele>962</ele>
        <time>2012-12-02T11:46:10Z</time>
      </trkpt>
      <trkpt lat="43.69063" lon="6.91567">
        <ele>963</ele>
        <time>2012-12-02T11:46:15Z</time>
      </trkpt>
      <trkpt lat="43.69064" lon="6.91554">
        <ele>963</ele>
        <time>2012-12-02T11:46:20Z</time>
      </trkpt>
      <trkpt lat="43.69064" lon="6.91541">
        <ele>964</ele>
        <time>2012-12-02T11:46:25Z</time>
      </trkpt>
      <trkpt lat="43.69065" lon="6.91527">
        <ele>964</ele>
        <time>2012-12-02T11:46:30Z</time>
      </trkpt>
      <trkpt lat="43.69064" lon="6.91512">
        <ele>965</ele>
        <time>2012-12-02T11:46:35Z</time>
      </trkpt>
      <trkpt lat="43.69064" lon="6.91499">
        <ele>966</ele>
        <time>2012-12-02T11:46:40Z</time>
      </trkpt>
      <trkpt lat="43.69066" lon="6.91487">
        <ele>968</ele>
        <time>2012-12-02T11:46:45Z</time>
      </trkpt>
      <trkpt lat="43.69068" lon="6.91477">
        <ele>969</ele>
        <time>2012-12-02T11:46:53Z</time>
      </trkpt>
      <trkpt lat="43.69067" lon="6.91475">
        <ele>972</ele>
        <time>2012-12-02T11:47:27Z</time>
      </trkpt>
      <trkpt lat="43.69066" lon="6.91475">
        <ele>972</ele>
        <time>2012-12-02T11:47:43Z</time>
      </trkpt>
      <trkpt lat="43.69065" lon="6.91474">
        <ele>973</ele>
        <time>2012-12-02T11:47:51Z</time>
      </trkpt>
      <trkpt lat="43.69064" lon="6.91474">
        <ele>975</ele>
        <time>2012-12-02T11:48:05Z</time>
      </trkpt>
      <trkpt lat="43.69063" lon="6.91472">
        <ele>975</ele>
        <time>2012-12-02T11:48:16Z</time>
      </trkpt>
      <trkpt lat="43.69066" lon="6.91463">
        <ele>975</ele>
        <time>2012-12-02T11:48:21Z</time>
      </trkpt>
      <trkpt lat="43.69072" lon="6.91452">
        <ele>975</ele>
        <time>2012-12-02T11:48:26Z</time>
      </trkpt>
      <trkpt lat="43.69077" lon="6.91441">
        <ele>975</ele>
        <time>2012-12-02T11:48:31Z</time>
      </trkpt>
      <trkpt lat="43.69082" lon="6.9143">
        <ele>975</ele>
        <time>2012-12-02T11:48:36Z</time>
      </trkpt>
      <trkpt lat="43.69087" lon="6.91417">
        <ele>975</ele>
        <time>2012-12-02T11:48:41Z</time>
      </trkpt>
      <trkpt lat="43.69094" lon="6.91406">
        <ele>975</ele>
        <time>2012-12-02T11:48:46Z</time>
      </trkpt>
      <trkpt lat="43.69099" lon="6.91394">
        <ele>975</ele>
        <time>2012-12-02T11:48:51Z</time>
      </trkpt>
      <trkpt lat="43.69102" lon="6.9138">
        <ele>975</ele>
        <time>2012-12-02T11:48:56Z</time>
      </trkpt>
      <trkpt lat="43.69105" lon="6.91366">
        <ele>975</ele>
        <time>2012-12-02T11:49:01Z</time>
      </trkpt>
      <trkpt lat="43.69109" lon="6.91352">
        <ele>975</ele>
        <time>2012-12-02T11:49:06Z</time>
      </trkpt>
      <trkpt lat="43.69117" lon="6.9134">
        <ele>975</ele>
        <time>2012-12-02T11:49:11Z</time>
      </trkpt>
      <trkpt lat="43.69127" lon="6.91333">
        <ele>975</ele>
        <time>2012-12-02T11:49:16Z</time>
      </trkpt>
      <trkpt lat="43.69135" lon="6.91326">
        <ele>975</ele>
        <time>2012-12-02T11:49:21Z</time>
      </trkpt>
      <trkpt lat="43.69145" lon="6.91319">
        <ele>975</ele>
        <time>2012-12-02T11:49:26Z</time>
      </trkpt>
      <trkpt lat="43.69154" lon="6.91313">
        <ele>975</ele>
        <time>2012-12-02T11:49:31Z</time>
      </trkpt>
      <trkpt lat="43.69162" lon="6.91304">
        <ele>975</ele>
        <time>2012-12-02T11:49:36Z</time>
      </trkpt>
      <trkpt lat="43.6917" lon="6.91294">
        <ele>976</ele>
        <time>2012-12-02T11:49:41Z</time>
      </trkpt>
      <trkpt lat="43.69176" lon="6.91281">
        <ele>976</ele>
        <time>2012-12-02T11:49:46Z</time>
      </trkpt>
      <trkpt lat="43.69183" lon="6.9127">
        <ele>977</ele>
        <time>2012-12-02T11:49:51Z</time>
      </trkpt>
      <trkpt lat="43.69189" lon="6.91259">
        <ele>979</ele>
        <time>2012-12-02T11:49:56Z</time>
      </trkpt>
      <trkpt lat="43.69197" lon="6.9125">
        <ele>981</ele>
        <time>2012-12-02T11:50:01Z</time>
      </trkpt>
      <trkpt lat="43.69205" lon="6.9124">
        <ele>982</ele>
        <time>2012-12-02T11:50:06Z</time>
      </trkpt>
      <trkpt lat="43.69212" lon="6.9123">
        <ele>983</ele>
        <time>2012-12-02T11:50:11Z</time>
      </trkpt>
      <trkpt lat="43.69219" lon="6.91218">
        <ele>983</ele>
        <time>2012-12-02T11:50:16Z</time>
      </trkpt>
      <trkpt lat="43.69223" lon="6.91204">
        <ele>983</ele>
        <time>2012-12-02T11:50:21Z</time>
      </trkpt>
      <trkpt lat="43.69224" lon="6.91189">
        <ele>984</ele>
        <time>2012-12-02T11:50:26Z</time>
      </trkpt>
      <trkpt lat="43.6923" lon="6.91176">
        <ele>985</ele>
        <time>2012-12-02T11:50:31Z</time>
      </trkpt>
      <trkpt lat="43.69238" lon="6.91168">
        <ele>986</ele>
        <time>2012-12-02T11:50:36Z</time>
      </trkpt>
      <trkpt lat="43.69248" lon="6.91166">
        <ele>987</ele>
        <time>2012-12-02T11:50:41Z</time>
      </trkpt>
      <trkpt lat="43.69258" lon="6.91164">
        <ele>987</ele>
        <time>2012-12-02T11:50:46Z</time>
      </trkpt>
      <trkpt lat="43.69268" lon="6.91165">
        <ele>987</ele>
        <time>2012-12-02T11:50:51Z</time>
      </trkpt>
      <trkpt lat="43.69279" lon="6.91164">
        <ele>989</ele>
        <time>2012-12-02T11:50:56Z</time>
      </trkpt>
      <trkpt lat="43.69289" lon="6.91163">
        <ele>990</ele>
        <time>2012-12-02T11:51:01Z</time>
      </trkpt>
      <trkpt lat="43.69299" lon="6.9116">
        <ele>991</ele>
        <time>2012-12-02T11:51:06Z</time>
      </trkpt>
      <trkpt lat="43.69308" lon="6.91155">
        <ele>993</ele>
        <time>2012-12-02T11:51:11Z</time>
      </trkpt>
      <trkpt lat="43.69316" lon="6.91149">
        <ele>995</ele>
        <time>2012-12-02T11:51:16Z</time>
      </trkpt>
      <trkpt lat="43.69324" lon="6.91142">
        <ele>996</ele>
        <time>2012-12-02T11:51:21Z</time>
      </trkpt>
      <trkpt lat="43.69333" lon="6.91134">
        <ele>996</ele>
        <time>2012-12-02T11:51:26Z</time>
      </trkpt>
      <trkpt lat="43.69343" lon="6.91128">
        <ele>997</ele>
        <time>2012-12-02T11:51:31Z</time>
      </trkpt>
      <trkpt lat="43.69353" lon="6.91124">
        <ele>997</ele>
        <time>2012-12-02T11:51:36Z</time>
      </trkpt>
      <trkpt lat="43.69364" lon="6.91122">
        <ele>998</ele>
        <time>2012-12-02T11:51:41Z</time>
      </trkpt>
      <trkpt lat="43.69375" lon="6.91121">
        <ele>999</ele>
        <time>2012-12-02T11:51:46Z</time>
      </trkpt>
      <trkpt lat="43.69385" lon="6.91126">
        <ele>1000</ele>
        <time>2012-12-02T11:51:51Z</time>
      </trkpt>
      <trkpt lat="43.69392" lon="6.91139">
        <ele>1000</ele>
        <time>2012-12-02T11:51:56Z</time>
      </trkpt>
      <trkpt lat="43.69395" lon="6.91153">
        <ele>1001</ele>
        <time>2012-12-02T11:52:01Z</time>
      </trkpt>
      <trkpt lat="43.69398" lon="6.91168">
        <ele>1002</ele>
        <time>2012-12-02T11:52:06Z</time>
      </trkpt>
      <trkpt lat="43.69403" lon="6.91183">
        <ele>1003</ele>
        <time>2012-12-02T11:52:11Z</time>
      </trkpt>
      <trkpt lat="43.69408" lon="6.91197">
        <ele>1004</ele>
        <time>2012-12-02T11:52:16Z</time>
      </trkpt>
      <trkpt lat="43.69414" lon="6.91211">
        <ele>1004</ele>
        <time>2012-12-02T11:52:21Z</time>
      </trkpt>
      <trkpt lat="43.69421" lon="6.91226">
        <ele>1005</ele>
        <time>2012-12-02T11:52:26Z</time>
      </trkpt>
      <trkpt lat="43.6943" lon="6.91241">
        <ele>1005</ele>
        <time>2012-12-02T11:52:31Z</time>
      </trkpt>
      <trkpt lat="43.6944" lon="6.91254">
        <ele>1006</ele>
        <time>2012-12-02T11:52:36Z</time>
      </trkpt>
      <trkpt lat="43.6945" lon="6.91264">
        <ele>1007</ele>
        <time>2012-12-02T11:52:41Z</time>
      </trkpt>
      <trkpt lat="43.69461" lon="6.91274">
        <ele>1007</ele>
        <time>2012-12-02T11:52:46Z</time>
      </trkpt>
      <trkpt lat="43.69469" lon="6.91282">
        <ele>1007</ele>
        <time>2012-12-02T11:52:51Z</time>
      </trkpt>
      <trkpt lat="43.69478" lon="6.91289">
        <ele>1007</ele>
        <time>2012-12-02T11:52:56Z</time>
      </trkpt>
      <trkpt lat="43.69487" lon="6.91294">
        <ele>1008</ele>
        <time>2012-12-02T11:53:01Z</time>
      </trkpt>
      <trkpt lat="43.69498" lon="6.91299">
        <ele>1008</ele>
        <time>2012-12-02T11:53:06Z</time>
      </trkpt>
      <trkpt lat="43.69509" lon="6.91302">
        <ele>1009</ele>
        <time>2012-12-02T11:53:11Z</time>
      </trkpt>
      <trkpt lat="43.6952" lon="6.91306">
        <ele>1010</ele>
        <time>2012-12-02T11:53:16Z</time>
      </trkpt>
      <trkpt lat="43.6953" lon="6.91308">
        <ele>1011</ele>
        <time>2012-12-02T11:53:21Z</time>
      </trkpt>
      <trkpt lat="43.6954" lon="6.91313">
        <ele>1012</ele>
        <time>2012-12-02T11:53:26Z</time>
      </trkpt>
      <trkpt lat="43.69549" lon="6.91322">
        <ele>1013</ele>
        <time>2012-12-02T11:53:31Z</time>
      </trkpt>
      <trkpt lat="43.69556" lon="6.91335">
        <ele>1014</ele>
        <time>2012-12-02T11:53:36Z</time>
      </trkpt>
      <trkpt lat="43.69562" lon="6.91347">
        <ele>1015</ele>
        <time>2012-12-02T11:53:41Z</time>
      </trkpt>
      <trkpt lat="43.6957" lon="6.91357">
        <ele>1016</ele>
        <time>2012-12-02T11:53:46Z</time>
      </trkpt>
      <trkpt lat="43.69579" lon="6.91365">
        <ele>1017</ele>
        <time>2012-12-02T11:53:51Z</time>
      </trkpt>
      <trkpt lat="43.69588" lon="6.91372">
        <ele>1018</ele>
        <time>2012-12-02T11:53:56Z</time>
      </trkpt>
      <trkpt lat="43.69597" lon="6.91377">
        <ele>1019</ele>
        <time>2012-12-02T11:54:01Z</time>
      </trkpt>
      <trkpt lat="43.69606" lon="6.9138">
        <ele>1019</ele>
        <time>2012-12-02T11:54:06Z</time>
      </trkpt>
      <trkpt lat="43.69615" lon="6.91382">
        <ele>1020</ele>
        <time>2012-12-02T11:54:11Z</time>
      </trkpt>
      <trkpt lat="43.69625" lon="6.91382">
        <ele>1021</ele>
        <time>2012-12-02T11:54:16Z</time>
      </trkpt>
      <trkpt lat="43.69633" lon="6.91379">
        <ele>1021</ele>
        <time>2012-12-02T11:54:21Z</time>
      </trkpt>
      <trkpt lat="43.69643" lon="6.91375">
        <ele>1021</ele>
        <time>2012-12-02T11:54:26Z</time>
      </trkpt>
      <trkpt lat="43.69651" lon="6.9137">
        <ele>1021</ele>
        <time>2012-12-02T11:54:31Z</time>
      </trkpt>
      <trkpt lat="43.69659" lon="6.91367">
        <ele>1021</ele>
        <time>2012-12-02T11:54:36Z</time>
      </trkpt>
      <trkpt lat="43.69669" lon="6.91365">
        <ele>1021</ele>
        <time>2012-12-02T11:54:41Z</time>
      </trkpt>
      <trkpt lat="43.6968" lon="6.91365">
        <ele>1022</ele>
        <time>2012-12-02T11:54:46Z</time>
      </trkpt>
      <trkpt lat="43.69689" lon="6.91366">
        <ele>1023</ele>
        <time>2012-12-02T11:54:51Z</time>
      </trkpt>
      <trkpt lat="43.69698" lon="6.91368">
        <ele>1024</ele>
        <time>2012-12-02T11:54:56Z</time>
      </trkpt>
      <trkpt lat="43.69709" lon="6.91369">
        <ele>1025</ele>
        <time>2012-12-02T11:55:01Z</time>
      </trkpt>
      <trkpt lat="43.6972" lon="6.91368">
        <ele>1026</ele>
        <time>2012-12-02T11:55:06Z</time>
      </trkpt>
      <trkpt lat="43.69731" lon="6.91365">
        <ele>1027</ele>
        <time>2012-12-02T11:55:11Z</time>
      </trkpt>
      <trkpt lat="43.69741" lon="6.91358">
        <ele>1027</ele>
        <time>2012-12-02T11:55:16Z</time>
      </trkpt>
      <trkpt lat="43.69749" lon="6.91347">
        <ele>1028</ele>
        <time>2012-12-02T11:55:21Z</time>
      </trkpt>
      <trkpt lat="43.69756" lon="6.91335">
        <ele>1028</ele>
        <time>2012-12-02T11:55:26Z</time>
      </trkpt>
      <trkpt lat="43.69762" lon="6.91326">
        <ele>1028</ele>
        <time>2012-12-02T11:55:31Z</time>
      </trkpt>
      <trkpt lat="43.69768" lon="6.91316">
        <ele>1029</ele>
        <time>2012-12-02T11:55:36Z</time>
      </trkpt>
      <trkpt lat="43.69773" lon="6.91304">
        <ele>1030</ele>
        <time>2012-12-02T11:55:42Z</time>
      </trkpt>
      <trkpt lat="43.69774" lon="6.91293">
        <ele>1031</ele>
        <time>2012-12-02T11:55:47Z</time>
      </trkpt>
      <trkpt lat="43.69773" lon="6.91281">
        <ele>1031</ele>
        <time>2012-12-02T11:55:52Z</time>
      </trkpt>
      <trkpt lat="43.69772" lon="6.91266">
        <ele>1033</ele>
        <time>2012-12-02T11:55:58Z</time>
      </trkpt>
      <trkpt lat="43.6977" lon="6.91253">
        <ele>1034</ele>
        <time>2012-12-02T11:56:03Z</time>
      </trkpt>
      <trkpt lat="43.69767" lon="6.91241">
        <ele>1035</ele>
        <time>2012-12-02T11:56:08Z</time>
      </trkpt>
      <trkpt lat="43.69764" lon="6.91229">
        <ele>1036</ele>
        <time>2012-12-02T11:56:13Z</time>
      </trkpt>
      <trkpt lat="43.69761" lon="6.91216">
        <ele>1037</ele>
        <time>2012-12-02T11:56:18Z</time>
      </trkpt>
      <trkpt lat="43.69758" lon="6.91205">
        <ele>1038</ele>
        <time>2012-12-02T11:56:23Z</time>
      </trkpt>
      <trkpt lat="43.69755" lon="6.91192">
        <ele>1039</ele>
        <time>2012-12-02T11:56:28Z</time>
      </trkpt>
      <trkpt lat="43.69753" lon="6.91179">
        <ele>1040</ele>
        <time>2012-12-02T11:56:33Z</time>
      </trkpt>
      <trkpt lat="43.69752" lon="6.91166">
        <ele>1041</ele>
        <time>2012-12-02T11:56:38Z</time>
      </trkpt>
      <trkpt lat="43.69752" lon="6.91151">
        <ele>1041</ele>
        <time>2012-12-02T11:56:43Z</time>
      </trkpt>
      <trkpt lat="43.69754" lon="6.91134">
        <ele>1042</ele>
        <time>2012-12-02T11:56:48Z</time>
      </trkpt>
      <trkpt lat="43.69756" lon="6.91117">
        <ele>1042</ele>
        <time>2012-12-02T11:56:53Z</time>
      </trkpt>
      <trkpt lat="43.69757" lon="6.91101">
        <ele>1043</ele>
        <time>2012-12-02T11:56:58Z</time>
      </trkpt>
      <trkpt lat="43.69758" lon="6.91082">
        <ele>1044</ele>
        <time>2012-12-02T11:57:03Z</time>
      </trkpt>
      <trkpt lat="43.69759" lon="6.91062">
        <ele>1045</ele>
        <time>2012-12-02T11:57:08Z</time>
      </trkpt>
      <trkpt lat="43.69761" lon="6.91038">
        <ele>1046</ele>
        <time>2012-12-02T11:57:14Z</time>
      </trkpt>
      <trkpt lat="43.69761" lon="6.91017">
        <ele>1046</ele>
        <time>2012-12-02T11:57:19Z</time>
      </trkpt>
      <trkpt lat="43.69763" lon="6.90997">
        <ele>1047</ele>
        <time>2012-12-02T11:57:24Z</time>
      </trkpt>
      <trkpt lat="43.69771" lon="6.9098">
        <ele>1047</ele>
        <time>2012-12-02T11:57:29Z</time>
      </trkpt>
      <trkpt lat="43.69783" lon="6.90968">
        <ele>1048</ele>
        <time>2012-12-02T11:57:35Z</time>
      </trkpt>
      <trkpt lat="43.69794" lon="6.90958">
        <ele>1049</ele>
        <time>2012-12-02T11:57:40Z</time>
      </trkpt>
      <trkpt lat="43.69805" lon="6.90947">
        <ele>1049</ele>
        <time>2012-12-02T11:57:45Z</time>
      </trkpt>
      <trkpt lat="43.69816" lon="6.90937">
        <ele>1049</ele>
        <time>2012-12-02T11:57:50Z</time>
      </trkpt>
      <trkpt lat="43.69826" lon="6.90927">
        <ele>1050</ele>
        <time>2012-12-02T11:57:55Z</time>
      </trkpt>
      <trkpt lat="43.69835" lon="6.90912">
        <ele>1050</ele>
        <time>2012-12-02T11:58:00Z</time>
      </trkpt>
      <trkpt lat="43.69841" lon="6.90894">
        <ele>1050</ele>
        <time>2012-12-02T11:58:05Z</time>
      </trkpt>
      <trkpt lat="43.69846" lon="6.90878">
        <ele>1051</ele>
        <time>2012-12-02T11:58:10Z</time>
      </trkpt>
      <trkpt lat="43.6985" lon="6.90863">
        <ele>1052</ele>
        <time>2012-12-02T11:58:15Z</time>
      </trkpt>
      <trkpt lat="43.69855" lon="6.90844">
        <ele>1054</ele>
        <time>2012-12-02T11:58:21Z</time>
      </trkpt>
      <trkpt lat="43.69859" lon="6.90829">
        <ele>1054</ele>
        <time>2012-12-02T11:58:26Z</time>
      </trkpt>
      <trkpt lat="43.69863" lon="6.90812">
        <ele>1055</ele>
        <time>2012-12-02T11:58:31Z</time>
      </trkpt>
      <trkpt lat="43.69868" lon="6.90797">
        <ele>1056</ele>
        <time>2012-12-02T11:58:36Z</time>
      </trkpt>
      <trkpt lat="43.69872" lon="6.90782">
        <ele>1057</ele>
        <time>2012-12-02T11:58:41Z</time>
      </trkpt>
      <trkpt lat="43.69876" lon="6.90768">
        <ele>1058</ele>
        <time>2012-12-02T11:58:46Z</time>
      </trkpt>
      <trkpt lat="43.69881" lon="6.90753">
        <ele>1058</ele>
        <time>2012-12-02T11:58:51Z</time>
      </trkpt>
      <trkpt lat="43.69884" lon="6.90738">
        <ele>1058</ele>
        <time>2012-12-02T11:58:56Z</time>
      </trkpt>
      <trkpt lat="43.69889" lon="6.90723">
        <ele>1059</ele>
        <time>2012-12-02T11:59:01Z</time>
      </trkpt>
      <trkpt lat="43.69895" lon="6.90709">
        <ele>1060</ele>
        <time>2012-12-02T11:59:06Z</time>
      </trkpt>
      <trkpt lat="43.69901" lon="6.90697">
        <ele>1060</ele>
        <time>2012-12-02T11:59:12Z</time>
      </trkpt>
      <trkpt lat="43.69907" lon="6.90685">
        <ele>1061</ele>
        <time>2012-12-02T11:59:17Z</time>
      </trkpt>
      <trkpt lat="43.69913" lon="6.90672">
        <ele>1061</ele>
        <time>2012-12-02T11:59:22Z</time>
      </trkpt>
      <trkpt lat="43.69919" lon="6.90661">
        <ele>1062</ele>
        <time>2012-12-02T11:59:27Z</time>
      </trkpt>
      <trkpt lat="43.69926" lon="6.90649">
        <ele>1062</ele>
        <time>2012-12-02T11:59:32Z</time>
      </trkpt>
      <trkpt lat="43.69931" lon="6.90636">
        <ele>1063</ele>
        <time>2012-12-02T11:59:37Z</time>
      </trkpt>
      <trkpt lat="43.69938" lon="6.90624">
        <ele>1063</ele>
        <time>2012-12-02T11:59:42Z</time>
      </trkpt>
      <trkpt lat="43.69945" lon="6.90611">
        <ele>1063</ele>
        <time>2012-12-02T11:59:47Z</time>
      </trkpt>
      <trkpt lat="43.69952" lon="6.90597">
        <ele>1064</ele>
        <time>2012-12-02T11:59:52Z</time>
      </trkpt>
      <trkpt lat="43.69959" lon="6.90587">
        <ele>1064</ele>
        <time>2012-12-02T11:59:57Z</time>
      </trkpt>
      <trkpt lat="43.69966" lon="6.90582">
        <ele>1064</ele>
        <time>2012-12-02T12:00:26Z</time>
      </trkpt>
      <trkpt lat="43.69967" lon="6.90581">
        <ele>1064</ele>
        <time>2012-12-02T12:00:41Z</time>
      </trkpt>
      <trkpt lat="43.69974" lon="6.90577">
        <ele>1064</ele>
        <time>2012-12-02T12:00:46Z</time>
      </trkpt>
      <trkpt lat="43.69983" lon="6.90573">
        <ele>1064</ele>
        <time>2012-12-02T12:00:51Z</time>
      </trkpt>
      <trkpt lat="43.69991" lon="6.90571">
        <ele>1065</ele>
        <time>2012-12-02T12:00:56Z</time>
      </trkpt>
      <trkpt lat="43.7" lon="6.90569">
        <ele>1065</ele>
        <time>2012-12-02T12:01:01Z</time>
      </trkpt>
      <trkpt lat="43.70011" lon="6.90566">
        <ele>1066</ele>
        <time>2012-12-02T12:01:06Z</time>
      </trkpt>
      <trkpt lat="43.70022" lon="6.90562">
        <ele>1066</ele>
        <time>2012-12-02T12:01:11Z</time>
      </trkpt>
      <trkpt lat="43.70034" lon="6.9056">
        <ele>1067</ele>
        <time>2012-12-02T12:01:16Z</time>
      </trkpt>
      <trkpt lat="43.70047" lon="6.90559">
        <ele>1067</ele>
        <time>2012-12-02T12:01:21Z</time>
      </trkpt>
      <trkpt lat="43.70063" lon="6.90559">
        <ele>1067</ele>
        <time>2012-12-02T12:01:26Z</time>
      </trkpt>
      <trkpt lat="43.70079" lon="6.90557">
        <ele>1068</ele>
        <time>2012-12-02T12:01:31Z</time>
      </trkpt>
      <trkpt lat="43.70094" lon="6.90554">
        <ele>1068</ele>
        <time>2012-12-02T12:01:36Z</time>
      </trkpt>
      <trkpt lat="43.7011" lon="6.90553">
        <ele>1068</ele>
        <time>2012-12-02T12:01:42Z</time>
      </trkpt>
      <trkpt lat="43.70123" lon="6.90552">
        <ele>1069</ele>
        <time>2012-12-02T12:01:47Z</time>
      </trkpt>
      <trkpt lat="43.70137" lon="6.9055">
        <ele>1070</ele>
        <time>2012-12-02T12:01:52Z</time>
      </trkpt>
      <trkpt lat="43.70153" lon="6.90542">
        <ele>1070</ele>
        <time>2012-12-02T12:01:57Z</time>
      </trkpt>
      <trkpt lat="43.70168" lon="6.90536">
        <ele>1070</ele>
        <time>2012-12-02T12:02:02Z</time>
      </trkpt>
      <trkpt lat="43.7018" lon="6.90532">
        <ele>1071</ele>
        <time>2012-12-02T12:02:07Z</time>
      </trkpt>
      <trkpt lat="43.70192" lon="6.90528">
        <ele>1071</ele>
        <time>2012-12-02T12:02:12Z</time>
      </trkpt>
      <trkpt lat="43.70205" lon="6.90522">
        <ele>1072</ele>
        <time>2012-12-02T12:02:17Z</time>
      </trkpt>
      <trkpt lat="43.70217" lon="6.90518">
        <ele>1072</ele>
        <time>2012-12-02T12:02:22Z</time>
      </trkpt>
      <trkpt lat="43.7023" lon="6.90514">
        <ele>1073</ele>
        <time>2012-12-02T12:02:27Z</time>
      </trkpt>
      <trkpt lat="43.70243" lon="6.90512">
        <ele>1074</ele>
        <time>2012-12-02T12:02:32Z</time>
      </trkpt>
      <trkpt lat="43.70254" lon="6.90514">
        <ele>1074</ele>
        <time>2012-12-02T12:02:37Z</time>
      </trkpt>
      <trkpt lat="43.70261" lon="6.90516">
        <ele>1074</ele>
        <time>2012-12-02T12:02:42Z</time>
      </trkpt>
      <trkpt lat="43.70267" lon="6.90509">
        <ele>1074</ele>
        <time>2012-12-02T12:02:47Z</time>
      </trkpt>
      <trkpt lat="43.70273" lon="6.90502">
        <ele>1074</ele>
        <time>2012-12-02T12:02:52Z</time>
      </trkpt>
      <trkpt lat="43.7028" lon="6.90499">
        <ele>1075</ele>
        <time>2012-12-02T12:02:57Z</time>
      </trkpt>
      <trkpt lat="43.70285" lon="6.905">
        <ele>1075</ele>
        <time>2012-12-02T12:03:02Z</time>
      </trkpt>
      <trkpt lat="43.7029" lon="6.905">
        <ele>1076</ele>
        <time>2012-12-02T12:03:10Z</time>
      </trkpt>
      <trkpt lat="43.70296" lon="6.90496">
        <ele>1076</ele>
        <time>2012-12-02T12:03:15Z</time>
      </trkpt>
      <trkpt lat="43.70301" lon="6.90493">
        <ele>1077</ele>
        <time>2012-12-02T12:03:20Z</time>
      </trkpt>
      <trkpt lat="43.70308" lon="6.90491">
        <ele>1077</ele>
        <time>2012-12-02T12:03:25Z</time>
      </trkpt>
      <trkpt lat="43.70313" lon="6.90489">
        <ele>1077</ele>
        <time>2012-12-02T12:03:30Z</time>
      </trkpt>
      <trkpt lat="43.70318" lon="6.90488">
        <ele>1077</ele>
        <time>2012-12-02T12:03:36Z</time>
      </trkpt>
      <trkpt lat="43.70326" lon="6.90488">
        <ele>1078</ele>
        <time>2012-12-02T12:03:41Z</time>
      </trkpt>
      <trkpt lat="43.70329" lon="6.90487">
        <ele>1078</ele>
        <time>2012-12-02T12:03:48Z</time>
      </trkpt>
      <trkpt lat="43.70333" lon="6.90485">
        <ele>1078</ele>
        <time>2012-12-02T12:03:55Z</time>
      </trkpt>
      <trkpt lat="43.70337" lon="6.90485">
        <ele>1078</ele>
        <time>2012-12-02T12:04:00Z</time>
      </trkpt>
      <trkpt lat="43.7034" lon="6.90483">
        <ele>1079</ele>
        <time>2012-12-02T12:04:05Z</time>
      </trkpt>
      <trkpt lat="43.70344" lon="6.90483">
        <ele>1080</ele>
        <time>2012-12-02T12:04:11Z</time>
      </trkpt>
      <trkpt lat="43.70348" lon="6.90485">
        <ele>1080</ele>
        <time>2012-12-02T12:04:17Z</time>
      </trkpt>
      <trkpt lat="43.7035" lon="6.90485">
        <ele>1080</ele>
        <time>2012-12-02T12:04:24Z</time>
      </trkpt>
      <trkpt lat="43.70351" lon="6.90485">
        <ele>1080</ele>
        <time>2012-12-02T12:04:33Z</time>
      </trkpt>
      <trkpt lat="43.70353" lon="6.90484">
        <ele>1080</ele>
        <time>2012-12-02T12:04:43Z</time>
      </trkpt>
      <trkpt lat="43.70355" lon="6.90484">
        <ele>1081</ele>
        <time>2012-12-02T12:04:48Z</time>
      </trkpt>
      <trkpt lat="43.70356" lon="6.90486">
        <ele>1081</ele>
        <time>2012-12-02T12:04:56Z</time>
      </trkpt>
      <trkpt lat="43.70356" lon="6.90484">
        <ele>1084</ele>
        <time>2012-12-02T12:05:11Z</time>
      </trkpt>
      <trkpt lat="43.70358" lon="6.90484">
        <ele>1084</ele>
        <time>2012-12-02T12:05:20Z</time>
      </trkpt>
      <trkpt lat="43.70362" lon="6.90485">
        <ele>1084</ele>
        <time>2012-12-02T12:05:26Z</time>
      </trkpt>
      <trkpt lat="43.70366" lon="6.90487">
        <ele>1084</ele>
        <time>2012-12-02T12:05:32Z</time>
      </trkpt>
      <trkpt lat="43.70369" lon="6.90487">
        <ele>1084</ele>
        <time>2012-12-02T12:05:37Z</time>
      </trkpt>
      <trkpt lat="43.70374" lon="6.90489">
        <ele>1084</ele>
        <time>2012-12-02T12:05:43Z</time>
      </trkpt>
      <trkpt lat="43.70376" lon="6.90492">
        <ele>1084</ele>
        <time>2012-12-02T12:05:48Z</time>
      </trkpt>
      <trkpt lat="43.70378" lon="6.90497">
        <ele>1084</ele>
        <time>2012-12-02T12:05:54Z</time>
      </trkpt>
      <trkpt lat="43.70383" lon="6.90499">
        <ele>1084</ele>
        <time>2012-12-02T12:06:00Z</time>
      </trkpt>
      <trkpt lat="43.70386" lon="6.90499">
        <ele>1084</ele>
        <time>2012-12-02T12:06:05Z</time>
      </trkpt>
      <trkpt lat="43.70394" lon="6.905">
        <ele>1084</ele>
        <time>2012-12-02T12:06:10Z</time>
      </trkpt>
      <trkpt lat="43.70403" lon="6.90503">
        <ele>1084</ele>
        <time>2012-12-02T12:06:15Z</time>
      </trkpt>
      <trkpt lat="43.70411" lon="6.90504">
        <ele>1084</ele>
        <time>2012-12-02T12:06:20Z</time>
      </trkpt>
      <trkpt lat="43.70419" lon="6.90504">
        <ele>1084</ele>
        <time>2012-12-02T12:06:25Z</time>
      </trkpt>
      <trkpt lat="43.70422" lon="6.90504">
        <ele>1084</ele>
        <time>2012-12-02T12:06:36Z</time>
      </trkpt>
      <trkpt lat="43.70429" lon="6.90501">
        <ele>1084</ele>
        <time>2012-12-02T12:06:41Z</time>
      </trkpt>
      <trkpt lat="43.70439" lon="6.90497">
        <ele>1084</ele>
        <time>2012-12-02T12:06:46Z</time>
      </trkpt>
      <trkpt lat="43.70446" lon="6.9049">
        <ele>1084</ele>
        <time>2012-12-02T12:06:51Z</time>
      </trkpt>
      <trkpt lat="43.70455" lon="6.90488">
        <ele>1084</ele>
        <time>2012-12-02T12:06:56Z</time>
      </trkpt>
      <trkpt lat="43.70465" lon="6.90488">
        <ele>1084</ele>
        <time>2012-12-02T12:07:01Z</time>
      </trkpt>
      <trkpt lat="43.70472" lon="6.90489">
        <ele>1084</ele>
        <time>2012-12-02T12:07:06Z</time>
      </trkpt>
      <trkpt lat="43.70482" lon="6.90489">
        <ele>1084</ele>
        <time>2012-12-02T12:07:11Z</time>
      </trkpt>
      <trkpt lat="43.70491" lon="6.90489">
        <ele>1084</ele>
        <time>2012-12-02T12:07:16Z</time>
      </trkpt>
      <trkpt lat="43.705" lon="6.90489">
        <ele>1084</ele>
        <time>2012-12-02T12:07:21Z</time>
      </trkpt>
      <trkpt lat="43.7051" lon="6.90489">
        <ele>1084</ele>
        <time>2012-12-02T12:07:26Z</time>
      </trkpt>
      <trkpt lat="43.70521" lon="6.90487">
        <ele>1084</ele>
        <time>2012-12-02T12:07:31Z</time>
      </trkpt>
      <trkpt lat="43.7053" lon="6.90485">
        <ele>1084</ele>
        <time>2012-12-02T12:07:36Z</time>
      </trkpt>
      <trkpt lat="43.70537" lon="6.90481">
        <ele>1085</ele>
        <time>2012-12-02T12:07:41Z</time>
      </trkpt>
      <trkpt lat="43.70541" lon="6.90481">
        <ele>1086</ele>
        <time>2012-12-02T12:07:48Z</time>
      </trkpt>
      <trkpt lat="43.70542" lon="6.9048">
        <ele>1086</ele>
        <time>2012-12-02T12:07:56Z</time>
      </trkpt>
      <trkpt lat="43.70545" lon="6.90479">
        <ele>1087</ele>
        <time>2012-12-02T12:08:02Z</time>
      </trkpt>
      <trkpt lat="43.70551" lon="6.90476">
        <ele>1087</ele>
        <time>2012-12-02T12:08:07Z</time>
      </trkpt>
      <trkpt lat="43.70557" lon="6.90473">
        <ele>1088</ele>
        <time>2012-12-02T12:08:12Z</time>
      </trkpt>
      <trkpt lat="43.7056" lon="6.90472">
        <ele>1088</ele>
        <time>2012-12-02T12:08:18Z</time>
      </trkpt>
      <trkpt lat="43.70562" lon="6.90471">
        <ele>1089</ele>
        <time>2012-12-02T12:08:23Z</time>
      </trkpt>
      <trkpt lat="43.70567" lon="6.90467">
        <ele>1089</ele>
        <time>2012-12-02T12:08:29Z</time>
      </trkpt>
      <trkpt lat="43.7057" lon="6.90463">
        <ele>1089</ele>
        <time>2012-12-02T12:08:35Z</time>
      </trkpt>
      <trkpt lat="43.70575" lon="6.9046">
        <ele>1089</ele>
        <time>2012-12-02T12:08:41Z</time>
      </trkpt>
      <trkpt lat="43.70579" lon="6.90456">
        <ele>1089</ele>
        <time>2012-12-02T12:08:47Z</time>
      </trkpt>
      <trkpt lat="43.70584" lon="6.90452">
        <ele>1089</ele>
        <time>2012-12-02T12:08:52Z</time>
      </trkpt>
      <trkpt lat="43.70589" lon="6.90449">
        <ele>1089</ele>
        <time>2012-12-02T12:08:58Z</time>
      </trkpt>
      <trkpt lat="43.70592" lon="6.90446">
        <ele>1091</ele>
        <time>2012-12-02T12:09:03Z</time>
      </trkpt>
      <trkpt lat="43.70596" lon="6.90441">
        <ele>1091</ele>
        <time>2012-12-02T12:09:09Z</time>
      </trkpt>
      <trkpt lat="43.70601" lon="6.90438">
        <ele>1093</ele>
        <time>2012-12-02T12:09:15Z</time>
      </trkpt>
      <trkpt lat="43.70605" lon="6.90434">
        <ele>1094</ele>
        <time>2012-12-02T12:09:20Z</time>
      </trkpt>
      <trkpt lat="43.70609" lon="6.90429">
        <ele>1094</ele>
        <time>2012-12-02T12:09:26Z</time>
      </trkpt>
      <trkpt lat="43.70615" lon="6.90427">
        <ele>1094</ele>
        <time>2012-12-02T12:09:32Z</time>
      </trkpt>
      <trkpt lat="43.70618" lon="6.90426">
        <ele>1094</ele>
        <time>2012-12-02T12:09:37Z</time>
      </trkpt>
      <trkpt lat="43.70623" lon="6.90423">
        <ele>1094</ele>
        <time>2012-12-02T12:09:43Z</time>
      </trkpt>
      <trkpt lat="43.70629" lon="6.90419">
        <ele>1094</ele>
        <time>2012-12-02T12:09:49Z</time>
      </trkpt>
      <trkpt lat="43.70633" lon="6.90417">
        <ele>1094</ele>
        <time>2012-12-02T12:09:54Z</time>
      </trkpt>
      <trkpt lat="43.70638" lon="6.90412">
        <ele>1094</ele>
        <time>2012-12-02T12:10:00Z</time>
      </trkpt>
      <trkpt lat="43.70643" lon="6.90409">
        <ele>1094</ele>
        <time>2012-12-02T12:10:05Z</time>
      </trkpt>
      <trkpt lat="43.70648" lon="6.90404">
        <ele>1094</ele>
        <time>2012-12-02T12:10:11Z</time>
      </trkpt>
      <trkpt lat="43.70652" lon="6.904">
        <ele>1094</ele>
        <time>2012-12-02T12:10:16Z</time>
      </trkpt>
      <trkpt lat="43.70655" lon="6.90394">
        <ele>1094</ele>
        <time>2012-12-02T12:10:21Z</time>
      </trkpt>
      <trkpt lat="43.7066" lon="6.9039">
        <ele>1094</ele>
        <time>2012-12-02T12:10:26Z</time>
      </trkpt>
      <trkpt lat="43.70663" lon="6.90384">
        <ele>1094</ele>
        <time>2012-12-02T12:10:32Z</time>
      </trkpt>
      <trkpt lat="43.70668" lon="6.90379">
        <ele>1095</ele>
        <time>2012-12-02T12:10:38Z</time>
      </trkpt>
      <trkpt lat="43.70671" lon="6.90376">
        <ele>1095</ele>
        <time>2012-12-02T12:10:43Z</time>
      </trkpt>
      <trkpt lat="43.70676" lon="6.90373">
        <ele>1095</ele>
        <time>2012-12-02T12:10:48Z</time>
      </trkpt>
      <trkpt lat="43.7068" lon="6.90368">
        <ele>1096</ele>
        <time>2012-12-02T12:10:55Z</time>
      </trkpt>
      <trkpt lat="43.70681" lon="6.90364">
        <ele>1101</ele>
        <time>2012-12-02T12:11:00Z</time>
      </trkpt>
      <trkpt lat="43.70683" lon="6.90361">
        <ele>1104</ele>
        <time>2012-12-02T12:11:05Z</time>
      </trkpt>
      <trkpt lat="43.70687" lon="6.90357">
        <ele>1105</ele>
        <time>2012-12-02T12:11:11Z</time>
      </trkpt>
      <trkpt lat="43.70689" lon="6.90352">
        <ele>1106</ele>
        <time>2012-12-02T12:11:17Z</time>
      </trkpt>
      <trkpt lat="43.70694" lon="6.90349">
        <ele>1106</ele>
        <time>2012-12-02T12:11:24Z</time>
      </trkpt>
      <trkpt lat="43.70697" lon="6.90347">
        <ele>1106</ele>
        <time>2012-12-02T12:11:29Z</time>
      </trkpt>
      <trkpt lat="43.707" lon="6.90345">
        <ele>1106</ele>
        <time>2012-12-02T12:11:34Z</time>
      </trkpt>
      <trkpt lat="43.70704" lon="6.90342">
        <ele>1106</ele>
        <time>2012-12-02T12:11:40Z</time>
      </trkpt>
      <trkpt lat="43.70708" lon="6.9034">
        <ele>1106</ele>
        <time>2012-12-02T12:11:45Z</time>
      </trkpt>
      <trkpt lat="43.70713" lon="6.90341">
        <ele>1106</ele>
        <time>2012-12-02T12:11:53Z</time>
      </trkpt>
      <trkpt lat="43.7071" lon="6.90345">
        <ele>1108</ele>
        <time>2012-12-02T12:11:59Z</time>
      </trkpt>
      <trkpt lat="43.7071" lon="6.90349">
        <ele>1110</ele>
        <time>2012-12-02T12:12:04Z</time>
      </trkpt>
      <trkpt lat="43.70712" lon="6.90347">
        <ele>1111</ele>
        <time>2012-12-02T12:12:09Z</time>
      </trkpt>
      <trkpt lat="43.70714" lon="6.90344">
        <ele>1116</ele>
        <time>2012-12-02T12:12:14Z</time>
      </trkpt>
      <trkpt lat="43.70716" lon="6.90339">
        <ele>1120</ele>
        <time>2012-12-02T12:12:20Z</time>
      </trkpt>
      <trkpt lat="43.70721" lon="6.90336">
        <ele>1120</ele>
        <time>2012-12-02T12:12:25Z</time>
      </trkpt>
      <trkpt lat="43.70724" lon="6.90333">
        <ele>1120</ele>
        <time>2012-12-02T12:12:31Z</time>
      </trkpt>
      <trkpt lat="43.70726" lon="6.90332">
        <ele>1120</ele>
        <time>2012-12-02T12:12:36Z</time>
      </trkpt>
      <trkpt lat="43.70729" lon="6.9033">
        <ele>1122</ele>
        <time>2012-12-02T12:12:44Z</time>
      </trkpt>
      <trkpt lat="43.70733" lon="6.90328">
        <ele>1122</ele>
        <time>2012-12-02T12:12:52Z</time>
      </trkpt>
      <trkpt lat="43.70736" lon="6.90327">
        <ele>1123</ele>
        <time>2012-12-02T12:12:57Z</time>
      </trkpt>
      <trkpt lat="43.70738" lon="6.90325">
        <ele>1123</ele>
        <time>2012-12-02T12:13:02Z</time>
      </trkpt>
      <trkpt lat="43.7074" lon="6.90325">
        <ele>1124</ele>
        <time>2012-12-02T12:13:07Z</time>
      </trkpt>
      <trkpt lat="43.70743" lon="6.90325">
        <ele>1124</ele>
        <time>2012-12-02T12:13:13Z</time>
      </trkpt>
      <trkpt lat="43.70747" lon="6.90326">
        <ele>1124</ele>
        <time>2012-12-02T12:13:19Z</time>
      </trkpt>
      <trkpt lat="43.7075" lon="6.90331">
        <ele>1124</ele>
        <time>2012-12-02T12:13:25Z</time>
      </trkpt>
      <trkpt lat="43.70747" lon="6.90337">
        <ele>1126</ele>
        <time>2012-12-02T12:13:32Z</time>
      </trkpt>
      <trkpt lat="43.70744" lon="6.90341">
        <ele>1127</ele>
        <time>2012-12-02T12:13:38Z</time>
      </trkpt>
      <trkpt lat="43.70741" lon="6.90346">
        <ele>1129</ele>
        <time>2012-12-02T12:13:44Z</time>
      </trkpt>
      <trkpt lat="43.70739" lon="6.90351">
        <ele>1130</ele>
        <time>2012-12-02T12:13:51Z</time>
      </trkpt>
      <trkpt lat="43.70737" lon="6.90357">
        <ele>1130</ele>
        <time>2012-12-02T12:13:57Z</time>
      </trkpt>
      <trkpt lat="43.70734" lon="6.90361">
        <ele>1130</ele>
        <time>2012-12-02T12:14:03Z</time>
      </trkpt>
      <trkpt lat="43.70732" lon="6.90365">
        <ele>1130</ele>
        <time>2012-12-02T12:14:08Z</time>
      </trkpt>
      <trkpt lat="43.70731" lon="6.90372">
        <ele>1130</ele>
        <time>2012-12-02T12:14:14Z</time>
      </trkpt>
      <trkpt lat="43.70731" lon="6.90378">
        <ele>1130</ele>
        <time>2012-12-02T12:14:20Z</time>
      </trkpt>
      <trkpt lat="43.7073" lon="6.90383">
        <ele>1131</ele>
        <time>2012-12-02T12:14:26Z</time>
      </trkpt>
      <trkpt lat="43.70729" lon="6.90388">
        <ele>1134</ele>
        <time>2012-12-02T12:14:32Z</time>
      </trkpt>
      <trkpt lat="43.70726" lon="6.9039">
        <ele>1138</ele>
        <time>2012-12-02T12:14:37Z</time>
      </trkpt>
      <trkpt lat="43.70726" lon="6.90396">
        <ele>1140</ele>
        <time>2012-12-02T12:14:43Z</time>
      </trkpt>
      <trkpt lat="43.70727" lon="6.90402">
        <ele>1142</ele>
        <time>2012-12-02T12:14:50Z</time>
      </trkpt>
      <trkpt lat="43.70729" lon="6.904">
        <ele>1142</ele>
        <time>2012-12-02T12:14:58Z</time>
      </trkpt>
      <trkpt lat="43.70732" lon="6.90399">
        <ele>1142</ele>
        <time>2012-12-02T12:15:05Z</time>
      </trkpt>
      <trkpt lat="43.70735" lon="6.90395">
        <ele>1142</ele>
        <time>2012-12-02T12:15:10Z</time>
      </trkpt>
      <trkpt lat="43.70738" lon="6.9039">
        <ele>1142</ele>
        <time>2012-12-02T12:15:15Z</time>
      </trkpt>
      <trkpt lat="43.70741" lon="6.90386">
        <ele>1142</ele>
        <time>2012-12-02T12:15:20Z</time>
      </trkpt>
      <trkpt lat="43.70744" lon="6.90382">
        <ele>1143</ele>
        <time>2012-12-02T12:15:26Z</time>
      </trkpt>
      <trkpt lat="43.70747" lon="6.90379">
        <ele>1144</ele>
        <time>2012-12-02T12:15:31Z</time>
      </trkpt>
      <trkpt lat="43.70751" lon="6.90375">
        <ele>1144</ele>
        <time>2012-12-02T12:15:37Z</time>
      </trkpt>
      <trkpt lat="43.70755" lon="6.9037">
        <ele>1144</ele>
        <time>2012-12-02T12:15:43Z</time>
      </trkpt>
      <trkpt lat="43.70759" lon="6.90367">
        <ele>1144</ele>
        <time>2012-12-02T12:15:49Z</time>
      </trkpt>
      <trkpt lat="43.70764" lon="6.90363">
        <ele>1144</ele>
        <time>2012-12-02T12:15:55Z</time>
      </trkpt>
      <trkpt lat="43.70768" lon="6.90358">
        <ele>1145</ele>
        <time>2012-12-02T12:16:01Z</time>
      </trkpt>
      <trkpt lat="43.70772" lon="6.90354">
        <ele>1146</ele>
        <time>2012-12-02T12:16:07Z</time>
      </trkpt>
      <trkpt lat="43.70775" lon="6.90349">
        <ele>1146</ele>
        <time>2012-12-02T12:16:13Z</time>
      </trkpt>
      <trkpt lat="43.70779" lon="6.90344">
        <ele>1147</ele>
        <time>2012-12-02T12:16:19Z</time>
      </trkpt>
      <trkpt lat="43.70782" lon="6.9034">
        <ele>1148</ele>
        <time>2012-12-02T12:16:25Z</time>
      </trkpt>
      <trkpt lat="43.70786" lon="6.90336">
        <ele>1148</ele>
        <time>2012-12-02T12:16:31Z</time>
      </trkpt>
      <trkpt lat="43.70789" lon="6.90332">
        <ele>1148</ele>
        <time>2012-12-02T12:16:36Z</time>
      </trkpt>
      <trkpt lat="43.70795" lon="6.90328">
        <ele>1149</ele>
        <time>2012-12-02T12:16:42Z</time>
      </trkpt>
      <trkpt lat="43.70799" lon="6.90324">
        <ele>1149</ele>
        <time>2012-12-02T12:16:48Z</time>
      </trkpt>
      <trkpt lat="43.70803" lon="6.9032">
        <ele>1150</ele>
        <time>2012-12-02T12:16:54Z</time>
      </trkpt>
      <trkpt lat="43.70808" lon="6.90316">
        <ele>1151</ele>
        <time>2012-12-02T12:17:00Z</time>
      </trkpt>
      <trkpt lat="43.70813" lon="6.90313">
        <ele>1151</ele>
        <time>2012-12-02T12:17:06Z</time>
      </trkpt>
      <trkpt lat="43.70817" lon="6.90308">
        <ele>1151</ele>
        <time>2012-12-02T12:17:12Z</time>
      </trkpt>
      <trkpt lat="43.70822" lon="6.90306">
        <ele>1151</ele>
        <time>2012-12-02T12:17:18Z</time>
      </trkpt>
      <trkpt lat="43.70827" lon="6.903">
        <ele>1151</ele>
        <time>2012-12-02T12:17:24Z</time>
      </trkpt>
      <trkpt lat="43.70831" lon="6.90296">
        <ele>1151</ele>
        <time>2012-12-02T12:17:30Z</time>
      </trkpt>
      <trkpt lat="43.70835" lon="6.90293">
        <ele>1152</ele>
        <time>2012-12-02T12:17:36Z</time>
      </trkpt>
      <trkpt lat="43.7084" lon="6.90287">
        <ele>1152</ele>
        <time>2012-12-02T12:17:42Z</time>
      </trkpt>
      <trkpt lat="43.70844" lon="6.90283">
        <ele>1152</ele>
        <time>2012-12-02T12:17:48Z</time>
      </trkpt>
      <trkpt lat="43.70848" lon="6.9028">
        <ele>1153</ele>
        <time>2012-12-02T12:17:54Z</time>
      </trkpt>
      <trkpt lat="43.70851" lon="6.90277">
        <ele>1153</ele>
        <time>2012-12-02T12:18:00Z</time>
      </trkpt>
      <trkpt lat="43.70856" lon="6.90274">
        <ele>1154</ele>
        <time>2012-12-02T12:18:06Z</time>
      </trkpt>
      <trkpt lat="43.70859" lon="6.90273">
        <ele>1154</ele>
        <time>2012-12-02T12:18:11Z</time>
      </trkpt>
      <trkpt lat="43.70862" lon="6.90271">
        <ele>1155</ele>
        <time>2012-12-02T12:18:16Z</time>
      </trkpt>
      <trkpt lat="43.70866" lon="6.90267">
        <ele>1155</ele>
        <time>2012-12-02T12:18:22Z</time>
      </trkpt>
      <trkpt lat="43.70871" lon="6.90262">
        <ele>1155</ele>
        <time>2012-12-02T12:18:28Z</time>
      </trkpt>
      <trkpt lat="43.70876" lon="6.90256">
        <ele>1156</ele>
        <time>2012-12-02T12:18:34Z</time>
      </trkpt>
      <trkpt lat="43.70881" lon="6.90252">
        <ele>1157</ele>
        <time>2012-12-02T12:18:40Z</time>
      </trkpt>
      <trkpt lat="43.70885" lon="6.90248">
        <ele>1159</ele>
        <time>2012-12-02T12:18:46Z</time>
      </trkpt>
      <trkpt lat="43.70889" lon="6.90244">
        <ele>1159</ele>
        <time>2012-12-02T12:18:51Z</time>
      </trkpt>
      <trkpt lat="43.70893" lon="6.90241">
        <ele>1159</ele>
        <time>2012-12-02T12:18:57Z</time>
      </trkpt>
      <trkpt lat="43.70897" lon="6.90236">
        <ele>1160</ele>
        <time>2012-12-02T12:19:03Z</time>
      </trkpt>
      <trkpt lat="43.70902" lon="6.90233">
        <ele>1162</ele>
        <time>2012-12-02T12:19:09Z</time>
      </trkpt>
      <trkpt lat="43.70906" lon="6.9023">
        <ele>1162</ele>
        <time>2012-12-02T12:19:14Z</time>
      </trkpt>
      <trkpt lat="43.70908" lon="6.90226">
        <ele>1162</ele>
        <time>2012-12-02T12:19:19Z</time>
      </trkpt>
      <trkpt lat="43.70913" lon="6.90223">
        <ele>1162</ele>
        <time>2012-12-02T12:19:25Z</time>
      </trkpt>
      <trkpt lat="43.70918" lon="6.90219">
        <ele>1162</ele>
        <time>2012-12-02T12:19:31Z</time>
      </trkpt>
      <trkpt lat="43.70919" lon="6.90215">
        <ele>1164</ele>
        <time>2012-12-02T12:19:37Z</time>
      </trkpt>
      <trkpt lat="43.70923" lon="6.90212">
        <ele>1166</ele>
        <time>2012-12-02T12:19:43Z</time>
      </trkpt>
      <trkpt lat="43.70925" lon="6.90209">
        <ele>1168</ele>
        <time>2012-12-02T12:19:48Z</time>
      </trkpt>
      <trkpt lat="43.70928" lon="6.90204">
        <ele>1168</ele>
        <time>2012-12-02T12:19:54Z</time>
      </trkpt>
      <trkpt lat="43.70931" lon="6.90202">
        <ele>1168</ele>
        <time>2012-12-02T12:19:59Z</time>
      </trkpt>
      <trkpt lat="43.70935" lon="6.90198">
        <ele>1168</ele>
        <time>2012-12-02T12:20:04Z</time>
      </trkpt>
      <trkpt lat="43.70939" lon="6.90195">
        <ele>1168</ele>
        <time>2012-12-02T12:20:10Z</time>
      </trkpt>
      <trkpt lat="43.70944" lon="6.90191">
        <ele>1168</ele>
        <time>2012-12-02T12:20:16Z</time>
      </trkpt>
      <trkpt lat="43.70946" lon="6.90188">
        <ele>1168</ele>
        <time>2012-12-02T12:20:21Z</time>
      </trkpt>
      <trkpt lat="43.7095" lon="6.90184">
        <ele>1168</ele>
        <time>2012-12-02T12:20:27Z</time>
      </trkpt>
      <trkpt lat="43.70953" lon="6.90181">
        <ele>1169</ele>
        <time>2012-12-02T12:20:32Z</time>
      </trkpt>
      <trkpt lat="43.70953" lon="6.90179">
        <ele>1171</ele>
        <time>2012-12-02T12:20:38Z</time>
      </trkpt>
      <trkpt lat="43.70956" lon="6.90177">
        <ele>1174</ele>
        <time>2012-12-02T12:20:43Z</time>
      </trkpt>
      <trkpt lat="43.70958" lon="6.90174">
        <ele>1175</ele>
        <time>2012-12-02T12:20:48Z</time>
      </trkpt>
      <trkpt lat="43.70962" lon="6.9017">
        <ele>1176</ele>
        <time>2012-12-02T12:20:55Z</time>
      </trkpt>
      <trkpt lat="43.70966" lon="6.90168">
        <ele>1176</ele>
        <time>2012-12-02T12:21:00Z</time>
      </trkpt>
      <trkpt lat="43.70969" lon="6.90163">
        <ele>1176</ele>
        <time>2012-12-02T12:21:06Z</time>
      </trkpt>
      <trkpt lat="43.70972" lon="6.90158">
        <ele>1176</ele>
        <time>2012-12-02T12:21:12Z</time>
      </trkpt>
      <trkpt lat="43.70975" lon="6.90155">
        <ele>1176</ele>
        <time>2012-12-02T12:21:17Z</time>
      </trkpt>
      <trkpt lat="43.70979" lon="6.90152">
        <ele>1176</ele>
        <time>2012-12-02T12:21:24Z</time>
      </trkpt>
      <trkpt lat="43.70982" lon="6.90148">
        <ele>1176</ele>
        <time>2012-12-02T12:21:30Z</time>
      </trkpt>
      <trkpt lat="43.70984" lon="6.90142">
        <ele>1177</ele>
        <time>2012-12-02T12:21:37Z</time>
      </trkpt>
      <trkpt lat="43.70987" lon="6.90139">
        <ele>1178</ele>
        <time>2012-12-02T12:21:43Z</time>
      </trkpt>
      <trkpt lat="43.70989" lon="6.90136">
        <ele>1179</ele>
        <time>2012-12-02T12:21:49Z</time>
      </trkpt>
      <trkpt lat="43.70992" lon="6.90133">
        <ele>1180</ele>
        <time>2012-12-02T12:21:56Z</time>
      </trkpt>
      <trkpt lat="43.70994" lon="6.90128">
        <ele>1181</ele>
        <time>2012-12-02T12:22:02Z</time>
      </trkpt>
      <trkpt lat="43.70995" lon="6.90123">
        <ele>1182</ele>
        <time>2012-12-02T12:22:08Z</time>
      </trkpt>
      <trkpt lat="43.70998" lon="6.90118">
        <ele>1184</ele>
        <time>2012-12-02T12:22:15Z</time>
      </trkpt>
      <trkpt lat="43.70998" lon="6.90114">
        <ele>1184</ele>
        <time>2012-12-02T12:22:20Z</time>
      </trkpt>
      <trkpt lat="43.70997" lon="6.90108">
        <ele>1185</ele>
        <time>2012-12-02T12:22:25Z</time>
      </trkpt>
      <trkpt lat="43.70998" lon="6.90104">
        <ele>1185</ele>
        <time>2012-12-02T12:22:31Z</time>
      </trkpt>
      <trkpt lat="43.70996" lon="6.901">
        <ele>1186</ele>
        <time>2012-12-02T12:22:37Z</time>
      </trkpt>
      <trkpt lat="43.70992" lon="6.90091">
        <ele>1186</ele>
        <time>2012-12-02T12:22:42Z</time>
      </trkpt>
      <trkpt lat="43.7099" lon="6.90081">
        <ele>1186</ele>
        <time>2012-12-02T12:22:47Z</time>
      </trkpt>
      <trkpt lat="43.70991" lon="6.90071">
        <ele>1186</ele>
        <time>2012-12-02T12:22:52Z</time>
      </trkpt>
      <trkpt lat="43.70995" lon="6.90064">
        <ele>1187</ele>
        <time>2012-12-02T12:22:57Z</time>
      </trkpt>
      <trkpt lat="43.71001" lon="6.90057">
        <ele>1187</ele>
        <time>2012-12-02T12:23:03Z</time>
      </trkpt>
      <trkpt lat="43.71003" lon="6.90053">
        <ele>1188</ele>
        <time>2012-12-02T12:23:08Z</time>
      </trkpt>
      <trkpt lat="43.71006" lon="6.90046">
        <ele>1189</ele>
        <time>2012-12-02T12:23:13Z</time>
      </trkpt>
      <trkpt lat="43.7101" lon="6.90038">
        <ele>1189</ele>
        <time>2012-12-02T12:23:19Z</time>
      </trkpt>
      <trkpt lat="43.71013" lon="6.90035">
        <ele>1190</ele>
        <time>2012-12-02T12:23:24Z</time>
      </trkpt>
      <trkpt lat="43.71018" lon="6.90031">
        <ele>1190</ele>
        <time>2012-12-02T12:23:30Z</time>
      </trkpt>
      <trkpt lat="43.71023" lon="6.90027">
        <ele>1190</ele>
        <time>2012-12-02T12:23:35Z</time>
      </trkpt>
      <trkpt lat="43.71028" lon="6.90023">
        <ele>1190</ele>
        <time>2012-12-02T12:23:41Z</time>
      </trkpt>
      <trkpt lat="43.71034" lon="6.9002">
        <ele>1190</ele>
        <time>2012-12-02T12:23:47Z</time>
      </trkpt>
      <trkpt lat="43.71041" lon="6.90015">
        <ele>1190</ele>
        <time>2012-12-02T12:23:52Z</time>
      </trkpt>
      <trkpt lat="43.71049" lon="6.9001">
        <ele>1190</ele>
        <time>2012-12-02T12:23:57Z</time>
      </trkpt>
      <trkpt lat="43.71056" lon="6.90002">
        <ele>1190</ele>
        <time>2012-12-02T12:24:03Z</time>
      </trkpt>
      <trkpt lat="43.71063" lon="6.89995">
        <ele>1190</ele>
        <time>2012-12-02T12:24:08Z</time>
      </trkpt>
      <trkpt lat="43.71068" lon="6.89987">
        <ele>1190</ele>
        <time>2012-12-02T12:24:13Z</time>
      </trkpt>
      <trkpt lat="43.71071" lon="6.89978">
        <ele>1190</ele>
        <time>2012-12-02T12:24:18Z</time>
      </trkpt>
      <trkpt lat="43.71075" lon="6.89969">
        <ele>1192</ele>
        <time>2012-12-02T12:24:24Z</time>
      </trkpt>
      <trkpt lat="43.71076" lon="6.89967">
        <ele>1193</ele>
        <time>2012-12-02T12:24:29Z</time>
      </trkpt>
      <trkpt lat="43.71079" lon="6.89964">
        <ele>1195</ele>
        <time>2012-12-02T12:24:34Z</time>
      </trkpt>
      <trkpt lat="43.71082" lon="6.89961">
        <ele>1195</ele>
        <time>2012-12-02T12:24:39Z</time>
      </trkpt>
      <trkpt lat="43.71084" lon="6.89957">
        <ele>1195</ele>
        <time>2012-12-02T12:24:45Z</time>
      </trkpt>
      <trkpt lat="43.71086" lon="6.8995">
        <ele>1195</ele>
        <time>2012-12-02T12:24:52Z</time>
      </trkpt>
      <trkpt lat="43.71088" lon="6.89944">
        <ele>1197</ele>
        <time>2012-12-02T12:24:59Z</time>
      </trkpt>
      <trkpt lat="43.71089" lon="6.8994">
        <ele>1199</ele>
        <time>2012-12-02T12:25:04Z</time>
      </trkpt>
      <trkpt lat="43.71092" lon="6.89937">
        <ele>1200</ele>
        <time>2012-12-02T12:25:09Z</time>
      </trkpt>
      <trkpt lat="43.71094" lon="6.89935">
        <ele>1200</ele>
        <time>2012-12-02T12:25:14Z</time>
      </trkpt>
      <trkpt lat="43.71097" lon="6.89933">
        <ele>1202</ele>
        <time>2012-12-02T12:25:22Z</time>
      </trkpt>
      <trkpt lat="43.71099" lon="6.89931">
        <ele>1203</ele>
        <time>2012-12-02T12:25:27Z</time>
      </trkpt>
      <trkpt lat="43.71102" lon="6.89928">
        <ele>1205</ele>
        <time>2012-12-02T12:25:34Z</time>
      </trkpt>
      <trkpt lat="43.71104" lon="6.89926">
        <ele>1207</ele>
        <time>2012-12-02T12:25:40Z</time>
      </trkpt>
      <trkpt lat="43.71109" lon="6.89925">
        <ele>1208</ele>
        <time>2012-12-02T12:25:45Z</time>
      </trkpt>
      <trkpt lat="43.71111" lon="6.89922">
        <ele>1209</ele>
        <time>2012-12-02T12:25:50Z</time>
      </trkpt>
      <trkpt lat="43.71115" lon="6.89919">
        <ele>1209</ele>
        <time>2012-12-02T12:25:56Z</time>
      </trkpt>
      <trkpt lat="43.71118" lon="6.89917">
        <ele>1209</ele>
        <time>2012-12-02T12:26:01Z</time>
      </trkpt>
      <trkpt lat="43.71121" lon="6.89915">
        <ele>1211</ele>
        <time>2012-12-02T12:26:06Z</time>
      </trkpt>
      <trkpt lat="43.71124" lon="6.89912">
        <ele>1211</ele>
        <time>2012-12-02T12:26:11Z</time>
      </trkpt>
      <trkpt lat="43.71127" lon="6.89909">
        <ele>1211</ele>
        <time>2012-12-02T12:26:17Z</time>
      </trkpt>
      <trkpt lat="43.71131" lon="6.89906">
        <ele>1212</ele>
        <time>2012-12-02T12:26:22Z</time>
      </trkpt>
      <trkpt lat="43.71135" lon="6.89902">
        <ele>1212</ele>
        <time>2012-12-02T12:26:28Z</time>
      </trkpt>
      <trkpt lat="43.71138" lon="6.89898">
        <ele>1212</ele>
        <time>2012-12-02T12:26:33Z</time>
      </trkpt>
      <trkpt lat="43.71141" lon="6.89896">
        <ele>1212</ele>
        <time>2012-12-02T12:26:38Z</time>
      </trkpt>
      <trkpt lat="43.71143" lon="6.89902">
        <ele>1213</ele>
        <time>2012-12-02T12:26:44Z</time>
      </trkpt>
      <trkpt lat="43.71142" lon="6.89908">
        <ele>1213</ele>
        <time>2012-12-02T12:26:50Z</time>
      </trkpt>
      <trkpt lat="43.71139" lon="6.89913">
        <ele>1213</ele>
        <time>2012-12-02T12:26:56Z</time>
      </trkpt>
      <trkpt lat="43.71135" lon="6.89918">
        <ele>1215</ele>
        <time>2012-12-02T12:27:03Z</time>
      </trkpt>
      <trkpt lat="43.71134" lon="6.89924">
        <ele>1216</ele>
        <time>2012-12-02T12:27:09Z</time>
      </trkpt>
      <trkpt lat="43.71133" lon="6.8993">
        <ele>1216</ele>
        <time>2012-12-02T12:27:15Z</time>
      </trkpt>
      <trkpt lat="43.71133" lon="6.89935">
        <ele>1218</ele>
        <time>2012-12-02T12:27:22Z</time>
      </trkpt>
      <trkpt lat="43.71133" lon="6.8994">
        <ele>1218</ele>
        <time>2012-12-02T12:27:28Z</time>
      </trkpt>
      <trkpt lat="43.71132" lon="6.89946">
        <ele>1218</ele>
        <time>2012-12-02T12:27:34Z</time>
      </trkpt>
      <trkpt lat="43.7113" lon="6.89951">
        <ele>1218</ele>
        <time>2012-12-02T12:27:40Z</time>
      </trkpt>
      <trkpt lat="43.7113" lon="6.89956">
        <ele>1218</ele>
        <time>2012-12-02T12:27:45Z</time>
      </trkpt>
      <trkpt lat="43.7113" lon="6.89963">
        <ele>1219</ele>
        <time>2012-12-02T12:27:51Z</time>
      </trkpt>
      <trkpt lat="43.71131" lon="6.89968">
        <ele>1220</ele>
        <time>2012-12-02T12:27:57Z</time>
      </trkpt>
      <trkpt lat="43.71133" lon="6.89966">
        <ele>1221</ele>
        <time>2012-12-02T12:28:03Z</time>
      </trkpt>
      <trkpt lat="43.71135" lon="6.89961">
        <ele>1223</ele>
        <time>2012-12-02T12:28:09Z</time>
      </trkpt>
      <trkpt lat="43.71136" lon="6.89957">
        <ele>1224</ele>
        <time>2012-12-02T12:28:14Z</time>
      </trkpt>
      <trkpt lat="43.7114" lon="6.89952">
        <ele>1226</ele>
        <time>2012-12-02T12:28:21Z</time>
      </trkpt>
      <trkpt lat="43.71144" lon="6.89947">
        <ele>1227</ele>
        <time>2012-12-02T12:28:27Z</time>
      </trkpt>
      <trkpt lat="43.71148" lon="6.89943">
        <ele>1227</ele>
        <time>2012-12-02T12:28:33Z</time>
      </trkpt>
      <trkpt lat="43.71151" lon="6.89937">
        <ele>1227</ele>
        <time>2012-12-02T12:28:39Z</time>
      </trkpt>
      <trkpt lat="43.71156" lon="6.89933">
        <ele>1227</ele>
        <time>2012-12-02T12:28:44Z</time>
      </trkpt>
      <trkpt lat="43.71161" lon="6.89929">
        <ele>1227</ele>
        <time>2012-12-02T12:28:50Z</time>
      </trkpt>
      <trkpt lat="43.71166" lon="6.89925">
        <ele>1228</ele>
        <time>2012-12-02T12:28:56Z</time>
      </trkpt>
      <trkpt lat="43.71169" lon="6.8992">
        <ele>1229</ele>
        <time>2012-12-02T12:29:02Z</time>
      </trkpt>
      <trkpt lat="43.71172" lon="6.89915">
        <ele>1230</ele>
        <time>2012-12-02T12:29:07Z</time>
      </trkpt>
      <trkpt lat="43.71176" lon="6.89911">
        <ele>1230</ele>
        <time>2012-12-02T12:29:13Z</time>
      </trkpt>
      <trkpt lat="43.71181" lon="6.8991">
        <ele>1231</ele>
        <time>2012-12-02T12:29:19Z</time>
      </trkpt>
      <trkpt lat="43.71187" lon="6.89911">
        <ele>1233</ele>
        <time>2012-12-02T12:29:25Z</time>
      </trkpt>
      <trkpt lat="43.71192" lon="6.89912">
        <ele>1234</ele>
        <time>2012-12-02T12:29:31Z</time>
      </trkpt>
      <trkpt lat="43.71197" lon="6.89914">
        <ele>1235</ele>
        <time>2012-12-02T12:29:37Z</time>
      </trkpt>
      <trkpt lat="43.71203" lon="6.89913">
        <ele>1236</ele>
        <time>2012-12-02T12:29:43Z</time>
      </trkpt>
      <trkpt lat="43.71209" lon="6.89912">
        <ele>1237</ele>
        <time>2012-12-02T12:29:48Z</time>
      </trkpt>
      <trkpt lat="43.71214" lon="6.8991">
        <ele>1238</ele>
        <time>2012-12-02T12:29:54Z</time>
      </trkpt>
      <trkpt lat="43.71219" lon="6.89912">
        <ele>1239</ele>
        <time>2012-12-02T12:30:00Z</time>
      </trkpt>
      <trkpt lat="43.71225" lon="6.89914">
        <ele>1240</ele>
        <time>2012-12-02T12:30:06Z</time>
      </trkpt>
      <trkpt lat="43.71231" lon="6.89915">
        <ele>1241</ele>
        <time>2012-12-02T12:30:12Z</time>
      </trkpt>
      <trkpt lat="43.71236" lon="6.89916">
        <ele>1242</ele>
        <time>2012-12-02T12:30:18Z</time>
      </trkpt>
      <trkpt lat="43.71241" lon="6.89917">
        <ele>1243</ele>
        <time>2012-12-02T12:30:24Z</time>
      </trkpt>
      <trkpt lat="43.71246" lon="6.89917">
        <ele>1243</ele>
        <time>2012-12-02T12:30:29Z</time>
      </trkpt>
      <trkpt lat="43.7125" lon="6.89916">
        <ele>1243</ele>
        <time>2012-12-02T12:30:34Z</time>
      </trkpt>
      <trkpt lat="43.71255" lon="6.89918">
        <ele>1244</ele>
        <time>2012-12-02T12:30:39Z</time>
      </trkpt>
      <trkpt lat="43.7126" lon="6.89918">
        <ele>1244</ele>
        <time>2012-12-02T12:30:45Z</time>
      </trkpt>
      <trkpt lat="43.71265" lon="6.89918">
        <ele>1245</ele>
        <time>2012-12-02T12:30:50Z</time>
      </trkpt>
      <trkpt lat="43.71271" lon="6.8992">
        <ele>1246</ele>
        <time>2012-12-02T12:30:56Z</time>
      </trkpt>
      <trkpt lat="43.71276" lon="6.89924">
        <ele>1246</ele>
        <time>2012-12-02T12:31:02Z</time>
      </trkpt>
      <trkpt lat="43.71281" lon="6.89925">
        <ele>1247</ele>
        <time>2012-12-02T12:31:07Z</time>
      </trkpt>
      <trkpt lat="43.71286" lon="6.89928">
        <ele>1247</ele>
        <time>2012-12-02T12:31:13Z</time>
      </trkpt>
      <trkpt lat="43.71291" lon="6.89931">
        <ele>1248</ele>
        <time>2012-12-02T12:31:19Z</time>
      </trkpt>
      <trkpt lat="43.71294" lon="6.89932">
        <ele>1249</ele>
        <time>2012-12-02T12:31:24Z</time>
      </trkpt>
      <trkpt lat="43.71299" lon="6.89934">
        <ele>1250</ele>
        <time>2012-12-02T12:31:30Z</time>
      </trkpt>
      <trkpt lat="43.71305" lon="6.89936">
        <ele>1250</ele>
        <time>2012-12-02T12:31:36Z</time>
      </trkpt>
      <trkpt lat="43.7131" lon="6.89936">
        <ele>1251</ele>
        <time>2012-12-02T12:31:42Z</time>
      </trkpt>
      <trkpt lat="43.71315" lon="6.89937">
        <ele>1252</ele>
        <time>2012-12-02T12:31:48Z</time>
      </trkpt>
      <trkpt lat="43.71321" lon="6.89941">
        <ele>1252</ele>
        <time>2012-12-02T12:31:54Z</time>
      </trkpt>
      <trkpt lat="43.71324" lon="6.89941">
        <ele>1252</ele>
        <time>2012-12-02T12:32:01Z</time>
      </trkpt>
      <trkpt lat="43.71327" lon="6.8994">
        <ele>1252</ele>
        <time>2012-12-02T12:32:06Z</time>
      </trkpt>
      <trkpt lat="43.71334" lon="6.89939">
        <ele>1252</ele>
        <time>2012-12-02T12:32:11Z</time>
      </trkpt>
      <trkpt lat="43.71339" lon="6.89938">
        <ele>1252</ele>
        <time>2012-12-02T12:32:17Z</time>
      </trkpt>
      <trkpt lat="43.71342" lon="6.89936">
        <ele>1253</ele>
        <time>2012-12-02T12:32:23Z</time>
      </trkpt>
      <trkpt lat="43.71345" lon="6.89934">
        <ele>1253</ele>
        <time>2012-12-02T12:32:28Z</time>
      </trkpt>
      <trkpt lat="43.71353" lon="6.89931">
        <ele>1253</ele>
        <time>2012-12-02T12:32:33Z</time>
      </trkpt>
      <trkpt lat="43.7136" lon="6.89929">
        <ele>1253</ele>
        <time>2012-12-02T12:32:40Z</time>
      </trkpt>
      <trkpt lat="43.71361" lon="6.89929">
        <ele>1253</ele>
        <time>2012-12-02T12:33:43Z</time>
      </trkpt>
      <trkpt lat="43.71364" lon="6.8993">
        <ele>1253</ele>
        <time>2012-12-02T12:33:49Z</time>
      </trkpt>
      <trkpt lat="43.71368" lon="6.89934">
        <ele>1253</ele>
        <time>2012-12-02T12:33:55Z</time>
      </trkpt>
      <trkpt lat="43.71371" lon="6.89938">
        <ele>1253</ele>
        <time>2012-12-02T12:34:01Z</time>
      </trkpt>
      <trkpt lat="43.71374" lon="6.89939">
        <ele>1253</ele>
        <time>2012-12-02T12:34:07Z</time>
      </trkpt>
      <trkpt lat="43.71375" lon="6.89938">
        <ele>1253</ele>
        <time>2012-12-02T12:34:17Z</time>
      </trkpt>
      <trkpt lat="43.71376" lon="6.89937">
        <ele>1253</ele>
        <time>2012-12-02T12:34:22Z</time>
      </trkpt>
      <trkpt lat="43.71379" lon="6.89935">
        <ele>1253</ele>
        <time>2012-12-02T12:34:29Z</time>
      </trkpt>
      <trkpt lat="43.71381" lon="6.89932">
        <ele>1253</ele>
        <time>2012-12-02T12:34:35Z</time>
      </trkpt>
      <trkpt lat="43.71383" lon="6.89929">
        <ele>1253</ele>
        <time>2012-12-02T12:34:41Z</time>
      </trkpt>
      <trkpt lat="43.71385" lon="6.89926">
        <ele>1253</ele>
        <time>2012-12-02T12:34:46Z</time>
      </trkpt>
      <trkpt lat="43.71387" lon="6.89923">
        <ele>1253</ele>
        <time>2012-12-02T12:34:52Z</time>
      </trkpt>
      <trkpt lat="43.71389" lon="6.8992">
        <ele>1253</ele>
        <time>2012-12-02T12:34:57Z</time>
      </trkpt>
      <trkpt lat="43.7139" lon="6.89917">
        <ele>1253</ele>
        <time>2012-12-02T12:35:03Z</time>
      </trkpt>
      <trkpt lat="43.7139" lon="6.89911">
        <ele>1253</ele>
        <time>2012-12-02T12:35:09Z</time>
      </trkpt>
      <trkpt lat="43.7139" lon="6.89907">
        <ele>1253</ele>
        <time>2012-12-02T12:35:28Z</time>
      </trkpt>
      <trkpt lat="43.71391" lon="6.89905">
        <ele>1253</ele>
        <time>2012-12-02T12:35:34Z</time>
      </trkpt>
      <trkpt lat="43.71391" lon="6.89903">
        <ele>1253</ele>
        <time>2012-12-02T12:35:47Z</time>
      </trkpt>
      <trkpt lat="43.71392" lon="6.89904">
        <ele>1253</ele>
        <time>2012-12-02T12:35:54Z</time>
      </trkpt>
      <trkpt lat="43.71392" lon="6.89906">
        <ele>1253</ele>
        <time>2012-12-02T12:36:07Z</time>
      </trkpt>
      <trkpt lat="43.71391" lon="6.89907">
        <ele>1253</ele>
        <time>2012-12-02T12:36:14Z</time>
      </trkpt>
      <trkpt lat="43.7139" lon="6.89907">
        <ele>1252</ele>
        <time>2012-12-02T12:36:45Z</time>
      </trkpt>
      <trkpt lat="43.71395" lon="6.89908">
        <ele>1250</ele>
        <time>2012-12-02T12:36:59Z</time>
      </trkpt>
      <trkpt lat="43.71393" lon="6.89904">
        <ele>1249</ele>
        <time>2012-12-02T12:37:04Z</time>
      </trkpt>
      <trkpt lat="43.7139" lon="6.89903">
        <ele>1249</ele>
        <time>2012-12-02T12:37:20Z</time>
      </trkpt>
      <trkpt lat="43.7139" lon="6.89905">
        <ele>1249</ele>
        <time>2012-12-02T12:38:38Z</time>
      </trkpt>
      <trkpt lat="43.71391" lon="6.89906">
        <ele>1249</ele>
        <time>2012-12-02T12:39:12Z</time>
      </trkpt>
      <trkpt lat="43.7139" lon="6.89906">
        <ele>1249</ele>
        <time>2012-12-02T12:39:21Z</time>
      </trkpt>
      <trkpt lat="43.71389" lon="6.89904">
        <ele>1249</ele>
        <time>2012-12-02T12:39:44Z</time>
      </trkpt>
      <trkpt lat="43.71389" lon="6.89903">
        <ele>1250</ele>
        <time>2012-12-02T12:40:45Z</time>
      </trkpt>
      <trkpt lat="43.71389" lon="6.89901">
        <ele>1250</ele>
        <time>2012-12-02T12:42:31Z</time>
      </trkpt>
      <trkpt lat="43.7139" lon="6.89906">
        <ele>1260</ele>
        <time>2012-12-02T12:47:07Z</time>
      </trkpt>
      <trkpt lat="43.71387" lon="6.89905">
        <ele>1249</ele>
        <time>2012-12-02T12:47:15Z</time>
      </trkpt>
      <trkpt lat="43.71389" lon="6.89903">
        <ele>1249</ele>
        <time>2012-12-02T12:47:23Z</time>
      </trkpt>
      <trkpt lat="43.71391" lon="6.89902">
        <ele>1249</ele>
        <time>2012-12-02T12:47:45Z</time>
      </trkpt>
      <trkpt lat="43.7139" lon="6.89904">
        <ele>1251</ele>
        <time>2012-12-02T12:48:44Z</time>
      </trkpt>
      <trkpt lat="43.71389" lon="6.89904">
        <ele>1254</ele>
        <time>2012-12-02T12:50:35Z</time>
      </trkpt>
      <trkpt lat="43.71389" lon="6.89905">
        <ele>1254</ele>
        <time>2012-12-02T12:51:50Z</time>
      </trkpt>
      <trkpt lat="43.7139" lon="6.89904">
        <ele>1254</ele>
        <time>2012-12-02T12:51:59Z</time>
      </trkpt>
      <trkpt lat="43.7139" lon="6.89903">
        <ele>1253</ele>
        <time>2012-12-02T12:52:31Z</time>
      </trkpt>
      <trkpt lat="43.71391" lon="6.89904">
        <ele>1253</ele>
        <time>2012-12-02T12:52:50Z</time>
      </trkpt>
      <trkpt lat="43.7139" lon="6.89906">
        <ele>1253</ele>
        <time>2012-12-02T12:52:58Z</time>
      </trkpt>
      <trkpt lat="43.71389" lon="6.89909">
        <ele>1253</ele>
        <time>2012-12-02T12:53:05Z</time>
      </trkpt>
      <trkpt lat="43.71389" lon="6.89911">
        <ele>1253</ele>
        <time>2012-12-02T12:53:11Z</time>
      </trkpt>
      <trkpt lat="43.71389" lon="6.89917">
        <ele>1253</ele>
        <time>2012-12-02T12:53:17Z</time>
      </trkpt>
      <trkpt lat="43.71387" lon="6.89923">
        <ele>1253</ele>
        <time>2012-12-02T12:53:22Z</time>
      </trkpt>
      <trkpt lat="43.71384" lon="6.89927">
        <ele>1253</ele>
        <time>2012-12-02T12:53:28Z</time>
      </trkpt>
      <trkpt lat="43.71382" lon="6.89931">
        <ele>1253</ele>
        <time>2012-12-02T12:53:34Z</time>
      </trkpt>
      <trkpt lat="43.7138" lon="6.89934">
        <ele>1253</ele>
        <time>2012-12-02T12:53:39Z</time>
      </trkpt>
      <trkpt lat="43.71377" lon="6.89937">
        <ele>1253</ele>
        <time>2012-12-02T12:53:46Z</time>
      </trkpt>
      <trkpt lat="43.71375" lon="6.8994">
        <ele>1253</ele>
        <time>2012-12-02T12:53:52Z</time>
      </trkpt>
      <trkpt lat="43.71374" lon="6.89941">
        <ele>1253</ele>
        <time>2012-12-02T12:53:57Z</time>
      </trkpt>
      <trkpt lat="43.71371" lon="6.89943">
        <ele>1253</ele>
        <time>2012-12-02T12:54:03Z</time>
      </trkpt>
      <trkpt lat="43.7137" lon="6.89944">
        <ele>1253</ele>
        <time>2012-12-02T12:54:09Z</time>
      </trkpt>
      <trkpt lat="43.71371" lon="6.89945">
        <ele>1253</ele>
        <time>2012-12-02T12:54:18Z</time>
      </trkpt>
      <trkpt lat="43.71373" lon="6.89947">
        <ele>1253</ele>
        <time>2012-12-02T12:54:35Z</time>
      </trkpt>
      <trkpt lat="43.71373" lon="6.89948">
        <ele>1253</ele>
        <time>2012-12-02T12:54:43Z</time>
      </trkpt>
      <trkpt lat="43.71378" lon="6.89955">
        <ele>1253</ele>
        <time>2012-12-02T12:54:48Z</time>
      </trkpt>
      <trkpt lat="43.71384" lon="6.89965">
        <ele>1253</ele>
        <time>2012-12-02T12:54:54Z</time>
      </trkpt>
      <trkpt lat="43.71388" lon="6.89973">
        <ele>1253</ele>
        <time>2012-12-02T12:54:59Z</time>
      </trkpt>
      <trkpt lat="43.71394" lon="6.89979">
        <ele>1253</ele>
        <time>2012-12-02T12:55:04Z</time>
      </trkpt>
      <trkpt lat="43.71405" lon="6.89979">
        <ele>1253</ele>
        <time>2012-12-02T12:55:09Z</time>
      </trkpt>
      <trkpt lat="43.7142" lon="6.89976">
        <ele>1253</ele>
        <time>2012-12-02T12:55:14Z</time>
      </trkpt>
      <trkpt lat="43.71428" lon="6.89982">
        <ele>1252</ele>
        <time>2012-12-02T12:55:19Z</time>
      </trkpt>
      <trkpt lat="43.71435" lon="6.89985">
        <ele>1251</ele>
        <time>2012-12-02T12:55:25Z</time>
      </trkpt>
      <trkpt lat="43.71437" lon="6.89981">
        <ele>1250</ele>
        <time>2012-12-02T12:55:36Z</time>
      </trkpt>
      <trkpt lat="43.71436" lon="6.89979">
        <ele>1249</ele>
        <time>2012-12-02T12:55:50Z</time>
      </trkpt>
      <trkpt lat="43.71437" lon="6.89978">
        <ele>1249</ele>
        <time>2012-12-02T12:56:08Z</time>
      </trkpt>
      <trkpt lat="43.71442" lon="6.89967">
        <ele>1249</ele>
        <time>2012-12-02T12:56:13Z</time>
      </trkpt>
      <trkpt lat="43.71449" lon="6.89957">
        <ele>1248</ele>
        <time>2012-12-02T12:56:18Z</time>
      </trkpt>
      <trkpt lat="43.71453" lon="6.8995">
        <ele>1247</ele>
        <time>2012-12-02T12:56:23Z</time>
      </trkpt>
      <trkpt lat="43.71462" lon="6.89938">
        <ele>1246</ele>
        <time>2012-12-02T12:56:28Z</time>
      </trkpt>
      <trkpt lat="43.71471" lon="6.89924">
        <ele>1245</ele>
        <time>2012-12-02T12:56:33Z</time>
      </trkpt>
      <trkpt lat="43.71478" lon="6.89913">
        <ele>1243</ele>
        <time>2012-12-02T12:56:38Z</time>
      </trkpt>
      <trkpt lat="43.71484" lon="6.89909">
        <ele>1242</ele>
        <time>2012-12-02T12:56:43Z</time>
      </trkpt>
      <trkpt lat="43.71487" lon="6.89921">
        <ele>1241</ele>
        <time>2012-12-02T12:56:48Z</time>
      </trkpt>
      <trkpt lat="43.71489" lon="6.89937">
        <ele>1239</ele>
        <time>2012-12-02T12:56:53Z</time>
      </trkpt>
      <trkpt lat="43.71493" lon="6.89955">
        <ele>1237</ele>
        <time>2012-12-02T12:56:58Z</time>
      </trkpt>
      <trkpt lat="43.71497" lon="6.89972">
        <ele>1235</ele>
        <time>2012-12-02T12:57:03Z</time>
      </trkpt>
      <trkpt lat="43.71502" lon="6.89989">
        <ele>1234</ele>
        <time>2012-12-02T12:57:08Z</time>
      </trkpt>
      <trkpt lat="43.71505" lon="6.9">
        <ele>1233</ele>
        <time>2012-12-02T12:57:13Z</time>
      </trkpt>
      <trkpt lat="43.71508" lon="6.89998">
        <ele>1232</ele>
        <time>2012-12-02T12:57:20Z</time>
      </trkpt>
      <trkpt lat="43.71515" lon="6.89987">
        <ele>1230</ele>
        <time>2012-12-02T12:57:25Z</time>
      </trkpt>
      <trkpt lat="43.71521" lon="6.89974">
        <ele>1228</ele>
        <time>2012-12-02T12:57:30Z</time>
      </trkpt>
      <trkpt lat="43.71529" lon="6.89962">
        <ele>1226</ele>
        <time>2012-12-02T12:57:35Z</time>
      </trkpt>
      <trkpt lat="43.71535" lon="6.89951">
        <ele>1224</ele>
        <time>2012-12-02T12:57:40Z</time>
      </trkpt>
      <trkpt lat="43.71538" lon="6.89944">
        <ele>1223</ele>
        <time>2012-12-02T12:57:45Z</time>
      </trkpt>
      <trkpt lat="43.71544" lon="6.89935">
        <ele>1222</ele>
        <time>2012-12-02T12:57:50Z</time>
      </trkpt>
      <trkpt lat="43.71551" lon="6.89923">
        <ele>1220</ele>
        <time>2012-12-02T12:57:55Z</time>
      </trkpt>
      <trkpt lat="43.71558" lon="6.89912">
        <ele>1219</ele>
        <time>2012-12-02T12:58:00Z</time>
      </trkpt>
      <trkpt lat="43.71561" lon="6.89902">
        <ele>1218</ele>
        <time>2012-12-02T12:58:05Z</time>
      </trkpt>
      <trkpt lat="43.71564" lon="6.8989">
        <ele>1217</ele>
        <time>2012-12-02T12:58:10Z</time>
      </trkpt>
      <trkpt lat="43.71567" lon="6.89881">
        <ele>1216</ele>
        <time>2012-12-02T12:58:15Z</time>
      </trkpt>
      <trkpt lat="43.71568" lon="6.89873">
        <ele>1215</ele>
        <time>2012-12-02T12:58:20Z</time>
      </trkpt>
      <trkpt lat="43.71571" lon="6.89859">
        <ele>1213</ele>
        <time>2012-12-02T12:58:25Z</time>
      </trkpt>
      <trkpt lat="43.71575" lon="6.89846">
        <ele>1212</ele>
        <time>2012-12-02T12:58:30Z</time>
      </trkpt>
      <trkpt lat="43.71577" lon="6.89837">
        <ele>1211</ele>
        <time>2012-12-02T12:58:35Z</time>
      </trkpt>
      <trkpt lat="43.71582" lon="6.89821">
        <ele>1209</ele>
        <time>2012-12-02T12:58:40Z</time>
      </trkpt>
      <trkpt lat="43.71587" lon="6.89806">
        <ele>1207</ele>
        <time>2012-12-02T12:58:45Z</time>
      </trkpt>
      <trkpt lat="43.71593" lon="6.89789">
        <ele>1205</ele>
        <time>2012-12-02T12:58:50Z</time>
      </trkpt>
      <trkpt lat="43.71596" lon="6.89777">
        <ele>1204</ele>
        <time>2012-12-02T12:58:55Z</time>
      </trkpt>
      <trkpt lat="43.71603" lon="6.89766">
        <ele>1201</ele>
        <time>2012-12-02T12:59:00Z</time>
      </trkpt>
      <trkpt lat="43.7161" lon="6.89753">
        <ele>1199</ele>
        <time>2012-12-02T12:59:05Z</time>
      </trkpt>
      <trkpt lat="43.71618" lon="6.89736">
        <ele>1197</ele>
        <time>2012-12-02T12:59:10Z</time>
      </trkpt>
      <trkpt lat="43.71625" lon="6.89716">
        <ele>1195</ele>
        <time>2012-12-02T12:59:15Z</time>
      </trkpt>
      <trkpt lat="43.71634" lon="6.89695">
        <ele>1194</ele>
        <time>2012-12-02T12:59:20Z</time>
      </trkpt>
      <trkpt lat="43.71645" lon="6.89674">
        <ele>1193</ele>
        <time>2012-12-02T12:59:25Z</time>
      </trkpt>
      <trkpt lat="43.71656" lon="6.89651">
        <ele>1191</ele>
        <time>2012-12-02T12:59:30Z</time>
      </trkpt>
      <trkpt lat="43.71663" lon="6.89629">
        <ele>1188</ele>
        <time>2012-12-02T12:59:35Z</time>
      </trkpt>
      <trkpt lat="43.71668" lon="6.89618">
        <ele>1186</ele>
        <time>2012-12-02T12:59:41Z</time>
      </trkpt>
      <trkpt lat="43.71679" lon="6.89606">
        <ele>1184</ele>
        <time>2012-12-02T12:59:46Z</time>
      </trkpt>
      <trkpt lat="43.71692" lon="6.89589">
        <ele>1181</ele>
        <time>2012-12-02T12:59:51Z</time>
      </trkpt>
      <trkpt lat="43.71705" lon="6.89568">
        <ele>1179</ele>
        <time>2012-12-02T12:59:56Z</time>
      </trkpt>
      <trkpt lat="43.71717" lon="6.89548">
        <ele>1177</ele>
        <time>2012-12-02T13:00:01Z</time>
      </trkpt>
      <trkpt lat="43.71728" lon="6.89529">
        <ele>1176</ele>
        <time>2012-12-02T13:00:06Z</time>
      </trkpt>
      <trkpt lat="43.71737" lon="6.89515">
        <ele>1173</ele>
        <time>2012-12-02T13:00:11Z</time>
      </trkpt>
      <trkpt lat="43.71745" lon="6.89501">
        <ele>1171</ele>
        <time>2012-12-02T13:00:16Z</time>
      </trkpt>
      <trkpt lat="43.71754" lon="6.89486">
        <ele>1170</ele>
        <time>2012-12-02T13:00:21Z</time>
      </trkpt>
      <trkpt lat="43.71764" lon="6.89466">
        <ele>1169</ele>
        <time>2012-12-02T13:00:26Z</time>
      </trkpt>
      <trkpt lat="43.7177" lon="6.89448">
        <ele>1167</ele>
        <time>2012-12-02T13:00:31Z</time>
      </trkpt>
      <trkpt lat="43.71772" lon="6.89434">
        <ele>1166</ele>
        <time>2012-12-02T13:00:36Z</time>
      </trkpt>
      <trkpt lat="43.71774" lon="6.89421">
        <ele>1166</ele>
        <time>2012-12-02T13:00:41Z</time>
      </trkpt>
      <trkpt lat="43.71777" lon="6.89407">
        <ele>1165</ele>
        <time>2012-12-02T13:00:46Z</time>
      </trkpt>
      <trkpt lat="43.71779" lon="6.89393">
        <ele>1165</ele>
        <time>2012-12-02T13:00:51Z</time>
      </trkpt>
      <trkpt lat="43.71783" lon="6.89379">
        <ele>1163</ele>
        <time>2012-12-02T13:00:56Z</time>
      </trkpt>
      <trkpt lat="43.71788" lon="6.89364">
        <ele>1162</ele>
        <time>2012-12-02T13:01:01Z</time>
      </trkpt>
      <trkpt lat="43.71792" lon="6.89345">
        <ele>1161</ele>
        <time>2012-12-02T13:01:06Z</time>
      </trkpt>
      <trkpt lat="43.71795" lon="6.89328">
        <ele>1160</ele>
        <time>2012-12-02T13:01:11Z</time>
      </trkpt>
      <trkpt lat="43.718" lon="6.89318">
        <ele>1160</ele>
        <time>2012-12-02T13:01:16Z</time>
      </trkpt>
      <trkpt lat="43.71808" lon="6.89311">
        <ele>1160</ele>
        <time>2012-12-02T13:01:21Z</time>
      </trkpt>
      <trkpt lat="43.71817" lon="6.89309">
        <ele>1160</ele>
        <time>2012-12-02T13:01:26Z</time>
      </trkpt>
      <trkpt lat="43.71818" lon="6.89308">
        <ele>1160</ele>
        <time>2012-12-02T13:01:49Z</time>
      </trkpt>
      <trkpt lat="43.71819" lon="6.89308">
        <ele>1160</ele>
        <time>2012-12-02T13:02:10Z</time>
      </trkpt>
      <trkpt lat="43.71824" lon="6.89306">
        <ele>1160</ele>
        <time>2012-12-02T13:02:15Z</time>
      </trkpt>
      <trkpt lat="43.71832" lon="6.893">
        <ele>1160</ele>
        <time>2012-12-02T13:02:21Z</time>
      </trkpt>
      <trkpt lat="43.71841" lon="6.89295">
        <ele>1160</ele>
        <time>2012-12-02T13:02:26Z</time>
      </trkpt>
      <trkpt lat="43.71854" lon="6.89296">
        <ele>1160</ele>
        <time>2012-12-02T13:02:31Z</time>
      </trkpt>
      <trkpt lat="43.71865" lon="6.89302">
        <ele>1160</ele>
        <time>2012-12-02T13:02:36Z</time>
      </trkpt>
      <trkpt lat="43.71877" lon="6.89303">
        <ele>1160</ele>
        <time>2012-12-02T13:02:41Z</time>
      </trkpt>
      <trkpt lat="43.71885" lon="6.89298">
        <ele>1158</ele>
        <time>2012-12-02T13:02:46Z</time>
      </trkpt>
      <trkpt lat="43.71887" lon="6.89307">
        <ele>1156</ele>
        <time>2012-12-02T13:02:51Z</time>
      </trkpt>
      <trkpt lat="43.71896" lon="6.8931">
        <ele>1154</ele>
        <time>2012-12-02T13:02:56Z</time>
      </trkpt>
      <trkpt lat="43.71909" lon="6.8931">
        <ele>1152</ele>
        <time>2012-12-02T13:03:01Z</time>
      </trkpt>
      <trkpt lat="43.71924" lon="6.89315">
        <ele>1151</ele>
        <time>2012-12-02T13:03:06Z</time>
      </trkpt>
      <trkpt lat="43.71936" lon="6.89308">
        <ele>1150</ele>
        <time>2012-12-02T13:03:11Z</time>
      </trkpt>
      <trkpt lat="43.71943" lon="6.89292">
        <ele>1148</ele>
        <time>2012-12-02T13:03:16Z</time>
      </trkpt>
      <trkpt lat="43.71949" lon="6.89278">
        <ele>1146</ele>
        <time>2012-12-02T13:03:21Z</time>
      </trkpt>
      <trkpt lat="43.71953" lon="6.89266">
        <ele>1145</ele>
        <time>2012-12-02T13:03:26Z</time>
      </trkpt>
      <trkpt lat="43.71959" lon="6.89256">
        <ele>1143</ele>
        <time>2012-12-02T13:03:31Z</time>
      </trkpt>
      <trkpt lat="43.71966" lon="6.89249">
        <ele>1141</ele>
        <time>2012-12-02T13:03:36Z</time>
      </trkpt>
      <trkpt lat="43.71972" lon="6.89241">
        <ele>1138</ele>
        <time>2012-12-02T13:03:41Z</time>
      </trkpt>
      <trkpt lat="43.71978" lon="6.89228">
        <ele>1137</ele>
        <time>2012-12-02T13:03:46Z</time>
      </trkpt>
      <trkpt lat="43.71985" lon="6.89212">
        <ele>1135</ele>
        <time>2012-12-02T13:03:51Z</time>
      </trkpt>
      <trkpt lat="43.71992" lon="6.89189">
        <ele>1134</ele>
        <time>2012-12-02T13:03:56Z</time>
      </trkpt>
      <trkpt lat="43.72001" lon="6.89174">
        <ele>1131</ele>
        <time>2012-12-02T13:04:01Z</time>
      </trkpt>
      <trkpt lat="43.72011" lon="6.89166">
        <ele>1129</ele>
        <time>2012-12-02T13:04:06Z</time>
      </trkpt>
      <trkpt lat="43.7202" lon="6.89164">
        <ele>1128</ele>
        <time>2012-12-02T13:04:11Z</time>
      </trkpt>
      <trkpt lat="43.72031" lon="6.89157">
        <ele>1128</ele>
        <time>2012-12-02T13:04:16Z</time>
      </trkpt>
      <trkpt lat="43.72041" lon="6.89143">
        <ele>1127</ele>
        <time>2012-12-02T13:04:21Z</time>
      </trkpt>
      <trkpt lat="43.72055" lon="6.89136">
        <ele>1125</ele>
        <time>2012-12-02T13:04:26Z</time>
      </trkpt>
      <trkpt lat="43.72065" lon="6.89124">
        <ele>1124</ele>
        <time>2012-12-02T13:04:31Z</time>
      </trkpt>
      <trkpt lat="43.72073" lon="6.89108">
        <ele>1122</ele>
        <time>2012-12-02T13:04:36Z</time>
      </trkpt>
      <trkpt lat="43.72086" lon="6.89099">
        <ele>1121</ele>
        <time>2012-12-02T13:04:41Z</time>
      </trkpt>
      <trkpt lat="43.72099" lon="6.89093">
        <ele>1121</ele>
        <time>2012-12-02T13:04:46Z</time>
      </trkpt>
      <trkpt lat="43.72111" lon="6.89085">
        <ele>1121</ele>
        <time>2012-12-02T13:04:51Z</time>
      </trkpt>
      <trkpt lat="43.72124" lon="6.89078">
        <ele>1121</ele>
        <time>2012-12-02T13:04:56Z</time>
      </trkpt>
      <trkpt lat="43.72136" lon="6.89078">
        <ele>1121</ele>
        <time>2012-12-02T13:05:02Z</time>
      </trkpt>
      <trkpt lat="43.72148" lon="6.89073">
        <ele>1121</ele>
        <time>2012-12-02T13:05:07Z</time>
      </trkpt>
      <trkpt lat="43.72165" lon="6.89065">
        <ele>1121</ele>
        <time>2012-12-02T13:05:12Z</time>
      </trkpt>
      <trkpt lat="43.72185" lon="6.89057">
        <ele>1119</ele>
        <time>2012-12-02T13:05:17Z</time>
      </trkpt>
      <trkpt lat="43.72206" lon="6.89048">
        <ele>1118</ele>
        <time>2012-12-02T13:05:22Z</time>
      </trkpt>
      <trkpt lat="43.72225" lon="6.89041">
        <ele>1117</ele>
        <time>2012-12-02T13:05:27Z</time>
      </trkpt>
      <trkpt lat="43.72242" lon="6.89033">
        <ele>1116</ele>
        <time>2012-12-02T13:05:32Z</time>
      </trkpt>
      <trkpt lat="43.72259" lon="6.89028">
        <ele>1116</ele>
        <time>2012-12-02T13:05:37Z</time>
      </trkpt>
      <trkpt lat="43.72277" lon="6.89026">
        <ele>1115</ele>
        <time>2012-12-02T13:05:42Z</time>
      </trkpt>
      <trkpt lat="43.72294" lon="6.89025">
        <ele>1114</ele>
        <time>2012-12-02T13:05:47Z</time>
      </trkpt>
      <trkpt lat="43.72312" lon="6.89021">
        <ele>1114</ele>
        <time>2012-12-02T13:05:52Z</time>
      </trkpt>
      <trkpt lat="43.72327" lon="6.89019">
        <ele>1114</ele>
        <time>2012-12-02T13:05:57Z</time>
      </trkpt>
      <trkpt lat="43.7234" lon="6.89019">
        <ele>1114</ele>
        <time>2012-12-02T13:06:02Z</time>
      </trkpt>
      <trkpt lat="43.72353" lon="6.89021">
        <ele>1114</ele>
        <time>2012-12-02T13:06:07Z</time>
      </trkpt>
      <trkpt lat="43.72366" lon="6.89021">
        <ele>1114</ele>
        <time>2012-12-02T13:06:12Z</time>
      </trkpt>
      <trkpt lat="43.72381" lon="6.89022">
        <ele>1114</ele>
        <time>2012-12-02T13:06:17Z</time>
      </trkpt>
      <trkpt lat="43.72395" lon="6.89024">
        <ele>1114</ele>
        <time>2012-12-02T13:06:22Z</time>
      </trkpt>
      <trkpt lat="43.72408" lon="6.8903">
        <ele>1114</ele>
        <time>2012-12-02T13:06:27Z</time>
      </trkpt>
      <trkpt lat="43.7242" lon="6.89036">
        <ele>1114</ele>
        <time>2012-12-02T13:06:32Z</time>
      </trkpt>
      <trkpt lat="43.72432" lon="6.89042">
        <ele>1114</ele>
        <time>2012-12-02T13:06:37Z</time>
      </trkpt>
      <trkpt lat="43.72442" lon="6.89049">
        <ele>1114</ele>
        <time>2012-12-02T13:06:42Z</time>
      </trkpt>
      <trkpt lat="43.7245" lon="6.89055">
        <ele>1115</ele>
        <time>2012-12-02T13:06:47Z</time>
      </trkpt>
      <trkpt lat="43.72459" lon="6.89063">
        <ele>1116</ele>
        <time>2012-12-02T13:06:52Z</time>
      </trkpt>
      <trkpt lat="43.72465" lon="6.89073">
        <ele>1117</ele>
        <time>2012-12-02T13:06:57Z</time>
      </trkpt>
      <trkpt lat="43.72468" lon="6.89086">
        <ele>1117</ele>
        <time>2012-12-02T13:07:02Z</time>
      </trkpt>
      <trkpt lat="43.72469" lon="6.891">
        <ele>1118</ele>
        <time>2012-12-02T13:07:07Z</time>
      </trkpt>
      <trkpt lat="43.72469" lon="6.89109">
        <ele>1118</ele>
        <time>2012-12-02T13:07:12Z</time>
      </trkpt>
      <trkpt lat="43.72469" lon="6.89116">
        <ele>1119</ele>
        <time>2012-12-02T13:07:17Z</time>
      </trkpt>
      <trkpt lat="43.72467" lon="6.89127">
        <ele>1119</ele>
        <time>2012-12-02T13:07:22Z</time>
      </trkpt>
      <trkpt lat="43.72466" lon="6.89139">
        <ele>1120</ele>
        <time>2012-12-02T13:07:27Z</time>
      </trkpt>
      <trkpt lat="43.72469" lon="6.89152">
        <ele>1120</ele>
        <time>2012-12-02T13:07:32Z</time>
      </trkpt>
      <trkpt lat="43.72475" lon="6.89164">
        <ele>1120</ele>
        <time>2012-12-02T13:07:37Z</time>
      </trkpt>
      <trkpt lat="43.72481" lon="6.89175">
        <ele>1120</ele>
        <time>2012-12-02T13:07:42Z</time>
      </trkpt>
      <trkpt lat="43.72485" lon="6.89188">
        <ele>1120</ele>
        <time>2012-12-02T13:07:47Z</time>
      </trkpt>
      <trkpt lat="43.72488" lon="6.892">
        <ele>1121</ele>
        <time>2012-12-02T13:07:52Z</time>
      </trkpt>
      <trkpt lat="43.72491" lon="6.89213">
        <ele>1121</ele>
        <time>2012-12-02T13:07:57Z</time>
      </trkpt>
      <trkpt lat="43.72493" lon="6.89223">
        <ele>1122</ele>
        <time>2012-12-02T13:08:02Z</time>
      </trkpt>
      <trkpt lat="43.72494" lon="6.89235">
        <ele>1123</ele>
        <time>2012-12-02T13:08:07Z</time>
      </trkpt>
      <trkpt lat="43.72495" lon="6.89247">
        <ele>1124</ele>
        <time>2012-12-02T13:08:12Z</time>
      </trkpt>
      <trkpt lat="43.72495" lon="6.89258">
        <ele>1126</ele>
        <time>2012-12-02T13:08:17Z</time>
      </trkpt>
      <trkpt lat="43.72494" lon="6.8927">
        <ele>1126</ele>
        <time>2012-12-02T13:08:22Z</time>
      </trkpt>
      <trkpt lat="43.72492" lon="6.89282">
        <ele>1128</ele>
        <time>2012-12-02T13:08:27Z</time>
      </trkpt>
      <trkpt lat="43.72491" lon="6.89294">
        <ele>1129</ele>
        <time>2012-12-02T13:08:32Z</time>
      </trkpt>
      <trkpt lat="43.7249" lon="6.89307">
        <ele>1130</ele>
        <time>2012-12-02T13:08:37Z</time>
      </trkpt>
      <trkpt lat="43.72491" lon="6.8932">
        <ele>1131</ele>
        <time>2012-12-02T13:08:42Z</time>
      </trkpt>
      <trkpt lat="43.72495" lon="6.89333">
        <ele>1132</ele>
        <time>2012-12-02T13:08:47Z</time>
      </trkpt>
      <trkpt lat="43.72501" lon="6.89341">
        <ele>1132</ele>
        <time>2012-12-02T13:08:52Z</time>
      </trkpt>
      <trkpt lat="43.7251" lon="6.89345">
        <ele>1132</ele>
        <time>2012-12-02T13:08:57Z</time>
      </trkpt>
      <trkpt lat="43.72517" lon="6.89349">
        <ele>1133</ele>
        <time>2012-12-02T13:09:02Z</time>
      </trkpt>
      <trkpt lat="43.72527" lon="6.89356">
        <ele>1133</ele>
        <time>2012-12-02T13:09:07Z</time>
      </trkpt>
      <trkpt lat="43.72539" lon="6.89363">
        <ele>1133</ele>
        <time>2012-12-02T13:09:12Z</time>
      </trkpt>
      <trkpt lat="43.72554" lon="6.89361">
        <ele>1133</ele>
        <time>2012-12-02T13:09:17Z</time>
      </trkpt>
      <trkpt lat="43.72572" lon="6.89353">
        <ele>1133</ele>
        <time>2012-12-02T13:09:22Z</time>
      </trkpt>
      <trkpt lat="43.72589" lon="6.89345">
        <ele>1133</ele>
        <time>2012-12-02T13:09:27Z</time>
      </trkpt>
      <trkpt lat="43.72601" lon="6.89334">
        <ele>1133</ele>
        <time>2012-12-02T13:09:32Z</time>
      </trkpt>
      <trkpt lat="43.72612" lon="6.8932">
        <ele>1133</ele>
        <time>2012-12-02T13:09:37Z</time>
      </trkpt>
      <trkpt lat="43.72621" lon="6.89307">
        <ele>1133</ele>
        <time>2012-12-02T13:09:42Z</time>
      </trkpt>
      <trkpt lat="43.72629" lon="6.89292">
        <ele>1133</ele>
        <time>2012-12-02T13:09:47Z</time>
      </trkpt>
      <trkpt lat="43.72636" lon="6.89277">
        <ele>1133</ele>
        <time>2012-12-02T13:09:52Z</time>
      </trkpt>
      <trkpt lat="43.72642" lon="6.89261">
        <ele>1133</ele>
        <time>2012-12-02T13:09:57Z</time>
      </trkpt>
      <trkpt lat="43.72649" lon="6.89247">
        <ele>1133</ele>
        <time>2012-12-02T13:10:02Z</time>
      </trkpt>
      <trkpt lat="43.72658" lon="6.89235">
        <ele>1133</ele>
        <time>2012-12-02T13:10:07Z</time>
      </trkpt>
      <trkpt lat="43.72667" lon="6.89222">
        <ele>1134</ele>
        <time>2012-12-02T13:10:12Z</time>
      </trkpt>
      <trkpt lat="43.72676" lon="6.89211">
        <ele>1134</ele>
        <time>2012-12-02T13:10:17Z</time>
      </trkpt>
      <trkpt lat="43.72684" lon="6.892">
        <ele>1134</ele>
        <time>2012-12-02T13:10:22Z</time>
      </trkpt>
      <trkpt lat="43.72692" lon="6.89189">
        <ele>1134</ele>
        <time>2012-12-02T13:10:27Z</time>
      </trkpt>
      <trkpt lat="43.727" lon="6.89176">
        <ele>1134</ele>
        <time>2012-12-02T13:10:32Z</time>
      </trkpt>
      <trkpt lat="43.72706" lon="6.8916">
        <ele>1135</ele>
        <time>2012-12-02T13:10:37Z</time>
      </trkpt>
      <trkpt lat="43.72711" lon="6.89141">
        <ele>1135</ele>
        <time>2012-12-02T13:10:42Z</time>
      </trkpt>
      <trkpt lat="43.72711" lon="6.89126">
        <ele>1136</ele>
        <time>2012-12-02T13:10:47Z</time>
      </trkpt>
      <trkpt lat="43.7271" lon="6.89117">
        <ele>1136</ele>
        <time>2012-12-02T13:10:53Z</time>
      </trkpt>
      <trkpt lat="43.72712" lon="6.89111">
        <ele>1136</ele>
        <time>2012-12-02T13:11:03Z</time>
      </trkpt>
      <trkpt lat="43.72712" lon="6.89101">
        <ele>1136</ele>
        <time>2012-12-02T13:11:09Z</time>
      </trkpt>
      <trkpt lat="43.72713" lon="6.89085">
        <ele>1136</ele>
        <time>2012-12-02T13:11:14Z</time>
      </trkpt>
      <trkpt lat="43.72715" lon="6.89074">
        <ele>1136</ele>
        <time>2012-12-02T13:11:23Z</time>
      </trkpt>
      <trkpt lat="43.72715" lon="6.89076">
        <ele>1136</ele>
        <time>2012-12-02T13:12:46Z</time>
      </trkpt>
      <trkpt lat="43.72716" lon="6.89077">
        <ele>1136</ele>
        <time>2012-12-02T13:12:55Z</time>
      </trkpt>
      <trkpt lat="43.72716" lon="6.89079">
        <ele>1136</ele>
        <time>2012-12-02T13:13:15Z</time>
      </trkpt>
      <trkpt lat="43.72715" lon="6.89088">
        <ele>1136</ele>
        <time>2012-12-02T13:13:20Z</time>
      </trkpt>
      <trkpt lat="43.72712" lon="6.89098">
        <ele>1136</ele>
        <time>2012-12-02T13:13:25Z</time>
      </trkpt>
      <trkpt lat="43.72712" lon="6.89113">
        <ele>1136</ele>
        <time>2012-12-02T13:13:31Z</time>
      </trkpt>
      <trkpt lat="43.72712" lon="6.89126">
        <ele>1136</ele>
        <time>2012-12-02T13:13:36Z</time>
      </trkpt>
      <trkpt lat="43.72712" lon="6.89143">
        <ele>1136</ele>
        <time>2012-12-02T13:13:41Z</time>
      </trkpt>
      <trkpt lat="43.72707" lon="6.8917">
        <ele>1136</ele>
        <time>2012-12-02T13:13:46Z</time>
      </trkpt>
      <trkpt lat="43.72691" lon="6.89199">
        <ele>1136</ele>
        <time>2012-12-02T13:13:51Z</time>
      </trkpt>
      <trkpt lat="43.72673" lon="6.89223">
        <ele>1136</ele>
        <time>2012-12-02T13:13:56Z</time>
      </trkpt>
      <trkpt lat="43.7266" lon="6.89236">
        <ele>1136</ele>
        <time>2012-12-02T13:14:01Z</time>
      </trkpt>
      <trkpt lat="43.72654" lon="6.89245">
        <ele>1136</ele>
        <time>2012-12-02T13:14:07Z</time>
      </trkpt>
      <trkpt lat="43.72649" lon="6.89254">
        <ele>1136</ele>
        <time>2012-12-02T13:14:12Z</time>
      </trkpt>
      <trkpt lat="43.72641" lon="6.89268">
        <ele>1136</ele>
        <time>2012-12-02T13:14:17Z</time>
      </trkpt>
      <trkpt lat="43.72633" lon="6.89287">
        <ele>1136</ele>
        <time>2012-12-02T13:14:22Z</time>
      </trkpt>
      <trkpt lat="43.72623" lon="6.89303">
        <ele>1136</ele>
        <time>2012-12-02T13:14:27Z</time>
      </trkpt>
      <trkpt lat="43.72616" lon="6.89315">
        <ele>1136</ele>
        <time>2012-12-02T13:14:32Z</time>
      </trkpt>
      <trkpt lat="43.72609" lon="6.89323">
        <ele>1136</ele>
        <time>2012-12-02T13:14:37Z</time>
      </trkpt>
      <trkpt lat="43.72602" lon="6.8933">
        <ele>1136</ele>
        <time>2012-12-02T13:14:42Z</time>
      </trkpt>
      <trkpt lat="43.72591" lon="6.89343">
        <ele>1136</ele>
        <time>2012-12-02T13:14:47Z</time>
      </trkpt>
      <trkpt lat="43.72579" lon="6.89358">
        <ele>1136</ele>
        <time>2012-12-02T13:14:52Z</time>
      </trkpt>
      <trkpt lat="43.72565" lon="6.89377">
        <ele>1136</ele>
        <time>2012-12-02T13:14:57Z</time>
      </trkpt>
      <trkpt lat="43.72553" lon="6.89398">
        <ele>1136</ele>
        <time>2012-12-02T13:15:02Z</time>
      </trkpt>
      <trkpt lat="43.72545" lon="6.8942">
        <ele>1136</ele>
        <time>2012-12-02T13:15:07Z</time>
      </trkpt>
      <trkpt lat="43.72539" lon="6.89441">
        <ele>1135</ele>
        <time>2012-12-02T13:15:12Z</time>
      </trkpt>
      <trkpt lat="43.72535" lon="6.89469">
        <ele>1135</ele>
        <time>2012-12-02T13:15:17Z</time>
      </trkpt>
      <trkpt lat="43.7254" lon="6.89503">
        <ele>1133</ele>
        <time>2012-12-02T13:15:22Z</time>
      </trkpt>
      <trkpt lat="43.72544" lon="6.89542">
        <ele>1132</ele>
        <time>2012-12-02T13:15:27Z</time>
      </trkpt>
      <trkpt lat="43.72541" lon="6.89579">
        <ele>1132</ele>
        <time>2012-12-02T13:15:32Z</time>
      </trkpt>
      <trkpt lat="43.72535" lon="6.89611">
        <ele>1132</ele>
        <time>2012-12-02T13:15:37Z</time>
      </trkpt>
      <trkpt lat="43.72522" lon="6.89642">
        <ele>1132</ele>
        <time>2012-12-02T13:15:42Z</time>
      </trkpt>
      <trkpt lat="43.72507" lon="6.89664">
        <ele>1132</ele>
        <time>2012-12-02T13:15:47Z</time>
      </trkpt>
      <trkpt lat="43.72495" lon="6.89679">
        <ele>1132</ele>
        <time>2012-12-02T13:15:52Z</time>
      </trkpt>
      <trkpt lat="43.72476" lon="6.89688">
        <ele>1132</ele>
        <time>2012-12-02T13:15:57Z</time>
      </trkpt>
      <trkpt lat="43.72455" lon="6.89694">
        <ele>1132</ele>
        <time>2012-12-02T13:16:02Z</time>
      </trkpt>
      <trkpt lat="43.7244" lon="6.89708">
        <ele>1132</ele>
        <time>2012-12-02T13:16:07Z</time>
      </trkpt>
      <trkpt lat="43.72432" lon="6.89727">
        <ele>1132</ele>
        <time>2012-12-02T13:16:12Z</time>
      </trkpt>
      <trkpt lat="43.72426" lon="6.89748">
        <ele>1132</ele>
        <time>2012-12-02T13:16:17Z</time>
      </trkpt>
      <trkpt lat="43.72422" lon="6.89768">
        <ele>1132</ele>
        <time>2012-12-02T13:16:22Z</time>
      </trkpt>
      <trkpt lat="43.7242" lon="6.89788">
        <ele>1132</ele>
        <time>2012-12-02T13:16:27Z</time>
      </trkpt>
      <trkpt lat="43.72416" lon="6.89808">
        <ele>1133</ele>
        <time>2012-12-02T13:16:32Z</time>
      </trkpt>
      <trkpt lat="43.72408" lon="6.89835">
        <ele>1133</ele>
        <time>2012-12-02T13:16:38Z</time>
      </trkpt>
      <trkpt lat="43.724" lon="6.89857">
        <ele>1134</ele>
        <time>2012-12-02T13:16:43Z</time>
      </trkpt>
      <trkpt lat="43.72391" lon="6.89879">
        <ele>1134</ele>
        <time>2012-12-02T13:16:48Z</time>
      </trkpt>
      <trkpt lat="43.72382" lon="6.89898">
        <ele>1135</ele>
        <time>2012-12-02T13:16:53Z</time>
      </trkpt>
      <trkpt lat="43.72373" lon="6.89921">
        <ele>1135</ele>
        <time>2012-12-02T13:16:58Z</time>
      </trkpt>
      <trkpt lat="43.72368" lon="6.8995">
        <ele>1135</ele>
        <time>2012-12-02T13:17:03Z</time>
      </trkpt>
      <trkpt lat="43.72376" lon="6.89978">
        <ele>1135</ele>
        <time>2012-12-02T13:17:08Z</time>
      </trkpt>
      <trkpt lat="43.724" lon="6.90021">
        <ele>1135</ele>
        <time>2012-12-02T13:17:14Z</time>
      </trkpt>
      <trkpt lat="43.72395" lon="6.90063">
        <ele>1134</ele>
        <time>2012-12-02T13:17:19Z</time>
      </trkpt>
      <trkpt lat="43.72406" lon="6.901">
        <ele>1133</ele>
        <time>2012-12-02T13:17:24Z</time>
      </trkpt>
      <trkpt lat="43.72419" lon="6.90138">
        <ele>1131</ele>
        <time>2012-12-02T13:17:29Z</time>
      </trkpt>
      <trkpt lat="43.72419" lon="6.90172">
        <ele>1131</ele>
        <time>2012-12-02T13:17:34Z</time>
      </trkpt>
      <trkpt lat="43.72434" lon="6.90187">
        <ele>1131</ele>
        <time>2012-12-02T13:17:39Z</time>
      </trkpt>
      <trkpt lat="43.7245" lon="6.90196">
        <ele>1131</ele>
        <time>2012-12-02T13:17:44Z</time>
      </trkpt>
      <trkpt lat="43.72461" lon="6.90213">
        <ele>1131</ele>
        <time>2012-12-02T13:17:49Z</time>
      </trkpt>
      <trkpt lat="43.72466" lon="6.90239">
        <ele>1131</ele>
        <time>2012-12-02T13:17:54Z</time>
      </trkpt>
      <trkpt lat="43.72464" lon="6.90265">
        <ele>1131</ele>
        <time>2012-12-02T13:17:59Z</time>
      </trkpt>
      <trkpt lat="43.72459" lon="6.90289">
        <ele>1131</ele>
        <time>2012-12-02T13:18:04Z</time>
      </trkpt>
      <trkpt lat="43.72455" lon="6.90315">
        <ele>1132</ele>
        <time>2012-12-02T13:18:09Z</time>
      </trkpt>
      <trkpt lat="43.72453" lon="6.90343">
        <ele>1132</ele>
        <time>2012-12-02T13:18:14Z</time>
      </trkpt>
      <trkpt lat="43.72454" lon="6.90367">
        <ele>1133</ele>
        <time>2012-12-02T13:18:19Z</time>
      </trkpt>
      <trkpt lat="43.72456" lon="6.90389">
        <ele>1133</ele>
        <time>2012-12-02T13:18:24Z</time>
      </trkpt>
      <trkpt lat="43.72458" lon="6.90412">
        <ele>1134</ele>
        <time>2012-12-02T13:18:29Z</time>
      </trkpt>
      <trkpt lat="43.72461" lon="6.90438">
        <ele>1134</ele>
        <time>2012-12-02T13:18:34Z</time>
      </trkpt>
      <trkpt lat="43.72466" lon="6.90465">
        <ele>1134</ele>
        <time>2012-12-02T13:18:39Z</time>
      </trkpt>
      <trkpt lat="43.72472" lon="6.90492">
        <ele>1134</ele>
        <time>2012-12-02T13:18:44Z</time>
      </trkpt>
      <trkpt lat="43.72475" lon="6.9051">
        <ele>1134</ele>
        <time>2012-12-02T13:18:49Z</time>
      </trkpt>
      <trkpt lat="43.72475" lon="6.90525">
        <ele>1134</ele>
        <time>2012-12-02T13:18:54Z</time>
      </trkpt>
      <trkpt lat="43.72478" lon="6.90545">
        <ele>1134</ele>
        <time>2012-12-02T13:18:59Z</time>
      </trkpt>
      <trkpt lat="43.72481" lon="6.90565">
        <ele>1134</ele>
        <time>2012-12-02T13:19:04Z</time>
      </trkpt>
      <trkpt lat="43.72484" lon="6.90588">
        <ele>1134</ele>
        <time>2012-12-02T13:19:09Z</time>
      </trkpt>
      <trkpt lat="43.72488" lon="6.90612">
        <ele>1134</ele>
        <time>2012-12-02T13:19:14Z</time>
      </trkpt>
      <trkpt lat="43.72493" lon="6.90639">
        <ele>1133</ele>
        <time>2012-12-02T13:19:19Z</time>
      </trkpt>
      <trkpt lat="43.72492" lon="6.90668">
        <ele>1132</ele>
        <time>2012-12-02T13:19:24Z</time>
      </trkpt>
      <trkpt lat="43.72483" lon="6.90696">
        <ele>1131</ele>
        <time>2012-12-02T13:19:29Z</time>
      </trkpt>
      <trkpt lat="43.72472" lon="6.90724">
        <ele>1131</ele>
        <time>2012-12-02T13:19:34Z</time>
      </trkpt>
      <trkpt lat="43.72462" lon="6.90754">
        <ele>1130</ele>
        <time>2012-12-02T13:19:39Z</time>
      </trkpt>
      <trkpt lat="43.72452" lon="6.90785">
        <ele>1130</ele>
        <time>2012-12-02T13:19:44Z</time>
      </trkpt>
      <trkpt lat="43.72442" lon="6.90813">
        <ele>1130</ele>
        <time>2012-12-02T13:19:49Z</time>
      </trkpt>
      <trkpt lat="43.72433" lon="6.90838">
        <ele>1130</ele>
        <time>2012-12-02T13:19:54Z</time>
      </trkpt>
      <trkpt lat="43.72424" lon="6.90862">
        <ele>1130</ele>
        <time>2012-12-02T13:19:59Z</time>
      </trkpt>
      <trkpt lat="43.72419" lon="6.90886">
        <ele>1130</ele>
        <time>2012-12-02T13:20:04Z</time>
      </trkpt>
      <trkpt lat="43.72429" lon="6.90907">
        <ele>1130</ele>
        <time>2012-12-02T13:20:09Z</time>
      </trkpt>
      <trkpt lat="43.72448" lon="6.90919">
        <ele>1130</ele>
        <time>2012-12-02T13:20:14Z</time>
      </trkpt>
      <trkpt lat="43.72469" lon="6.90923">
        <ele>1130</ele>
        <time>2012-12-02T13:20:19Z</time>
      </trkpt>
      <trkpt lat="43.72491" lon="6.90916">
        <ele>1129</ele>
        <time>2012-12-02T13:20:24Z</time>
      </trkpt>
      <trkpt lat="43.72514" lon="6.90898">
        <ele>1129</ele>
        <time>2012-12-02T13:20:29Z</time>
      </trkpt>
      <trkpt lat="43.72532" lon="6.9089">
        <ele>1129</ele>
        <time>2012-12-02T13:20:34Z</time>
      </trkpt>
      <trkpt lat="43.72544" lon="6.90908">
        <ele>1128</ele>
        <time>2012-12-02T13:20:39Z</time>
      </trkpt>
      <trkpt lat="43.72541" lon="6.90934">
        <ele>1123</ele>
        <time>2012-12-02T13:20:44Z</time>
      </trkpt>
      <trkpt lat="43.72526" lon="6.90964">
        <ele>1119</ele>
        <time>2012-12-02T13:20:49Z</time>
      </trkpt>
      <trkpt lat="43.72512" lon="6.90995">
        <ele>1117</ele>
        <time>2012-12-02T13:20:54Z</time>
      </trkpt>
      <trkpt lat="43.72516" lon="6.91035">
        <ele>1114</ele>
        <time>2012-12-02T13:20:59Z</time>
      </trkpt>
      <trkpt lat="43.72525" lon="6.91066">
        <ele>1112</ele>
        <time>2012-12-02T13:21:04Z</time>
      </trkpt>
      <trkpt lat="43.72526" lon="6.91092">
        <ele>1109</ele>
        <time>2012-12-02T13:21:09Z</time>
      </trkpt>
      <trkpt lat="43.72524" lon="6.91114">
        <ele>1108</ele>
        <time>2012-12-02T13:21:14Z</time>
      </trkpt>
      <trkpt lat="43.72529" lon="6.91132">
        <ele>1107</ele>
        <time>2012-12-02T13:21:19Z</time>
      </trkpt>
      <trkpt lat="43.72554" lon="6.91138">
        <ele>1105</ele>
        <time>2012-12-02T13:21:24Z</time>
      </trkpt>
      <trkpt lat="43.72583" lon="6.91143">
        <ele>1103</ele>
        <time>2012-12-02T13:21:29Z</time>
      </trkpt>
      <trkpt lat="43.72607" lon="6.91146">
        <ele>1103</ele>
        <time>2012-12-02T13:21:34Z</time>
      </trkpt>
      <trkpt lat="43.72628" lon="6.91137">
        <ele>1103</ele>
        <time>2012-12-02T13:21:39Z</time>
      </trkpt>
      <trkpt lat="43.72654" lon="6.91137">
        <ele>1103</ele>
        <time>2012-12-02T13:21:44Z</time>
      </trkpt>
      <trkpt lat="43.72671" lon="6.91156">
        <ele>1103</ele>
        <time>2012-12-02T13:21:49Z</time>
      </trkpt>
      <trkpt lat="43.72678" lon="6.91186">
        <ele>1103</ele>
        <time>2012-12-02T13:21:54Z</time>
      </trkpt>
      <trkpt lat="43.72693" lon="6.91223">
        <ele>1103</ele>
        <time>2012-12-02T13:21:59Z</time>
      </trkpt>
      <trkpt lat="43.72702" lon="6.91257">
        <ele>1103</ele>
        <time>2012-12-02T13:22:04Z</time>
      </trkpt>
      <trkpt lat="43.72706" lon="6.9128">
        <ele>1103</ele>
        <time>2012-12-02T13:22:09Z</time>
      </trkpt>
      <trkpt lat="43.72715" lon="6.91298">
        <ele>1103</ele>
        <time>2012-12-02T13:22:14Z</time>
      </trkpt>
      <trkpt lat="43.72729" lon="6.91307">
        <ele>1103</ele>
        <time>2012-12-02T13:22:19Z</time>
      </trkpt>
      <trkpt lat="43.72745" lon="6.91314">
        <ele>1104</ele>
        <time>2012-12-02T13:22:24Z</time>
      </trkpt>
      <trkpt lat="43.72761" lon="6.91327">
        <ele>1104</ele>
        <time>2012-12-02T13:22:29Z</time>
      </trkpt>
      <trkpt lat="43.72777" lon="6.9134">
        <ele>1104</ele>
        <time>2012-12-02T13:22:34Z</time>
      </trkpt>
      <trkpt lat="43.72794" lon="6.91342">
        <ele>1104</ele>
        <time>2012-12-02T13:22:39Z</time>
      </trkpt>
      <trkpt lat="43.72812" lon="6.91341">
        <ele>1104</ele>
        <time>2012-12-02T13:22:44Z</time>
      </trkpt>
      <trkpt lat="43.72829" lon="6.91344">
        <ele>1104</ele>
        <time>2012-12-02T13:22:49Z</time>
      </trkpt>
      <trkpt lat="43.72847" lon="6.91358">
        <ele>1104</ele>
        <time>2012-12-02T13:22:54Z</time>
      </trkpt>
      <trkpt lat="43.72866" lon="6.91383">
        <ele>1104</ele>
        <time>2012-12-02T13:22:59Z</time>
      </trkpt>
      <trkpt lat="43.72879" lon="6.91408">
        <ele>1104</ele>
        <time>2012-12-02T13:23:04Z</time>
      </trkpt>
      <trkpt lat="43.7289" lon="6.9143">
        <ele>1104</ele>
        <time>2012-12-02T13:23:09Z</time>
      </trkpt>
      <trkpt lat="43.729" lon="6.9145">
        <ele>1104</ele>
        <time>2012-12-02T13:23:14Z</time>
      </trkpt>
      <trkpt lat="43.72911" lon="6.91469">
        <ele>1104</ele>
        <time>2012-12-02T13:23:19Z</time>
      </trkpt>
      <trkpt lat="43.72922" lon="6.91494">
        <ele>1104</ele>
        <time>2012-12-02T13:23:24Z</time>
      </trkpt>
      <trkpt lat="43.72928" lon="6.91525">
        <ele>1104</ele>
        <time>2012-12-02T13:23:29Z</time>
      </trkpt>
      <trkpt lat="43.72924" lon="6.91553">
        <ele>1104</ele>
        <time>2012-12-02T13:23:34Z</time>
      </trkpt>
      <trkpt lat="43.72913" lon="6.91576">
        <ele>1104</ele>
        <time>2012-12-02T13:23:39Z</time>
      </trkpt>
      <trkpt lat="43.72902" lon="6.91597">
        <ele>1104</ele>
        <time>2012-12-02T13:23:44Z</time>
      </trkpt>
      <trkpt lat="43.7289" lon="6.91618">
        <ele>1104</ele>
        <time>2012-12-02T13:23:49Z</time>
      </trkpt>
      <trkpt lat="43.72881" lon="6.91638">
        <ele>1105</ele>
        <time>2012-12-02T13:23:54Z</time>
      </trkpt>
      <trkpt lat="43.72873" lon="6.91655">
        <ele>1106</ele>
        <time>2012-12-02T13:23:59Z</time>
      </trkpt>
      <trkpt lat="43.72865" lon="6.91673">
        <ele>1109</ele>
        <time>2012-12-02T13:24:04Z</time>
      </trkpt>
      <trkpt lat="43.72857" lon="6.91689">
        <ele>1109</ele>
        <time>2012-12-02T13:24:09Z</time>
      </trkpt>
      <trkpt lat="43.72853" lon="6.91711">
        <ele>1109</ele>
        <time>2012-12-02T13:24:14Z</time>
      </trkpt>
      <trkpt lat="43.72852" lon="6.91736">
        <ele>1109</ele>
        <time>2012-12-02T13:24:19Z</time>
      </trkpt>
      <trkpt lat="43.72852" lon="6.91761">
        <ele>1109</ele>
        <time>2012-12-02T13:24:24Z</time>
      </trkpt>
      <trkpt lat="43.72852" lon="6.91783">
        <ele>1109</ele>
        <time>2012-12-02T13:24:29Z</time>
      </trkpt>
      <trkpt lat="43.72851" lon="6.91802">
        <ele>1109</ele>
        <time>2012-12-02T13:24:34Z</time>
      </trkpt>
      <trkpt lat="43.72849" lon="6.9182">
        <ele>1109</ele>
        <time>2012-12-02T13:24:39Z</time>
      </trkpt>
      <trkpt lat="43.72849" lon="6.91841">
        <ele>1109</ele>
        <time>2012-12-02T13:24:44Z</time>
      </trkpt>
      <trkpt lat="43.72855" lon="6.91861">
        <ele>1109</ele>
        <time>2012-12-02T13:24:49Z</time>
      </trkpt>
      <trkpt lat="43.72865" lon="6.9188">
        <ele>1109</ele>
        <time>2012-12-02T13:24:54Z</time>
      </trkpt>
      <trkpt lat="43.72874" lon="6.91898">
        <ele>1109</ele>
        <time>2012-12-02T13:24:59Z</time>
      </trkpt>
      <trkpt lat="43.72882" lon="6.91921">
        <ele>1109</ele>
        <time>2012-12-02T13:25:04Z</time>
      </trkpt>
      <trkpt lat="43.72885" lon="6.91942">
        <ele>1109</ele>
        <time>2012-12-02T13:25:09Z</time>
      </trkpt>
      <trkpt lat="43.72885" lon="6.91963">
        <ele>1109</ele>
        <time>2012-12-02T13:25:14Z</time>
      </trkpt>
      <trkpt lat="43.72879" lon="6.91985">
        <ele>1109</ele>
        <time>2012-12-02T13:25:19Z</time>
      </trkpt>
      <trkpt lat="43.72869" lon="6.92014">
        <ele>1109</ele>
        <time>2012-12-02T13:25:24Z</time>
      </trkpt>
      <trkpt lat="43.72859" lon="6.92041">
        <ele>1109</ele>
        <time>2012-12-02T13:25:29Z</time>
      </trkpt>
      <trkpt lat="43.72848" lon="6.92066">
        <ele>1109</ele>
        <time>2012-12-02T13:25:34Z</time>
      </trkpt>
      <trkpt lat="43.72842" lon="6.92096">
        <ele>1109</ele>
        <time>2012-12-02T13:25:39Z</time>
      </trkpt>
      <trkpt lat="43.72842" lon="6.92128">
        <ele>1109</ele>
        <time>2012-12-02T13:25:44Z</time>
      </trkpt>
      <trkpt lat="43.72844" lon="6.92156">
        <ele>1109</ele>
        <time>2012-12-02T13:25:49Z</time>
      </trkpt>
      <trkpt lat="43.72844" lon="6.92184">
        <ele>1109</ele>
        <time>2012-12-02T13:25:54Z</time>
      </trkpt>
      <trkpt lat="43.72841" lon="6.92213">
        <ele>1109</ele>
        <time>2012-12-02T13:25:59Z</time>
      </trkpt>
      <trkpt lat="43.72839" lon="6.92239">
        <ele>1109</ele>
        <time>2012-12-02T13:26:04Z</time>
      </trkpt>
      <trkpt lat="43.72839" lon="6.92263">
        <ele>1109</ele>
        <time>2012-12-02T13:26:09Z</time>
      </trkpt>
      <trkpt lat="43.72841" lon="6.92283">
        <ele>1109</ele>
        <time>2012-12-02T13:26:14Z</time>
      </trkpt>
      <trkpt lat="43.72847" lon="6.923">
        <ele>1109</ele>
        <time>2012-12-02T13:26:19Z</time>
      </trkpt>
      <trkpt lat="43.72857" lon="6.92316">
        <ele>1109</ele>
        <time>2012-12-02T13:26:24Z</time>
      </trkpt>
      <trkpt lat="43.72868" lon="6.92331">
        <ele>1109</ele>
        <time>2012-12-02T13:26:29Z</time>
      </trkpt>
      <trkpt lat="43.7288" lon="6.92348">
        <ele>1109</ele>
        <time>2012-12-02T13:26:34Z</time>
      </trkpt>
      <trkpt lat="43.72893" lon="6.92365">
        <ele>1109</ele>
        <time>2012-12-02T13:26:39Z</time>
      </trkpt>
      <trkpt lat="43.72905" lon="6.92385">
        <ele>1109</ele>
        <time>2012-12-02T13:26:44Z</time>
      </trkpt>
      <trkpt lat="43.72919" lon="6.92403">
        <ele>1109</ele>
        <time>2012-12-02T13:26:49Z</time>
      </trkpt>
      <trkpt lat="43.72928" lon="6.92416">
        <ele>1109</ele>
        <time>2012-12-02T13:26:54Z</time>
      </trkpt>
      <trkpt lat="43.72934" lon="6.92434">
        <ele>1109</ele>
        <time>2012-12-02T13:26:59Z</time>
      </trkpt>
      <trkpt lat="43.72936" lon="6.92457">
        <ele>1109</ele>
        <time>2012-12-02T13:27:04Z</time>
      </trkpt>
      <trkpt lat="43.72933" lon="6.92478">
        <ele>1109</ele>
        <time>2012-12-02T13:27:09Z</time>
      </trkpt>
      <trkpt lat="43.72933" lon="6.92502">
        <ele>1109</ele>
        <time>2012-12-02T13:27:14Z</time>
      </trkpt>
      <trkpt lat="43.72932" lon="6.92528">
        <ele>1110</ele>
        <time>2012-12-02T13:27:19Z</time>
      </trkpt>
      <trkpt lat="43.72929" lon="6.92554">
        <ele>1112</ele>
        <time>2012-12-02T13:27:24Z</time>
      </trkpt>
      <trkpt lat="43.72928" lon="6.9258">
        <ele>1114</ele>
        <time>2012-12-02T13:27:29Z</time>
      </trkpt>
      <trkpt lat="43.72926" lon="6.92605">
        <ele>1115</ele>
        <time>2012-12-02T13:27:34Z</time>
      </trkpt>
      <trkpt lat="43.72925" lon="6.92628">
        <ele>1115</ele>
        <time>2012-12-02T13:27:39Z</time>
      </trkpt>
      <trkpt lat="43.72928" lon="6.92653">
        <ele>1115</ele>
        <time>2012-12-02T13:27:44Z</time>
      </trkpt>
      <trkpt lat="43.72938" lon="6.9267">
        <ele>1115</ele>
        <time>2012-12-02T13:27:49Z</time>
      </trkpt>
      <trkpt lat="43.72949" lon="6.92685">
        <ele>1115</ele>
        <time>2012-12-02T13:27:54Z</time>
      </trkpt>
      <trkpt lat="43.7296" lon="6.927">
        <ele>1115</ele>
        <time>2012-12-02T13:27:59Z</time>
      </trkpt>
      <trkpt lat="43.72969" lon="6.92719">
        <ele>1115</ele>
        <time>2012-12-02T13:28:04Z</time>
      </trkpt>
      <trkpt lat="43.72975" lon="6.92739">
        <ele>1115</ele>
        <time>2012-12-02T13:28:09Z</time>
      </trkpt>
      <trkpt lat="43.72977" lon="6.92757">
        <ele>1115</ele>
        <time>2012-12-02T13:28:14Z</time>
      </trkpt>
      <trkpt lat="43.72979" lon="6.92778">
        <ele>1116</ele>
        <time>2012-12-02T13:28:19Z</time>
      </trkpt>
      <trkpt lat="43.72979" lon="6.92799">
        <ele>1117</ele>
        <time>2012-12-02T13:28:24Z</time>
      </trkpt>
      <trkpt lat="43.72978" lon="6.9282">
        <ele>1118</ele>
        <time>2012-12-02T13:28:29Z</time>
      </trkpt>
      <trkpt lat="43.72972" lon="6.9284">
        <ele>1118</ele>
        <time>2012-12-02T13:28:34Z</time>
      </trkpt>
      <trkpt lat="43.72963" lon="6.92858">
        <ele>1119</ele>
        <time>2012-12-02T13:28:39Z</time>
      </trkpt>
      <trkpt lat="43.72951" lon="6.92875">
        <ele>1119</ele>
        <time>2012-12-02T13:28:44Z</time>
      </trkpt>
      <trkpt lat="43.72942" lon="6.92899">
        <ele>1119</ele>
        <time>2012-12-02T13:28:49Z</time>
      </trkpt>
      <trkpt lat="43.72954" lon="6.92919">
        <ele>1119</ele>
        <time>2012-12-02T13:28:54Z</time>
      </trkpt>
      <trkpt lat="43.72969" lon="6.92921">
        <ele>1119</ele>
        <time>2012-12-02T13:28:59Z</time>
      </trkpt>
      <trkpt lat="43.72981" lon="6.92922">
        <ele>1119</ele>
        <time>2012-12-02T13:29:04Z</time>
      </trkpt>
      <trkpt lat="43.72997" lon="6.92921">
        <ele>1119</ele>
        <time>2012-12-02T13:29:09Z</time>
      </trkpt>
      <trkpt lat="43.73014" lon="6.92922">
        <ele>1119</ele>
        <time>2012-12-02T13:29:14Z</time>
      </trkpt>
      <trkpt lat="43.73032" lon="6.92926">
        <ele>1119</ele>
        <time>2012-12-02T13:29:19Z</time>
      </trkpt>
      <trkpt lat="43.73044" lon="6.9294">
        <ele>1119</ele>
        <time>2012-12-02T13:29:24Z</time>
      </trkpt>
      <trkpt lat="43.73046" lon="6.92966">
        <ele>1119</ele>
        <time>2012-12-02T13:29:29Z</time>
      </trkpt>
      <trkpt lat="43.73044" lon="6.92992">
        <ele>1119</ele>
        <time>2012-12-02T13:29:34Z</time>
      </trkpt>
      <trkpt lat="43.73042" lon="6.93019">
        <ele>1119</ele>
        <time>2012-12-02T13:29:39Z</time>
      </trkpt>
      <trkpt lat="43.73041" lon="6.93046">
        <ele>1119</ele>
        <time>2012-12-02T13:29:44Z</time>
      </trkpt>
      <trkpt lat="43.73042" lon="6.93073">
        <ele>1119</ele>
        <time>2012-12-02T13:29:49Z</time>
      </trkpt>
      <trkpt lat="43.73055" lon="6.93088">
        <ele>1119</ele>
        <time>2012-12-02T13:29:54Z</time>
      </trkpt>
      <trkpt lat="43.73071" lon="6.93087">
        <ele>1119</ele>
        <time>2012-12-02T13:29:59Z</time>
      </trkpt>
      <trkpt lat="43.73088" lon="6.93083">
        <ele>1119</ele>
        <time>2012-12-02T13:30:04Z</time>
      </trkpt>
      <trkpt lat="43.73103" lon="6.93081">
        <ele>1119</ele>
        <time>2012-12-02T13:30:09Z</time>
      </trkpt>
      <trkpt lat="43.73113" lon="6.93084">
        <ele>1120</ele>
        <time>2012-12-02T13:30:14Z</time>
      </trkpt>
      <trkpt lat="43.73122" lon="6.93098">
        <ele>1120</ele>
        <time>2012-12-02T13:30:19Z</time>
      </trkpt>
      <trkpt lat="43.73126" lon="6.93125">
        <ele>1120</ele>
        <time>2012-12-02T13:30:24Z</time>
      </trkpt>
      <trkpt lat="43.73124" lon="6.93155">
        <ele>1120</ele>
        <time>2012-12-02T13:30:29Z</time>
      </trkpt>
      <trkpt lat="43.73118" lon="6.9318">
        <ele>1120</ele>
        <time>2012-12-02T13:30:34Z</time>
      </trkpt>
      <trkpt lat="43.73118" lon="6.93204">
        <ele>1120</ele>
        <time>2012-12-02T13:30:39Z</time>
      </trkpt>
      <trkpt lat="43.73119" lon="6.93232">
        <ele>1120</ele>
        <time>2012-12-02T13:30:44Z</time>
      </trkpt>
      <trkpt lat="43.73121" lon="6.93258">
        <ele>1120</ele>
        <time>2012-12-02T13:30:49Z</time>
      </trkpt>
      <trkpt lat="43.7312" lon="6.93285">
        <ele>1120</ele>
        <time>2012-12-02T13:30:54Z</time>
      </trkpt>
      <trkpt lat="43.73109" lon="6.93316">
        <ele>1120</ele>
        <time>2012-12-02T13:30:59Z</time>
      </trkpt>
      <trkpt lat="43.73112" lon="6.93355">
        <ele>1120</ele>
        <time>2012-12-02T13:31:04Z</time>
      </trkpt>
      <trkpt lat="43.7313" lon="6.93382">
        <ele>1120</ele>
        <time>2012-12-02T13:31:09Z</time>
      </trkpt>
      <trkpt lat="43.73142" lon="6.93403">
        <ele>1120</ele>
        <time>2012-12-02T13:31:14Z</time>
      </trkpt>
      <trkpt lat="43.73158" lon="6.93418">
        <ele>1120</ele>
        <time>2012-12-02T13:31:19Z</time>
      </trkpt>
      <trkpt lat="43.73178" lon="6.93426">
        <ele>1120</ele>
        <time>2012-12-02T13:31:24Z</time>
      </trkpt>
      <trkpt lat="43.73198" lon="6.93434">
        <ele>1120</ele>
        <time>2012-12-02T13:31:29Z</time>
      </trkpt>
      <trkpt lat="43.73214" lon="6.93444">
        <ele>1120</ele>
        <time>2012-12-02T13:31:34Z</time>
      </trkpt>
      <trkpt lat="43.7323" lon="6.9345">
        <ele>1120</ele>
        <time>2012-12-02T13:31:39Z</time>
      </trkpt>
      <trkpt lat="43.73247" lon="6.9346">
        <ele>1120</ele>
        <time>2012-12-02T13:31:44Z</time>
      </trkpt>
      <trkpt lat="43.73266" lon="6.93471">
        <ele>1120</ele>
        <time>2012-12-02T13:31:49Z</time>
      </trkpt>
      <trkpt lat="43.73281" lon="6.93483">
        <ele>1120</ele>
        <time>2012-12-02T13:31:54Z</time>
      </trkpt>
      <trkpt lat="43.73297" lon="6.93501">
        <ele>1120</ele>
        <time>2012-12-02T13:31:59Z</time>
      </trkpt>
      <trkpt lat="43.73319" lon="6.93516">
        <ele>1120</ele>
        <time>2012-12-02T13:32:04Z</time>
      </trkpt>
      <trkpt lat="43.73343" lon="6.93519">
        <ele>1120</ele>
        <time>2012-12-02T13:32:09Z</time>
      </trkpt>
      <trkpt lat="43.73364" lon="6.93526">
        <ele>1120</ele>
        <time>2012-12-02T13:32:14Z</time>
      </trkpt>
      <trkpt lat="43.73385" lon="6.93523">
        <ele>1120</ele>
        <time>2012-12-02T13:32:19Z</time>
      </trkpt>
      <trkpt lat="43.73401" lon="6.93512">
        <ele>1120</ele>
        <time>2012-12-02T13:32:24Z</time>
      </trkpt>
      <trkpt lat="43.73417" lon="6.93506">
        <ele>1120</ele>
        <time>2012-12-02T13:32:29Z</time>
      </trkpt>
      <trkpt lat="43.73432" lon="6.93512">
        <ele>1120</ele>
        <time>2012-12-02T13:32:34Z</time>
      </trkpt>
      <trkpt lat="43.73441" lon="6.93523">
        <ele>1120</ele>
        <time>2012-12-02T13:32:39Z</time>
      </trkpt>
      <trkpt lat="43.73449" lon="6.93542">
        <ele>1120</ele>
        <time>2012-12-02T13:32:44Z</time>
      </trkpt>
      <trkpt lat="43.73457" lon="6.93569">
        <ele>1120</ele>
        <time>2012-12-02T13:32:49Z</time>
      </trkpt>
      <trkpt lat="43.73461" lon="6.93599">
        <ele>1120</ele>
        <time>2012-12-02T13:32:54Z</time>
      </trkpt>
      <trkpt lat="43.73463" lon="6.93628">
        <ele>1120</ele>
        <time>2012-12-02T13:32:59Z</time>
      </trkpt>
      <trkpt lat="43.73472" lon="6.93651">
        <ele>1120</ele>
        <time>2012-12-02T13:33:04Z</time>
      </trkpt>
      <trkpt lat="43.73479" lon="6.93674">
        <ele>1120</ele>
        <time>2012-12-02T13:33:09Z</time>
      </trkpt>
      <trkpt lat="43.73483" lon="6.93701">
        <ele>1120</ele>
        <time>2012-12-02T13:33:14Z</time>
      </trkpt>
      <trkpt lat="43.73486" lon="6.93728">
        <ele>1120</ele>
        <time>2012-12-02T13:33:19Z</time>
      </trkpt>
      <trkpt lat="43.73486" lon="6.93755">
        <ele>1120</ele>
        <time>2012-12-02T13:33:24Z</time>
      </trkpt>
      <trkpt lat="43.73482" lon="6.93783">
        <ele>1120</ele>
        <time>2012-12-02T13:33:29Z</time>
      </trkpt>
      <trkpt lat="43.73475" lon="6.93809">
        <ele>1120</ele>
        <time>2012-12-02T13:33:34Z</time>
      </trkpt>
      <trkpt lat="43.73468" lon="6.93836">
        <ele>1120</ele>
        <time>2012-12-02T13:33:39Z</time>
      </trkpt>
      <trkpt lat="43.73457" lon="6.93863">
        <ele>1120</ele>
        <time>2012-12-02T13:33:44Z</time>
      </trkpt>
      <trkpt lat="43.73436" lon="6.93886">
        <ele>1120</ele>
        <time>2012-12-02T13:33:49Z</time>
      </trkpt>
      <trkpt lat="43.73417" lon="6.93916">
        <ele>1119</ele>
        <time>2012-12-02T13:33:54Z</time>
      </trkpt>
      <trkpt lat="43.73396" lon="6.93949">
        <ele>1119</ele>
        <time>2012-12-02T13:33:59Z</time>
      </trkpt>
      <trkpt lat="43.73379" lon="6.9398">
        <ele>1119</ele>
        <time>2012-12-02T13:34:04Z</time>
      </trkpt>
      <trkpt lat="43.73379" lon="6.94012">
        <ele>1119</ele>
        <time>2012-12-02T13:34:09Z</time>
      </trkpt>
      <trkpt lat="43.73399" lon="6.94031">
        <ele>1118</ele>
        <time>2012-12-02T13:34:14Z</time>
      </trkpt>
      <trkpt lat="43.73421" lon="6.94052">
        <ele>1116</ele>
        <time>2012-12-02T13:34:19Z</time>
      </trkpt>
      <trkpt lat="43.73434" lon="6.9407">
        <ele>1115</ele>
        <time>2012-12-02T13:34:24Z</time>
      </trkpt>
      <trkpt lat="43.73428" lon="6.94097">
        <ele>1114</ele>
        <time>2012-12-02T13:34:29Z</time>
      </trkpt>
      <trkpt lat="43.73429" lon="6.94109">
        <ele>1114</ele>
        <time>2012-12-02T13:34:45Z</time>
      </trkpt>
      <trkpt lat="43.73433" lon="6.94116">
        <ele>1114</ele>
        <time>2012-12-02T13:34:51Z</time>
      </trkpt>
      <trkpt lat="43.73434" lon="6.94119">
        <ele>1114</ele>
        <time>2012-12-02T13:34:57Z</time>
      </trkpt>
      <trkpt lat="43.73436" lon="6.9412">
        <ele>1113</ele>
        <time>2012-12-02T13:35:46Z</time>
      </trkpt>
      <trkpt lat="43.73434" lon="6.94119">
        <ele>1113</ele>
        <time>2012-12-02T13:35:55Z</time>
      </trkpt>
      <trkpt lat="43.73434" lon="6.94118">
        <ele>1113</ele>
        <time>2012-12-02T13:36:23Z</time>
      </trkpt>
      <trkpt lat="43.73433" lon="6.94118">
        <ele>1113</ele>
        <time>2012-12-02T13:36:28Z</time>
      </trkpt>
      <trkpt lat="43.73432" lon="6.94117">
        <ele>1113</ele>
        <time>2012-12-02T13:36:36Z</time>
      </trkpt>
      <trkpt lat="43.73423" lon="6.94112">
        <ele>1113</ele>
        <time>2012-12-02T13:36:41Z</time>
      </trkpt>
      <trkpt lat="43.73414" lon="6.94116">
        <ele>1113</ele>
        <time>2012-12-02T13:36:46Z</time>
      </trkpt>
      <trkpt lat="43.73406" lon="6.94122">
        <ele>1113</ele>
        <time>2012-12-02T13:36:51Z</time>
      </trkpt>
      <trkpt lat="43.73401" lon="6.94134">
        <ele>1113</ele>
        <time>2012-12-02T13:36:56Z</time>
      </trkpt>
      <trkpt lat="43.73396" lon="6.94147">
        <ele>1113</ele>
        <time>2012-12-02T13:37:01Z</time>
      </trkpt>
      <trkpt lat="43.73388" lon="6.94153">
        <ele>1113</ele>
        <time>2012-12-02T13:37:06Z</time>
      </trkpt>
      <trkpt lat="43.73382" lon="6.94157">
        <ele>1113</ele>
        <time>2012-12-02T13:37:11Z</time>
      </trkpt>
      <trkpt lat="43.73375" lon="6.94154">
        <ele>1113</ele>
        <time>2012-12-02T13:37:16Z</time>
      </trkpt>
      <trkpt lat="43.73368" lon="6.94163">
        <ele>1113</ele>
        <time>2012-12-02T13:37:21Z</time>
      </trkpt>
      <trkpt lat="43.73365" lon="6.94174">
        <ele>1113</ele>
        <time>2012-12-02T13:37:26Z</time>
      </trkpt>
      <trkpt lat="43.73358" lon="6.94181">
        <ele>1113</ele>
        <time>2012-12-02T13:37:31Z</time>
      </trkpt>
      <trkpt lat="43.73349" lon="6.94183">
        <ele>1113</ele>
        <time>2012-12-02T13:37:36Z</time>
      </trkpt>
      <trkpt lat="43.7334" lon="6.94189">
        <ele>1113</ele>
        <time>2012-12-02T13:37:41Z</time>
      </trkpt>
      <trkpt lat="43.73333" lon="6.94195">
        <ele>1113</ele>
        <time>2012-12-02T13:37:46Z</time>
      </trkpt>
      <trkpt lat="43.73326" lon="6.94203">
        <ele>1113</ele>
        <time>2012-12-02T13:37:51Z</time>
      </trkpt>
      <trkpt lat="43.73321" lon="6.94213">
        <ele>1113</ele>
        <time>2012-12-02T13:37:56Z</time>
      </trkpt>
      <trkpt lat="43.73318" lon="6.94224">
        <ele>1113</ele>
        <time>2012-12-02T13:38:01Z</time>
      </trkpt>
      <trkpt lat="43.73314" lon="6.94235">
        <ele>1114</ele>
        <time>2012-12-02T13:38:06Z</time>
      </trkpt>
      <trkpt lat="43.73309" lon="6.94247">
        <ele>1114</ele>
        <time>2012-12-02T13:38:11Z</time>
      </trkpt>
      <trkpt lat="43.73304" lon="6.94256">
        <ele>1114</ele>
        <time>2012-12-02T13:38:16Z</time>
      </trkpt>
      <trkpt lat="43.73294" lon="6.94259">
        <ele>1114</ele>
        <time>2012-12-02T13:38:21Z</time>
      </trkpt>
      <trkpt lat="43.73287" lon="6.94256">
        <ele>1114</ele>
        <time>2012-12-02T13:38:26Z</time>
      </trkpt>
      <trkpt lat="43.73281" lon="6.94264">
        <ele>1114</ele>
        <time>2012-12-02T13:38:31Z</time>
      </trkpt>
      <trkpt lat="43.7327" lon="6.94275">
        <ele>1114</ele>
        <time>2012-12-02T13:38:36Z</time>
      </trkpt>
      <trkpt lat="43.73261" lon="6.94279">
        <ele>1114</ele>
        <time>2012-12-02T13:38:41Z</time>
      </trkpt>
      <trkpt lat="43.73253" lon="6.94282">
        <ele>1114</ele>
        <time>2012-12-02T13:38:46Z</time>
      </trkpt>
      <trkpt lat="43.73242" lon="6.94286">
        <ele>1114</ele>
        <time>2012-12-02T13:38:51Z</time>
      </trkpt>
      <trkpt lat="43.73227" lon="6.94292">
        <ele>1114</ele>
        <time>2012-12-02T13:38:56Z</time>
      </trkpt>
      <trkpt lat="43.73214" lon="6.94298">
        <ele>1114</ele>
        <time>2012-12-02T13:39:01Z</time>
      </trkpt>
      <trkpt lat="43.73205" lon="6.94303">
        <ele>1114</ele>
        <time>2012-12-02T13:39:06Z</time>
      </trkpt>
      <trkpt lat="43.73195" lon="6.9431">
        <ele>1114</ele>
        <time>2012-12-02T13:39:11Z</time>
      </trkpt>
      <trkpt lat="43.73185" lon="6.94319">
        <ele>1114</ele>
        <time>2012-12-02T13:39:16Z</time>
      </trkpt>
      <trkpt lat="43.73177" lon="6.94326">
        <ele>1114</ele>
        <time>2012-12-02T13:39:21Z</time>
      </trkpt>
      <trkpt lat="43.73169" lon="6.94334">
        <ele>1114</ele>
        <time>2012-12-02T13:39:26Z</time>
      </trkpt>
      <trkpt lat="43.7316" lon="6.94341">
        <ele>1114</ele>
        <time>2012-12-02T13:39:31Z</time>
      </trkpt>
      <trkpt lat="43.73152" lon="6.94349">
        <ele>1114</ele>
        <time>2012-12-02T13:39:36Z</time>
      </trkpt>
      <trkpt lat="43.73144" lon="6.94358">
        <ele>1114</ele>
        <time>2012-12-02T13:39:41Z</time>
      </trkpt>
      <trkpt lat="43.73135" lon="6.94368">
        <ele>1114</ele>
        <time>2012-12-02T13:39:46Z</time>
      </trkpt>
      <trkpt lat="43.73127" lon="6.94378">
        <ele>1114</ele>
        <time>2012-12-02T13:39:51Z</time>
      </trkpt>
      <trkpt lat="43.73119" lon="6.94387">
        <ele>1114</ele>
        <time>2012-12-02T13:39:56Z</time>
      </trkpt>
      <trkpt lat="43.7311" lon="6.94395">
        <ele>1114</ele>
        <time>2012-12-02T13:40:01Z</time>
      </trkpt>
      <trkpt lat="43.73101" lon="6.94405">
        <ele>1114</ele>
        <time>2012-12-02T13:40:06Z</time>
      </trkpt>
      <trkpt lat="43.73093" lon="6.94415">
        <ele>1114</ele>
        <time>2012-12-02T13:40:11Z</time>
      </trkpt>
      <trkpt lat="43.7308" lon="6.94421">
        <ele>1114</ele>
        <time>2012-12-02T13:40:16Z</time>
      </trkpt>
      <trkpt lat="43.73067" lon="6.94425">
        <ele>1114</ele>
        <time>2012-12-02T13:40:21Z</time>
      </trkpt>
      <trkpt lat="43.73055" lon="6.94429">
        <ele>1114</ele>
        <time>2012-12-02T13:40:26Z</time>
      </trkpt>
      <trkpt lat="43.73043" lon="6.94433">
        <ele>1114</ele>
        <time>2012-12-02T13:40:31Z</time>
      </trkpt>
      <trkpt lat="43.7303" lon="6.9444">
        <ele>1113</ele>
        <time>2012-12-02T13:40:36Z</time>
      </trkpt>
      <trkpt lat="43.73018" lon="6.94448">
        <ele>1112</ele>
        <time>2012-12-02T13:40:41Z</time>
      </trkpt>
      <trkpt lat="43.73005" lon="6.9445">
        <ele>1112</ele>
        <time>2012-12-02T13:40:46Z</time>
      </trkpt>
      <trkpt lat="43.72991" lon="6.94454">
        <ele>1112</ele>
        <time>2012-12-02T13:40:51Z</time>
      </trkpt>
      <trkpt lat="43.72981" lon="6.94461">
        <ele>1112</ele>
        <time>2012-12-02T13:40:56Z</time>
      </trkpt>
      <trkpt lat="43.72971" lon="6.94461">
        <ele>1112</ele>
        <time>2012-12-02T13:41:01Z</time>
      </trkpt>
      <trkpt lat="43.7296" lon="6.94466">
        <ele>1112</ele>
        <time>2012-12-02T13:41:06Z</time>
      </trkpt>
      <trkpt lat="43.72947" lon="6.94474">
        <ele>1112</ele>
        <time>2012-12-02T13:41:11Z</time>
      </trkpt>
      <trkpt lat="43.72932" lon="6.94483">
        <ele>1112</ele>
        <time>2012-12-02T13:41:16Z</time>
      </trkpt>
      <trkpt lat="43.72916" lon="6.94496">
        <ele>1112</ele>
        <time>2012-12-02T13:41:21Z</time>
      </trkpt>
      <trkpt lat="43.729" lon="6.94509">
        <ele>1112</ele>
        <time>2012-12-02T13:41:26Z</time>
      </trkpt>
      <trkpt lat="43.72882" lon="6.94522">
        <ele>1112</ele>
        <time>2012-12-02T13:41:31Z</time>
      </trkpt>
      <trkpt lat="43.72864" lon="6.94534">
        <ele>1112</ele>
        <time>2012-12-02T13:41:36Z</time>
      </trkpt>
      <trkpt lat="43.7285" lon="6.94549">
        <ele>1112</ele>
        <time>2012-12-02T13:41:41Z</time>
      </trkpt>
      <trkpt lat="43.72834" lon="6.94563">
        <ele>1111</ele>
        <time>2012-12-02T13:41:46Z</time>
      </trkpt>
      <trkpt lat="43.72818" lon="6.94578">
        <ele>1111</ele>
        <time>2012-12-02T13:41:51Z</time>
      </trkpt>
      <trkpt lat="43.728" lon="6.94591">
        <ele>1109</ele>
        <time>2012-12-02T13:41:56Z</time>
      </trkpt>
      <trkpt lat="43.7278" lon="6.94607">
        <ele>1108</ele>
        <time>2012-12-02T13:42:01Z</time>
      </trkpt>
      <trkpt lat="43.72761" lon="6.94625">
        <ele>1107</ele>
        <time>2012-12-02T13:42:06Z</time>
      </trkpt>
      <trkpt lat="43.7274" lon="6.94648">
        <ele>1106</ele>
        <time>2012-12-02T13:42:11Z</time>
      </trkpt>
      <trkpt lat="43.72719" lon="6.94675">
        <ele>1106</ele>
        <time>2012-12-02T13:42:16Z</time>
      </trkpt>
      <trkpt lat="43.727" lon="6.94697">
        <ele>1106</ele>
        <time>2012-12-02T13:42:21Z</time>
      </trkpt>
      <trkpt lat="43.72686" lon="6.94717">
        <ele>1106</ele>
        <time>2012-12-02T13:42:26Z</time>
      </trkpt>
      <trkpt lat="43.7267" lon="6.94732">
        <ele>1105</ele>
        <time>2012-12-02T13:42:31Z</time>
      </trkpt>
      <trkpt lat="43.72653" lon="6.9474">
        <ele>1103</ele>
        <time>2012-12-02T13:42:36Z</time>
      </trkpt>
      <trkpt lat="43.72637" lon="6.94736">
        <ele>1102</ele>
        <time>2012-12-02T13:42:41Z</time>
      </trkpt>
      <trkpt lat="43.72611" lon="6.94742">
        <ele>1100</ele>
        <time>2012-12-02T13:42:46Z</time>
      </trkpt>
      <trkpt lat="43.72591" lon="6.9476">
        <ele>1100</ele>
        <time>2012-12-02T13:42:51Z</time>
      </trkpt>
      <trkpt lat="43.72583" lon="6.94778">
        <ele>1099</ele>
        <time>2012-12-02T13:42:56Z</time>
      </trkpt>
      <trkpt lat="43.72578" lon="6.94797">
        <ele>1098</ele>
        <time>2012-12-02T13:43:01Z</time>
      </trkpt>
      <trkpt lat="43.72572" lon="6.94791">
        <ele>1097</ele>
        <time>2012-12-02T13:43:06Z</time>
      </trkpt>
      <trkpt lat="43.72564" lon="6.94784">
        <ele>1096</ele>
        <time>2012-12-02T13:43:11Z</time>
      </trkpt>
      <trkpt lat="43.72553" lon="6.94776">
        <ele>1094</ele>
        <time>2012-12-02T13:43:16Z</time>
      </trkpt>
      <trkpt lat="43.72538" lon="6.94765">
        <ele>1094</ele>
        <time>2012-12-02T13:43:21Z</time>
      </trkpt>
      <trkpt lat="43.72526" lon="6.94763">
        <ele>1093</ele>
        <time>2012-12-02T13:43:26Z</time>
      </trkpt>
      <trkpt lat="43.72516" lon="6.94751">
        <ele>1092</ele>
        <time>2012-12-02T13:43:31Z</time>
      </trkpt>
      <trkpt lat="43.72502" lon="6.94742">
        <ele>1091</ele>
        <time>2012-12-02T13:43:36Z</time>
      </trkpt>
      <trkpt lat="43.72487" lon="6.94735">
        <ele>1088</ele>
        <time>2012-12-02T13:43:42Z</time>
      </trkpt>
      <trkpt lat="43.72471" lon="6.94728">
        <ele>1087</ele>
        <time>2012-12-02T13:43:47Z</time>
      </trkpt>
      <trkpt lat="43.72455" lon="6.94719">
        <ele>1085</ele>
        <time>2012-12-02T13:43:52Z</time>
      </trkpt>
      <trkpt lat="43.72443" lon="6.94712">
        <ele>1083</ele>
        <time>2012-12-02T13:43:57Z</time>
      </trkpt>
      <trkpt lat="43.72429" lon="6.94709">
        <ele>1082</ele>
        <time>2012-12-02T13:44:02Z</time>
      </trkpt>
      <trkpt lat="43.72411" lon="6.94704">
        <ele>1080</ele>
        <time>2012-12-02T13:44:08Z</time>
      </trkpt>
      <trkpt lat="43.72392" lon="6.94699">
        <ele>1077</ele>
        <time>2012-12-02T13:44:13Z</time>
      </trkpt>
      <trkpt lat="43.72372" lon="6.94696">
        <ele>1074</ele>
        <time>2012-12-02T13:44:18Z</time>
      </trkpt>
      <trkpt lat="43.72366" lon="6.94694">
        <ele>1074</ele>
        <time>2012-12-02T13:44:40Z</time>
      </trkpt>
      <trkpt lat="43.72366" lon="6.94693">
        <ele>1072</ele>
        <time>2012-12-02T13:45:46Z</time>
      </trkpt>
      <trkpt lat="43.72366" lon="6.94694">
        <ele>1072</ele>
        <time>2012-12-02T13:46:05Z</time>
      </trkpt>
      <trkpt lat="43.72366" lon="6.94696">
        <ele>1072</ele>
        <time>2012-12-02T13:46:36Z</time>
      </trkpt>
      <trkpt lat="43.72367" lon="6.94694">
        <ele>1072</ele>
        <time>2012-12-02T13:47:14Z</time>
      </trkpt>
      <trkpt lat="43.72365" lon="6.94694">
        <ele>1072</ele>
        <time>2012-12-02T13:47:30Z</time>
      </trkpt>
      <trkpt lat="43.7236" lon="6.94698">
        <ele>1071</ele>
        <time>2012-12-02T13:47:36Z</time>
      </trkpt>
      <trkpt lat="43.72358" lon="6.94705">
        <ele>1069</ele>
        <time>2012-12-02T13:47:42Z</time>
      </trkpt>
      <trkpt lat="43.72354" lon="6.94711">
        <ele>1066</ele>
        <time>2012-12-02T13:47:48Z</time>
      </trkpt>
      <trkpt lat="43.72348" lon="6.9472">
        <ele>1063</ele>
        <time>2012-12-02T13:47:53Z</time>
      </trkpt>
      <trkpt lat="43.72342" lon="6.9473">
        <ele>1060</ele>
        <time>2012-12-02T13:47:58Z</time>
      </trkpt>
      <trkpt lat="43.72342" lon="6.94741">
        <ele>1056</ele>
        <time>2012-12-02T13:48:03Z</time>
      </trkpt>
      <trkpt lat="43.72346" lon="6.94753">
        <ele>1053</ele>
        <time>2012-12-02T13:48:08Z</time>
      </trkpt>
      <trkpt lat="43.72348" lon="6.94756">
        <ele>1049</ele>
        <time>2012-12-02T13:48:17Z</time>
      </trkpt>
      <trkpt lat="43.72352" lon="6.94755">
        <ele>1049</ele>
        <time>2012-12-02T13:48:23Z</time>
      </trkpt>
      <trkpt lat="43.7235" lon="6.94765">
        <ele>1048</ele>
        <time>2012-12-02T13:48:28Z</time>
      </trkpt>
      <trkpt lat="43.72338" lon="6.94772">
        <ele>1045</ele>
        <time>2012-12-02T13:48:33Z</time>
      </trkpt>
      <trkpt lat="43.72314" lon="6.94775">
        <ele>1042</ele>
        <time>2012-12-02T13:48:38Z</time>
      </trkpt>
      <trkpt lat="43.72296" lon="6.94765">
        <ele>1038</ele>
        <time>2012-12-02T13:48:43Z</time>
      </trkpt>
      <trkpt lat="43.72269" lon="6.94735">
        <ele>1035</ele>
        <time>2012-12-02T13:48:48Z</time>
      </trkpt>
      <trkpt lat="43.72242" lon="6.9471">
        <ele>1032</ele>
        <time>2012-12-02T13:48:53Z</time>
      </trkpt>
      <trkpt lat="43.72217" lon="6.94688">
        <ele>1032</ele>
        <time>2012-12-02T13:48:58Z</time>
      </trkpt>
      <trkpt lat="43.72188" lon="6.9466">
        <ele>1031</ele>
        <time>2012-12-02T13:49:04Z</time>
      </trkpt>
      <trkpt lat="43.72166" lon="6.9463">
        <ele>1031</ele>
        <time>2012-12-02T13:49:09Z</time>
      </trkpt>
      <trkpt lat="43.72147" lon="6.94609">
        <ele>1031</ele>
        <time>2012-12-02T13:49:14Z</time>
      </trkpt>
      <trkpt lat="43.72149" lon="6.94609">
        <ele>1031</ele>
        <time>2012-12-02T13:49:20Z</time>
      </trkpt>
      <trkpt lat="43.72149" lon="6.94611">
        <ele>1031</ele>
        <time>2012-12-02T13:49:27Z</time>
      </trkpt>
      <trkpt lat="43.72139" lon="6.94608">
        <ele>1030</ele>
        <time>2012-12-02T13:49:33Z</time>
      </trkpt>
      <trkpt lat="43.72135" lon="6.94607">
        <ele>1030</ele>
        <time>2012-12-02T13:50:00Z</time>
      </trkpt>
      <trkpt lat="43.7212" lon="6.94606">
        <ele>1030</ele>
        <time>2012-12-02T13:50:06Z</time>
      </trkpt>
      <trkpt lat="43.72103" lon="6.94598">
        <ele>1029</ele>
        <time>2012-12-02T13:50:11Z</time>
      </trkpt>
      <trkpt lat="43.72086" lon="6.94588">
        <ele>1029</ele>
        <time>2012-12-02T13:50:16Z</time>
      </trkpt>
      <trkpt lat="43.72069" lon="6.94585">
        <ele>1029</ele>
        <time>2012-12-02T13:50:21Z</time>
      </trkpt>
      <trkpt lat="43.72056" lon="6.94579">
        <ele>1029</ele>
        <time>2012-12-02T13:50:26Z</time>
      </trkpt>
      <trkpt lat="43.7204" lon="6.94577">
        <ele>1029</ele>
        <time>2012-12-02T13:50:31Z</time>
      </trkpt>
      <trkpt lat="43.72031" lon="6.94576">
        <ele>1029</ele>
        <time>2012-12-02T13:50:36Z</time>
      </trkpt>
      <trkpt lat="43.72016" lon="6.94578">
        <ele>1029</ele>
        <time>2012-12-02T13:50:41Z</time>
      </trkpt>
      <trkpt lat="43.72005" lon="6.94583">
        <ele>1026</ele>
        <time>2012-12-02T13:50:46Z</time>
      </trkpt>
      <trkpt lat="43.71997" lon="6.94591">
        <ele>1023</ele>
        <time>2012-12-02T13:50:52Z</time>
      </trkpt>
      <trkpt lat="43.7199" lon="6.94602">
        <ele>1021</ele>
        <time>2012-12-02T13:50:57Z</time>
      </trkpt>
      <trkpt lat="43.7198" lon="6.94596">
        <ele>1021</ele>
        <time>2012-12-02T13:51:02Z</time>
      </trkpt>
      <trkpt lat="43.71977" lon="6.94593">
        <ele>1019</ele>
        <time>2012-12-02T13:51:11Z</time>
      </trkpt>
      <trkpt lat="43.71976" lon="6.9459">
        <ele>1019</ele>
        <time>2012-12-02T13:51:16Z</time>
      </trkpt>
      <trkpt lat="43.71973" lon="6.9459">
        <ele>1019</ele>
        <time>2012-12-02T13:51:25Z</time>
      </trkpt>
      <trkpt lat="43.71966" lon="6.9458">
        <ele>1018</ele>
        <time>2012-12-02T13:51:30Z</time>
      </trkpt>
      <trkpt lat="43.71953" lon="6.9457">
        <ele>1017</ele>
        <time>2012-12-02T13:51:36Z</time>
      </trkpt>
      <trkpt lat="43.71938" lon="6.9456">
        <ele>1015</ele>
        <time>2012-12-02T13:51:41Z</time>
      </trkpt>
      <trkpt lat="43.71924" lon="6.94552">
        <ele>1014</ele>
        <time>2012-12-02T13:51:46Z</time>
      </trkpt>
      <trkpt lat="43.7192" lon="6.94553">
        <ele>1013</ele>
        <time>2012-12-02T13:51:55Z</time>
      </trkpt>
      <trkpt lat="43.7192" lon="6.9456">
        <ele>1012</ele>
        <time>2012-12-02T13:52:00Z</time>
      </trkpt>
      <trkpt lat="43.71915" lon="6.94568">
        <ele>1011</ele>
        <time>2012-12-02T13:52:06Z</time>
      </trkpt>
      <trkpt lat="43.71912" lon="6.94574">
        <ele>1010</ele>
        <time>2012-12-02T13:52:12Z</time>
      </trkpt>
      <trkpt lat="43.71905" lon="6.94582">
        <ele>1010</ele>
        <time>2012-12-02T13:52:18Z</time>
      </trkpt>
      <trkpt lat="43.719" lon="6.94583">
        <ele>1009</ele>
        <time>2012-12-02T13:52:23Z</time>
      </trkpt>
      <trkpt lat="43.71895" lon="6.94584">
        <ele>1009</ele>
        <time>2012-12-02T13:52:28Z</time>
      </trkpt>
      <trkpt lat="43.7189" lon="6.9459">
        <ele>1009</ele>
        <time>2012-12-02T13:52:33Z</time>
      </trkpt>
      <trkpt lat="43.71883" lon="6.94596">
        <ele>1009</ele>
        <time>2012-12-02T13:52:39Z</time>
      </trkpt>
      <trkpt lat="43.71876" lon="6.94599">
        <ele>1009</ele>
        <time>2012-12-02T13:52:44Z</time>
      </trkpt>
      <trkpt lat="43.71869" lon="6.94602">
        <ele>1009</ele>
        <time>2012-12-02T13:52:49Z</time>
      </trkpt>
      <trkpt lat="43.71864" lon="6.94609">
        <ele>1009</ele>
        <time>2012-12-02T13:52:54Z</time>
      </trkpt>
      <trkpt lat="43.71858" lon="6.94614">
        <ele>1008</ele>
        <time>2012-12-02T13:52:59Z</time>
      </trkpt>
      <trkpt lat="43.71851" lon="6.94619">
        <ele>1006</ele>
        <time>2012-12-02T13:53:04Z</time>
      </trkpt>
      <trkpt lat="43.71842" lon="6.94627">
        <ele>1004</ele>
        <time>2012-12-02T13:53:09Z</time>
      </trkpt>
      <trkpt lat="43.71839" lon="6.94642">
        <ele>1002</ele>
        <time>2012-12-02T13:53:14Z</time>
      </trkpt>
      <trkpt lat="43.71833" lon="6.94657">
        <ele>1000</ele>
        <time>2012-12-02T13:53:19Z</time>
      </trkpt>
      <trkpt lat="43.71812" lon="6.94671">
        <ele>996</ele>
        <time>2012-12-02T13:53:24Z</time>
      </trkpt>
      <trkpt lat="43.71788" lon="6.94681">
        <ele>993</ele>
        <time>2012-12-02T13:53:29Z</time>
      </trkpt>
      <trkpt lat="43.71766" lon="6.94691">
        <ele>991</ele>
        <time>2012-12-02T13:53:34Z</time>
      </trkpt>
      <trkpt lat="43.71745" lon="6.94711">
        <ele>989</ele>
        <time>2012-12-02T13:53:39Z</time>
      </trkpt>
      <trkpt lat="43.7174" lon="6.94719">
        <ele>987</ele>
        <time>2012-12-02T13:53:45Z</time>
      </trkpt>
      <trkpt lat="43.71725" lon="6.94732">
        <ele>987</ele>
        <time>2012-12-02T13:53:51Z</time>
      </trkpt>
      <trkpt lat="43.71721" lon="6.94749">
        <ele>986</ele>
        <time>2012-12-02T13:53:56Z</time>
      </trkpt>
      <trkpt lat="43.71725" lon="6.94764">
        <ele>984</ele>
        <time>2012-12-02T13:54:01Z</time>
      </trkpt>
      <trkpt lat="43.71726" lon="6.94782">
        <ele>983</ele>
        <time>2012-12-02T13:54:06Z</time>
      </trkpt>
      <trkpt lat="43.71727" lon="6.94798">
        <ele>983</ele>
        <time>2012-12-02T13:54:11Z</time>
      </trkpt>
      <trkpt lat="43.71724" lon="6.94818">
        <ele>982</ele>
        <time>2012-12-02T13:54:16Z</time>
      </trkpt>
      <trkpt lat="43.71721" lon="6.94824">
        <ele>982</ele>
        <time>2012-12-02T13:54:50Z</time>
      </trkpt>
      <trkpt lat="43.71721" lon="6.94826">
        <ele>982</ele>
        <time>2012-12-02T13:55:12Z</time>
      </trkpt>
      <trkpt lat="43.71719" lon="6.94838">
        <ele>982</ele>
        <time>2012-12-02T13:55:17Z</time>
      </trkpt>
      <trkpt lat="43.71712" lon="6.94858">
        <ele>982</ele>
        <time>2012-12-02T13:55:23Z</time>
      </trkpt>
      <trkpt lat="43.71704" lon="6.94873">
        <ele>982</ele>
        <time>2012-12-02T13:55:28Z</time>
      </trkpt>
      <trkpt lat="43.71696" lon="6.9489">
        <ele>981</ele>
        <time>2012-12-02T13:55:33Z</time>
      </trkpt>
      <trkpt lat="43.71689" lon="6.94907">
        <ele>981</ele>
        <time>2012-12-02T13:55:38Z</time>
      </trkpt>
      <trkpt lat="43.71686" lon="6.94927">
        <ele>980</ele>
        <time>2012-12-02T13:55:43Z</time>
      </trkpt>
      <trkpt lat="43.71682" lon="6.94947">
        <ele>977</ele>
        <time>2012-12-02T13:55:48Z</time>
      </trkpt>
      <trkpt lat="43.71669" lon="6.94959">
        <ele>975</ele>
        <time>2012-12-02T13:55:53Z</time>
      </trkpt>
      <trkpt lat="43.71655" lon="6.94976">
        <ele>974</ele>
        <time>2012-12-02T13:55:58Z</time>
      </trkpt>
      <trkpt lat="43.7165" lon="6.94996">
        <ele>974</ele>
        <time>2012-12-02T13:56:03Z</time>
      </trkpt>
      <trkpt lat="43.71643" lon="6.95009">
        <ele>974</ele>
        <time>2012-12-02T13:56:08Z</time>
      </trkpt>
      <trkpt lat="43.71643" lon="6.95018">
        <ele>974</ele>
        <time>2012-12-02T13:56:13Z</time>
      </trkpt>
      <trkpt lat="43.71647" lon="6.95026">
        <ele>974</ele>
        <time>2012-12-02T13:56:18Z</time>
      </trkpt>
      <trkpt lat="43.71653" lon="6.95041">
        <ele>974</ele>
        <time>2012-12-02T13:56:24Z</time>
      </trkpt>
      <trkpt lat="43.7165" lon="6.95056">
        <ele>974</ele>
        <time>2012-12-02T13:56:29Z</time>
      </trkpt>
      <trkpt lat="43.71644" lon="6.9507">
        <ele>974</ele>
        <time>2012-12-02T13:56:35Z</time>
      </trkpt>
      <trkpt lat="43.71638" lon="6.95084">
        <ele>974</ele>
        <time>2012-12-02T13:56:40Z</time>
      </trkpt>
      <trkpt lat="43.71632" lon="6.95099">
        <ele>974</ele>
        <time>2012-12-02T13:56:46Z</time>
      </trkpt>
      <trkpt lat="43.71626" lon="6.95114">
        <ele>974</ele>
        <time>2012-12-02T13:56:52Z</time>
      </trkpt>
      <trkpt lat="43.71616" lon="6.95127">
        <ele>974</ele>
        <time>2012-12-02T13:56:57Z</time>
      </trkpt>
      <trkpt lat="43.71606" lon="6.95142">
        <ele>973</ele>
        <time>2012-12-02T13:57:02Z</time>
      </trkpt>
      <trkpt lat="43.71592" lon="6.95154">
        <ele>973</ele>
        <time>2012-12-02T13:57:07Z</time>
      </trkpt>
      <trkpt lat="43.71579" lon="6.95171">
        <ele>973</ele>
        <time>2012-12-02T13:57:13Z</time>
      </trkpt>
      <trkpt lat="43.7157" lon="6.95179">
        <ele>973</ele>
        <time>2012-12-02T13:57:18Z</time>
      </trkpt>
      <trkpt lat="43.71566" lon="6.95181">
        <ele>973</ele>
        <time>2012-12-02T13:57:30Z</time>
      </trkpt>
      <trkpt lat="43.71555" lon="6.95188">
        <ele>973</ele>
        <time>2012-12-02T13:57:36Z</time>
      </trkpt>
      <trkpt lat="43.71543" lon="6.95195">
        <ele>973</ele>
        <time>2012-12-02T13:57:41Z</time>
      </trkpt>
      <trkpt lat="43.71525" lon="6.95192">
        <ele>972</ele>
        <time>2012-12-02T13:57:46Z</time>
      </trkpt>
      <trkpt lat="43.71508" lon="6.95193">
        <ele>970</ele>
        <time>2012-12-02T13:57:51Z</time>
      </trkpt>
      <trkpt lat="43.7149" lon="6.95188">
        <ele>968</ele>
        <time>2012-12-02T13:57:57Z</time>
      </trkpt>
      <trkpt lat="43.71473" lon="6.95184">
        <ele>965</ele>
        <time>2012-12-02T13:58:02Z</time>
      </trkpt>
      <trkpt lat="43.71453" lon="6.9518">
        <ele>962</ele>
        <time>2012-12-02T13:58:07Z</time>
      </trkpt>
      <trkpt lat="43.71436" lon="6.95179">
        <ele>960</ele>
        <time>2012-12-02T13:58:13Z</time>
      </trkpt>
      <trkpt lat="43.71421" lon="6.95183">
        <ele>958</ele>
        <time>2012-12-02T13:58:18Z</time>
      </trkpt>
      <trkpt lat="43.71407" lon="6.95188">
        <ele>955</ele>
        <time>2012-12-02T13:58:23Z</time>
      </trkpt>
      <trkpt lat="43.71388" lon="6.95198">
        <ele>952</ele>
        <time>2012-12-02T13:58:28Z</time>
      </trkpt>
      <trkpt lat="43.71371" lon="6.95207">
        <ele>951</ele>
        <time>2012-12-02T13:58:33Z</time>
      </trkpt>
      <trkpt lat="43.71361" lon="6.95215">
        <ele>948</ele>
        <time>2012-12-02T13:58:38Z</time>
      </trkpt>
      <trkpt lat="43.71349" lon="6.95222">
        <ele>944</ele>
        <time>2012-12-02T13:58:43Z</time>
      </trkpt>
      <trkpt lat="43.71334" lon="6.95239">
        <ele>941</ele>
        <time>2012-12-02T13:58:48Z</time>
      </trkpt>
      <trkpt lat="43.71315" lon="6.95248">
        <ele>938</ele>
        <time>2012-12-02T13:58:53Z</time>
      </trkpt>
      <trkpt lat="43.71301" lon="6.95259">
        <ele>935</ele>
        <time>2012-12-02T13:58:58Z</time>
      </trkpt>
      <trkpt lat="43.71288" lon="6.95272">
        <ele>934</ele>
        <time>2012-12-02T13:59:03Z</time>
      </trkpt>
      <trkpt lat="43.71273" lon="6.95284">
        <ele>931</ele>
        <time>2012-12-02T13:59:08Z</time>
      </trkpt>
      <trkpt lat="43.71257" lon="6.95297">
        <ele>929</ele>
        <time>2012-12-02T13:59:13Z</time>
      </trkpt>
      <trkpt lat="43.71245" lon="6.95309">
        <ele>928</ele>
        <time>2012-12-02T13:59:18Z</time>
      </trkpt>
      <trkpt lat="43.7123" lon="6.95309">
        <ele>926</ele>
        <time>2012-12-02T13:59:23Z</time>
      </trkpt>
      <trkpt lat="43.71215" lon="6.95315">
        <ele>923</ele>
        <time>2012-12-02T13:59:28Z</time>
      </trkpt>
      <trkpt lat="43.71201" lon="6.95321">
        <ele>921</ele>
        <time>2012-12-02T13:59:33Z</time>
      </trkpt>
      <trkpt lat="43.71183" lon="6.95326">
        <ele>920</ele>
        <time>2012-12-02T13:59:38Z</time>
      </trkpt>
      <trkpt lat="43.71169" lon="6.95338">
        <ele>919</ele>
        <time>2012-12-02T13:59:43Z</time>
      </trkpt>
      <trkpt lat="43.71154" lon="6.95347">
        <ele>918</ele>
        <time>2012-12-02T13:59:48Z</time>
      </trkpt>
      <trkpt lat="43.71144" lon="6.95351">
        <ele>914</ele>
        <time>2012-12-02T14:00:28Z</time>
      </trkpt>
      <trkpt lat="43.71133" lon="6.95356">
        <ele>913</ele>
        <time>2012-12-02T14:00:33Z</time>
      </trkpt>
      <trkpt lat="43.7112" lon="6.9537">
        <ele>910</ele>
        <time>2012-12-02T14:00:38Z</time>
      </trkpt>
      <trkpt lat="43.71109" lon="6.95386">
        <ele>908</ele>
        <time>2012-12-02T14:00:43Z</time>
      </trkpt>
      <trkpt lat="43.71097" lon="6.9539">
        <ele>904</ele>
        <time>2012-12-02T14:00:48Z</time>
      </trkpt>
      <trkpt lat="43.71086" lon="6.95397">
        <ele>899</ele>
        <time>2012-12-02T14:00:53Z</time>
      </trkpt>
      <trkpt lat="43.71073" lon="6.954">
        <ele>895</ele>
        <time>2012-12-02T14:00:58Z</time>
      </trkpt>
      <trkpt lat="43.71055" lon="6.95391">
        <ele>892</ele>
        <time>2012-12-02T14:01:03Z</time>
      </trkpt>
      <trkpt lat="43.71041" lon="6.95394">
        <ele>889</ele>
        <time>2012-12-02T14:01:08Z</time>
      </trkpt>
      <trkpt lat="43.71025" lon="6.95405">
        <ele>886</ele>
        <time>2012-12-02T14:01:13Z</time>
      </trkpt>
      <trkpt lat="43.71009" lon="6.95413">
        <ele>883</ele>
        <time>2012-12-02T14:01:18Z</time>
      </trkpt>
      <trkpt lat="43.70993" lon="6.95418">
        <ele>880</ele>
        <time>2012-12-02T14:01:23Z</time>
      </trkpt>
      <trkpt lat="43.70976" lon="6.9543">
        <ele>878</ele>
        <time>2012-12-02T14:01:28Z</time>
      </trkpt>
      <trkpt lat="43.70961" lon="6.9544">
        <ele>873</ele>
        <time>2012-12-02T14:01:34Z</time>
      </trkpt>
      <trkpt lat="43.70951" lon="6.95449">
        <ele>869</ele>
        <time>2012-12-02T14:01:39Z</time>
      </trkpt>
      <trkpt lat="43.70938" lon="6.95457">
        <ele>867</ele>
        <time>2012-12-02T14:01:44Z</time>
      </trkpt>
      <trkpt lat="43.70927" lon="6.95465">
        <ele>864</ele>
        <time>2012-12-02T14:01:49Z</time>
      </trkpt>
      <trkpt lat="43.70914" lon="6.95479">
        <ele>862</ele>
        <time>2012-12-02T14:01:54Z</time>
      </trkpt>
      <trkpt lat="43.709" lon="6.95481">
        <ele>860</ele>
        <time>2012-12-02T14:01:59Z</time>
      </trkpt>
      <trkpt lat="43.70892" lon="6.95502">
        <ele>858</ele>
        <time>2012-12-02T14:02:04Z</time>
      </trkpt>
      <trkpt lat="43.70884" lon="6.95518">
        <ele>855</ele>
        <time>2012-12-02T14:02:09Z</time>
      </trkpt>
      <trkpt lat="43.70869" lon="6.95517">
        <ele>851</ele>
        <time>2012-12-02T14:02:14Z</time>
      </trkpt>
      <trkpt lat="43.70859" lon="6.95515">
        <ele>848</ele>
        <time>2012-12-02T14:02:19Z</time>
      </trkpt>
      <trkpt lat="43.70858" lon="6.95514">
        <ele>847</ele>
        <time>2012-12-02T14:02:27Z</time>
      </trkpt>
      <trkpt lat="43.70856" lon="6.95513">
        <ele>847</ele>
        <time>2012-12-02T14:02:53Z</time>
      </trkpt>
      <trkpt lat="43.70855" lon="6.95512">
        <ele>847</ele>
        <time>2012-12-02T14:03:29Z</time>
      </trkpt>
      <trkpt lat="43.70853" lon="6.95529">
        <ele>847</ele>
        <time>2012-12-02T14:03:34Z</time>
      </trkpt>
      <trkpt lat="43.70839" lon="6.95564">
        <ele>845</ele>
        <time>2012-12-02T14:03:40Z</time>
      </trkpt>
      <trkpt lat="43.7083" lon="6.95604">
        <ele>841</ele>
        <time>2012-12-02T14:03:45Z</time>
      </trkpt>
      <trkpt lat="43.70829" lon="6.95647">
        <ele>837</ele>
        <time>2012-12-02T14:03:50Z</time>
      </trkpt>
      <trkpt lat="43.70828" lon="6.95693">
        <ele>832</ele>
        <time>2012-12-02T14:03:55Z</time>
      </trkpt>
      <trkpt lat="43.70833" lon="6.95722">
        <ele>828</ele>
        <time>2012-12-02T14:04:00Z</time>
      </trkpt>
      <trkpt lat="43.70846" lon="6.95742">
        <ele>824</ele>
        <time>2012-12-02T14:04:05Z</time>
      </trkpt>
      <trkpt lat="43.70842" lon="6.9576">
        <ele>820</ele>
        <time>2012-12-02T14:04:10Z</time>
      </trkpt>
      <trkpt lat="43.7082" lon="6.95786">
        <ele>816</ele>
        <time>2012-12-02T14:04:15Z</time>
      </trkpt>
      <trkpt lat="43.70803" lon="6.95822">
        <ele>811</ele>
        <time>2012-12-02T14:04:20Z</time>
      </trkpt>
      <trkpt lat="43.70787" lon="6.95839">
        <ele>808</ele>
        <time>2012-12-02T14:04:25Z</time>
      </trkpt>
      <trkpt lat="43.70782" lon="6.95841">
        <ele>806</ele>
        <time>2012-12-02T14:04:30Z</time>
      </trkpt>
      <trkpt lat="43.70778" lon="6.95841">
        <ele>806</ele>
        <time>2012-12-02T14:04:35Z</time>
      </trkpt>
      <trkpt lat="43.70767" lon="6.95856">
        <ele>806</ele>
        <time>2012-12-02T14:04:40Z</time>
      </trkpt>
      <trkpt lat="43.70751" lon="6.9586">
        <ele>805</ele>
        <time>2012-12-02T14:04:45Z</time>
      </trkpt>
      <trkpt lat="43.70729" lon="6.95872">
        <ele>802</ele>
        <time>2012-12-02T14:04:50Z</time>
      </trkpt>
      <trkpt lat="43.70711" lon="6.95892">
        <ele>801</ele>
        <time>2012-12-02T14:04:55Z</time>
      </trkpt>
      <trkpt lat="43.70691" lon="6.95901">
        <ele>800</ele>
        <time>2012-12-02T14:05:00Z</time>
      </trkpt>
      <trkpt lat="43.7068" lon="6.95915">
        <ele>798</ele>
        <time>2012-12-02T14:05:05Z</time>
      </trkpt>
      <trkpt lat="43.70669" lon="6.95932">
        <ele>797</ele>
        <time>2012-12-02T14:05:10Z</time>
      </trkpt>
      <trkpt lat="43.70647" lon="6.95942">
        <ele>794</ele>
        <time>2012-12-02T14:05:15Z</time>
      </trkpt>
      <trkpt lat="43.7063" lon="6.95966">
        <ele>790</ele>
        <time>2012-12-02T14:05:20Z</time>
      </trkpt>
      <trkpt lat="43.70638" lon="6.95993">
        <ele>787</ele>
        <time>2012-12-02T14:05:25Z</time>
      </trkpt>
      <trkpt lat="43.70644" lon="6.96019">
        <ele>786</ele>
        <time>2012-12-02T14:05:30Z</time>
      </trkpt>
      <trkpt lat="43.70648" lon="6.96046">
        <ele>786</ele>
        <time>2012-12-02T14:05:35Z</time>
      </trkpt>
      <trkpt lat="43.70655" lon="6.96074">
        <ele>786</ele>
        <time>2012-12-02T14:05:40Z</time>
      </trkpt>
      <trkpt lat="43.70665" lon="6.96103">
        <ele>786</ele>
        <time>2012-12-02T14:05:45Z</time>
      </trkpt>
      <trkpt lat="43.70679" lon="6.96119">
        <ele>786</ele>
        <time>2012-12-02T14:05:50Z</time>
      </trkpt>
      <trkpt lat="43.70687" lon="6.96143">
        <ele>786</ele>
        <time>2012-12-02T14:05:55Z</time>
      </trkpt>
      <trkpt lat="43.70697" lon="6.96171">
        <ele>786</ele>
        <time>2012-12-02T14:06:00Z</time>
      </trkpt>
      <trkpt lat="43.70711" lon="6.96194">
        <ele>786</ele>
        <time>2012-12-02T14:06:05Z</time>
      </trkpt>
      <trkpt lat="43.70709" lon="6.96225">
        <ele>784</ele>
        <time>2012-12-02T14:06:10Z</time>
      </trkpt>
      <trkpt lat="43.70717" lon="6.96257">
        <ele>784</ele>
        <time>2012-12-02T14:06:15Z</time>
      </trkpt>
      <trkpt lat="43.70727" lon="6.96283">
        <ele>783</ele>
        <time>2012-12-02T14:06:20Z</time>
      </trkpt>
      <trkpt lat="43.70733" lon="6.96312">
        <ele>781</ele>
        <time>2012-12-02T14:06:25Z</time>
      </trkpt>
      <trkpt lat="43.70724" lon="6.9635">
        <ele>779</ele>
        <time>2012-12-02T14:06:30Z</time>
      </trkpt>
      <trkpt lat="43.70713" lon="6.96386">
        <ele>777</ele>
        <time>2012-12-02T14:06:35Z</time>
      </trkpt>
      <trkpt lat="43.70706" lon="6.96422">
        <ele>776</ele>
        <time>2012-12-02T14:06:40Z</time>
      </trkpt>
      <trkpt lat="43.70711" lon="6.96454">
        <ele>775</ele>
        <time>2012-12-02T14:06:45Z</time>
      </trkpt>
      <trkpt lat="43.70711" lon="6.96489">
        <ele>774</ele>
        <time>2012-12-02T14:06:50Z</time>
      </trkpt>
      <trkpt lat="43.70731" lon="6.96505">
        <ele>772</ele>
        <time>2012-12-02T14:06:55Z</time>
      </trkpt>
      <trkpt lat="43.70745" lon="6.9653">
        <ele>771</ele>
        <time>2012-12-02T14:07:00Z</time>
      </trkpt>
      <trkpt lat="43.70742" lon="6.96561">
        <ele>771</ele>
        <time>2012-12-02T14:07:05Z</time>
      </trkpt>
      <trkpt lat="43.70749" lon="6.96589">
        <ele>771</ele>
        <time>2012-12-02T14:07:10Z</time>
      </trkpt>
      <trkpt lat="43.70753" lon="6.96615">
        <ele>771</ele>
        <time>2012-12-02T14:07:15Z</time>
      </trkpt>
      <trkpt lat="43.70768" lon="6.96638">
        <ele>771</ele>
        <time>2012-12-02T14:07:20Z</time>
      </trkpt>
      <trkpt lat="43.70779" lon="6.96665">
        <ele>769</ele>
        <time>2012-12-02T14:07:25Z</time>
      </trkpt>
      <trkpt lat="43.70792" lon="6.96688">
        <ele>767</ele>
        <time>2012-12-02T14:07:30Z</time>
      </trkpt>
      <trkpt lat="43.70799" lon="6.96719">
        <ele>764</ele>
        <time>2012-12-02T14:07:35Z</time>
      </trkpt>
      <trkpt lat="43.70811" lon="6.96744">
        <ele>760</ele>
        <time>2012-12-02T14:07:40Z</time>
      </trkpt>
      <trkpt lat="43.70827" lon="6.96764">
        <ele>755</ele>
        <time>2012-12-02T14:07:45Z</time>
      </trkpt>
      <trkpt lat="43.70843" lon="6.96777">
        <ele>750</ele>
        <time>2012-12-02T14:07:50Z</time>
      </trkpt>
      <trkpt lat="43.7086" lon="6.96785">
        <ele>743</ele>
        <time>2012-12-02T14:07:55Z</time>
      </trkpt>
      <trkpt lat="43.70883" lon="6.96782">
        <ele>738</ele>
        <time>2012-12-02T14:08:00Z</time>
      </trkpt>
      <trkpt lat="43.70904" lon="6.96793">
        <ele>733</ele>
        <time>2012-12-02T14:08:05Z</time>
      </trkpt>
      <trkpt lat="43.7091" lon="6.96814">
        <ele>724</ele>
        <time>2012-12-02T14:08:10Z</time>
      </trkpt>
      <trkpt lat="43.70918" lon="6.96833">
        <ele>718</ele>
        <time>2012-12-02T14:08:15Z</time>
      </trkpt>
      <trkpt lat="43.70921" lon="6.96843">
        <ele>714</ele>
        <time>2012-12-02T14:08:22Z</time>
      </trkpt>
      <trkpt lat="43.70924" lon="6.96862">
        <ele>714</ele>
        <time>2012-12-02T14:08:27Z</time>
      </trkpt>
      <trkpt lat="43.70923" lon="6.96896">
        <ele>714</ele>
        <time>2012-12-02T14:08:32Z</time>
      </trkpt>
      <trkpt lat="43.70928" lon="6.96924">
        <ele>714</ele>
        <time>2012-12-02T14:08:37Z</time>
      </trkpt>
      <trkpt lat="43.70929" lon="6.96936">
        <ele>713</ele>
        <time>2012-12-02T14:08:42Z</time>
      </trkpt>
      <trkpt lat="43.7093" lon="6.9695">
        <ele>710</ele>
        <time>2012-12-02T14:08:47Z</time>
      </trkpt>
      <trkpt lat="43.70926" lon="6.96971">
        <ele>708</ele>
        <time>2012-12-02T14:08:52Z</time>
      </trkpt>
      <trkpt lat="43.70925" lon="6.96991">
        <ele>705</ele>
        <time>2012-12-02T14:08:57Z</time>
      </trkpt>
      <trkpt lat="43.7092" lon="6.97008">
        <ele>705</ele>
        <time>2012-12-02T14:09:02Z</time>
      </trkpt>
      <trkpt lat="43.70912" lon="6.97027">
        <ele>705</ele>
        <time>2012-12-02T14:09:07Z</time>
      </trkpt>
      <trkpt lat="43.70902" lon="6.97047">
        <ele>703</ele>
        <time>2012-12-02T14:09:12Z</time>
      </trkpt>
      <trkpt lat="43.70889" lon="6.97069">
        <ele>702</ele>
        <time>2012-12-02T14:09:17Z</time>
      </trkpt>
      <trkpt lat="43.70889" lon="6.97076">
        <ele>702</ele>
        <time>2012-12-02T14:09:22Z</time>
      </trkpt>
      <trkpt lat="43.70889" lon="6.97076">
        <ele>701</ele>
        <time>2012-12-02T14:09:36Z</time>
      </trkpt>
      <trkpt lat="43.70889" lon="6.97077">
        <ele>700</ele>
        <time>2012-12-02T14:09:45Z</time>
      </trkpt>
      <trkpt lat="43.70895" lon="6.97085">
        <ele>699</ele>
        <time>2012-12-02T14:09:50Z</time>
      </trkpt>
      <trkpt lat="43.70899" lon="6.97096">
        <ele>696</ele>
        <time>2012-12-02T14:09:55Z</time>
      </trkpt>
      <trkpt lat="43.70891" lon="6.97109">
        <ele>693</ele>
        <time>2012-12-02T14:10:00Z</time>
      </trkpt>
      <trkpt lat="43.70894" lon="6.97116">
        <ele>690</ele>
        <time>2012-12-02T14:10:06Z</time>
      </trkpt>
      <trkpt lat="43.70901" lon="6.97122">
        <ele>688</ele>
        <time>2012-12-02T14:10:11Z</time>
      </trkpt>
      <trkpt lat="43.70903" lon="6.97136">
        <ele>686</ele>
        <time>2012-12-02T14:10:16Z</time>
      </trkpt>
      <trkpt lat="43.709" lon="6.97147">
        <ele>686</ele>
        <time>2012-12-02T14:10:21Z</time>
      </trkpt>
      <trkpt lat="43.709" lon="6.97149">
        <ele>686</ele>
        <time>2012-12-02T14:10:27Z</time>
      </trkpt>
      <trkpt lat="43.70899" lon="6.97153">
        <ele>686</ele>
        <time>2012-12-02T14:10:37Z</time>
      </trkpt>
      <trkpt lat="43.70899" lon="6.97155">
        <ele>688</ele>
        <time>2012-12-02T14:10:42Z</time>
      </trkpt>
      <trkpt lat="43.70896" lon="6.97165">
        <ele>688</ele>
        <time>2012-12-02T14:10:47Z</time>
      </trkpt>
      <trkpt lat="43.70886" lon="6.97189">
        <ele>688</ele>
        <time>2012-12-02T14:10:52Z</time>
      </trkpt>
      <trkpt lat="43.70878" lon="6.97204">
        <ele>688</ele>
        <time>2012-12-02T14:10:57Z</time>
      </trkpt>
      <trkpt lat="43.70866" lon="6.97218">
        <ele>688</ele>
        <time>2012-12-02T14:11:02Z</time>
      </trkpt>
      <trkpt lat="43.70854" lon="6.97229">
        <ele>688</ele>
        <time>2012-12-02T14:11:07Z</time>
      </trkpt>
      <trkpt lat="43.70842" lon="6.97241">
        <ele>688</ele>
        <time>2012-12-02T14:11:12Z</time>
      </trkpt>
      <trkpt lat="43.70832" lon="6.97254">
        <ele>686</ele>
        <time>2012-12-02T14:11:17Z</time>
      </trkpt>
      <trkpt lat="43.70816" lon="6.9728">
        <ele>684</ele>
        <time>2012-12-02T14:11:22Z</time>
      </trkpt>
      <trkpt lat="43.70801" lon="6.97318">
        <ele>680</ele>
        <time>2012-12-02T14:11:27Z</time>
      </trkpt>
      <trkpt lat="43.70791" lon="6.97354">
        <ele>676</ele>
        <time>2012-12-02T14:11:32Z</time>
      </trkpt>
      <trkpt lat="43.70784" lon="6.97366">
        <ele>673</ele>
        <time>2012-12-02T14:11:38Z</time>
      </trkpt>
      <trkpt lat="43.70775" lon="6.97359">
        <ele>670</ele>
        <time>2012-12-02T14:11:43Z</time>
      </trkpt>
      <trkpt lat="43.70773" lon="6.97347">
        <ele>666</ele>
        <time>2012-12-02T14:11:48Z</time>
      </trkpt>
      <trkpt lat="43.7077" lon="6.97345">
        <ele>665</ele>
        <time>2012-12-02T14:11:53Z</time>
      </trkpt>
      <trkpt lat="43.70769" lon="6.97347">
        <ele>665</ele>
        <time>2012-12-02T14:12:07Z</time>
      </trkpt>
      <trkpt lat="43.70769" lon="6.97348">
        <ele>665</ele>
        <time>2012-12-02T14:12:19Z</time>
      </trkpt>
      <trkpt lat="43.70768" lon="6.9735">
        <ele>665</ele>
        <time>2012-12-02T14:12:27Z</time>
      </trkpt>
      <trkpt lat="43.70763" lon="6.97362">
        <ele>665</ele>
        <time>2012-12-02T14:12:32Z</time>
      </trkpt>
      <trkpt lat="43.70764" lon="6.97383">
        <ele>665</ele>
        <time>2012-12-02T14:12:37Z</time>
      </trkpt>
      <trkpt lat="43.70765" lon="6.97405">
        <ele>665</ele>
        <time>2012-12-02T14:12:42Z</time>
      </trkpt>
      <trkpt lat="43.70766" lon="6.97428">
        <ele>665</ele>
        <time>2012-12-02T14:12:47Z</time>
      </trkpt>
      <trkpt lat="43.70765" lon="6.97445">
        <ele>665</ele>
        <time>2012-12-02T14:12:52Z</time>
      </trkpt>
      <trkpt lat="43.70751" lon="6.9747">
        <ele>665</ele>
        <time>2012-12-02T14:12:57Z</time>
      </trkpt>
      <trkpt lat="43.70739" lon="6.9749">
        <ele>665</ele>
        <time>2012-12-02T14:13:02Z</time>
      </trkpt>
      <trkpt lat="43.70737" lon="6.97493">
        <ele>665</ele>
        <time>2012-12-02T14:13:12Z</time>
      </trkpt>
      <trkpt lat="43.70724" lon="6.97507">
        <ele>664</ele>
        <time>2012-12-02T14:13:17Z</time>
      </trkpt>
      <trkpt lat="43.70698" lon="6.97523">
        <ele>661</ele>
        <time>2012-12-02T14:13:22Z</time>
      </trkpt>
      <trkpt lat="43.70665" lon="6.97541">
        <ele>657</ele>
        <time>2012-12-02T14:13:27Z</time>
      </trkpt>
      <trkpt lat="43.70634" lon="6.97561">
        <ele>653</ele>
        <time>2012-12-02T14:13:32Z</time>
      </trkpt>
      <trkpt lat="43.7063" lon="6.97568">
        <ele>653</ele>
        <time>2012-12-02T14:13:37Z</time>
      </trkpt>
      <trkpt lat="43.70619" lon="6.97568">
        <ele>653</ele>
        <time>2012-12-02T14:13:42Z</time>
      </trkpt>
      <trkpt lat="43.70606" lon="6.97569">
        <ele>652</ele>
        <time>2012-12-02T14:13:47Z</time>
      </trkpt>
      <trkpt lat="43.70598" lon="6.97559">
        <ele>651</ele>
        <time>2012-12-02T14:13:52Z</time>
      </trkpt>
      <trkpt lat="43.70589" lon="6.97545">
        <ele>648</ele>
        <time>2012-12-02T14:13:57Z</time>
      </trkpt>
      <trkpt lat="43.70593" lon="6.9753">
        <ele>647</ele>
        <time>2012-12-02T14:14:02Z</time>
      </trkpt>
      <trkpt lat="43.70592" lon="6.9752">
        <ele>645</ele>
        <time>2012-12-02T14:14:08Z</time>
      </trkpt>
      <trkpt lat="43.70592" lon="6.97519">
        <ele>645</ele>
        <time>2012-12-02T14:14:20Z</time>
      </trkpt>
      <trkpt lat="43.70591" lon="6.97518">
        <ele>644</ele>
        <time>2012-12-02T14:14:32Z</time>
      </trkpt>
      <trkpt lat="43.70586" lon="6.97512">
        <ele>642</ele>
        <time>2012-12-02T14:14:40Z</time>
      </trkpt>
      <trkpt lat="43.70583" lon="6.97508">
        <ele>641</ele>
        <time>2012-12-02T14:14:51Z</time>
      </trkpt>
      <trkpt lat="43.70582" lon="6.97503">
        <ele>640</ele>
        <time>2012-12-02T14:14:56Z</time>
      </trkpt>
      <trkpt lat="43.70576" lon="6.97488">
        <ele>638</ele>
        <time>2012-12-02T14:15:01Z</time>
      </trkpt>
      <trkpt lat="43.7057" lon="6.9747">
        <ele>635</ele>
        <time>2012-12-02T14:15:06Z</time>
      </trkpt>
      <trkpt lat="43.70557" lon="6.97473">
        <ele>632</ele>
        <time>2012-12-02T14:15:11Z</time>
      </trkpt>
      <trkpt lat="43.70543" lon="6.97474">
        <ele>631</ele>
        <time>2012-12-02T14:15:16Z</time>
      </trkpt>
      <trkpt lat="43.70532" lon="6.97474">
        <ele>629</ele>
        <time>2012-12-02T14:15:21Z</time>
      </trkpt>
      <trkpt lat="43.70529" lon="6.97468">
        <ele>626</ele>
        <time>2012-12-02T14:15:28Z</time>
      </trkpt>
      <trkpt lat="43.70526" lon="6.97467">
        <ele>625</ele>
        <time>2012-12-02T14:15:33Z</time>
      </trkpt>
      <trkpt lat="43.70513" lon="6.97468">
        <ele>624</ele>
        <time>2012-12-02T14:15:38Z</time>
      </trkpt>
      <trkpt lat="43.70498" lon="6.9747">
        <ele>622</ele>
        <time>2012-12-02T14:15:43Z</time>
      </trkpt>
      <trkpt lat="43.70487" lon="6.97463">
        <ele>621</ele>
        <time>2012-12-02T14:15:48Z</time>
      </trkpt>
      <trkpt lat="43.70475" lon="6.97466">
        <ele>618</ele>
        <time>2012-12-02T14:15:53Z</time>
      </trkpt>
      <trkpt lat="43.70463" lon="6.97466">
        <ele>617</ele>
        <time>2012-12-02T14:15:58Z</time>
      </trkpt>
      <trkpt lat="43.70455" lon="6.97459">
        <ele>614</ele>
        <time>2012-12-02T14:16:03Z</time>
      </trkpt>
      <trkpt lat="43.70452" lon="6.97459">
        <ele>614</ele>
        <time>2012-12-02T14:16:08Z</time>
      </trkpt>
      <trkpt lat="43.70451" lon="6.97454">
        <ele>613</ele>
        <time>2012-12-02T14:16:13Z</time>
      </trkpt>
      <trkpt lat="43.70457" lon="6.97443">
        <ele>613</ele>
        <time>2012-12-02T14:16:18Z</time>
      </trkpt>
      <trkpt lat="43.70455" lon="6.97435">
        <ele>612</ele>
        <time>2012-12-02T14:16:23Z</time>
      </trkpt>
      <trkpt lat="43.70447" lon="6.97428">
        <ele>609</ele>
        <time>2012-12-02T14:16:28Z</time>
      </trkpt>
      <trkpt lat="43.70446" lon="6.97415">
        <ele>609</ele>
        <time>2012-12-02T14:16:33Z</time>
      </trkpt>
      <trkpt lat="43.7044" lon="6.97412">
        <ele>608</ele>
        <time>2012-12-02T14:16:40Z</time>
      </trkpt>
      <trkpt lat="43.70433" lon="6.97417">
        <ele>607</ele>
        <time>2012-12-02T14:16:48Z</time>
      </trkpt>
      <trkpt lat="43.70427" lon="6.97418">
        <ele>605</ele>
        <time>2012-12-02T14:16:53Z</time>
      </trkpt>
      <trkpt lat="43.70425" lon="6.9742">
        <ele>604</ele>
        <time>2012-12-02T14:16:59Z</time>
      </trkpt>
      <trkpt lat="43.7042" lon="6.97421">
        <ele>604</ele>
        <time>2012-12-02T14:17:07Z</time>
      </trkpt>
      <trkpt lat="43.70418" lon="6.97421">
        <ele>604</ele>
        <time>2012-12-02T14:17:13Z</time>
      </trkpt>
      <trkpt lat="43.70417" lon="6.97421">
        <ele>604</ele>
        <time>2012-12-02T14:17:18Z</time>
      </trkpt>
      <trkpt lat="43.70416" lon="6.97417">
        <ele>604</ele>
        <time>2012-12-02T14:17:24Z</time>
      </trkpt>
      <trkpt lat="43.70416" lon="6.97413">
        <ele>604</ele>
        <time>2012-12-02T14:17:30Z</time>
      </trkpt>
      <trkpt lat="43.70415" lon="6.97412">
        <ele>604</ele>
        <time>2012-12-02T14:17:35Z</time>
      </trkpt>
      <trkpt lat="43.70412" lon="6.97412">
        <ele>604</ele>
        <time>2012-12-02T14:17:41Z</time>
      </trkpt>
      <trkpt lat="43.70405" lon="6.97406">
        <ele>603</ele>
        <time>2012-12-02T14:17:46Z</time>
      </trkpt>
      <trkpt lat="43.70392" lon="6.97401">
        <ele>603</ele>
        <time>2012-12-02T14:17:51Z</time>
      </trkpt>
      <trkpt lat="43.70379" lon="6.974">
        <ele>603</ele>
        <time>2012-12-02T14:17:56Z</time>
      </trkpt>
      <trkpt lat="43.70374" lon="6.97398">
        <ele>603</ele>
        <time>2012-12-02T14:18:03Z</time>
      </trkpt>
      <trkpt lat="43.70373" lon="6.97402">
        <ele>603</ele>
        <time>2012-12-02T14:18:09Z</time>
      </trkpt>
      <trkpt lat="43.70372" lon="6.97405">
        <ele>603</ele>
        <time>2012-12-02T14:18:14Z</time>
      </trkpt>
      <trkpt lat="43.7037" lon="6.97408">
        <ele>602</ele>
        <time>2012-12-02T14:18:19Z</time>
      </trkpt>
      <trkpt lat="43.70364" lon="6.9741">
        <ele>599</ele>
        <time>2012-12-02T14:18:32Z</time>
      </trkpt>
      <trkpt lat="43.70361" lon="6.97414">
        <ele>599</ele>
        <time>2012-12-02T14:18:37Z</time>
      </trkpt>
      <trkpt lat="43.70355" lon="6.97421">
        <ele>599</ele>
        <time>2012-12-02T14:18:42Z</time>
      </trkpt>
      <trkpt lat="43.7035" lon="6.97426">
        <ele>598</ele>
        <time>2012-12-02T14:18:47Z</time>
      </trkpt>
      <trkpt lat="43.70346" lon="6.97429">
        <ele>597</ele>
        <time>2012-12-02T14:18:53Z</time>
      </trkpt>
      <trkpt lat="43.70342" lon="6.97434">
        <ele>597</ele>
        <time>2012-12-02T14:19:00Z</time>
      </trkpt>
      <trkpt lat="43.70341" lon="6.97435">
        <ele>596</ele>
        <time>2012-12-02T14:19:16Z</time>
      </trkpt>
      <trkpt lat="43.70339" lon="6.97435">
        <ele>595</ele>
        <time>2012-12-02T14:19:21Z</time>
      </trkpt>
      <trkpt lat="43.70336" lon="6.97436">
        <ele>595</ele>
        <time>2012-12-02T14:19:26Z</time>
      </trkpt>
      <trkpt lat="43.70334" lon="6.97437">
        <ele>592</ele>
        <time>2012-12-02T14:19:32Z</time>
      </trkpt>
      <trkpt lat="43.70331" lon="6.97436">
        <ele>591</ele>
        <time>2012-12-02T14:19:37Z</time>
      </trkpt>
      <trkpt lat="43.70329" lon="6.97434">
        <ele>591</ele>
        <time>2012-12-02T14:19:46Z</time>
      </trkpt>
      <trkpt lat="43.7033" lon="6.97434">
        <ele>591</ele>
        <time>2012-12-02T14:19:59Z</time>
      </trkpt>
      <trkpt lat="43.70332" lon="6.97433">
        <ele>591</ele>
        <time>2012-12-02T14:20:18Z</time>
      </trkpt>
      <trkpt lat="43.7033" lon="6.97433">
        <ele>589</ele>
        <time>2012-12-02T14:20:37Z</time>
      </trkpt>
      <trkpt lat="43.70329" lon="6.97432">
        <ele>589</ele>
        <time>2012-12-02T14:20:43Z</time>
      </trkpt>
      <trkpt lat="43.70328" lon="6.97432">
        <ele>589</ele>
        <time>2012-12-02T14:20:54Z</time>
      </trkpt>
      <trkpt lat="43.70328" lon="6.9743">
        <ele>589</ele>
        <time>2012-12-02T14:21:22Z</time>
      </trkpt>
      <trkpt lat="43.7032" lon="6.97424">
        <ele>589</ele>
        <time>2012-12-02T14:21:27Z</time>
      </trkpt>
      <trkpt lat="43.7031" lon="6.97419">
        <ele>589</ele>
        <time>2012-12-02T14:21:32Z</time>
      </trkpt>
      <trkpt lat="43.70298" lon="6.97415">
        <ele>589</ele>
        <time>2012-12-02T14:21:37Z</time>
      </trkpt>
      <trkpt lat="43.70286" lon="6.97411">
        <ele>589</ele>
        <time>2012-12-02T14:21:42Z</time>
      </trkpt>
      <trkpt lat="43.7028" lon="6.9741">
        <ele>587</ele>
        <time>2012-12-02T14:21:47Z</time>
      </trkpt>
      <trkpt lat="43.70282" lon="6.97409">
        <ele>586</ele>
        <time>2012-12-02T14:21:54Z</time>
      </trkpt>
      <trkpt lat="43.7028" lon="6.9741">
        <ele>586</ele>
        <time>2012-12-02T14:22:09Z</time>
      </trkpt>
      <trkpt lat="43.70279" lon="6.9741">
        <ele>586</ele>
        <time>2012-12-02T14:22:32Z</time>
      </trkpt>
      <trkpt lat="43.70274" lon="6.97406">
        <ele>586</ele>
        <time>2012-12-02T14:22:37Z</time>
      </trkpt>
      <trkpt lat="43.70266" lon="6.97372">
        <ele>586</ele>
        <time>2012-12-02T14:22:42Z</time>
      </trkpt>
      <trkpt lat="43.7027" lon="6.97329">
        <ele>582</ele>
        <time>2012-12-02T14:22:47Z</time>
      </trkpt>
      <trkpt lat="43.70272" lon="6.97288">
        <ele>577</ele>
        <time>2012-12-02T14:22:52Z</time>
      </trkpt>
      <trkpt lat="43.70269" lon="6.97259">
        <ele>572</ele>
        <time>2012-12-02T14:22:57Z</time>
      </trkpt>
      <trkpt lat="43.70265" lon="6.97226">
        <ele>567</ele>
        <time>2012-12-02T14:23:02Z</time>
      </trkpt>
      <trkpt lat="43.70261" lon="6.97189">
        <ele>564</ele>
        <time>2012-12-02T14:23:07Z</time>
      </trkpt>
      <trkpt lat="43.70252" lon="6.97159">
        <ele>560</ele>
        <time>2012-12-02T14:23:12Z</time>
      </trkpt>
      <trkpt lat="43.70248" lon="6.97177">
        <ele>558</ele>
        <time>2012-12-02T14:23:17Z</time>
      </trkpt>
      <trkpt lat="43.7024" lon="6.97225">
        <ele>553</ele>
        <time>2012-12-02T14:23:22Z</time>
      </trkpt>
      <trkpt lat="43.70235" lon="6.97277">
        <ele>549</ele>
        <time>2012-12-02T14:23:27Z</time>
      </trkpt>
      <trkpt lat="43.70228" lon="6.97287">
        <ele>544</ele>
        <time>2012-12-02T14:23:32Z</time>
      </trkpt>
      <trkpt lat="43.70227" lon="6.97235">
        <ele>542</ele>
        <time>2012-12-02T14:23:37Z</time>
      </trkpt>
      <trkpt lat="43.70221" lon="6.97188">
        <ele>539</ele>
        <time>2012-12-02T14:23:42Z</time>
      </trkpt>
      <trkpt lat="43.70209" lon="6.97166">
        <ele>534</ele>
        <time>2012-12-02T14:23:47Z</time>
      </trkpt>
      <trkpt lat="43.70213" lon="6.97206">
        <ele>531</ele>
        <time>2012-12-02T14:23:52Z</time>
      </trkpt>
      <trkpt lat="43.7021" lon="6.97251">
        <ele>529</ele>
        <time>2012-12-02T14:23:57Z</time>
      </trkpt>
      <trkpt lat="43.70197" lon="6.97302">
        <ele>527</ele>
        <time>2012-12-02T14:24:02Z</time>
      </trkpt>
      <trkpt lat="43.70174" lon="6.97342">
        <ele>522</ele>
        <time>2012-12-02T14:24:07Z</time>
      </trkpt>
      <trkpt lat="43.70156" lon="6.9737">
        <ele>517</ele>
        <time>2012-12-02T14:24:12Z</time>
      </trkpt>
      <trkpt lat="43.70157" lon="6.97386">
        <ele>512</ele>
        <time>2012-12-02T14:24:17Z</time>
      </trkpt>
      <trkpt lat="43.70156" lon="6.97398">
        <ele>507</ele>
        <time>2012-12-02T14:24:22Z</time>
      </trkpt>
      <trkpt lat="43.70156" lon="6.9741">
        <ele>503</ele>
        <time>2012-12-02T14:24:27Z</time>
      </trkpt>
      <trkpt lat="43.70156" lon="6.97425">
        <ele>503</ele>
        <time>2012-12-02T14:24:32Z</time>
      </trkpt>
      <trkpt lat="43.70155" lon="6.97445">
        <ele>503</ele>
        <time>2012-12-02T14:24:37Z</time>
      </trkpt>
      <trkpt lat="43.70152" lon="6.97455">
        <ele>503</ele>
        <time>2012-12-02T14:24:43Z</time>
      </trkpt>
      <trkpt lat="43.70153" lon="6.97456">
        <ele>503</ele>
        <time>2012-12-02T14:24:55Z</time>
      </trkpt>
      <trkpt lat="43.7015" lon="6.97456">
        <ele>501</ele>
        <time>2012-12-02T14:25:41Z</time>
      </trkpt>
      <trkpt lat="43.70148" lon="6.97455">
        <ele>501</ele>
        <time>2012-12-02T14:25:49Z</time>
      </trkpt>
      <trkpt lat="43.70149" lon="6.97457">
        <ele>501</ele>
        <time>2012-12-02T14:26:24Z</time>
      </trkpt>
      <trkpt lat="43.7015" lon="6.97458">
        <ele>500</ele>
        <time>2012-12-02T14:26:38Z</time>
      </trkpt>
      <trkpt lat="43.70152" lon="6.97459">
        <ele>499</ele>
        <time>2012-12-02T14:26:43Z</time>
      </trkpt>
      <trkpt lat="43.7015" lon="6.97461">
        <ele>498</ele>
        <time>2012-12-02T14:26:48Z</time>
      </trkpt>
      <trkpt lat="43.70145" lon="6.97475">
        <ele>498</ele>
        <time>2012-12-02T14:26:53Z</time>
      </trkpt>
      <trkpt lat="43.70142" lon="6.97498">
        <ele>498</ele>
        <time>2012-12-02T14:26:58Z</time>
      </trkpt>
      <trkpt lat="43.70137" lon="6.97516">
        <ele>498</ele>
        <time>2012-12-02T14:27:03Z</time>
      </trkpt>
      <trkpt lat="43.70137" lon="6.97531">
        <ele>498</ele>
        <time>2012-12-02T14:27:08Z</time>
      </trkpt>
      <trkpt lat="43.70137" lon="6.97535">
        <ele>498</ele>
        <time>2012-12-02T14:27:13Z</time>
      </trkpt>
      <trkpt lat="43.70138" lon="6.97541">
        <ele>498</ele>
        <time>2012-12-02T14:27:20Z</time>
      </trkpt>
      <trkpt lat="43.70138" lon="6.97552">
        <ele>499</ele>
        <time>2012-12-02T14:27:25Z</time>
      </trkpt>
      <trkpt lat="43.7014" lon="6.97572">
        <ele>500</ele>
        <time>2012-12-02T14:27:30Z</time>
      </trkpt>
      <trkpt lat="43.70143" lon="6.97595">
        <ele>501</ele>
        <time>2012-12-02T14:27:35Z</time>
      </trkpt>
      <trkpt lat="43.70152" lon="6.9762">
        <ele>502</ele>
        <time>2012-12-02T14:27:40Z</time>
      </trkpt>
      <trkpt lat="43.70165" lon="6.97643">
        <ele>502</ele>
        <time>2012-12-02T14:27:45Z</time>
      </trkpt>
      <trkpt lat="43.7017" lon="6.97664">
        <ele>502</ele>
        <time>2012-12-02T14:27:50Z</time>
      </trkpt>
      <trkpt lat="43.70174" lon="6.97684">
        <ele>502</ele>
        <time>2012-12-02T14:27:55Z</time>
      </trkpt>
      <trkpt lat="43.70175" lon="6.97691">
        <ele>502</ele>
        <time>2012-12-02T14:28:00Z</time>
      </trkpt>
      <trkpt lat="43.70175" lon="6.97699">
        <ele>502</ele>
        <time>2012-12-02T14:28:05Z</time>
      </trkpt>
      <trkpt lat="43.70177" lon="6.97714">
        <ele>502</ele>
        <time>2012-12-02T14:28:10Z</time>
      </trkpt>
      <trkpt lat="43.70177" lon="6.97718">
        <ele>502</ele>
        <time>2012-12-02T14:28:15Z</time>
      </trkpt>
      <trkpt lat="43.70179" lon="6.97722">
        <ele>502</ele>
        <time>2012-12-02T14:28:20Z</time>
      </trkpt>
      <trkpt lat="43.7018" lon="6.97727">
        <ele>503</ele>
        <time>2012-12-02T14:28:25Z</time>
      </trkpt>
      <trkpt lat="43.70182" lon="6.97741">
        <ele>504</ele>
        <time>2012-12-02T14:28:30Z</time>
      </trkpt>
      <trkpt lat="43.70193" lon="6.97756">
        <ele>504</ele>
        <time>2012-12-02T14:28:35Z</time>
      </trkpt>
      <trkpt lat="43.70197" lon="6.97778">
        <ele>504</ele>
        <time>2012-12-02T14:28:40Z</time>
      </trkpt>
      <trkpt lat="43.70197" lon="6.97803">
        <ele>505</ele>
        <time>2012-12-02T14:28:45Z</time>
      </trkpt>
      <trkpt lat="43.70202" lon="6.97826">
        <ele>505</ele>
        <time>2012-12-02T14:28:50Z</time>
      </trkpt>
      <trkpt lat="43.70203" lon="6.97849">
        <ele>506</ele>
        <time>2012-12-02T14:28:55Z</time>
      </trkpt>
      <trkpt lat="43.70204" lon="6.97867">
        <ele>506</ele>
        <time>2012-12-02T14:29:00Z</time>
      </trkpt>
      <trkpt lat="43.70203" lon="6.97871">
        <ele>506</ele>
        <time>2012-12-02T14:29:06Z</time>
      </trkpt>
      <trkpt lat="43.70203" lon="6.97875">
        <ele>505</ele>
        <time>2012-12-02T14:29:12Z</time>
      </trkpt>
      <trkpt lat="43.70201" lon="6.97888">
        <ele>505</ele>
        <time>2012-12-02T14:29:17Z</time>
      </trkpt>
      <trkpt lat="43.70201" lon="6.97908">
        <ele>505</ele>
        <time>2012-12-02T14:29:22Z</time>
      </trkpt>
      <trkpt lat="43.70201" lon="6.97935">
        <ele>505</ele>
        <time>2012-12-02T14:29:27Z</time>
      </trkpt>
      <trkpt lat="43.70201" lon="6.97961">
        <ele>505</ele>
        <time>2012-12-02T14:29:32Z</time>
      </trkpt>
      <trkpt lat="43.70201" lon="6.97982">
        <ele>506</ele>
        <time>2012-12-02T14:29:37Z</time>
      </trkpt>
      <trkpt lat="43.70201" lon="6.97989">
        <ele>507</ele>
        <time>2012-12-02T14:29:47Z</time>
      </trkpt>
      <trkpt lat="43.70204" lon="6.9799">
        <ele>507</ele>
        <time>2012-12-02T14:29:53Z</time>
      </trkpt>
      <trkpt lat="43.70206" lon="6.97994">
        <ele>507</ele>
        <time>2012-12-02T14:29:58Z</time>
      </trkpt>
      <trkpt lat="43.70214" lon="6.98007">
        <ele>507</ele>
        <time>2012-12-02T14:30:03Z</time>
      </trkpt>
      <trkpt lat="43.70222" lon="6.9802">
        <ele>507</ele>
        <time>2012-12-02T14:30:08Z</time>
      </trkpt>
      <trkpt lat="43.70228" lon="6.98038">
        <ele>508</ele>
        <time>2012-12-02T14:30:13Z</time>
      </trkpt>
      <trkpt lat="43.70228" lon="6.98042">
        <ele>508</ele>
        <time>2012-12-02T14:30:19Z</time>
      </trkpt>
      <trkpt lat="43.7023" lon="6.98051">
        <ele>508</ele>
        <time>2012-12-02T14:30:24Z</time>
      </trkpt>
      <trkpt lat="43.70232" lon="6.98067">
        <ele>508</ele>
        <time>2012-12-02T14:30:29Z</time>
      </trkpt>
      <trkpt lat="43.70234" lon="6.98089">
        <ele>508</ele>
        <time>2012-12-02T14:30:34Z</time>
      </trkpt>
      <trkpt lat="43.7024" lon="6.98112">
        <ele>508</ele>
        <time>2012-12-02T14:30:39Z</time>
      </trkpt>
      <trkpt lat="43.70244" lon="6.98136">
        <ele>508</ele>
        <time>2012-12-02T14:30:44Z</time>
      </trkpt>
      <trkpt lat="43.70244" lon="6.98166">
        <ele>508</ele>
        <time>2012-12-02T14:30:49Z</time>
      </trkpt>
      <trkpt lat="43.70243" lon="6.98196">
        <ele>508</ele>
        <time>2012-12-02T14:30:54Z</time>
      </trkpt>
      <trkpt lat="43.70243" lon="6.98226">
        <ele>509</ele>
        <time>2012-12-02T14:30:59Z</time>
      </trkpt>
      <trkpt lat="43.70247" lon="6.98248">
        <ele>509</ele>
        <time>2012-12-02T14:31:04Z</time>
      </trkpt>
      <trkpt lat="43.7025" lon="6.98259">
        <ele>509</ele>
        <time>2012-12-02T14:31:12Z</time>
      </trkpt>
      <trkpt lat="43.70252" lon="6.98269">
        <ele>509</ele>
        <time>2012-12-02T14:31:18Z</time>
      </trkpt>
      <trkpt lat="43.70255" lon="6.98275">
        <ele>509</ele>
        <time>2012-12-02T14:31:23Z</time>
      </trkpt>
      <trkpt lat="43.70258" lon="6.98281">
        <ele>507</ele>
        <time>2012-12-02T14:31:28Z</time>
      </trkpt>
      <trkpt lat="43.70258" lon="6.98287">
        <ele>507</ele>
        <time>2012-12-02T14:31:35Z</time>
      </trkpt>
      <trkpt lat="43.70257" lon="6.98287">
        <ele>507</ele>
        <time>2012-12-02T14:31:42Z</time>
      </trkpt>
      <trkpt lat="43.70256" lon="6.98289">
        <ele>507</ele>
        <time>2012-12-02T14:31:47Z</time>
      </trkpt>
      <trkpt lat="43.70249" lon="6.98298">
        <ele>507</ele>
        <time>2012-12-02T14:31:52Z</time>
      </trkpt>
      <trkpt lat="43.70244" lon="6.98309">
        <ele>507</ele>
        <time>2012-12-02T14:31:57Z</time>
      </trkpt>
      <trkpt lat="43.70243" lon="6.98326">
        <ele>507</ele>
        <time>2012-12-02T14:32:02Z</time>
      </trkpt>
      <trkpt lat="43.70243" lon="6.98345">
        <ele>507</ele>
        <time>2012-12-02T14:32:07Z</time>
      </trkpt>
      <trkpt lat="43.70243" lon="6.98364">
        <ele>507</ele>
        <time>2012-12-02T14:32:12Z</time>
      </trkpt>
      <trkpt lat="43.70244" lon="6.98375">
        <ele>507</ele>
        <time>2012-12-02T14:32:17Z</time>
      </trkpt>
      <trkpt lat="43.70245" lon="6.98378">
        <ele>507</ele>
        <time>2012-12-02T14:32:24Z</time>
      </trkpt>
      <trkpt lat="43.7025" lon="6.98386">
        <ele>507</ele>
        <time>2012-12-02T14:32:30Z</time>
      </trkpt>
      <trkpt lat="43.70254" lon="6.98391">
        <ele>506</ele>
        <time>2012-12-02T14:32:35Z</time>
      </trkpt>
      <trkpt lat="43.70265" lon="6.98405">
        <ele>505</ele>
        <time>2012-12-02T14:32:40Z</time>
      </trkpt>
      <trkpt lat="43.70276" lon="6.98417">
        <ele>504</ele>
        <time>2012-12-02T14:32:45Z</time>
      </trkpt>
      <trkpt lat="43.70288" lon="6.98412">
        <ele>503</ele>
        <time>2012-12-02T14:32:50Z</time>
      </trkpt>
      <trkpt lat="43.70298" lon="6.98404">
        <ele>502</ele>
        <time>2012-12-02T14:32:55Z</time>
      </trkpt>
      <trkpt lat="43.70307" lon="6.98396">
        <ele>500</ele>
        <time>2012-12-02T14:33:00Z</time>
      </trkpt>
      <trkpt lat="43.70319" lon="6.98388">
        <ele>499</ele>
        <time>2012-12-02T14:33:05Z</time>
      </trkpt>
      <trkpt lat="43.70331" lon="6.98381">
        <ele>499</ele>
        <time>2012-12-02T14:33:10Z</time>
      </trkpt>
      <trkpt lat="43.70335" lon="6.98378">
        <ele>499</ele>
        <time>2012-12-02T14:33:16Z</time>
      </trkpt>
      <trkpt lat="43.70337" lon="6.98377">
        <ele>499</ele>
        <time>2012-12-02T14:33:29Z</time>
      </trkpt>
      <trkpt lat="43.70338" lon="6.98378">
        <ele>499</ele>
        <time>2012-12-02T14:33:35Z</time>
      </trkpt>
      <trkpt lat="43.70339" lon="6.98378">
        <ele>499</ele>
        <time>2012-12-02T14:33:40Z</time>
      </trkpt>
      <trkpt lat="43.70338" lon="6.98379">
        <ele>499</ele>
        <time>2012-12-02T14:33:49Z</time>
      </trkpt>
      <trkpt lat="43.70336" lon="6.9838">
        <ele>499</ele>
        <time>2012-12-02T14:34:01Z</time>
      </trkpt>
      <trkpt lat="43.70337" lon="6.98379">
        <ele>499</ele>
        <time>2012-12-02T14:34:07Z</time>
      </trkpt>
      <trkpt lat="43.70343" lon="6.98374">
        <ele>499</ele>
        <time>2012-12-02T14:34:12Z</time>
      </trkpt>
      <trkpt lat="43.70353" lon="6.98369">
        <ele>498</ele>
        <time>2012-12-02T14:34:17Z</time>
      </trkpt>
      <trkpt lat="43.70362" lon="6.98366">
        <ele>498</ele>
        <time>2012-12-02T14:34:22Z</time>
      </trkpt>
      <trkpt lat="43.70364" lon="6.98367">
        <ele>498</ele>
        <time>2012-12-02T14:34:31Z</time>
      </trkpt>
      <trkpt lat="43.70365" lon="6.98369">
        <ele>498</ele>
        <time>2012-12-02T14:34:40Z</time>
      </trkpt>
      <trkpt lat="43.70364" lon="6.98369">
        <ele>498</ele>
        <time>2012-12-02T14:35:05Z</time>
      </trkpt>
      <trkpt lat="43.70364" lon="6.98367">
        <ele>499</ele>
        <time>2012-12-02T14:35:11Z</time>
      </trkpt>
      <trkpt lat="43.70363" lon="6.98368">
        <ele>499</ele>
        <time>2012-12-02T14:35:16Z</time>
      </trkpt>
      <trkpt lat="43.70361" lon="6.98368">
        <ele>499</ele>
        <time>2012-12-02T14:35:21Z</time>
      </trkpt>
      <trkpt lat="43.70358" lon="6.98371">
        <ele>499</ele>
        <time>2012-12-02T14:35:28Z</time>
      </trkpt>
      <trkpt lat="43.70354" lon="6.98376">
        <ele>497</ele>
        <time>2012-12-02T14:35:34Z</time>
      </trkpt>
      <trkpt lat="43.70351" lon="6.98381">
        <ele>495</ele>
        <time>2012-12-02T14:35:41Z</time>
      </trkpt>
      <trkpt lat="43.70348" lon="6.98384">
        <ele>494</ele>
        <time>2012-12-02T14:35:46Z</time>
      </trkpt>
      <trkpt lat="43.70347" lon="6.98387">
        <ele>493</ele>
        <time>2012-12-02T14:35:57Z</time>
      </trkpt>
      <trkpt lat="43.70347" lon="6.98387">
        <ele>493</ele>
        <time>2012-12-02T14:36:04Z</time>
      </trkpt>
      <trkpt lat="43.70348" lon="6.98386">
        <ele>493</ele>
        <time>2012-12-02T14:36:11Z</time>
      </trkpt>
      <trkpt lat="43.70347" lon="6.98389">
        <ele>493</ele>
        <time>2012-12-02T14:36:32Z</time>
      </trkpt>
      <trkpt lat="43.70349" lon="6.98388">
        <ele>493</ele>
        <time>2012-12-02T14:36:43Z</time>
      </trkpt>
      <trkpt lat="43.70347" lon="6.98392">
        <ele>493</ele>
        <time>2012-12-02T14:36:51Z</time>
      </trkpt>
      <trkpt lat="43.70344" lon="6.98397">
        <ele>493</ele>
        <time>2012-12-02T14:37:04Z</time>
      </trkpt>
      <trkpt lat="43.7034" lon="6.98406">
        <ele>492</ele>
        <time>2012-12-02T14:37:09Z</time>
      </trkpt>
      <trkpt lat="43.70338" lon="6.98418">
        <ele>490</ele>
        <time>2012-12-02T14:37:15Z</time>
      </trkpt>
      <trkpt lat="43.70335" lon="6.98421">
        <ele>490</ele>
        <time>2012-12-02T14:37:21Z</time>
      </trkpt>
      <trkpt lat="43.70332" lon="6.98429">
        <ele>490</ele>
        <time>2012-12-02T14:37:27Z</time>
      </trkpt>
      <trkpt lat="43.70327" lon="6.9844">
        <ele>487</ele>
        <time>2012-12-02T14:37:32Z</time>
      </trkpt>
      <trkpt lat="43.70322" lon="6.98449">
        <ele>481</ele>
        <time>2012-12-02T14:37:38Z</time>
      </trkpt>
      <trkpt lat="43.70321" lon="6.98451">
        <ele>475</ele>
        <time>2012-12-02T14:37:44Z</time>
      </trkpt>
      <trkpt lat="43.70316" lon="6.98462">
        <ele>473</ele>
        <time>2012-12-02T14:37:49Z</time>
      </trkpt>
      <trkpt lat="43.70312" lon="6.9848">
        <ele>469</ele>
        <time>2012-12-02T14:37:54Z</time>
      </trkpt>
      <trkpt lat="43.70306" lon="6.9849">
        <ele>466</ele>
        <time>2012-12-02T14:37:59Z</time>
      </trkpt>
      <trkpt lat="43.70306" lon="6.98487">
        <ele>465</ele>
        <time>2012-12-02T14:38:06Z</time>
      </trkpt>
      <trkpt lat="43.70309" lon="6.98486">
        <ele>464</ele>
        <time>2012-12-02T14:38:11Z</time>
      </trkpt>
      <trkpt lat="43.70313" lon="6.98485">
        <ele>464</ele>
        <time>2012-12-02T14:38:17Z</time>
      </trkpt>
      <trkpt lat="43.70313" lon="6.98485">
        <ele>464</ele>
        <time>2012-12-02T14:38:25Z</time>
      </trkpt>
      <trkpt lat="43.70313" lon="6.98484">
        <ele>464</ele>
        <time>2012-12-02T14:38:34Z</time>
      </trkpt>
      <trkpt lat="43.70311" lon="6.98483">
        <ele>464</ele>
        <time>2012-12-02T14:38:39Z</time>
      </trkpt>
      <trkpt lat="43.7031" lon="6.98483">
        <ele>464</ele>
        <time>2012-12-02T14:38:47Z</time>
      </trkpt>
      <trkpt lat="43.70309" lon="6.9848">
        <ele>464</ele>
        <time>2012-12-02T14:38:52Z</time>
      </trkpt>
      <trkpt lat="43.7031" lon="6.98479">
        <ele>464</ele>
        <time>2012-12-02T14:39:04Z</time>
      </trkpt>
      <trkpt lat="43.70313" lon="6.98479">
        <ele>464</ele>
        <time>2012-12-02T14:39:09Z</time>
      </trkpt>
      <trkpt lat="43.70314" lon="6.98478">
        <ele>464</ele>
        <time>2012-12-02T14:39:15Z</time>
      </trkpt>
      <trkpt lat="43.70314" lon="6.98478">
        <ele>464</ele>
        <time>2012-12-02T14:39:29Z</time>
      </trkpt>
      <trkpt lat="43.70314" lon="6.98476">
        <ele>464</ele>
        <time>2012-12-02T14:39:38Z</time>
      </trkpt>
      <trkpt lat="43.70316" lon="6.98473">
        <ele>464</ele>
        <time>2012-12-02T14:39:44Z</time>
      </trkpt>
      <trkpt lat="43.70316" lon="6.9847">
        <ele>464</ele>
        <time>2012-12-02T14:39:50Z</time>
      </trkpt>
      <trkpt lat="43.70314" lon="6.9847">
        <ele>464</ele>
        <time>2012-12-02T14:40:12Z</time>
      </trkpt>
      <trkpt lat="43.70314" lon="6.98472">
        <ele>464</ele>
        <time>2012-12-02T14:40:19Z</time>
      </trkpt>
      <trkpt lat="43.70313" lon="6.98475">
        <ele>464</ele>
        <time>2012-12-02T14:40:26Z</time>
      </trkpt>
      <trkpt lat="43.70311" lon="6.98481">
        <ele>462</ele>
        <time>2012-12-02T14:40:32Z</time>
      </trkpt>
      <trkpt lat="43.7031" lon="6.98483">
        <ele>462</ele>
        <time>2012-12-02T14:40:49Z</time>
      </trkpt>
      <trkpt lat="43.7031" lon="6.98482">
        <ele>462</ele>
        <time>2012-12-02T14:41:15Z</time>
      </trkpt>
      <trkpt lat="43.7031" lon="6.98484">
        <ele>462</ele>
        <time>2012-12-02T14:41:20Z</time>
      </trkpt>
      <trkpt lat="43.7031" lon="6.98485">
        <ele>462</ele>
        <time>2012-12-02T14:41:28Z</time>
      </trkpt>
      <trkpt lat="43.7031" lon="6.98488">
        <ele>462</ele>
        <time>2012-12-02T14:41:35Z</time>
      </trkpt>
      <trkpt lat="43.70313" lon="6.98495">
        <ele>462</ele>
        <time>2012-12-02T14:41:40Z</time>
      </trkpt>
      <trkpt lat="43.7032" lon="6.98494">
        <ele>458</ele>
        <time>2012-12-02T14:41:46Z</time>
      </trkpt>
      <trkpt lat="43.70321" lon="6.98495">
        <ele>457</ele>
        <time>2012-12-02T14:41:51Z</time>
      </trkpt>
      <trkpt lat="43.70328" lon="6.985">
        <ele>456</ele>
        <time>2012-12-02T14:41:56Z</time>
      </trkpt>
      <trkpt lat="43.70331" lon="6.98506">
        <ele>454</ele>
        <time>2012-12-02T14:42:01Z</time>
      </trkpt>
      <trkpt lat="43.70334" lon="6.98514">
        <ele>450</ele>
        <time>2012-12-02T14:42:06Z</time>
      </trkpt>
      <trkpt lat="43.70329" lon="6.98534">
        <ele>446</ele>
        <time>2012-12-02T14:42:11Z</time>
      </trkpt>
      <trkpt lat="43.70334" lon="6.98551">
        <ele>442</ele>
        <time>2012-12-02T14:42:16Z</time>
      </trkpt>
      <trkpt lat="43.70348" lon="6.98552">
        <ele>439</ele>
        <time>2012-12-02T14:42:21Z</time>
      </trkpt>
      <trkpt lat="43.70357" lon="6.98552">
        <ele>439</ele>
        <time>2012-12-02T14:42:26Z</time>
      </trkpt>
      <trkpt lat="43.70366" lon="6.9855">
        <ele>436</ele>
        <time>2012-12-02T14:42:31Z</time>
      </trkpt>
      <trkpt lat="43.70379" lon="6.98544">
        <ele>432</ele>
        <time>2012-12-02T14:42:36Z</time>
      </trkpt>
      <trkpt lat="43.70396" lon="6.98541">
        <ele>429</ele>
        <time>2012-12-02T14:42:41Z</time>
      </trkpt>
      <trkpt lat="43.70406" lon="6.98546">
        <ele>426</ele>
        <time>2012-12-02T14:42:46Z</time>
      </trkpt>
      <trkpt lat="43.70406" lon="6.98549">
        <ele>423</ele>
        <time>2012-12-02T14:42:53Z</time>
      </trkpt>
      <trkpt lat="43.70407" lon="6.98549">
        <ele>423</ele>
        <time>2012-12-02T14:43:00Z</time>
      </trkpt>
      <trkpt lat="43.70409" lon="6.98549">
        <ele>423</ele>
        <time>2012-12-02T14:43:12Z</time>
      </trkpt>
      <trkpt lat="43.70414" lon="6.9856">
        <ele>423</ele>
        <time>2012-12-02T14:43:17Z</time>
      </trkpt>
      <trkpt lat="43.70421" lon="6.98572">
        <ele>421</ele>
        <time>2012-12-02T14:43:22Z</time>
      </trkpt>
      <trkpt lat="43.70433" lon="6.98595">
        <ele>417</ele>
        <time>2012-12-02T14:43:27Z</time>
      </trkpt>
      <trkpt lat="43.70441" lon="6.98606">
        <ele>413</ele>
        <time>2012-12-02T14:43:32Z</time>
      </trkpt>
      <trkpt lat="43.7045" lon="6.98615">
        <ele>408</ele>
        <time>2012-12-02T14:43:38Z</time>
      </trkpt>
      <trkpt lat="43.70463" lon="6.98638">
        <ele>403</ele>
        <time>2012-12-02T14:43:44Z</time>
      </trkpt>
      <trkpt lat="43.7048" lon="6.98662">
        <ele>398</ele>
        <time>2012-12-02T14:43:50Z</time>
      </trkpt>
      <trkpt lat="43.705" lon="6.98673">
        <ele>395</ele>
        <time>2012-12-02T14:43:56Z</time>
      </trkpt>
      <trkpt lat="43.70512" lon="6.98685">
        <ele>391</ele>
        <time>2012-12-02T14:44:01Z</time>
      </trkpt>
      <trkpt lat="43.70518" lon="6.987">
        <ele>387</ele>
        <time>2012-12-02T14:44:06Z</time>
      </trkpt>
      <trkpt lat="43.70527" lon="6.98712">
        <ele>381</ele>
        <time>2012-12-02T14:44:12Z</time>
      </trkpt>
      <trkpt lat="43.70531" lon="6.98721">
        <ele>377</ele>
        <time>2012-12-02T14:44:17Z</time>
      </trkpt>
      <trkpt lat="43.70533" lon="6.98732">
        <ele>373</ele>
        <time>2012-12-02T14:44:23Z</time>
      </trkpt>
      <trkpt lat="43.70539" lon="6.98745">
        <ele>368</ele>
        <time>2012-12-02T14:44:29Z</time>
      </trkpt>
      <trkpt lat="43.70542" lon="6.98749">
        <ele>364</ele>
        <time>2012-12-02T14:44:36Z</time>
      </trkpt>
      <trkpt lat="43.70548" lon="6.98756">
        <ele>362</ele>
        <time>2012-12-02T14:44:41Z</time>
      </trkpt>
      <trkpt lat="43.70552" lon="6.9877">
        <ele>359</ele>
        <time>2012-12-02T14:44:46Z</time>
      </trkpt>
      <trkpt lat="43.70553" lon="6.98794">
        <ele>357</ele>
        <time>2012-12-02T14:44:51Z</time>
      </trkpt>
      <trkpt lat="43.70558" lon="6.98812">
        <ele>354</ele>
        <time>2012-12-02T14:44:56Z</time>
      </trkpt>
      <trkpt lat="43.7056" lon="6.9882">
        <ele>352</ele>
        <time>2012-12-02T14:45:01Z</time>
      </trkpt>
      <trkpt lat="43.7056" lon="6.98821">
        <ele>352</ele>
        <time>2012-12-02T14:45:24Z</time>
      </trkpt>
      <trkpt lat="43.70559" lon="6.9883">
        <ele>351</ele>
        <time>2012-12-02T14:45:29Z</time>
      </trkpt>
      <trkpt lat="43.70561" lon="6.98833">
        <ele>350</ele>
        <time>2012-12-02T14:45:34Z</time>
      </trkpt>
      <trkpt lat="43.70562" lon="6.98836">
        <ele>349</ele>
        <time>2012-12-02T14:45:39Z</time>
      </trkpt>
      <trkpt lat="43.70565" lon="6.9884">
        <ele>346</ele>
        <time>2012-12-02T14:45:46Z</time>
      </trkpt>
      <trkpt lat="43.70565" lon="6.98841">
        <ele>345</ele>
        <time>2012-12-02T14:45:58Z</time>
      </trkpt>
      <trkpt lat="43.70564" lon="6.98842">
        <ele>345</ele>
        <time>2012-12-02T14:46:42Z</time>
      </trkpt>
      <trkpt lat="43.70562" lon="6.98841">
        <ele>345</ele>
        <time>2012-12-02T14:48:26Z</time>
      </trkpt>
      <trkpt lat="43.70563" lon="6.98843">
        <ele>345</ele>
        <time>2012-12-02T14:48:34Z</time>
      </trkpt>
      <trkpt lat="43.70561" lon="6.98852">
        <ele>345</ele>
        <time>2012-12-02T14:48:39Z</time>
      </trkpt>
      <trkpt lat="43.7056" lon="6.98868">
        <ele>344</ele>
        <time>2012-12-02T14:48:45Z</time>
      </trkpt>
      <trkpt lat="43.7056" lon="6.98871">
        <ele>344</ele>
        <time>2012-12-02T14:48:55Z</time>
      </trkpt>
      <trkpt lat="43.70559" lon="6.98873">
        <ele>344</ele>
        <time>2012-12-02T14:49:02Z</time>
      </trkpt>
      <trkpt lat="43.70554" lon="6.98875">
        <ele>344</ele>
        <time>2012-12-02T14:49:07Z</time>
      </trkpt>
      <trkpt lat="43.70532" lon="6.9887">
        <ele>342</ele>
        <time>2012-12-02T14:49:12Z</time>
      </trkpt>
      <trkpt lat="43.70501" lon="6.98858">
        <ele>339</ele>
        <time>2012-12-02T14:49:18Z</time>
      </trkpt>
      <trkpt lat="43.70477" lon="6.98854">
        <ele>338</ele>
        <time>2012-12-02T14:49:23Z</time>
      </trkpt>
      <trkpt lat="43.7045" lon="6.98859">
        <ele>336</ele>
        <time>2012-12-02T14:49:28Z</time>
      </trkpt>
      <trkpt lat="43.70417" lon="6.98868">
        <ele>333</ele>
        <time>2012-12-02T14:49:33Z</time>
      </trkpt>
      <trkpt lat="43.70385" lon="6.98862">
        <ele>328</ele>
        <time>2012-12-02T14:49:38Z</time>
      </trkpt>
      <trkpt lat="43.70355" lon="6.98863">
        <ele>327</ele>
        <time>2012-12-02T14:49:43Z</time>
      </trkpt>
      <trkpt lat="43.70327" lon="6.98867">
        <ele>327</ele>
        <time>2012-12-02T14:49:48Z</time>
      </trkpt>
      <trkpt lat="43.70308" lon="6.98867">
        <ele>327</ele>
        <time>2012-12-02T14:49:53Z</time>
      </trkpt>
      <trkpt lat="43.70295" lon="6.98869">
        <ele>327</ele>
        <time>2012-12-02T14:49:58Z</time>
      </trkpt>
      <trkpt lat="43.70283" lon="6.98873">
        <ele>327</ele>
        <time>2012-12-02T14:50:03Z</time>
      </trkpt>
      <trkpt lat="43.70264" lon="6.98875">
        <ele>327</ele>
        <time>2012-12-02T14:50:08Z</time>
      </trkpt>
      <trkpt lat="43.7025" lon="6.98867">
        <ele>326</ele>
        <time>2012-12-02T14:50:13Z</time>
      </trkpt>
      <trkpt lat="43.70239" lon="6.98856">
        <ele>326</ele>
        <time>2012-12-02T14:50:18Z</time>
      </trkpt>
      <trkpt lat="43.70218" lon="6.98854">
        <ele>326</ele>
        <time>2012-12-02T14:50:23Z</time>
      </trkpt>
      <trkpt lat="43.70202" lon="6.98863">
        <ele>326</ele>
        <time>2012-12-02T14:50:28Z</time>
      </trkpt>
      <trkpt lat="43.70184" lon="6.98861">
        <ele>326</ele>
        <time>2012-12-02T14:50:33Z</time>
      </trkpt>
      <trkpt lat="43.70173" lon="6.9887">
        <ele>326</ele>
        <time>2012-12-02T14:50:38Z</time>
      </trkpt>
      <trkpt lat="43.70167" lon="6.98886">
        <ele>331</ele>
        <time>2012-12-02T14:50:43Z</time>
      </trkpt>
      <trkpt lat="43.70163" lon="6.98898">
        <ele>333</ele>
        <time>2012-12-02T14:50:48Z</time>
      </trkpt>
      <trkpt lat="43.70163" lon="6.98913">
        <ele>336</ele>
        <time>2012-12-02T14:50:53Z</time>
      </trkpt>
      <trkpt lat="43.70156" lon="6.98921">
        <ele>338</ele>
        <time>2012-12-02T14:50:58Z</time>
      </trkpt>
      <trkpt lat="43.70145" lon="6.98919">
        <ele>338</ele>
        <time>2012-12-02T14:51:03Z</time>
      </trkpt>
      <trkpt lat="43.70134" lon="6.98915">
        <ele>338</ele>
        <time>2012-12-02T14:51:09Z</time>
      </trkpt>
      <trkpt lat="43.70128" lon="6.9891">
        <ele>338</ele>
        <time>2012-12-02T14:51:14Z</time>
      </trkpt>
      <trkpt lat="43.70121" lon="6.98898">
        <ele>338</ele>
        <time>2012-12-02T14:51:19Z</time>
      </trkpt>
      <trkpt lat="43.70114" lon="6.98884">
        <ele>338</ele>
        <time>2012-12-02T14:51:24Z</time>
      </trkpt>
      <trkpt lat="43.70113" lon="6.98869">
        <ele>338</ele>
        <time>2012-12-02T14:51:29Z</time>
      </trkpt>
      <trkpt lat="43.70107" lon="6.98854">
        <ele>338</ele>
        <time>2012-12-02T14:51:34Z</time>
      </trkpt>
      <trkpt lat="43.70102" lon="6.98845">
        <ele>338</ele>
        <time>2012-12-02T14:51:39Z</time>
      </trkpt>
      <trkpt lat="43.70091" lon="6.98829">
        <ele>338</ele>
        <time>2012-12-02T14:51:44Z</time>
      </trkpt>
      <trkpt lat="43.70079" lon="6.98807">
        <ele>337</ele>
        <time>2012-12-02T14:51:49Z</time>
      </trkpt>
      <trkpt lat="43.7007" lon="6.9879">
        <ele>337</ele>
        <time>2012-12-02T14:51:54Z</time>
      </trkpt>
      <trkpt lat="43.70056" lon="6.98773">
        <ele>335</ele>
        <time>2012-12-02T14:51:59Z</time>
      </trkpt>
      <trkpt lat="43.70041" lon="6.98756">
        <ele>334</ele>
        <time>2012-12-02T14:52:04Z</time>
      </trkpt>
      <trkpt lat="43.70031" lon="6.98742">
        <ele>334</ele>
        <time>2012-12-02T14:52:09Z</time>
      </trkpt>
      <trkpt lat="43.70025" lon="6.98725">
        <ele>334</ele>
        <time>2012-12-02T14:52:14Z</time>
      </trkpt>
      <trkpt lat="43.70021" lon="6.98706">
        <ele>334</ele>
        <time>2012-12-02T14:52:19Z</time>
      </trkpt>
      <trkpt lat="43.70012" lon="6.98686">
        <ele>334</ele>
        <time>2012-12-02T14:52:24Z</time>
      </trkpt>
      <trkpt lat="43.7" lon="6.98666">
        <ele>339</ele>
        <time>2012-12-02T14:52:29Z</time>
      </trkpt>
      <trkpt lat="43.69987" lon="6.98646">
        <ele>342</ele>
        <time>2012-12-02T14:52:34Z</time>
      </trkpt>
      <trkpt lat="43.69971" lon="6.98632">
        <ele>342</ele>
        <time>2012-12-02T14:52:39Z</time>
      </trkpt>
      <trkpt lat="43.69955" lon="6.98616">
        <ele>340</ele>
        <time>2012-12-02T14:52:44Z</time>
      </trkpt>
      <trkpt lat="43.6994" lon="6.986">
        <ele>337</ele>
        <time>2012-12-02T14:52:49Z</time>
      </trkpt>
      <trkpt lat="43.69926" lon="6.98584">
        <ele>334</ele>
        <time>2012-12-02T14:52:54Z</time>
      </trkpt>
      <trkpt lat="43.6991" lon="6.98568">
        <ele>333</ele>
        <time>2012-12-02T14:52:59Z</time>
      </trkpt>
      <trkpt lat="43.69894" lon="6.98551">
        <ele>331</ele>
        <time>2012-12-02T14:53:04Z</time>
      </trkpt>
      <trkpt lat="43.69881" lon="6.98536">
        <ele>330</ele>
        <time>2012-12-02T14:53:09Z</time>
      </trkpt>
      <trkpt lat="43.6987" lon="6.9852">
        <ele>330</ele>
        <time>2012-12-02T14:53:14Z</time>
      </trkpt>
      <trkpt lat="43.69859" lon="6.985">
        <ele>329</ele>
        <time>2012-12-02T14:53:19Z</time>
      </trkpt>
      <trkpt lat="43.69848" lon="6.9848">
        <ele>328</ele>
        <time>2012-12-02T14:53:24Z</time>
      </trkpt>
      <trkpt lat="43.69837" lon="6.98459">
        <ele>326</ele>
        <time>2012-12-02T14:53:29Z</time>
      </trkpt>
      <trkpt lat="43.69826" lon="6.98435">
        <ele>324</ele>
        <time>2012-12-02T14:53:34Z</time>
      </trkpt>
      <trkpt lat="43.69815" lon="6.98408">
        <ele>322</ele>
        <time>2012-12-02T14:53:39Z</time>
      </trkpt>
      <trkpt lat="43.69806" lon="6.9838">
        <ele>322</ele>
        <time>2012-12-02T14:53:44Z</time>
      </trkpt>
      <trkpt lat="43.69801" lon="6.98351">
        <ele>321</ele>
        <time>2012-12-02T14:53:49Z</time>
      </trkpt>
      <trkpt lat="43.69804" lon="6.98322">
        <ele>321</ele>
        <time>2012-12-02T14:53:54Z</time>
      </trkpt>
      <trkpt lat="43.69812" lon="6.98293">
        <ele>320</ele>
        <time>2012-12-02T14:53:59Z</time>
      </trkpt>
      <trkpt lat="43.69821" lon="6.98262">
        <ele>319</ele>
        <time>2012-12-02T14:54:04Z</time>
      </trkpt>
      <trkpt lat="43.69829" lon="6.98232">
        <ele>319</ele>
        <time>2012-12-02T14:54:09Z</time>
      </trkpt>
      <trkpt lat="43.69839" lon="6.98205">
        <ele>319</ele>
        <time>2012-12-02T14:54:14Z</time>
      </trkpt>
      <trkpt lat="43.69843" lon="6.98173">
        <ele>319</ele>
        <time>2012-12-02T14:54:19Z</time>
      </trkpt>
      <trkpt lat="43.69849" lon="6.98147">
        <ele>319</ele>
        <time>2012-12-02T14:54:24Z</time>
      </trkpt>
      <trkpt lat="43.69856" lon="6.98123">
        <ele>319</ele>
        <time>2012-12-02T14:54:29Z</time>
      </trkpt>
      <trkpt lat="43.69863" lon="6.981">
        <ele>319</ele>
        <time>2012-12-02T14:54:34Z</time>
      </trkpt>
      <trkpt lat="43.69868" lon="6.98073">
        <ele>319</ele>
        <time>2012-12-02T14:54:39Z</time>
      </trkpt>
      <trkpt lat="43.6987" lon="6.98047">
        <ele>319</ele>
        <time>2012-12-02T14:54:44Z</time>
      </trkpt>
      <trkpt lat="43.69869" lon="6.98022">
        <ele>320</ele>
        <time>2012-12-02T14:54:49Z</time>
      </trkpt>
      <trkpt lat="43.69862" lon="6.97997">
        <ele>321</ele>
        <time>2012-12-02T14:54:54Z</time>
      </trkpt>
      <trkpt lat="43.69853" lon="6.97974">
        <ele>321</ele>
        <time>2012-12-02T14:54:59Z</time>
      </trkpt>
      <trkpt lat="43.69844" lon="6.97957">
        <ele>321</ele>
        <time>2012-12-02T14:55:04Z</time>
      </trkpt>
      <trkpt lat="43.69836" lon="6.97938">
        <ele>321</ele>
        <time>2012-12-02T14:55:09Z</time>
      </trkpt>
      <trkpt lat="43.69828" lon="6.97918">
        <ele>321</ele>
        <time>2012-12-02T14:55:14Z</time>
      </trkpt>
      <trkpt lat="43.6982" lon="6.97898">
        <ele>321</ele>
        <time>2012-12-02T14:55:19Z</time>
      </trkpt>
      <trkpt lat="43.69817" lon="6.97876">
        <ele>321</ele>
        <time>2012-12-02T14:55:24Z</time>
      </trkpt>
      <trkpt lat="43.69816" lon="6.97852">
        <ele>321</ele>
        <time>2012-12-02T14:55:29Z</time>
      </trkpt>
      <trkpt lat="43.69815" lon="6.97829">
        <ele>321</ele>
        <time>2012-12-02T14:55:34Z</time>
      </trkpt>
      <trkpt lat="43.69809" lon="6.97804">
        <ele>321</ele>
        <time>2012-12-02T14:55:39Z</time>
      </trkpt>
      <trkpt lat="43.69799" lon="6.97778">
        <ele>321</ele>
        <time>2012-12-02T14:55:44Z</time>
      </trkpt>
      <trkpt lat="43.69788" lon="6.97757">
        <ele>322</ele>
        <time>2012-12-02T14:55:49Z</time>
      </trkpt>
      <trkpt lat="43.69772" lon="6.9774">
        <ele>322</ele>
        <time>2012-12-02T14:55:54Z</time>
      </trkpt>
      <trkpt lat="43.69754" lon="6.9773">
        <ele>322</ele>
        <time>2012-12-02T14:55:59Z</time>
      </trkpt>
      <trkpt lat="43.69736" lon="6.97726">
        <ele>324</ele>
        <time>2012-12-02T14:56:04Z</time>
      </trkpt>
      <trkpt lat="43.69719" lon="6.97727">
        <ele>324</ele>
        <time>2012-12-02T14:56:09Z</time>
      </trkpt>
      <trkpt lat="43.69702" lon="6.97732">
        <ele>324</ele>
        <time>2012-12-02T14:56:14Z</time>
      </trkpt>
      <trkpt lat="43.69685" lon="6.97743">
        <ele>325</ele>
        <time>2012-12-02T14:56:19Z</time>
      </trkpt>
      <trkpt lat="43.6967" lon="6.97755">
        <ele>328</ele>
        <time>2012-12-02T14:56:24Z</time>
      </trkpt>
      <trkpt lat="43.69657" lon="6.9777">
        <ele>330</ele>
        <time>2012-12-02T14:56:29Z</time>
      </trkpt>
      <trkpt lat="43.69644" lon="6.97785">
        <ele>332</ele>
        <time>2012-12-02T14:56:34Z</time>
      </trkpt>
      <trkpt lat="43.69631" lon="6.97799">
        <ele>332</ele>
        <time>2012-12-02T14:56:39Z</time>
      </trkpt>
      <trkpt lat="43.69618" lon="6.97814">
        <ele>333</ele>
        <time>2012-12-02T14:56:44Z</time>
      </trkpt>
      <trkpt lat="43.69604" lon="6.97828">
        <ele>335</ele>
        <time>2012-12-02T14:56:49Z</time>
      </trkpt>
      <trkpt lat="43.6959" lon="6.9784">
        <ele>335</ele>
        <time>2012-12-02T14:56:54Z</time>
      </trkpt>
      <trkpt lat="43.69575" lon="6.97848">
        <ele>335</ele>
        <time>2012-12-02T14:56:59Z</time>
      </trkpt>
      <trkpt lat="43.69559" lon="6.97848">
        <ele>335</ele>
        <time>2012-12-02T14:57:04Z</time>
      </trkpt>
      <trkpt lat="43.69544" lon="6.97848">
        <ele>335</ele>
        <time>2012-12-02T14:57:09Z</time>
      </trkpt>
      <trkpt lat="43.69528" lon="6.97851">
        <ele>335</ele>
        <time>2012-12-02T14:57:14Z</time>
      </trkpt>
      <trkpt lat="43.69512" lon="6.97859">
        <ele>335</ele>
        <time>2012-12-02T14:57:19Z</time>
      </trkpt>
      <trkpt lat="43.69495" lon="6.97869">
        <ele>336</ele>
        <time>2012-12-02T14:57:24Z</time>
      </trkpt>
      <trkpt lat="43.69479" lon="6.97879">
        <ele>338</ele>
        <time>2012-12-02T14:57:29Z</time>
      </trkpt>
      <trkpt lat="43.69463" lon="6.97886">
        <ele>339</ele>
        <time>2012-12-02T14:57:34Z</time>
      </trkpt>
      <trkpt lat="43.69446" lon="6.97891">
        <ele>340</ele>
        <time>2012-12-02T14:57:39Z</time>
      </trkpt>
      <trkpt lat="43.69429" lon="6.9789">
        <ele>340</ele>
        <time>2012-12-02T14:57:44Z</time>
      </trkpt>
      <trkpt lat="43.69412" lon="6.97888">
        <ele>340</ele>
        <time>2012-12-02T14:57:49Z</time>
      </trkpt>
      <trkpt lat="43.69395" lon="6.97888">
        <ele>340</ele>
        <time>2012-12-02T14:57:54Z</time>
      </trkpt>
      <trkpt lat="43.69378" lon="6.97893">
        <ele>340</ele>
        <time>2012-12-02T14:57:59Z</time>
      </trkpt>
      <trkpt lat="43.69362" lon="6.97902">
        <ele>341</ele>
        <time>2012-12-02T14:58:04Z</time>
      </trkpt>
      <trkpt lat="43.69348" lon="6.97915">
        <ele>342</ele>
        <time>2012-12-02T14:58:09Z</time>
      </trkpt>
      <trkpt lat="43.69334" lon="6.97926">
        <ele>344</ele>
        <time>2012-12-02T14:58:14Z</time>
      </trkpt>
      <trkpt lat="43.69319" lon="6.97935">
        <ele>345</ele>
        <time>2012-12-02T14:58:19Z</time>
      </trkpt>
      <trkpt lat="43.69304" lon="6.97941">
        <ele>345</ele>
        <time>2012-12-02T14:58:24Z</time>
      </trkpt>
      <trkpt lat="43.69289" lon="6.97946">
        <ele>346</ele>
        <time>2012-12-02T14:58:29Z</time>
      </trkpt>
      <trkpt lat="43.69274" lon="6.97951">
        <ele>346</ele>
        <time>2012-12-02T14:58:34Z</time>
      </trkpt>
      <trkpt lat="43.6926" lon="6.97958">
        <ele>346</ele>
        <time>2012-12-02T14:58:39Z</time>
      </trkpt>
      <trkpt lat="43.69247" lon="6.9797">
        <ele>346</ele>
        <time>2012-12-02T14:58:44Z</time>
      </trkpt>
      <trkpt lat="43.69236" lon="6.97986">
        <ele>348</ele>
        <time>2012-12-02T14:58:49Z</time>
      </trkpt>
      <trkpt lat="43.69225" lon="6.98001">
        <ele>349</ele>
        <time>2012-12-02T14:58:54Z</time>
      </trkpt>
      <trkpt lat="43.69213" lon="6.98013">
        <ele>350</ele>
        <time>2012-12-02T14:58:59Z</time>
      </trkpt>
      <trkpt lat="43.69198" lon="6.98021">
        <ele>350</ele>
        <time>2012-12-02T14:59:04Z</time>
      </trkpt>
      <trkpt lat="43.69183" lon="6.98022">
        <ele>350</ele>
        <time>2012-12-02T14:59:09Z</time>
      </trkpt>
      <trkpt lat="43.69168" lon="6.98018">
        <ele>350</ele>
        <time>2012-12-02T14:59:14Z</time>
      </trkpt>
      <trkpt lat="43.69154" lon="6.98012">
        <ele>350</ele>
        <time>2012-12-02T14:59:19Z</time>
      </trkpt>
      <trkpt lat="43.6914" lon="6.98005">
        <ele>351</ele>
        <time>2012-12-02T14:59:24Z</time>
      </trkpt>
      <trkpt lat="43.69126" lon="6.98">
        <ele>351</ele>
        <time>2012-12-02T14:59:29Z</time>
      </trkpt>
      <trkpt lat="43.69111" lon="6.97994">
        <ele>353</ele>
        <time>2012-12-02T14:59:34Z</time>
      </trkpt>
      <trkpt lat="43.69095" lon="6.97987">
        <ele>354</ele>
        <time>2012-12-02T14:59:39Z</time>
      </trkpt>
      <trkpt lat="43.6908" lon="6.9798">
        <ele>355</ele>
        <time>2012-12-02T14:59:44Z</time>
      </trkpt>
      <trkpt lat="43.69066" lon="6.97974">
        <ele>356</ele>
        <time>2012-12-02T14:59:49Z</time>
      </trkpt>
      <trkpt lat="43.69052" lon="6.97968">
        <ele>356</ele>
        <time>2012-12-02T14:59:54Z</time>
      </trkpt>
      <trkpt lat="43.69038" lon="6.97963">
        <ele>356</ele>
        <time>2012-12-02T14:59:59Z</time>
      </trkpt>
      <trkpt lat="43.69023" lon="6.9796">
        <ele>357</ele>
        <time>2012-12-02T15:00:04Z</time>
      </trkpt>
      <trkpt lat="43.69007" lon="6.97958">
        <ele>357</ele>
        <time>2012-12-02T15:00:09Z</time>
      </trkpt>
      <trkpt lat="43.68993" lon="6.97956">
        <ele>357</ele>
        <time>2012-12-02T15:00:14Z</time>
      </trkpt>
      <trkpt lat="43.68978" lon="6.97956">
        <ele>357</ele>
        <time>2012-12-02T15:00:19Z</time>
      </trkpt>
      <trkpt lat="43.68962" lon="6.97956">
        <ele>357</ele>
        <time>2012-12-02T15:00:24Z</time>
      </trkpt>
      <trkpt lat="43.68947" lon="6.97956">
        <ele>358</ele>
        <time>2012-12-02T15:00:29Z</time>
      </trkpt>
      <trkpt lat="43.68933" lon="6.97955">
        <ele>359</ele>
        <time>2012-12-02T15:00:34Z</time>
      </trkpt>
      <trkpt lat="43.6892" lon="6.97951">
        <ele>359</ele>
        <time>2012-12-02T15:00:39Z</time>
      </trkpt>
      <trkpt lat="43.68906" lon="6.97944">
        <ele>359</ele>
        <time>2012-12-02T15:00:44Z</time>
      </trkpt>
      <trkpt lat="43.68893" lon="6.97935">
        <ele>359</ele>
        <time>2012-12-02T15:00:49Z</time>
      </trkpt>
      <trkpt lat="43.6888" lon="6.97926">
        <ele>360</ele>
        <time>2012-12-02T15:00:54Z</time>
      </trkpt>
      <trkpt lat="43.68868" lon="6.97917">
        <ele>362</ele>
        <time>2012-12-02T15:00:59Z</time>
      </trkpt>
      <trkpt lat="43.68855" lon="6.9791">
        <ele>363</ele>
        <time>2012-12-02T15:01:04Z</time>
      </trkpt>
      <trkpt lat="43.68842" lon="6.97901">
        <ele>364</ele>
        <time>2012-12-02T15:01:09Z</time>
      </trkpt>
      <trkpt lat="43.68827" lon="6.97893">
        <ele>365</ele>
        <time>2012-12-02T15:01:14Z</time>
      </trkpt>
      <trkpt lat="43.68811" lon="6.97888">
        <ele>365</ele>
        <time>2012-12-02T15:01:19Z</time>
      </trkpt>
      <trkpt lat="43.68797" lon="6.97885">
        <ele>366</ele>
        <time>2012-12-02T15:01:24Z</time>
      </trkpt>
      <trkpt lat="43.68781" lon="6.97887">
        <ele>366</ele>
        <time>2012-12-02T15:01:29Z</time>
      </trkpt>
      <trkpt lat="43.68766" lon="6.97888">
        <ele>366</ele>
        <time>2012-12-02T15:01:34Z</time>
      </trkpt>
      <trkpt lat="43.6875" lon="6.9789">
        <ele>366</ele>
        <time>2012-12-02T15:01:39Z</time>
      </trkpt>
      <trkpt lat="43.68735" lon="6.97893">
        <ele>366</ele>
        <time>2012-12-02T15:01:44Z</time>
      </trkpt>
      <trkpt lat="43.68721" lon="6.97896">
        <ele>366</ele>
        <time>2012-12-02T15:01:49Z</time>
      </trkpt>
      <trkpt lat="43.68707" lon="6.97895">
        <ele>366</ele>
        <time>2012-12-02T15:01:54Z</time>
      </trkpt>
      <trkpt lat="43.68693" lon="6.97891">
        <ele>366</ele>
        <time>2012-12-02T15:01:59Z</time>
      </trkpt>
      <trkpt lat="43.68681" lon="6.97884">
        <ele>366</ele>
        <time>2012-12-02T15:02:04Z</time>
      </trkpt>
      <trkpt lat="43.68667" lon="6.97876">
        <ele>366</ele>
        <time>2012-12-02T15:02:09Z</time>
      </trkpt>
      <trkpt lat="43.68653" lon="6.97869">
        <ele>366</ele>
        <time>2012-12-02T15:02:14Z</time>
      </trkpt>
      <trkpt lat="43.6864" lon="6.97861">
        <ele>366</ele>
        <time>2012-12-02T15:02:19Z</time>
      </trkpt>
      <trkpt lat="43.68627" lon="6.97854">
        <ele>366</ele>
        <time>2012-12-02T15:02:24Z</time>
      </trkpt>
      <trkpt lat="43.68615" lon="6.97846">
        <ele>366</ele>
        <time>2012-12-02T15:02:29Z</time>
      </trkpt>
      <trkpt lat="43.68603" lon="6.97834">
        <ele>366</ele>
        <time>2012-12-02T15:02:34Z</time>
      </trkpt>
      <trkpt lat="43.68591" lon="6.97819">
        <ele>366</ele>
        <time>2012-12-02T15:02:39Z</time>
      </trkpt>
      <trkpt lat="43.68582" lon="6.97803">
        <ele>366</ele>
        <time>2012-12-02T15:02:44Z</time>
      </trkpt>
      <trkpt lat="43.68571" lon="6.97789">
        <ele>367</ele>
        <time>2012-12-02T15:02:49Z</time>
      </trkpt>
      <trkpt lat="43.68559" lon="6.97773">
        <ele>370</ele>
        <time>2012-12-02T15:02:54Z</time>
      </trkpt>
      <trkpt lat="43.68549" lon="6.97759">
        <ele>372</ele>
        <time>2012-12-02T15:02:59Z</time>
      </trkpt>
      <trkpt lat="43.68538" lon="6.97746">
        <ele>373</ele>
        <time>2012-12-02T15:03:04Z</time>
      </trkpt>
      <trkpt lat="43.68524" lon="6.97737">
        <ele>373</ele>
        <time>2012-12-02T15:03:09Z</time>
      </trkpt>
      <trkpt lat="43.6851" lon="6.97729">
        <ele>373</ele>
        <time>2012-12-02T15:03:14Z</time>
      </trkpt>
      <trkpt lat="43.68497" lon="6.97719">
        <ele>373</ele>
        <time>2012-12-02T15:03:19Z</time>
      </trkpt>
      <trkpt lat="43.68486" lon="6.97707">
        <ele>373</ele>
        <time>2012-12-02T15:03:24Z</time>
      </trkpt>
      <trkpt lat="43.68476" lon="6.97694">
        <ele>373</ele>
        <time>2012-12-02T15:03:29Z</time>
      </trkpt>
      <trkpt lat="43.68467" lon="6.97682">
        <ele>373</ele>
        <time>2012-12-02T15:03:34Z</time>
      </trkpt>
      <trkpt lat="43.68456" lon="6.97671">
        <ele>373</ele>
        <time>2012-12-02T15:03:39Z</time>
      </trkpt>
      <trkpt lat="43.68443" lon="6.97656">
        <ele>373</ele>
        <time>2012-12-02T15:03:44Z</time>
      </trkpt>
      <trkpt lat="43.68432" lon="6.97642">
        <ele>373</ele>
        <time>2012-12-02T15:03:49Z</time>
      </trkpt>
      <trkpt lat="43.6842" lon="6.97629">
        <ele>373</ele>
        <time>2012-12-02T15:03:54Z</time>
      </trkpt>
      <trkpt lat="43.68409" lon="6.97616">
        <ele>373</ele>
        <time>2012-12-02T15:03:59Z</time>
      </trkpt>
      <trkpt lat="43.68397" lon="6.97607">
        <ele>373</ele>
        <time>2012-12-02T15:04:04Z</time>
      </trkpt>
      <trkpt lat="43.68383" lon="6.97599">
        <ele>372</ele>
        <time>2012-12-02T15:04:09Z</time>
      </trkpt>
      <trkpt lat="43.68369" lon="6.97591">
        <ele>372</ele>
        <time>2012-12-02T15:04:14Z</time>
      </trkpt>
      <trkpt lat="43.68353" lon="6.9758">
        <ele>372</ele>
        <time>2012-12-02T15:04:19Z</time>
      </trkpt>
      <trkpt lat="43.68341" lon="6.97567">
        <ele>377</ele>
        <time>2012-12-02T15:04:24Z</time>
      </trkpt>
      <trkpt lat="43.6833" lon="6.97553">
        <ele>379</ele>
        <time>2012-12-02T15:04:29Z</time>
      </trkpt>
      <trkpt lat="43.68321" lon="6.9754">
        <ele>379</ele>
        <time>2012-12-02T15:04:34Z</time>
      </trkpt>
      <trkpt lat="43.6831" lon="6.97526">
        <ele>379</ele>
        <time>2012-12-02T15:04:39Z</time>
      </trkpt>
      <trkpt lat="43.683" lon="6.97511">
        <ele>380</ele>
        <time>2012-12-02T15:04:44Z</time>
      </trkpt>
      <trkpt lat="43.68292" lon="6.97494">
        <ele>380</ele>
        <time>2012-12-02T15:04:49Z</time>
      </trkpt>
      <trkpt lat="43.68285" lon="6.97475">
        <ele>380</ele>
        <time>2012-12-02T15:04:54Z</time>
      </trkpt>
      <trkpt lat="43.68281" lon="6.97454">
        <ele>380</ele>
        <time>2012-12-02T15:04:59Z</time>
      </trkpt>
      <trkpt lat="43.68277" lon="6.97435">
        <ele>381</ele>
        <time>2012-12-02T15:05:04Z</time>
      </trkpt>
      <trkpt lat="43.68271" lon="6.97414">
        <ele>383</ele>
        <time>2012-12-02T15:05:09Z</time>
      </trkpt>
      <trkpt lat="43.68264" lon="6.97395">
        <ele>385</ele>
        <time>2012-12-02T15:05:14Z</time>
      </trkpt>
      <trkpt lat="43.68254" lon="6.97379">
        <ele>386</ele>
        <time>2012-12-02T15:05:19Z</time>
      </trkpt>
      <trkpt lat="43.68244" lon="6.97363">
        <ele>387</ele>
        <time>2012-12-02T15:05:24Z</time>
      </trkpt>
      <trkpt lat="43.68232" lon="6.97344">
        <ele>392</ele>
        <time>2012-12-02T15:05:29Z</time>
      </trkpt>
      <trkpt lat="43.68226" lon="6.97326">
        <ele>394</ele>
        <time>2012-12-02T15:05:34Z</time>
      </trkpt>
      <trkpt lat="43.68221" lon="6.97309">
        <ele>395</ele>
        <time>2012-12-02T15:05:39Z</time>
      </trkpt>
      <trkpt lat="43.68214" lon="6.97291">
        <ele>396</ele>
        <time>2012-12-02T15:05:44Z</time>
      </trkpt>
      <trkpt lat="43.68208" lon="6.97272">
        <ele>397</ele>
        <time>2012-12-02T15:05:49Z</time>
      </trkpt>
      <trkpt lat="43.68201" lon="6.97253">
        <ele>397</ele>
        <time>2012-12-02T15:05:54Z</time>
      </trkpt>
      <trkpt lat="43.68194" lon="6.97234">
        <ele>399</ele>
        <time>2012-12-02T15:05:59Z</time>
      </trkpt>
      <trkpt lat="43.68187" lon="6.97215">
        <ele>402</ele>
        <time>2012-12-02T15:06:04Z</time>
      </trkpt>
      <trkpt lat="43.68182" lon="6.97197">
        <ele>404</ele>
        <time>2012-12-02T15:06:09Z</time>
      </trkpt>
      <trkpt lat="43.68173" lon="6.97182">
        <ele>405</ele>
        <time>2012-12-02T15:06:14Z</time>
      </trkpt>
      <trkpt lat="43.68157" lon="6.97176">
        <ele>406</ele>
        <time>2012-12-02T15:06:19Z</time>
      </trkpt>
      <trkpt lat="43.68142" lon="6.97177">
        <ele>406</ele>
        <time>2012-12-02T15:06:24Z</time>
      </trkpt>
      <trkpt lat="43.68128" lon="6.97184">
        <ele>406</ele>
        <time>2012-12-02T15:06:29Z</time>
      </trkpt>
      <trkpt lat="43.68114" lon="6.97194">
        <ele>406</ele>
        <time>2012-12-02T15:06:34Z</time>
      </trkpt>
      <trkpt lat="43.68102" lon="6.97199">
        <ele>406</ele>
        <time>2012-12-02T15:06:39Z</time>
      </trkpt>
      <trkpt lat="43.6809" lon="6.97201">
        <ele>407</ele>
        <time>2012-12-02T15:06:44Z</time>
      </trkpt>
      <trkpt lat="43.68081" lon="6.97206">
        <ele>407</ele>
        <time>2012-12-02T15:06:49Z</time>
      </trkpt>
      <trkpt lat="43.68073" lon="6.97218">
        <ele>407</ele>
        <time>2012-12-02T15:06:54Z</time>
      </trkpt>
      <trkpt lat="43.68071" lon="6.97239">
        <ele>407</ele>
        <time>2012-12-02T15:06:59Z</time>
      </trkpt>
      <trkpt lat="43.68067" lon="6.97257">
        <ele>407</ele>
        <time>2012-12-02T15:07:04Z</time>
      </trkpt>
      <trkpt lat="43.68068" lon="6.9726">
        <ele>407</ele>
        <time>2012-12-02T15:07:11Z</time>
      </trkpt>
      <trkpt lat="43.68069" lon="6.97261">
        <ele>407</ele>
        <time>2012-12-02T15:07:29Z</time>
      </trkpt>
      <trkpt lat="43.68068" lon="6.97261">
        <ele>409</ele>
        <time>2012-12-02T15:07:45Z</time>
      </trkpt>
      <trkpt lat="43.68068" lon="6.97259">
        <ele>409</ele>
        <time>2012-12-02T15:07:54Z</time>
      </trkpt>
      <trkpt lat="43.68068" lon="6.97257">
        <ele>409</ele>
        <time>2012-12-02T15:08:25Z</time>
      </trkpt>
      <trkpt lat="43.68068" lon="6.97259">
        <ele>409</ele>
        <time>2012-12-02T15:08:51Z</time>
      </trkpt>
      <trkpt lat="43.68069" lon="6.9726">
        <ele>409</ele>
        <time>2012-12-02T15:08:56Z</time>
      </trkpt>
      <trkpt lat="43.68072" lon="6.97259">
        <ele>409</ele>
        <time>2012-12-02T15:09:01Z</time>
      </trkpt>
      <trkpt lat="43.68075" lon="6.97255">
        <ele>409</ele>
        <time>2012-12-02T15:09:07Z</time>
      </trkpt>
      <trkpt lat="43.68076" lon="6.97248">
        <ele>409</ele>
        <time>2012-12-02T15:09:13Z</time>
      </trkpt>
      <trkpt lat="43.68076" lon="6.97241">
        <ele>409</ele>
        <time>2012-12-02T15:09:19Z</time>
      </trkpt>
      <trkpt lat="43.68076" lon="6.97235">
        <ele>409</ele>
        <time>2012-12-02T15:09:25Z</time>
      </trkpt>
      <trkpt lat="43.68077" lon="6.97229">
        <ele>409</ele>
        <time>2012-12-02T15:09:31Z</time>
      </trkpt>
      <trkpt lat="43.68077" lon="6.97224">
        <ele>409</ele>
        <time>2012-12-02T15:09:38Z</time>
      </trkpt>
      <trkpt lat="43.68076" lon="6.97226">
        <ele>409</ele>
        <time>2012-12-02T15:09:47Z</time>
      </trkpt>
      <trkpt lat="43.68076" lon="6.97223">
        <ele>409</ele>
        <time>2012-12-02T15:09:58Z</time>
      </trkpt>
      <trkpt lat="43.68076" lon="6.9722">
        <ele>409</ele>
        <time>2012-12-02T15:10:03Z</time>
      </trkpt>
      <trkpt lat="43.68076" lon="6.97214">
        <ele>409</ele>
        <time>2012-12-02T15:10:09Z</time>
      </trkpt>
      <trkpt lat="43.68077" lon="6.97211">
        <ele>409</ele>
        <time>2012-12-02T15:10:21Z</time>
      </trkpt>
      <trkpt lat="43.68075" lon="6.97213">
        <ele>409</ele>
        <time>2012-12-02T15:10:48Z</time>
      </trkpt>
      <trkpt lat="43.68074" lon="6.97214">
        <ele>410</ele>
        <time>2012-12-02T15:10:55Z</time>
      </trkpt>
      <trkpt lat="43.68073" lon="6.97216">
        <ele>412</ele>
        <time>2012-12-02T15:11:57Z</time>
      </trkpt>
      <trkpt lat="43.68075" lon="6.97216">
        <ele>412</ele>
        <time>2012-12-02T15:12:07Z</time>
      </trkpt>
      <trkpt lat="43.6808" lon="6.97219">
        <ele>412</ele>
        <time>2012-12-02T15:12:13Z</time>
      </trkpt>
      <trkpt lat="43.68081" lon="6.97219">
        <ele>412</ele>
        <time>2012-12-02T15:12:23Z</time>
      </trkpt>
      <trkpt lat="43.68076" lon="6.97219">
        <ele>411</ele>
        <time>2012-12-02T15:12:29Z</time>
      </trkpt>
      <trkpt lat="43.68072" lon="6.97217">
        <ele>411</ele>
        <time>2012-12-02T15:12:35Z</time>
      </trkpt>
      <trkpt lat="43.68074" lon="6.97216">
        <ele>411</ele>
        <time>2012-12-02T15:12:50Z</time>
      </trkpt>
      <trkpt lat="43.68075" lon="6.97216">
        <ele>411</ele>
        <time>2012-12-02T15:13:00Z</time>
      </trkpt>
      <trkpt lat="43.68074" lon="6.97217">
        <ele>411</ele>
        <time>2012-12-02T15:13:22Z</time>
      </trkpt>
      <trkpt lat="43.68072" lon="6.97218">
        <ele>411</ele>
        <time>2012-12-02T15:13:28Z</time>
      </trkpt>
      <trkpt lat="43.68071" lon="6.97219">
        <ele>411</ele>
        <time>2012-12-02T15:13:45Z</time>
      </trkpt>
      <trkpt lat="43.68071" lon="6.9722">
        <ele>411</ele>
        <time>2012-12-02T15:14:23Z</time>
      </trkpt>
      <trkpt lat="43.68072" lon="6.97221">
        <ele>411</ele>
        <time>2012-12-02T15:14:41Z</time>
      </trkpt>
      <trkpt lat="43.68073" lon="6.9722">
        <ele>411</ele>
        <time>2012-12-02T15:14:50Z</time>
      </trkpt>
      <trkpt lat="43.68072" lon="6.97219">
        <ele>411</ele>
        <time>2012-12-02T15:15:07Z</time>
      </trkpt>
      <trkpt lat="43.68073" lon="6.9722">
        <ele>411</ele>
        <time>2012-12-02T15:15:18Z</time>
      </trkpt>
      <trkpt lat="43.68074" lon="6.97221">
        <ele>411</ele>
        <time>2012-12-02T15:15:24Z</time>
      </trkpt>
      <trkpt lat="43.68072" lon="6.97219">
        <ele>411</ele>
        <time>2012-12-02T15:16:02Z</time>
      </trkpt>
      <trkpt lat="43.68073" lon="6.9722">
        <ele>411</ele>
        <time>2012-12-02T15:16:17Z</time>
      </trkpt>
      <trkpt lat="43.68078" lon="6.97221">
        <ele>411</ele>
        <time>2012-12-02T15:16:23Z</time>
      </trkpt>
      <trkpt lat="43.68082" lon="6.97221">
        <ele>411</ele>
        <time>2012-12-02T15:16:29Z</time>
      </trkpt>
      <trkpt lat="43.68087" lon="6.9722">
        <ele>411</ele>
        <time>2012-12-02T15:16:35Z</time>
      </trkpt>
      <trkpt lat="43.68091" lon="6.97218">
        <ele>411</ele>
        <time>2012-12-02T15:16:41Z</time>
      </trkpt>
      <trkpt lat="43.68093" lon="6.97216">
        <ele>411</ele>
        <time>2012-12-02T15:16:46Z</time>
      </trkpt>
      <trkpt lat="43.68094" lon="6.97215">
        <ele>409</ele>
        <time>2012-12-02T15:17:01Z</time>
      </trkpt>
      <trkpt lat="43.68098" lon="6.97214">
        <ele>404</ele>
        <time>2012-12-02T15:17:08Z</time>
      </trkpt>
      <trkpt lat="43.68098" lon="6.97212">
        <ele>402</ele>
        <time>2012-12-02T15:17:16Z</time>
      </trkpt>
      <trkpt lat="43.68095" lon="6.97213">
        <ele>402</ele>
        <time>2012-12-02T15:17:24Z</time>
      </trkpt>
      <trkpt lat="43.68093" lon="6.97212">
        <ele>402</ele>
        <time>2012-12-02T15:17:29Z</time>
      </trkpt>
      <trkpt lat="43.68095" lon="6.97209">
        <ele>402</ele>
        <time>2012-12-02T15:17:37Z</time>
      </trkpt>
      <trkpt lat="43.68093" lon="6.9721">
        <ele>402</ele>
        <time>2012-12-02T15:17:51Z</time>
      </trkpt>
      <trkpt lat="43.68092" lon="6.9721">
        <ele>405</ele>
        <time>2012-12-02T15:18:14Z</time>
      </trkpt>
      <trkpt lat="43.68092" lon="6.97212">
        <ele>406</ele>
        <time>2012-12-02T15:18:23Z</time>
      </trkpt>
      <trkpt lat="43.68091" lon="6.97213">
        <ele>407</ele>
        <time>2012-12-02T15:18:28Z</time>
      </trkpt>
      <trkpt lat="43.6809" lon="6.97212">
        <ele>412</ele>
        <time>2012-12-02T15:19:06Z</time>
      </trkpt>
      <trkpt lat="43.6809" lon="6.97213">
        <ele>414</ele>
        <time>2012-12-02T15:20:08Z</time>
      </trkpt>
      <trkpt lat="43.68089" lon="6.97214">
        <ele>416</ele>
        <time>2012-12-02T15:20:22Z</time>
      </trkpt>
      <trkpt lat="43.6809" lon="6.97214">
        <ele>416</ele>
        <time>2012-12-02T15:20:54Z</time>
      </trkpt>
      <trkpt lat="43.68091" lon="6.97213">
        <ele>416</ele>
        <time>2012-12-02T15:21:18Z</time>
      </trkpt>
      <trkpt lat="43.68092" lon="6.97212">
        <ele>416</ele>
        <time>2012-12-02T15:21:27Z</time>
      </trkpt>
      <trkpt lat="43.68093" lon="6.97219">
        <ele>415</ele>
        <time>2012-12-02T15:21:34Z</time>
      </trkpt>
      <trkpt lat="43.68093" lon="6.9722">
        <ele>414</ele>
        <time>2012-12-02T15:21:52Z</time>
      </trkpt>
      <trkpt lat="43.68094" lon="6.97222">
        <ele>414</ele>
        <time>2012-12-02T15:22:03Z</time>
      </trkpt>
      <trkpt lat="43.68094" lon="6.97223">
        <ele>414</ele>
        <time>2012-12-02T15:22:27Z</time>
      </trkpt>
      <trkpt lat="43.68095" lon="6.97224">
        <ele>413</ele>
        <time>2012-12-02T15:23:39Z</time>
      </trkpt>
      <trkpt lat="43.68095" lon="6.97226">
        <ele>413</ele>
        <time>2012-12-02T15:23:57Z</time>
      </trkpt>
      <trkpt lat="43.68094" lon="6.97224">
        <ele>413</ele>
        <time>2012-12-02T15:24:03Z</time>
      </trkpt>
      <trkpt lat="43.68093" lon="6.97223">
        <ele>413</ele>
        <time>2012-12-02T15:24:09Z</time>
      </trkpt>
      <trkpt lat="43.68092" lon="6.97223">
        <ele>413</ele>
        <time>2012-12-02T15:24:14Z</time>
      </trkpt>
      <trkpt lat="43.68092" lon="6.97221">
        <ele>413</ele>
        <time>2012-12-02T15:24:25Z</time>
      </trkpt>
      <trkpt lat="43.68089" lon="6.97223">
        <ele>413</ele>
        <time>2012-12-02T15:24:33Z</time>
      </trkpt>
      <trkpt lat="43.68089" lon="6.9722">
        <ele>413</ele>
        <time>2012-12-02T15:24:40Z</time>
      </trkpt>
      <trkpt lat="43.68091" lon="6.97221">
        <ele>413</ele>
        <time>2012-12-02T15:24:46Z</time>
      </trkpt>
      <trkpt lat="43.6809" lon="6.97219">
        <ele>413</ele>
        <time>2012-12-02T15:24:53Z</time>
      </trkpt>
      <trkpt lat="43.68087" lon="6.97221">
        <ele>413</ele>
        <time>2012-12-02T15:25:00Z</time>
      </trkpt>
      <trkpt lat="43.68087" lon="6.97218">
        <ele>414</ele>
        <time>2012-12-02T15:25:09Z</time>
      </trkpt>
      <trkpt lat="43.68086" lon="6.97219">
        <ele>415</ele>
        <time>2012-12-02T15:25:17Z</time>
      </trkpt>
      <trkpt lat="43.68086" lon="6.97222">
        <ele>417</ele>
        <time>2012-12-02T15:25:27Z</time>
      </trkpt>
      <trkpt lat="43.68087" lon="6.97223">
        <ele>417</ele>
        <time>2012-12-02T15:25:45Z</time>
      </trkpt>
      <trkpt lat="43.68089" lon="6.97223">
        <ele>417</ele>
        <time>2012-12-02T15:25:58Z</time>
      </trkpt>
      <trkpt lat="43.6809" lon="6.97224">
        <ele>417</ele>
        <time>2012-12-02T15:26:05Z</time>
      </trkpt>
      <trkpt lat="43.68092" lon="6.97227">
        <ele>417</ele>
        <time>2012-12-02T15:26:11Z</time>
      </trkpt>
      <trkpt lat="43.68091" lon="6.97227">
        <ele>417</ele>
        <time>2012-12-02T15:26:19Z</time>
      </trkpt>
      <trkpt lat="43.68091" lon="6.9723">
        <ele>422</ele>
        <time>2012-12-02T15:26:30Z</time>
      </trkpt>
      <trkpt lat="43.68092" lon="6.97226">
        <ele>423</ele>
        <time>2012-12-02T15:26:36Z</time>
      </trkpt>
      <trkpt lat="43.68095" lon="6.97225">
        <ele>419</ele>
        <time>2012-12-02T15:26:41Z</time>
      </trkpt>
      <trkpt lat="43.68093" lon="6.97225">
        <ele>418</ele>
        <time>2012-12-02T15:26:49Z</time>
      </trkpt>
      <trkpt lat="43.6809" lon="6.97226">
        <ele>418</ele>
        <time>2012-12-02T15:26:54Z</time>
      </trkpt>
      <trkpt lat="43.68089" lon="6.97224">
        <ele>418</ele>
        <time>2012-12-02T15:27:00Z</time>
      </trkpt>
      <trkpt lat="43.6809" lon="6.97223">
        <ele>418</ele>
        <time>2012-12-02T15:27:15Z</time>
      </trkpt>
      <trkpt lat="43.6809" lon="6.97223">
        <ele>418</ele>
        <time>2012-12-02T15:27:35Z</time>
      </trkpt>
      <trkpt lat="43.68089" lon="6.97228">
        <ele>419</ele>
        <time>2012-12-02T15:27:40Z</time>
      </trkpt>
      <trkpt lat="43.68084" lon="6.97221">
        <ele>423</ele>
        <time>2012-12-02T15:27:50Z</time>
      </trkpt>
      <trkpt lat="43.68089" lon="6.97221">
        <ele>423</ele>
        <time>2012-12-02T15:27:59Z</time>
      </trkpt>
      <trkpt lat="43.6809" lon="6.97221">
        <ele>423</ele>
        <time>2012-12-02T15:28:08Z</time>
      </trkpt>
      <trkpt lat="43.6809" lon="6.9722">
        <ele>423</ele>
        <time>2012-12-02T15:29:01Z</time>
      </trkpt>
      <trkpt lat="43.68089" lon="6.97219">
        <ele>420</ele>
        <time>2012-12-02T15:29:31Z</time>
      </trkpt>
      <trkpt lat="43.68089" lon="6.97221">
        <ele>420</ele>
        <time>2012-12-02T15:29:37Z</time>
      </trkpt>
      <trkpt lat="43.68089" lon="6.97219">
        <ele>420</ele>
        <time>2012-12-02T15:29:58Z</time>
      </trkpt>
      <trkpt lat="43.6809" lon="6.97221">
        <ele>420</ele>
        <time>2012-12-02T15:30:08Z</time>
      </trkpt>
      <trkpt lat="43.68091" lon="6.97222">
        <ele>420</ele>
        <time>2012-12-02T15:30:15Z</time>
      </trkpt>
      <trkpt lat="43.6809" lon="6.97224">
        <ele>420</ele>
        <time>2012-12-02T15:30:21Z</time>
      </trkpt>
      <trkpt lat="43.68088" lon="6.97227">
        <ele>422</ele>
        <time>2012-12-02T15:30:27Z</time>
      </trkpt>
      <trkpt lat="43.68089" lon="6.97226">
        <ele>426</ele>
        <time>2012-12-02T15:30:43Z</time>
      </trkpt>
      <trkpt lat="43.6809" lon="6.97226">
        <ele>426</ele>
        <time>2012-12-02T15:30:49Z</time>
      </trkpt>
      <trkpt lat="43.68093" lon="6.97224">
        <ele>425</ele>
        <time>2012-12-02T15:31:02Z</time>
      </trkpt>
      <trkpt lat="43.68094" lon="6.97223">
        <ele>423</ele>
        <time>2012-12-02T15:31:08Z</time>
      </trkpt>
      <trkpt lat="43.68095" lon="6.97221">
        <ele>421</ele>
        <time>2012-12-02T15:31:18Z</time>
      </trkpt>
      <trkpt lat="43.68096" lon="6.97223">
        <ele>417</ele>
        <time>2012-12-02T15:32:09Z</time>
      </trkpt>
      <trkpt lat="43.68095" lon="6.97223">
        <ele>416</ele>
        <time>2012-12-02T15:32:33Z</time>
      </trkpt>
      <trkpt lat="43.68096" lon="6.97222">
        <ele>416</ele>
        <time>2012-12-02T15:33:04Z</time>
      </trkpt>
      <trkpt lat="43.68096" lon="6.97223">
        <ele>416</ele>
        <time>2012-12-02T15:33:06Z</time>
      </trkpt>
    </trkseg>
  </trk>
</gpx>